﻿<?xml version="1.0" encoding="utf-8"?><gpx creator="Garmin Desktop App" version="1.1" xsi:schemaLocation="http://www.topografix.com/GPX/1/1 http://www.topografix.com/GPX/1/1/gpx.xsd http://www.garmin.com/xmlschemas/WaypointExtension/v1 http://www8.garmin.com/xmlschemas/WaypointExtensionv1.xsd http://www.garmin.com/xmlschemas/TrackPointExtension/v1 http://www.garmin.com/xmlschemas/TrackPointExtensionv1.xsd http://www.garmin.com/xmlschemas/GpxExtensions/v3 http://www8.garmin.com/xmlschemas/GpxExtensionsv3.xsd http://www.garmin.com/xmlschemas/ActivityExtension/v1 http://www8.garmin.com/xmlschemas/ActivityExtensionv1.xsd http://www.garmin.com/xmlschemas/AdventuresExtensions/v1 http://www8.garmin.com/xmlschemas/AdventuresExtensionv1.xsd http://www.garmin.com/xmlschemas/PressureExtension/v1 http://www.garmin.com/xmlschemas/PressureExtensionv1.xsd http://www.garmin.com/xmlschemas/TripExtensions/v1 http://www.garmin.com/xmlschemas/TripExtensionsv1.xsd http://www.garmin.com/xmlschemas/TripMetaDataExtensions/v1 http://www.garmin.com/xmlschemas/TripMetaDataExtensionsv1.xsd http://www.garmin.com/xmlschemas/ViaPointTransportationModeExtensions/v1 http://www.garmin.com/xmlschemas/ViaPointTransportationModeExtensionsv1.xsd http://www.garmin.com/xmlschemas/CreationTimeExtension/v1 http://www.garmin.com/xmlschemas/CreationTimeExtensionsv1.xsd http://www.garmin.com/xmlschemas/AccelerationExtension/v1 http://www.garmin.com/xmlschemas/AccelerationExtensionv1.xsd http://www.garmin.com/xmlschemas/PowerExtension/v1 http://www.garmin.com/xmlschemas/PowerExtensionv1.xsd http://www.garmin.com/xmlschemas/VideoExtension/v1 http://www.garmin.com/xmlschemas/VideoExtensionv1.xsd" xmlns="http://www.topografix.com/GPX/1/1" xmlns:xsi="http://www.w3.org/2001/XMLSchema-instance" xmlns:wptx1="http://www.garmin.com/xmlschemas/WaypointExtension/v1" xmlns:gpxtrx="http://www.garmin.com/xmlschemas/GpxExtensions/v3" xmlns:gpxtpx="http://www.garmin.com/xmlschemas/TrackPointExtension/v1" xmlns:gpxx="http://www.garmin.com/xmlschemas/GpxExtensions/v3" xmlns:trp="http://www.garmin.com/xmlschemas/TripExtensions/v1" xmlns:adv="http://www.garmin.com/xmlschemas/AdventuresExtensions/v1" xmlns:prs="http://www.garmin.com/xmlschemas/PressureExtension/v1" xmlns:tmd="http://www.garmin.com/xmlschemas/TripMetaDataExtensions/v1" xmlns:vptm="http://www.garmin.com/xmlschemas/ViaPointTransportationModeExtensions/v1" xmlns:ctx="http://www.garmin.com/xmlschemas/CreationTimeExtension/v1" xmlns:gpxacc="http://www.garmin.com/xmlschemas/AccelerationExtension/v1" xmlns:gpxpx="http://www.garmin.com/xmlschemas/PowerExtension/v1" xmlns:vidx1="http://www.garmin.com/xmlschemas/VideoExtension/v1">

  <metadata>
    <link href="http://www.garmin.com">
      <text>Garmin International</text>
    </link>
    <time>2021-01-09T14:43:24Z</time>
    <bounds maxlat="45.911327870562673" maxlon="7.869219202548266" minlat="45.876982184126973" minlon="7.84786781296134" />
  </metadata>

  <trk>
    <name>passo-salati-rif-mantova2014-07-05</name>
    <extensions>
      <gpxx:TrackExtension>
        <gpxx:DisplayColor>Yellow</gpxx:DisplayColor>
      </gpxx:TrackExtension>
      <gpxtrkx:TrackStatsExtension xmlns:gpxtrkx="http://www.garmin.com/xmlschemas/TrackStatsExtension/v1">
        <gpxtrkx:Distance>5521</gpxtrkx:Distance>
        <gpxtrkx:TotalElapsedTime>12802</gpxtrkx:TotalElapsedTime>
        <gpxtrkx:MovingTime>8078</gpxtrkx:MovingTime>
        <gpxtrkx:StoppedTime>4719</gpxtrkx:StoppedTime>
        <gpxtrkx:MovingSpeed>1</gpxtrkx:MovingSpeed>
        <gpxtrkx:MaxSpeed>3</gpxtrkx:MaxSpeed>
        <gpxtrkx:MaxElevation>3455</gpxtrkx:MaxElevation>
        <gpxtrkx:MinElevation>2938</gpxtrkx:MinElevation>
        <gpxtrkx:Ascent>599</gpxtrkx:Ascent>
        <gpxtrkx:Descent>117</gpxtrkx:Descent>
        <gpxtrkx:AvgAscentRate>0</gpxtrkx:AvgAscentRate>
        <gpxtrkx:MaxAscentRate>0</gpxtrkx:MaxAscentRate>
        <gpxtrkx:AvgDescentRate>0</gpxtrkx:AvgDescentRate>
        <gpxtrkx:MaxDescentRate>-1</gpxtrkx:MaxDescentRate>
      </gpxtrkx:TrackStatsExtension>
    </extensions>
    <trkseg>
      <trkpt lat="45.87785717099905" lon="7.869204031303525">
        <ele>2937.9299999999998</ele>
        <time>2014-07-05T09:48:07Z</time>
      </trkpt>
      <trkpt lat="45.877854991704226" lon="7.869204366579652">
        <ele>2937.9299999999998</ele>
        <time>2014-07-05T09:48:08Z</time>
      </trkpt>
      <trkpt lat="45.877864044159651" lon="7.869202438741922">
        <ele>2970.1300000000001</ele>
        <time>2014-07-05T09:48:13Z</time>
      </trkpt>
      <trkpt lat="45.877865133807063" lon="7.869201935827732">
        <ele>2970.1300000000001</ele>
        <time>2014-07-05T09:48:14Z</time>
      </trkpt>
      <trkpt lat="45.877857422456145" lon="7.869219202548266">
        <ele>2970.6100000000001</ele>
        <time>2014-07-05T09:48:38Z</time>
      </trkpt>
      <trkpt lat="45.877851219847798" lon="7.869206462055445">
        <ele>2971.0900000000001</ele>
        <time>2014-07-05T09:48:51Z</time>
      </trkpt>
      <trkpt lat="45.877872342243791" lon="7.869208725169301">
        <ele>2971.0900000000001</ele>
        <time>2014-07-05T09:49:10Z</time>
      </trkpt>
      <trkpt lat="45.877814590930939" lon="7.869190284982324">
        <ele>2971.0900000000001</ele>
        <time>2014-07-05T09:49:20Z</time>
      </trkpt>
      <trkpt lat="45.877779386937618" lon="7.869153656065464">
        <ele>2971.0900000000001</ele>
        <time>2014-07-05T09:49:24Z</time>
      </trkpt>
      <trkpt lat="45.877672517672181" lon="7.869014097377658">
        <ele>2971.0900000000001</ele>
        <time>2014-07-05T09:49:38Z</time>
      </trkpt>
      <trkpt lat="45.877638487145305" lon="7.868967158719897">
        <ele>2970.6100000000001</ele>
        <time>2014-07-05T09:49:43Z</time>
      </trkpt>
      <trkpt lat="45.877622561529279" lon="7.868951233103871">
        <ele>2970.6100000000001</ele>
        <time>2014-07-05T09:49:45Z</time>
      </trkpt>
      <trkpt lat="45.877514518797398" lon="7.868783427402377">
        <ele>2970.1300000000001</ele>
        <time>2014-07-05T09:50:00Z</time>
      </trkpt>
      <trkpt lat="45.877440506592393" lon="7.868662057444453">
        <ele>2970.6100000000001</ele>
        <time>2014-07-05T09:50:09Z</time>
      </trkpt>
      <trkpt lat="45.877406224608421" lon="7.868600198999047">
        <ele>2970.1300000000001</ele>
        <time>2014-07-05T09:50:13Z</time>
      </trkpt>
      <trkpt lat="45.877253590151668" lon="7.868307000026107">
        <ele>2969.1700000000001</ele>
        <time>2014-07-05T09:50:30Z</time>
      </trkpt>
      <trkpt lat="45.877167005091906" lon="7.868077419698238">
        <ele>2968.21</ele>
        <time>2014-07-05T09:50:42Z</time>
      </trkpt>
      <trkpt lat="45.87720388546586" lon="7.868006508797407">
        <ele>2968.21</ele>
        <time>2014-07-05T09:50:53Z</time>
      </trkpt>
      <trkpt lat="45.877268593758345" lon="7.867948086932302">
        <ele>2967.73</ele>
        <time>2014-07-05T09:51:19Z</time>
      </trkpt>
      <trkpt lat="45.877219643443823" lon="7.867913553491235">
        <ele>2968.21</ele>
        <time>2014-07-05T09:53:13Z</time>
      </trkpt>
      <trkpt lat="45.877225510776043" lon="7.868002988398075">
        <ele>2967.73</ele>
        <time>2014-07-05T09:53:14Z</time>
      </trkpt>
      <trkpt lat="45.87721268646419" lon="7.868232484906912">
        <ele>2967.73</ele>
        <time>2014-07-05T09:53:30Z</time>
      </trkpt>
      <trkpt lat="45.877234311774373" lon="7.868266683071852">
        <ele>2967.73</ele>
        <time>2014-07-05T09:53:52Z</time>
      </trkpt>
      <trkpt lat="45.877290051430464" lon="7.868355698883534">
        <ele>2968.6900000000001</ele>
        <time>2014-07-05T09:54:04Z</time>
      </trkpt>
      <trkpt lat="45.877317544072866" lon="7.868319991976023">
        <ele>2969.1700000000001</ele>
        <time>2014-07-05T09:54:11Z</time>
      </trkpt>
      <trkpt lat="45.877278735861182" lon="7.868215721100569">
        <ele>2971.0900000000001</ele>
        <time>2014-07-05T09:54:20Z</time>
      </trkpt>
      <trkpt lat="45.877261217683554" lon="7.868168614804745">
        <ele>2972.0500000000002</ele>
        <time>2014-07-05T09:54:24Z</time>
      </trkpt>
      <trkpt lat="45.877238670364022" lon="7.868116647005081">
        <ele>2972.0500000000002</ele>
        <time>2014-07-05T09:54:29Z</time>
      </trkpt>
      <trkpt lat="45.87722098454833" lon="7.868100889027119">
        <ele>2972.5300000000002</ele>
        <time>2014-07-05T09:54:32Z</time>
      </trkpt>
      <trkpt lat="45.877217464148998" lon="7.868081862106919">
        <ele>2972.5300000000002</ele>
        <time>2014-07-05T09:54:34Z</time>
      </trkpt>
      <trkpt lat="45.87718041613698" lon="7.867983710020781">
        <ele>2972.0500000000002</ele>
        <time>2014-07-05T09:54:45Z</time>
      </trkpt>
      <trkpt lat="45.877101458609104" lon="7.867807438597083">
        <ele>2973.0100000000002</ele>
        <time>2014-07-05T09:54:58Z</time>
      </trkpt>
      <trkpt lat="45.877057872712612" lon="7.867672070860863">
        <ele>2972.5300000000002</ele>
        <time>2014-07-05T09:55:09Z</time>
      </trkpt>
      <trkpt lat="45.877013029530644" lon="7.867511305958033">
        <ele>2973.0100000000002</ele>
        <time>2014-07-05T09:55:22Z</time>
      </trkpt>
      <trkpt lat="45.876982184126973" lon="7.867438131943345">
        <ele>2972.0500000000002</ele>
        <time>2014-07-05T09:55:27Z</time>
      </trkpt>
      <trkpt lat="45.87699182331562" lon="7.867317013442516">
        <ele>2973.98</ele>
        <time>2014-07-05T09:55:40Z</time>
      </trkpt>
      <trkpt lat="45.876994673162699" lon="7.867296729236841">
        <ele>2972.5300000000002</ele>
        <time>2014-07-05T09:55:42Z</time>
      </trkpt>
      <trkpt lat="45.877003306522965" lon="7.867230428382754">
        <ele>2971.5700000000002</ele>
        <time>2014-07-05T09:55:48Z</time>
      </trkpt>
      <trkpt lat="45.87700548581779" lon="7.867195643484592">
        <ele>2973.0100000000002</ele>
        <time>2014-07-05T09:55:51Z</time>
      </trkpt>
      <trkpt lat="45.877019567415118" lon="7.867118865251541">
        <ele>2973.5</ele>
        <time>2014-07-05T09:55:57Z</time>
      </trkpt>
      <trkpt lat="45.877022333443165" lon="7.867089780047536">
        <ele>2973.0100000000002</ele>
        <time>2014-07-05T09:55:59Z</time>
      </trkpt>
      <trkpt lat="45.877037756145" lon="7.867099670693278">
        <ele>2972.0500000000002</ele>
        <time>2014-07-05T09:56:01Z</time>
      </trkpt>
      <trkpt lat="45.877087125554681" lon="7.867035297676921">
        <ele>2974.9400000000001</ele>
        <time>2014-07-05T09:56:14Z</time>
      </trkpt>
      <trkpt lat="45.877092992886901" lon="7.866990622133017">
        <ele>2974.9400000000001</ele>
        <time>2014-07-05T09:56:20Z</time>
      </trkpt>
      <trkpt lat="45.877093076705933" lon="7.866962626576424">
        <ele>2975.9000000000001</ele>
        <time>2014-07-05T09:56:22Z</time>
      </trkpt>
      <trkpt lat="45.877147726714611" lon="7.866949969902635">
        <ele>2977.3400000000001</ele>
        <time>2014-07-05T09:56:33Z</time>
      </trkpt>
      <trkpt lat="45.877141021192074" lon="7.867088355123997">
        <ele>2979.7399999999998</ele>
        <time>2014-07-05T09:56:47Z</time>
      </trkpt>
      <trkpt lat="45.877125514671206" lon="7.86715742200613">
        <ele>2981.6700000000001</ele>
        <time>2014-07-05T09:57:01Z</time>
      </trkpt>
      <trkpt lat="45.877134818583727" lon="7.867244761437178">
        <ele>2982.6300000000001</ele>
        <time>2014-07-05T09:57:13Z</time>
      </trkpt>
      <trkpt lat="45.877155102789402" lon="7.867281557992101">
        <ele>2984.5500000000002</ele>
        <time>2014-07-05T09:57:25Z</time>
      </trkpt>
      <trkpt lat="45.877181086689234" lon="7.867194302380085">
        <ele>2987.4299999999998</ele>
        <time>2014-07-05T09:57:39Z</time>
      </trkpt>
      <trkpt lat="45.877182595431805" lon="7.867188854143024">
        <ele>2987.4299999999998</ele>
        <time>2014-07-05T09:57:40Z</time>
      </trkpt>
      <trkpt lat="45.877233808860183" lon="7.867176532745361">
        <ele>2990.3200000000002</ele>
        <time>2014-07-05T09:57:56Z</time>
      </trkpt>
      <trkpt lat="45.877257948741317" lon="7.867251802235842">
        <ele>2991.7600000000002</ele>
        <time>2014-07-05T09:58:11Z</time>
      </trkpt>
      <trkpt lat="45.877295918762684" lon="7.867247276008129">
        <ele>2993.1999999999998</ele>
        <time>2014-07-05T09:58:22Z</time>
      </trkpt>
      <trkpt lat="45.877299774438143" lon="7.867188015952706">
        <ele>2995.1199999999999</ele>
        <time>2014-07-05T09:58:33Z</time>
      </trkpt>
      <trkpt lat="45.8773089107126" lon="7.867134539410472">
        <ele>2996.0900000000001</ele>
        <time>2014-07-05T09:58:44Z</time>
      </trkpt>
      <trkpt lat="45.877341432496905" lon="7.867069328203797">
        <ele>2998.0100000000002</ele>
        <time>2014-07-05T09:58:59Z</time>
      </trkpt>
      <trkpt lat="45.877360040321946" lon="7.867032950744033">
        <ele>2998.9699999999998</ele>
        <time>2014-07-05T09:59:11Z</time>
      </trkpt>
      <trkpt lat="45.877398261800408" lon="7.866942090913653">
        <ele>2999.4499999999998</ele>
        <time>2014-07-05T09:59:23Z</time>
      </trkpt>
      <trkpt lat="45.877424329519272" lon="7.866815105080605">
        <ele>3001.8499999999999</ele>
        <time>2014-07-05T09:59:41Z</time>
      </trkpt>
      <trkpt lat="45.877446373924613" lon="7.866759281605482">
        <ele>3003.3000000000002</ele>
        <time>2014-07-05T09:59:53Z</time>
      </trkpt>
      <trkpt lat="45.877474034205079" lon="7.866718461737037">
        <ele>3005.2199999999998</ele>
        <time>2014-07-05T10:00:08Z</time>
      </trkpt>
      <trkpt lat="45.877503706142306" lon="7.866721479222179">
        <ele>3008.0999999999999</ele>
        <time>2014-07-05T10:00:16Z</time>
      </trkpt>
      <trkpt lat="45.877507142722607" lon="7.866730783134699">
        <ele>3007.6199999999999</ele>
        <time>2014-07-05T10:00:17Z</time>
      </trkpt>
      <trkpt lat="45.877553578466177" lon="7.866720724850893">
        <ele>3008.5799999999999</ele>
        <time>2014-07-05T10:00:32Z</time>
      </trkpt>
      <trkpt lat="45.877574114128947" lon="7.866635145619512">
        <ele>3010.5100000000002</ele>
        <time>2014-07-05T10:00:44Z</time>
      </trkpt>
      <trkpt lat="45.877603786066175" lon="7.866560379043222">
        <ele>3012.4299999999998</ele>
        <time>2014-07-05T10:00:58Z</time>
      </trkpt>
      <trkpt lat="45.877648126333952" lon="7.86653833463788">
        <ele>3014.8299999999999</ele>
        <time>2014-07-05T10:01:12Z</time>
      </trkpt>
      <trkpt lat="45.877697914838791" lon="7.866554511711001">
        <ele>3016.75</ele>
        <time>2014-07-05T10:01:26Z</time>
      </trkpt>
      <trkpt lat="45.877715600654483" lon="7.866510758176446">
        <ele>3018.6799999999998</ele>
        <time>2014-07-05T10:01:38Z</time>
      </trkpt>
      <trkpt lat="45.877769831568003" lon="7.866486115381122">
        <ele>3020.1199999999999</ele>
        <time>2014-07-05T10:01:51Z</time>
      </trkpt>
      <trkpt lat="45.877764215692878" lon="7.866403972730041">
        <ele>3022.04</ele>
        <time>2014-07-05T10:02:02Z</time>
      </trkpt>
      <trkpt lat="45.877756923437119" lon="7.866324847564101">
        <ele>3023</ele>
        <time>2014-07-05T10:02:12Z</time>
      </trkpt>
      <trkpt lat="45.877775782719254" lon="7.866263156756759">
        <ele>3025.4099999999999</ele>
        <time>2014-07-05T10:02:24Z</time>
      </trkpt>
      <trkpt lat="45.877749295905232" lon="7.866192078217864">
        <ele>3027.3299999999999</ele>
        <time>2014-07-05T10:02:35Z</time>
      </trkpt>
      <trkpt lat="45.877756588160992" lon="7.866106415167451">
        <ele>3028.77</ele>
        <time>2014-07-05T10:02:48Z</time>
      </trkpt>
      <trkpt lat="45.877762539312243" lon="7.866024021059275">
        <ele>3030.21</ele>
        <time>2014-07-05T10:03:01Z</time>
      </trkpt>
      <trkpt lat="45.877774525433779" lon="7.865948751568794">
        <ele>3032.1399999999999</ele>
        <time>2014-07-05T10:03:11Z</time>
      </trkpt>
      <trkpt lat="45.877776117995381" lon="7.865894855931401">
        <ele>3033.5799999999999</ele>
        <time>2014-07-05T10:03:23Z</time>
      </trkpt>
      <trkpt lat="45.877811908721924" lon="7.865867866203189">
        <ele>3035.02</ele>
        <time>2014-07-05T10:03:34Z</time>
      </trkpt>
      <trkpt lat="45.877866307273507" lon="7.865902399644256">
        <ele>3035.5</ele>
        <time>2014-07-05T10:03:44Z</time>
      </trkpt>
      <trkpt lat="45.877916682511568" lon="7.865946823731065">
        <ele>3035.5</ele>
        <time>2014-07-05T10:03:56Z</time>
      </trkpt>
      <trkpt lat="45.877953479066491" lon="7.865967946127057">
        <ele>3036.46</ele>
        <time>2014-07-05T10:04:08Z</time>
      </trkpt>
      <trkpt lat="45.877959597855806" lon="7.865988565608859">
        <ele>3036.9400000000001</ele>
        <time>2014-07-05T10:04:33Z</time>
      </trkpt>
      <trkpt lat="45.878036208450794" lon="7.865994265303016">
        <ele>3037.9000000000001</ele>
        <time>2014-07-05T10:04:46Z</time>
      </trkpt>
      <trkpt lat="45.878100581467152" lon="7.866007592529059">
        <ele>3038.8600000000001</ele>
        <time>2014-07-05T10:04:57Z</time>
      </trkpt>
      <trkpt lat="45.878199236467481" lon="7.866020333021879">
        <ele>3039.3499999999999</ele>
        <time>2014-07-05T10:05:12Z</time>
      </trkpt>
      <trkpt lat="45.87831549346447" lon="7.866027290001512">
        <ele>3039.8299999999999</ele>
        <time>2014-07-05T10:05:27Z</time>
      </trkpt>
      <trkpt lat="45.878436863422394" lon="7.865983620285988">
        <ele>3038.8600000000001</ele>
        <time>2014-07-05T10:05:43Z</time>
      </trkpt>
      <trkpt lat="45.878538116812706" lon="7.865957636386156">
        <ele>3039.8299999999999</ele>
        <time>2014-07-05T10:05:58Z</time>
      </trkpt>
      <trkpt lat="45.878629479557276" lon="7.865904411301017">
        <ele>3041.27</ele>
        <time>2014-07-05T10:06:14Z</time>
      </trkpt>
      <trkpt lat="45.878659402951598" lon="7.865887731313705">
        <ele>3042.71</ele>
        <time>2014-07-05T10:06:20Z</time>
      </trkpt>
      <trkpt lat="45.878752609714866" lon="7.865843223407865">
        <ele>3044.6300000000001</ele>
        <time>2014-07-05T10:06:37Z</time>
      </trkpt>
      <trkpt lat="45.87882368825376" lon="7.865842971950769">
        <ele>3046.5599999999999</ele>
        <time>2014-07-05T10:06:52Z</time>
      </trkpt>
      <trkpt lat="45.878908345475793" lon="7.86580927670002">
        <ele>3048.48</ele>
        <time>2014-07-05T10:07:09Z</time>
      </trkpt>
      <trkpt lat="45.878954697400331" lon="7.865786645561457">
        <ele>3050.4000000000001</ele>
        <time>2014-07-05T10:07:23Z</time>
      </trkpt>
      <trkpt lat="45.879019238054752" lon="7.865746831521392">
        <ele>3051.8400000000001</ele>
        <time>2014-07-05T10:07:36Z</time>
      </trkpt>
      <trkpt lat="45.879090316593647" lon="7.865710454061627">
        <ele>3053.77</ele>
        <time>2014-07-05T10:07:52Z</time>
      </trkpt>
      <trkpt lat="45.879148403182626" lon="7.865664018318057">
        <ele>3055.6900000000001</ele>
        <time>2014-07-05T10:08:07Z</time>
      </trkpt>
      <trkpt lat="45.879185283556581" lon="7.865668209269643">
        <ele>3057.1300000000001</ele>
        <time>2014-07-05T10:08:22Z</time>
      </trkpt>
      <trkpt lat="45.879268767312169" lon="7.865738365799189">
        <ele>3056.1700000000001</ele>
        <time>2014-07-05T10:08:35Z</time>
      </trkpt>
      <trkpt lat="45.879272790625691" lon="7.865724368020892">
        <ele>3057.1300000000001</ele>
        <time>2014-07-05T10:08:49Z</time>
      </trkpt>
      <trkpt lat="45.879315203055739" lon="7.865728223696351">
        <ele>3057.1300000000001</ele>
        <time>2014-07-05T10:08:59Z</time>
      </trkpt>
      <trkpt lat="45.87938267737627" lon="7.865614565089345">
        <ele>3058.5700000000002</ele>
        <time>2014-07-05T10:09:13Z</time>
      </trkpt>
      <trkpt lat="45.879438919946551" lon="7.865560920909047">
        <ele>3060.0100000000002</ele>
        <time>2014-07-05T10:09:25Z</time>
      </trkpt>
      <trkpt lat="45.879482002928853" lon="7.865501074120402">
        <ele>3061.9400000000001</ele>
        <time>2014-07-05T10:09:40Z</time>
      </trkpt>
      <trkpt lat="45.879492731764913" lon="7.865583887323737">
        <ele>3064.3400000000001</ele>
        <time>2014-07-05T10:09:52Z</time>
      </trkpt>
      <trkpt lat="45.879536904394627" lon="7.865660833194852">
        <ele>3064.8200000000002</ele>
        <time>2014-07-05T10:10:06Z</time>
      </trkpt>
      <trkpt lat="45.879530869424343" lon="7.865699641406536">
        <ele>3065.3000000000002</ele>
        <time>2014-07-05T10:10:20Z</time>
      </trkpt>
      <trkpt lat="45.879554757848382" lon="7.865737276151776">
        <ele>3065.7800000000002</ele>
        <time>2014-07-05T10:10:33Z</time>
      </trkpt>
      <trkpt lat="45.879550818353891" lon="7.865740628913045">
        <ele>3065.3000000000002</ele>
        <time>2014-07-05T10:10:55Z</time>
      </trkpt>
      <trkpt lat="45.879557523876429" lon="7.86576577462256">
        <ele>3065.3000000000002</ele>
        <time>2014-07-05T10:11:22Z</time>
      </trkpt>
      <trkpt lat="45.87954780086875" lon="7.865771222859621">
        <ele>3065.7800000000002</ele>
        <time>2014-07-05T10:11:36Z</time>
      </trkpt>
      <trkpt lat="45.879539418965578" lon="7.865795949473977">
        <ele>3065.7800000000002</ele>
        <time>2014-07-05T10:12:05Z</time>
      </trkpt>
      <trkpt lat="45.87955366820097" lon="7.86578731611371">
        <ele>3065.7800000000002</ele>
        <time>2014-07-05T10:12:27Z</time>
      </trkpt>
      <trkpt lat="45.8796142693609" lon="7.865744987502694">
        <ele>3066.2600000000002</ele>
        <time>2014-07-05T10:12:39Z</time>
      </trkpt>
      <trkpt lat="45.879681492224336" lon="7.86576728336513">
        <ele>3068.1900000000001</ele>
        <time>2014-07-05T10:12:52Z</time>
      </trkpt>
      <trkpt lat="45.879674116149545" lon="7.865705508738756">
        <ele>3070.5900000000001</ele>
        <time>2014-07-05T10:13:03Z</time>
      </trkpt>
      <trkpt lat="45.879614353179932" lon="7.865613307803869">
        <ele>3072.5100000000002</ele>
        <time>2014-07-05T10:13:16Z</time>
      </trkpt>
      <trkpt lat="45.879641845822334" lon="7.865573326125741">
        <ele>3075.8800000000001</ele>
        <time>2014-07-05T10:13:30Z</time>
      </trkpt>
      <trkpt lat="45.879687946289778" lon="7.865616576746106">
        <ele>3077.8000000000002</ele>
        <time>2014-07-05T10:13:43Z</time>
      </trkpt>
      <trkpt lat="45.879702027887106" lon="7.865590425208211">
        <ele>3080.1999999999998</ele>
        <time>2014-07-05T10:13:55Z</time>
      </trkpt>
      <trkpt lat="45.879716780036688" lon="7.865524375811219">
        <ele>3082.5999999999999</ele>
        <time>2014-07-05T10:14:08Z</time>
      </trkpt>
      <trkpt lat="45.879767071455717" lon="7.86550342105329">
        <ele>3084.0500000000002</ele>
        <time>2014-07-05T10:14:20Z</time>
      </trkpt>
      <trkpt lat="45.879806885495782" lon="7.865476012229919">
        <ele>3085.0100000000002</ele>
        <time>2014-07-05T10:14:31Z</time>
      </trkpt>
      <trkpt lat="45.879852650687099" lon="7.865478359162808">
        <ele>3086.9299999999998</ele>
        <time>2014-07-05T10:14:44Z</time>
      </trkpt>
      <trkpt lat="45.879889698699117" lon="7.865463858470321">
        <ele>3088.8499999999999</ele>
        <time>2014-07-05T10:14:55Z</time>
      </trkpt>
      <trkpt lat="45.879946108907461" lon="7.865399401634932">
        <ele>3090.29</ele>
        <time>2014-07-05T10:15:09Z</time>
      </trkpt>
      <trkpt lat="45.879994640126824" lon="7.865388337522745">
        <ele>3091.2600000000002</ele>
        <time>2014-07-05T10:15:20Z</time>
      </trkpt>
      <trkpt lat="45.88005255907774" lon="7.865347852930427">
        <ele>3092.2199999999998</ele>
        <time>2014-07-05T10:15:33Z</time>
      </trkpt>
      <trkpt lat="45.880096480250359" lon="7.865327149629593">
        <ele>3091.7399999999998</ele>
        <time>2014-07-05T10:15:41Z</time>
      </trkpt>
      <trkpt lat="45.880122631788254" lon="7.865261770784855">
        <ele>3090.7800000000002</ele>
        <time>2014-07-05T10:15:52Z</time>
      </trkpt>
      <trkpt lat="45.880185328423977" lon="7.865211563184857">
        <ele>3091.7399999999998</ele>
        <time>2014-07-05T10:16:05Z</time>
      </trkpt>
      <trkpt lat="45.880254982039332" lon="7.865210305899382">
        <ele>3094.6199999999999</ele>
        <time>2014-07-05T10:16:19Z</time>
      </trkpt>
      <trkpt lat="45.880307704210281" lon="7.865150878205895">
        <ele>3095.0999999999999</ele>
        <time>2014-07-05T10:16:30Z</time>
      </trkpt>
      <trkpt lat="45.880310805514455" lon="7.865167977288365">
        <ele>3095.5799999999999</ele>
        <time>2014-07-05T10:16:47Z</time>
      </trkpt>
      <trkpt lat="45.880369562655687" lon="7.865120954811573">
        <ele>3097.02</ele>
        <time>2014-07-05T10:17:07Z</time>
      </trkpt>
      <trkpt lat="45.880424128845334" lon="7.865128917619586">
        <ele>3100.3899999999999</ele>
        <time>2014-07-05T10:17:22Z</time>
      </trkpt>
      <trkpt lat="45.880488837137818" lon="7.865054486319423">
        <ele>3100.8699999999999</ele>
        <time>2014-07-05T10:17:35Z</time>
      </trkpt>
      <trkpt lat="45.880567794665694" lon="7.865002937614918">
        <ele>3102.79</ele>
        <time>2014-07-05T10:17:53Z</time>
      </trkpt>
      <trkpt lat="45.880615571513772" lon="7.864968152716756">
        <ele>3104.23</ele>
        <time>2014-07-05T10:18:02Z</time>
      </trkpt>
      <trkpt lat="45.880645662546158" lon="7.864903444424272">
        <ele>3103.75</ele>
        <time>2014-07-05T10:18:12Z</time>
      </trkpt>
      <trkpt lat="45.880695031955838" lon="7.864836640655994">
        <ele>3103.75</ele>
        <time>2014-07-05T10:18:25Z</time>
      </trkpt>
      <trkpt lat="45.880755968391895" lon="7.864759946241975">
        <ele>3102.79</ele>
        <time>2014-07-05T10:18:38Z</time>
      </trkpt>
      <trkpt lat="45.880821347236633" lon="7.864727592095733">
        <ele>3100.8699999999999</ele>
        <time>2014-07-05T10:18:53Z</time>
      </trkpt>
      <trkpt lat="45.880914470180869" lon="7.864703452214599">
        <ele>3099.4299999999998</ele>
        <time>2014-07-05T10:19:07Z</time>
      </trkpt>
      <trkpt lat="45.880962247028947" lon="7.864725077524781">
        <ele>3102.79</ele>
        <time>2014-07-05T10:19:18Z</time>
      </trkpt>
      <trkpt lat="45.881020920351148" lon="7.864673864096403">
        <ele>3104.23</ele>
        <time>2014-07-05T10:19:32Z</time>
      </trkpt>
      <trkpt lat="45.881055202335119" lon="7.864657770842314">
        <ele>3106.6399999999999</ele>
        <time>2014-07-05T10:19:44Z</time>
      </trkpt>
      <trkpt lat="45.881059225648642" lon="7.864665146917105">
        <ele>3107.5999999999999</ele>
        <time>2014-07-05T10:20:00Z</time>
      </trkpt>
      <trkpt lat="45.881047323346138" lon="7.864692471921444">
        <ele>3106.6399999999999</ele>
        <time>2014-07-05T10:20:21Z</time>
      </trkpt>
      <trkpt lat="45.88103273883462" lon="7.86470596678555">
        <ele>3106.6399999999999</ele>
        <time>2014-07-05T10:20:46Z</time>
      </trkpt>
      <trkpt lat="45.88105671107769" lon="7.86465659737587">
        <ele>3106.6399999999999</ele>
        <time>2014-07-05T10:21:10Z</time>
      </trkpt>
      <trkpt lat="45.881054196506739" lon="7.864629188552499">
        <ele>3106.1599999999999</ele>
        <time>2014-07-05T10:21:31Z</time>
      </trkpt>
      <trkpt lat="45.881059309467673" lon="7.86465659737587">
        <ele>3107.1199999999999</ele>
        <time>2014-07-05T10:21:59Z</time>
      </trkpt>
      <trkpt lat="45.881057968363166" lon="7.864658357575536">
        <ele>3107.5999999999999</ele>
        <time>2014-07-05T10:22:23Z</time>
      </trkpt>
      <trkpt lat="45.881068361923099" lon="7.86465123295784">
        <ele>3108.0799999999999</ele>
        <time>2014-07-05T10:22:46Z</time>
      </trkpt>
      <trkpt lat="45.881064422428608" lon="7.864626171067357">
        <ele>3108.0799999999999</ele>
        <time>2014-07-05T10:23:12Z</time>
      </trkpt>
      <trkpt lat="45.881045814603567" lon="7.864634217694402">
        <ele>3109.04</ele>
        <time>2014-07-05T10:23:34Z</time>
      </trkpt>
      <trkpt lat="45.881079928949475" lon="7.864625416696072">
        <ele>3110</ele>
        <time>2014-07-05T10:23:55Z</time>
      </trkpt>
      <trkpt lat="45.881124101579189" lon="7.864627595990896">
        <ele>3112.8899999999999</ele>
        <time>2014-07-05T10:24:07Z</time>
      </trkpt>
      <trkpt lat="45.881180260330439" lon="7.864662213250995">
        <ele>3113.8499999999999</ele>
        <time>2014-07-05T10:24:21Z</time>
      </trkpt>
      <trkpt lat="45.881238598376513" lon="7.864707810804248">
        <ele>3115.29</ele>
        <time>2014-07-05T10:24:36Z</time>
      </trkpt>
      <trkpt lat="45.881290901452303" lon="7.864769585430622">
        <ele>3117.6900000000001</ele>
        <time>2014-07-05T10:24:52Z</time>
      </trkpt>
      <trkpt lat="45.881324931979179" lon="7.864801604300737">
        <ele>3120.0999999999999</ele>
        <time>2014-07-05T10:25:06Z</time>
      </trkpt>
      <trkpt lat="45.881382599473" lon="7.864829516038299">
        <ele>3122.02</ele>
        <time>2014-07-05T10:25:24Z</time>
      </trkpt>
      <trkpt lat="45.88145250454545" lon="7.864845525473356">
        <ele>3123.46</ele>
        <time>2014-07-05T10:25:40Z</time>
      </trkpt>
      <trkpt lat="45.881492989137769" lon="7.864856421947479">
        <ele>3124.9000000000001</ele>
        <time>2014-07-05T10:25:53Z</time>
      </trkpt>
      <trkpt lat="45.881517380475998" lon="7.864868743345141">
        <ele>3126.8299999999999</ele>
        <time>2014-07-05T10:26:06Z</time>
      </trkpt>
      <trkpt lat="45.881541771814227" lon="7.864850303158164">
        <ele>3126.8299999999999</ele>
        <time>2014-07-05T10:26:19Z</time>
      </trkpt>
      <trkpt lat="45.881553674116731" lon="7.864830689504743">
        <ele>3126.3400000000001</ele>
        <time>2014-07-05T10:26:31Z</time>
      </trkpt>
      <trkpt lat="45.881578819826245" lon="7.864818451926112">
        <ele>3126.8299999999999</ele>
        <time>2014-07-05T10:26:43Z</time>
      </trkpt>
      <trkpt lat="45.881602624431252" lon="7.864813674241304">
        <ele>3128.75</ele>
        <time>2014-07-05T10:26:55Z</time>
      </trkpt>
      <trkpt lat="45.881628440693021" lon="7.864837981760502">
        <ele>3130.1900000000001</ele>
        <time>2014-07-05T10:27:07Z</time>
      </trkpt>
      <trkpt lat="45.881658867001534" lon="7.864873018115759">
        <ele>3133.0700000000002</ele>
        <time>2014-07-05T10:27:22Z</time>
      </trkpt>
      <trkpt lat="45.881682503968477" lon="7.864924734458327">
        <ele>3135.48</ele>
        <time>2014-07-05T10:27:37Z</time>
      </trkpt>
      <trkpt lat="45.881678061559796" lon="7.864984916523099">
        <ele>3136.9200000000001</ele>
        <time>2014-07-05T10:27:53Z</time>
      </trkpt>
      <trkpt lat="45.881666829809546" lon="7.865015342831612">
        <ele>3137.8800000000001</ele>
        <time>2014-07-05T10:28:04Z</time>
      </trkpt>
      <trkpt lat="45.881677977740765" lon="7.864988939836621">
        <ele>3139.3200000000002</ele>
        <time>2014-07-05T10:28:16Z</time>
      </trkpt>
      <trkpt lat="45.881689209491014" lon="7.864958345890045">
        <ele>3139.8000000000002</ele>
        <time>2014-07-05T10:28:30Z</time>
      </trkpt>
      <trkpt lat="45.88172365911305" lon="7.864951305091381">
        <ele>3141.25</ele>
        <time>2014-07-05T10:28:44Z</time>
      </trkpt>
      <trkpt lat="45.881753833964467" lon="7.86490386351943">
        <ele>3143.1700000000001</ele>
        <time>2014-07-05T10:28:58Z</time>
      </trkpt>
      <trkpt lat="45.881760288029909" lon="7.864900259301066">
        <ele>3143.6500000000001</ele>
        <time>2014-07-05T10:29:11Z</time>
      </trkpt>
      <trkpt lat="45.881780404597521" lon="7.864880058914423">
        <ele>3143.6500000000001</ele>
        <time>2014-07-05T10:29:25Z</time>
      </trkpt>
      <trkpt lat="45.88175400160253" lon="7.864867988973856">
        <ele>3143.6500000000001</ele>
        <time>2014-07-05T10:29:48Z</time>
      </trkpt>
      <trkpt lat="45.881742518395185" lon="7.86485843360424">
        <ele>3143.6500000000001</ele>
        <time>2014-07-05T10:30:12Z</time>
      </trkpt>
      <trkpt lat="45.88172659277916" lon="7.864839406684041">
        <ele>3144.1300000000001</ele>
        <time>2014-07-05T10:30:32Z</time>
      </trkpt>
      <trkpt lat="45.881786355748773" lon="7.864771680906415">
        <ele>3145.5700000000002</ele>
        <time>2014-07-05T10:30:43Z</time>
      </trkpt>
      <trkpt lat="45.881818793714046" lon="7.864745194092393">
        <ele>3146.5300000000002</ele>
        <time>2014-07-05T10:30:57Z</time>
      </trkpt>
      <trkpt lat="45.881801946088672" lon="7.864730441942811">
        <ele>3147.0100000000002</ele>
        <time>2014-07-05T10:31:14Z</time>
      </trkpt>
      <trkpt lat="45.881774285808206" lon="7.864771345630288">
        <ele>3146.5300000000002</ele>
        <time>2014-07-05T10:31:34Z</time>
      </trkpt>
      <trkpt lat="45.88180772960186" lon="7.864729519933462">
        <ele>3147.4899999999998</ele>
        <time>2014-07-05T10:31:47Z</time>
      </trkpt>
      <trkpt lat="45.881804125383496" lon="7.864737901836634">
        <ele>3147.0100000000002</ele>
        <time>2014-07-05T10:32:11Z</time>
      </trkpt>
      <trkpt lat="45.881826337426901" lon="7.864752737805247">
        <ele>3147.9699999999998</ele>
        <time>2014-07-05T10:32:22Z</time>
      </trkpt>
      <trkpt lat="45.88183312676847" lon="7.864798754453659">
        <ele>3148.46</ele>
        <time>2014-07-05T10:32:50Z</time>
      </trkpt>
      <trkpt lat="45.881805717945099" lon="7.86479976028204">
        <ele>3147.0100000000002</ele>
        <time>2014-07-05T10:33:05Z</time>
      </trkpt>
      <trkpt lat="45.881771771237254" lon="7.864842507988215">
        <ele>3147.0100000000002</ele>
        <time>2014-07-05T10:33:29Z</time>
      </trkpt>
      <trkpt lat="45.88173639960587" lon="7.864877628162503">
        <ele>3147.4899999999998</ele>
        <time>2014-07-05T10:33:52Z</time>
      </trkpt>
      <trkpt lat="45.881709074601531" lon="7.864848207682371">
        <ele>3147.9699999999998</ele>
        <time>2014-07-05T10:34:11Z</time>
      </trkpt>
      <trkpt lat="45.881695998832583" lon="7.86478660069406">
        <ele>3148.46</ele>
        <time>2014-07-05T10:34:31Z</time>
      </trkpt>
      <trkpt lat="45.881681833416224" lon="7.864746451377869">
        <ele>3147.9699999999998</ele>
        <time>2014-07-05T10:34:52Z</time>
      </trkpt>
      <trkpt lat="45.881683845072985" lon="7.864743350073695">
        <ele>3148.46</ele>
        <time>2014-07-05T10:35:18Z</time>
      </trkpt>
      <trkpt lat="45.881680408492684" lon="7.864689538255334">
        <ele>3148.9400000000001</ele>
        <time>2014-07-05T10:35:40Z</time>
      </trkpt>
      <trkpt lat="45.881682587787509" lon="7.864717533811927">
        <ele>3148.9400000000001</ele>
        <time>2014-07-05T10:36:01Z</time>
      </trkpt>
      <trkpt lat="45.881676804274321" lon="7.864718120545149">
        <ele>3149.9000000000001</ele>
        <time>2014-07-05T10:36:23Z</time>
      </trkpt>
      <trkpt lat="45.881760539487004" lon="7.864689202979207">
        <ele>3151.3400000000001</ele>
        <time>2014-07-05T10:36:52Z</time>
      </trkpt>
      <trkpt lat="45.881733885034919" lon="7.86472306586802">
        <ele>3151.8200000000002</ele>
        <time>2014-07-05T10:37:08Z</time>
      </trkpt>
      <trkpt lat="45.881711924448609" lon="7.864730358123779">
        <ele>3151.8200000000002</ele>
        <time>2014-07-05T10:37:30Z</time>
      </trkpt>
      <trkpt lat="45.881689041852951" lon="7.864732872694731">
        <ele>3151.8200000000002</ele>
        <time>2014-07-05T10:37:47Z</time>
      </trkpt>
      <trkpt lat="45.881694825366139" lon="7.864747457206249">
        <ele>3152.3000000000002</ele>
        <time>2014-07-05T10:38:14Z</time>
      </trkpt>
      <trkpt lat="45.881855506449938" lon="7.864677719771862">
        <ele>3153.2600000000002</ele>
        <time>2014-07-05T10:38:31Z</time>
      </trkpt>
      <trkpt lat="45.881922645494342" lon="7.864672942087054">
        <ele>3154.6999999999998</ele>
        <time>2014-07-05T10:38:42Z</time>
      </trkpt>
      <trkpt lat="45.881995232775807" lon="7.864633211866021">
        <ele>3155.6599999999999</ele>
        <time>2014-07-05T10:38:56Z</time>
      </trkpt>
      <trkpt lat="45.882083075121045" lon="7.864648383110762">
        <ele>3156.1500000000001</ele>
        <time>2014-07-05T10:39:10Z</time>
      </trkpt>
      <trkpt lat="45.882124481722713" lon="7.864662297070026">
        <ele>3159.0300000000002</ele>
        <time>2014-07-05T10:39:20Z</time>
      </trkpt>
      <trkpt lat="45.882172593846917" lon="7.864627176895738">
        <ele>3160.9499999999998</ele>
        <time>2014-07-05T10:39:33Z</time>
      </trkpt>
      <trkpt lat="45.882209641858935" lon="7.864644024521112">
        <ele>3162.3899999999999</ele>
        <time>2014-07-05T10:39:45Z</time>
      </trkpt>
      <trkpt lat="45.882210312411189" lon="7.864727256819606">
        <ele>3164.8000000000002</ele>
        <time>2014-07-05T10:39:59Z</time>
      </trkpt>
      <trkpt lat="45.882205870002508" lon="7.864786852151156">
        <ele>3165.7600000000002</ele>
        <time>2014-07-05T10:40:12Z</time>
      </trkpt>
      <trkpt lat="45.882206540554762" lon="7.86480956710875">
        <ele>3168.1599999999999</ele>
        <time>2014-07-05T10:40:27Z</time>
      </trkpt>
      <trkpt lat="45.882202433422208" lon="7.864833539351821">
        <ele>3168.6399999999999</ele>
        <time>2014-07-05T10:40:42Z</time>
      </trkpt>
      <trkpt lat="45.882202601060271" lon="7.864852230995894">
        <ele>3169.5999999999999</ele>
        <time>2014-07-05T10:40:54Z</time>
      </trkpt>
      <trkpt lat="45.882209977135062" lon="7.864828510209918">
        <ele>3169.5999999999999</ele>
        <time>2014-07-05T10:41:17Z</time>
      </trkpt>
      <trkpt lat="45.882213497534394" lon="7.864842172712088">
        <ele>3170.0799999999999</ele>
        <time>2014-07-05T10:41:39Z</time>
      </trkpt>
      <trkpt lat="45.882193129509687" lon="7.864884752780199">
        <ele>3172.4899999999998</ele>
        <time>2014-07-05T10:41:52Z</time>
      </trkpt>
      <trkpt lat="45.882156081497669" lon="7.864921968430281">
        <ele>3173.9299999999998</ele>
        <time>2014-07-05T10:42:06Z</time>
      </trkpt>
      <trkpt lat="45.882164128124714" lon="7.864928003400564">
        <ele>3175.8499999999999</ele>
        <time>2014-07-05T10:42:19Z</time>
      </trkpt>
      <trkpt lat="45.88217762298882" lon="7.864929931238294">
        <ele>3175.3699999999999</ele>
        <time>2014-07-05T10:42:47Z</time>
      </trkpt>
      <trkpt lat="45.882180975750089" lon="7.864911155775189">
        <ele>3175.8499999999999</ele>
        <time>2014-07-05T10:43:11Z</time>
      </trkpt>
      <trkpt lat="45.882204696536064" lon="7.864950802177191">
        <ele>3177.29</ele>
        <time>2014-07-05T10:43:27Z</time>
      </trkpt>
      <trkpt lat="45.882214335724711" lon="7.864962201565504">
        <ele>3178.2600000000002</ele>
        <time>2014-07-05T10:43:42Z</time>
      </trkpt>
      <trkpt lat="45.882219197228551" lon="7.864959686994553">
        <ele>3179.2199999999998</ele>
        <time>2014-07-05T10:44:06Z</time>
      </trkpt>
      <trkpt lat="45.882227076217532" lon="7.864979216828942">
        <ele>3179.6999999999998</ele>
        <time>2014-07-05T10:44:23Z</time>
      </trkpt>
      <trkpt lat="45.882264710962772" lon="7.864970834925771">
        <ele>3179.6999999999998</ele>
        <time>2014-07-05T10:44:46Z</time>
      </trkpt>
      <trkpt lat="45.882270410656929" lon="7.864987011998892">
        <ele>3179.6999999999998</ele>
        <time>2014-07-05T10:45:03Z</time>
      </trkpt>
      <trkpt lat="45.882281474769115" lon="7.865004446357489">
        <ele>3180.1799999999998</ele>
        <time>2014-07-05T10:45:35Z</time>
      </trkpt>
      <trkpt lat="45.88230368681252" lon="7.864995812997222">
        <ele>3179.6999999999998</ele>
        <time>2014-07-05T10:45:49Z</time>
      </trkpt>
      <trkpt lat="45.88230418972671" lon="7.865022802725434">
        <ele>3179.2199999999998</ele>
        <time>2014-07-05T10:46:06Z</time>
      </trkpt>
      <trkpt lat="45.882330844178796" lon="7.865019030869007">
        <ele>3178.2600000000002</ele>
        <time>2014-07-05T10:46:21Z</time>
      </trkpt>
      <trkpt lat="45.882414579391479" lon="7.865075441077352">
        <ele>3177.29</ele>
        <time>2014-07-05T10:46:35Z</time>
      </trkpt>
      <trkpt lat="45.882441401481628" lon="7.865096647292376">
        <ele>3178.2600000000002</ele>
        <time>2014-07-05T10:46:51Z</time>
      </trkpt>
      <trkpt lat="45.882444586604834" lon="7.865094048902392">
        <ele>3178.2600000000002</ele>
        <time>2014-07-05T10:47:05Z</time>
      </trkpt>
      <trkpt lat="45.882470821961761" lon="7.865130007266998">
        <ele>3178.2600000000002</ele>
        <time>2014-07-05T10:47:23Z</time>
      </trkpt>
      <trkpt lat="45.882478281855583" lon="7.865132102742791">
        <ele>3177.7800000000002</ele>
        <time>2014-07-05T10:47:35Z</time>
      </trkpt>
      <trkpt lat="45.88248498737812" lon="7.865127744153142">
        <ele>3177.29</ele>
        <time>2014-07-05T10:47:51Z</time>
      </trkpt>
      <trkpt lat="45.882523963227868" lon="7.865159008651972">
        <ele>3176.8099999999999</ele>
        <time>2014-07-05T10:48:08Z</time>
      </trkpt>
      <trkpt lat="45.882553802803159" lon="7.865204103291035">
        <ele>3176.3299999999999</ele>
        <time>2014-07-05T10:48:24Z</time>
      </trkpt>
      <trkpt lat="45.882546594366431" lon="7.865266297012568">
        <ele>3174.8899999999999</ele>
        <time>2014-07-05T10:48:36Z</time>
      </trkpt>
      <trkpt lat="45.88257341645658" lon="7.865270739421248">
        <ele>3176.8099999999999</ele>
        <time>2014-07-05T10:48:52Z</time>
      </trkpt>
      <trkpt lat="45.882590347900987" lon="7.865285072475672">
        <ele>3175.8499999999999</ele>
        <time>2014-07-05T10:49:06Z</time>
      </trkpt>
      <trkpt lat="45.882604010403156" lon="7.865333436056972">
        <ele>3174.4099999999999</ele>
        <time>2014-07-05T10:49:15Z</time>
      </trkpt>
      <trkpt lat="45.882626557722688" lon="7.865341566503048">
        <ele>3173.9299999999998</ele>
        <time>2014-07-05T10:49:29Z</time>
      </trkpt>
      <trkpt lat="45.882659666240215" lon="7.865343075245619">
        <ele>3172.4899999999998</ele>
        <time>2014-07-05T10:49:42Z</time>
      </trkpt>
      <trkpt lat="45.882692523300648" lon="7.865370567888022">
        <ele>3171.0500000000002</ele>
        <time>2014-07-05T10:49:54Z</time>
      </trkpt>
      <trkpt lat="45.882738037034869" lon="7.865401245653629">
        <ele>3170.0799999999999</ele>
        <time>2014-07-05T10:50:09Z</time>
      </trkpt>
      <trkpt lat="45.882734851911664" lon="7.865380961447954">
        <ele>3168.6399999999999</ele>
        <time>2014-07-05T10:50:26Z</time>
      </trkpt>
      <trkpt lat="45.882718171924353" lon="7.865352965891361">
        <ele>3169.1199999999999</ele>
        <time>2014-07-05T10:50:43Z</time>
      </trkpt>
      <trkpt lat="45.88269118219614" lon="7.865347685292363">
        <ele>3168.1599999999999</ele>
        <time>2014-07-05T10:51:01Z</time>
      </trkpt>
      <trkpt lat="45.882663941010833" lon="7.865322371944785">
        <ele>3167.6799999999998</ele>
        <time>2014-07-05T10:51:16Z</time>
      </trkpt>
      <trkpt lat="45.882643740624189" lon="7.865296052768827">
        <ele>3167.1999999999998</ele>
        <time>2014-07-05T10:51:33Z</time>
      </trkpt>
      <trkpt lat="45.882613649591804" lon="7.865257328376174">
        <ele>3166.7199999999998</ele>
        <time>2014-07-05T10:51:53Z</time>
      </trkpt>
      <trkpt lat="45.882584983482957" lon="7.86522438749671">
        <ele>3166.7199999999998</ele>
        <time>2014-07-05T10:52:14Z</time>
      </trkpt>
      <trkpt lat="45.882545756176114" lon="7.865223130211234">
        <ele>3166.2399999999998</ele>
        <time>2014-07-05T10:52:36Z</time>
      </trkpt>
      <trkpt lat="45.882615661248565" lon="7.865208797156811">
        <ele>3165.7600000000002</ele>
        <time>2014-07-05T10:52:56Z</time>
      </trkpt>
      <trkpt lat="45.882680453360081" lon="7.865195386111736">
        <ele>3165.2800000000002</ele>
        <time>2014-07-05T10:53:11Z</time>
      </trkpt>
      <trkpt lat="45.882708448916674" lon="7.86526445299387">
        <ele>3164.8000000000002</ele>
        <time>2014-07-05T10:53:24Z</time>
      </trkpt>
      <trkpt lat="45.882761254906654" lon="7.865301417186856">
        <ele>3163.8400000000001</ele>
        <time>2014-07-05T10:53:40Z</time>
      </trkpt>
      <trkpt lat="45.882848845794797" lon="7.86529865115881">
        <ele>3161.4299999999998</ele>
        <time>2014-07-05T10:53:54Z</time>
      </trkpt>
      <trkpt lat="45.88286267593503" lon="7.865301836282015">
        <ele>3159.9899999999998</ele>
        <time>2014-07-05T10:54:03Z</time>
      </trkpt>
      <trkpt lat="45.88288564234972" lon="7.865296555683017">
        <ele>3158.0700000000002</ele>
        <time>2014-07-05T10:54:16Z</time>
      </trkpt>
      <trkpt lat="45.882918247953057" lon="7.865300578996539">
        <ele>3157.5900000000001</ele>
        <time>2014-07-05T10:54:22Z</time>
      </trkpt>
      <trkpt lat="45.882962001487613" lon="7.865281719714403">
        <ele>3154.6999999999998</ele>
        <time>2014-07-05T10:54:34Z</time>
      </trkpt>
      <trkpt lat="45.882991757243872" lon="7.865301836282015">
        <ele>3152.3000000000002</ele>
        <time>2014-07-05T10:54:47Z</time>
      </trkpt>
      <trkpt lat="45.8829799387604" lon="7.865282474085689">
        <ele>3152.7800000000002</ele>
        <time>2014-07-05T10:55:07Z</time>
      </trkpt>
      <trkpt lat="45.883024614304304" lon="7.865303931757808">
        <ele>3151.3400000000001</ele>
        <time>2014-07-05T10:55:20Z</time>
      </trkpt>
      <trkpt lat="45.883045317605138" lon="7.865319941192865">
        <ele>3150.8600000000001</ele>
        <time>2014-07-05T10:55:31Z</time>
      </trkpt>
      <trkpt lat="45.883047915995121" lon="7.865303177386522">
        <ele>3149.9000000000001</ele>
        <time>2014-07-05T10:55:42Z</time>
      </trkpt>
      <trkpt lat="45.883048251271248" lon="7.865318600088358">
        <ele>3149.4200000000001</ele>
        <time>2014-07-05T10:55:53Z</time>
      </trkpt>
      <trkpt lat="45.883068451657891" lon="7.865328323096037">
        <ele>3149.4200000000001</ele>
        <time>2014-07-05T10:56:14Z</time>
      </trkpt>
      <trkpt lat="45.883067613467574" lon="7.86532748490572">
        <ele>3149.4200000000001</ele>
        <time>2014-07-05T10:56:29Z</time>
      </trkpt>
      <trkpt lat="45.883041545748711" lon="7.865315247327089">
        <ele>3149.4200000000001</ele>
        <time>2014-07-05T10:56:49Z</time>
      </trkpt>
      <trkpt lat="45.883075408637524" lon="7.865312984213233">
        <ele>3148.9400000000001</ele>
        <time>2014-07-05T10:57:04Z</time>
      </trkpt>
      <trkpt lat="45.883120922371745" lon="7.865339303389192">
        <ele>3147.9699999999998</ele>
        <time>2014-07-05T10:57:16Z</time>
      </trkpt>
      <trkpt lat="45.883158389478922" lon="7.865362437441945">
        <ele>3146.0500000000002</ele>
        <time>2014-07-05T10:57:29Z</time>
      </trkpt>
      <trkpt lat="45.883177584037185" lon="7.865355312824249">
        <ele>3144.6100000000001</ele>
        <time>2014-07-05T10:57:40Z</time>
      </trkpt>
      <trkpt lat="45.883208932355046" lon="7.865378949791193">
        <ele>3143.1700000000001</ele>
        <time>2014-07-05T10:57:50Z</time>
      </trkpt>
      <trkpt lat="45.883235419169068" lon="7.865359168499708">
        <ele>3141.25</ele>
        <time>2014-07-05T10:58:03Z</time>
      </trkpt>
      <trkpt lat="45.883239693939686" lon="7.865347266197205">
        <ele>3139.3200000000002</ele>
        <time>2014-07-05T10:58:16Z</time>
      </trkpt>
      <trkpt lat="45.883236760273576" lon="7.865336956456304">
        <ele>3138.8400000000001</ele>
        <time>2014-07-05T10:58:47Z</time>
      </trkpt>
      <trkpt lat="45.883266683667898" lon="7.865342069417238">
        <ele>3137.4000000000001</ele>
        <time>2014-07-05T10:59:02Z</time>
      </trkpt>
      <trkpt lat="45.883277831599116" lon="7.865344500169158">
        <ele>3135.48</ele>
        <time>2014-07-05T10:59:07Z</time>
      </trkpt>
      <trkpt lat="45.883296355605125" lon="7.865361850708723">
        <ele>3135</ele>
        <time>2014-07-05T10:59:21Z</time>
      </trkpt>
      <trkpt lat="45.883285626769066" lon="7.865377021953464">
        <ele>3135</ele>
        <time>2014-07-05T10:59:36Z</time>
      </trkpt>
      <trkpt lat="45.883278166875243" lon="7.865383559837937">
        <ele>3135</ele>
        <time>2014-07-05T10:59:57Z</time>
      </trkpt>
      <trkpt lat="45.883288392797112" lon="7.865359671413899">
        <ele>3135.48</ele>
        <time>2014-07-05T11:00:22Z</time>
      </trkpt>
      <trkpt lat="45.883309934288263" lon="7.865363359451294">
        <ele>3135</ele>
        <time>2014-07-05T11:00:49Z</time>
      </trkpt>
      <trkpt lat="45.88332736864686" lon="7.865352714434266">
        <ele>3133.5500000000002</ele>
        <time>2014-07-05T11:00:51Z</time>
      </trkpt>
      <trkpt lat="45.883389059454203" lon="7.86533092148602">
        <ele>3130.6700000000001</ele>
        <time>2014-07-05T11:00:59Z</time>
      </trkpt>
      <trkpt lat="45.883449912071228" lon="7.865327568724752">
        <ele>3127.3099999999999</ele>
        <time>2014-07-05T11:01:06Z</time>
      </trkpt>
      <trkpt lat="45.883504059165716" lon="7.865305859595537">
        <ele>3123.9400000000001</ele>
        <time>2014-07-05T11:01:12Z</time>
      </trkpt>
      <trkpt lat="45.883534820750356" lon="7.865299908444285">
        <ele>3122.98</ele>
        <time>2014-07-05T11:01:14Z</time>
      </trkpt>
      <trkpt lat="45.883584944531322" lon="7.865292700007558">
        <ele>3121.0599999999999</ele>
        <time>2014-07-05T11:01:17Z</time>
      </trkpt>
      <trkpt lat="45.883702961727977" lon="7.865228829905391">
        <ele>3119.6199999999999</ele>
        <time>2014-07-05T11:01:28Z</time>
      </trkpt>
      <trkpt lat="45.883765406906605" lon="7.865200499072671">
        <ele>3120.5799999999999</ele>
        <time>2014-07-05T11:01:41Z</time>
      </trkpt>
      <trkpt lat="45.883752331137657" lon="7.86519798450172">
        <ele>3120.5799999999999</ele>
        <time>2014-07-05T11:02:01Z</time>
      </trkpt>
      <trkpt lat="45.883753588423133" lon="7.865191614255309">
        <ele>3120.0999999999999</ele>
        <time>2014-07-05T11:02:23Z</time>
      </trkpt>
      <trkpt lat="45.883750151842833" lon="7.865186333656311">
        <ele>3120.5799999999999</ele>
        <time>2014-07-05T11:02:39Z</time>
      </trkpt>
      <trkpt lat="45.883760880678892" lon="7.865197146311402">
        <ele>3120.5799999999999</ele>
        <time>2014-07-05T11:02:57Z</time>
      </trkpt>
      <trkpt lat="45.883756102994084" lon="7.865185746923089">
        <ele>3120.5799999999999</ele>
        <time>2014-07-05T11:03:17Z</time>
      </trkpt>
      <trkpt lat="45.883750403299928" lon="7.865189099684358">
        <ele>3120.0999999999999</ele>
        <time>2014-07-05T11:03:45Z</time>
      </trkpt>
      <trkpt lat="45.883787870407104" lon="7.865225728601217">
        <ele>3120.0999999999999</ele>
        <time>2014-07-05T11:04:07Z</time>
      </trkpt>
      <trkpt lat="45.883816536515951" lon="7.865226902067661">
        <ele>3120.5799999999999</ele>
        <time>2014-07-05T11:04:19Z</time>
      </trkpt>
      <trkpt lat="45.883817207068205" lon="7.865229416638613">
        <ele>3121.0599999999999</ele>
        <time>2014-07-05T11:04:38Z</time>
      </trkpt>
      <trkpt lat="45.88381159119308" lon="7.865230171009898">
        <ele>3120.5799999999999</ele>
        <time>2014-07-05T11:05:04Z</time>
      </trkpt>
      <trkpt lat="45.883809076622128" lon="7.865245928987861">
        <ele>3120.5799999999999</ele>
        <time>2014-07-05T11:05:31Z</time>
      </trkpt>
      <trkpt lat="45.88380572386086" lon="7.865243414416909">
        <ele>3120.5799999999999</ele>
        <time>2014-07-05T11:05:58Z</time>
      </trkpt>
      <trkpt lat="45.883806645870209" lon="7.865251377224922">
        <ele>3120.5799999999999</ele>
        <time>2014-07-05T11:06:23Z</time>
      </trkpt>
      <trkpt lat="45.883785607293248" lon="7.865237379446626">
        <ele>3120.0999999999999</ele>
        <time>2014-07-05T11:06:33Z</time>
      </trkpt>
      <trkpt lat="45.883775046095252" lon="7.865230338647962">
        <ele>3120.0999999999999</ele>
        <time>2014-07-05T11:06:34Z</time>
      </trkpt>
      <trkpt lat="45.883775046095252" lon="7.865202091634274">
        <ele>3120.0999999999999</ele>
        <time>2014-07-05T11:06:47Z</time>
      </trkpt>
      <trkpt lat="45.883784517645836" lon="7.86521558649838">
        <ele>3120.0999999999999</ele>
        <time>2014-07-05T11:07:06Z</time>
      </trkpt>
      <trkpt lat="45.883780578151345" lon="7.865219106897712">
        <ele>3120.0999999999999</ele>
        <time>2014-07-05T11:07:23Z</time>
      </trkpt>
      <trkpt lat="45.883791977539659" lon="7.8652248904109">
        <ele>3120.0999999999999</ele>
        <time>2014-07-05T11:07:44Z</time>
      </trkpt>
      <trkpt lat="45.883786948397756" lon="7.865234278142452">
        <ele>3119.6199999999999</ele>
        <time>2014-07-05T11:08:00Z</time>
      </trkpt>
      <trkpt lat="45.8837949950248" lon="7.865223633125424">
        <ele>3119.6199999999999</ele>
        <time>2014-07-05T11:08:28Z</time>
      </trkpt>
      <trkpt lat="45.883793737739325" lon="7.865224806591868">
        <ele>3120.0999999999999</ele>
        <time>2014-07-05T11:08:42Z</time>
      </trkpt>
      <trkpt lat="45.883784098550677" lon="7.865222124382854">
        <ele>3120.0999999999999</ele>
        <time>2014-07-05T11:08:58Z</time>
      </trkpt>
      <trkpt lat="45.883781164884567" lon="7.86527375690639">
        <ele>3119.6199999999999</ele>
        <time>2014-07-05T11:09:12Z</time>
      </trkpt>
      <trkpt lat="45.883784601464868" lon="7.865242576226592">
        <ele>3119.1300000000001</ele>
        <time>2014-07-05T11:09:31Z</time>
      </trkpt>
      <trkpt lat="45.883786780759692" lon="7.865242995321751">
        <ele>3119.1300000000001</ele>
        <time>2014-07-05T11:09:54Z</time>
      </trkpt>
      <trkpt lat="45.883800107985735" lon="7.865245342254639">
        <ele>3119.6199999999999</ele>
        <time>2014-07-05T11:10:16Z</time>
      </trkpt>
      <trkpt lat="45.883818045258522" lon="7.865240648388863">
        <ele>3119.6199999999999</ele>
        <time>2014-07-05T11:10:33Z</time>
      </trkpt>
      <trkpt lat="45.8838692586869" lon="7.865243665874004">
        <ele>3121.54</ele>
        <time>2014-07-05T11:10:44Z</time>
      </trkpt>
      <trkpt lat="45.883893566206098" lon="7.865262608975172">
        <ele>3122.5</ele>
        <time>2014-07-05T11:10:56Z</time>
      </trkpt>
      <trkpt lat="45.883876383304596" lon="7.865258837118745">
        <ele>3122.98</ele>
        <time>2014-07-05T11:11:16Z</time>
      </trkpt>
      <trkpt lat="45.883873701095581" lon="7.865253305062652">
        <ele>3122.98</ele>
        <time>2014-07-05T11:11:36Z</time>
      </trkpt>
      <trkpt lat="45.883923405781388" lon="7.865256993100047">
        <ele>3124.9000000000001</ele>
        <time>2014-07-05T11:11:47Z</time>
      </trkpt>
      <trkpt lat="45.883984761312604" lon="7.865290939807892">
        <ele>3127.3099999999999</ele>
        <time>2014-07-05T11:12:00Z</time>
      </trkpt>
      <trkpt lat="45.884041506797075" lon="7.865330250933766">
        <ele>3128.75</ele>
        <time>2014-07-05T11:12:12Z</time>
      </trkpt>
      <trkpt lat="45.884074531495571" lon="7.865324215963483">
        <ele>3129.71</ele>
        <time>2014-07-05T11:12:31Z</time>
      </trkpt>
      <trkpt lat="45.884072184562683" lon="7.865287167951465">
        <ele>3130.6700000000001</ele>
        <time>2014-07-05T11:12:46Z</time>
      </trkpt>
      <trkpt lat="45.884089870378375" lon="7.865274008363485">
        <ele>3132.1100000000001</ele>
        <time>2014-07-05T11:13:05Z</time>
      </trkpt>
      <trkpt lat="45.88408668525517" lon="7.865193709731102">
        <ele>3134.52</ele>
        <time>2014-07-05T11:13:19Z</time>
      </trkpt>
      <trkpt lat="45.884124152362347" lon="7.865151045843959">
        <ele>3136.4400000000001</ele>
        <time>2014-07-05T11:13:30Z</time>
      </trkpt>
      <trkpt lat="45.884182909503579" lon="7.865131599828601">
        <ele>3137.8800000000001</ele>
        <time>2014-07-05T11:13:44Z</time>
      </trkpt>
      <trkpt lat="45.884238816797733" lon="7.86513059400022">
        <ele>3138.8400000000001</ele>
        <time>2014-07-05T11:14:01Z</time>
      </trkpt>
      <trkpt lat="45.884278966113925" lon="7.865130677819252">
        <ele>3140.2800000000002</ele>
        <time>2014-07-05T11:14:14Z</time>
      </trkpt>
      <trkpt lat="45.884295478463173" lon="7.865116260945797">
        <ele>3141.25</ele>
        <time>2014-07-05T11:14:27Z</time>
      </trkpt>
      <trkpt lat="45.884340573102236" lon="7.865100335329771">
        <ele>3142.6900000000001</ele>
        <time>2014-07-05T11:14:41Z</time>
      </trkpt>
      <trkpt lat="45.884413328021765" lon="7.86506705917418">
        <ele>3145.0900000000001</ele>
        <time>2014-07-05T11:14:57Z</time>
      </trkpt>
      <trkpt lat="45.884452471509576" lon="7.865058090537787">
        <ele>3146.5300000000002</ele>
        <time>2014-07-05T11:15:10Z</time>
      </trkpt>
      <trkpt lat="45.884484490379691" lon="7.865059850737453">
        <ele>3147.0100000000002</ele>
        <time>2014-07-05T11:15:23Z</time>
      </trkpt>
      <trkpt lat="45.884534614160657" lon="7.865082817152143">
        <ele>3148.9400000000001</ele>
        <time>2014-07-05T11:15:38Z</time>
      </trkpt>
      <trkpt lat="45.884597478434443" lon="7.865071082487702">
        <ele>3150.3800000000001</ele>
        <time>2014-07-05T11:15:52Z</time>
      </trkpt>
      <trkpt lat="45.884652966633439" lon="7.865026323124766">
        <ele>3150.8600000000001</ele>
        <time>2014-07-05T11:16:04Z</time>
      </trkpt>
      <trkpt lat="45.884693367406726" lon="7.865059096366167">
        <ele>3152.7800000000002</ele>
        <time>2014-07-05T11:16:18Z</time>
      </trkpt>
      <trkpt lat="45.88473510928452" lon="7.865091199055314">
        <ele>3153.2600000000002</ele>
        <time>2014-07-05T11:16:31Z</time>
      </trkpt>
      <trkpt lat="45.884765787050128" lon="7.865109639242292">
        <ele>3154.2199999999998</ele>
        <time>2014-07-05T11:16:47Z</time>
      </trkpt>
      <trkpt lat="45.884806774556637" lon="7.865120619535446">
        <ele>3155.6599999999999</ele>
        <time>2014-07-05T11:17:02Z</time>
      </trkpt>
      <trkpt lat="45.884828986600041" lon="7.865100502967835">
        <ele>3157.1100000000001</ele>
        <time>2014-07-05T11:17:14Z</time>
      </trkpt>
      <trkpt lat="45.884843822568655" lon="7.865106454119086">
        <ele>3157.5900000000001</ele>
        <time>2014-07-05T11:17:27Z</time>
      </trkpt>
      <trkpt lat="45.884871734306216" lon="7.865104274824262">
        <ele>3159.0300000000002</ele>
        <time>2014-07-05T11:17:45Z</time>
      </trkpt>
      <trkpt lat="45.884893275797367" lon="7.865112572908402">
        <ele>3160.9499999999998</ele>
        <time>2014-07-05T11:17:57Z</time>
      </trkpt>
      <trkpt lat="45.884922696277499" lon="7.865068484097719">
        <ele>3161.4299999999998</ele>
        <time>2014-07-05T11:18:08Z</time>
      </trkpt>
      <trkpt lat="45.88496083393693" lon="7.864974774420261">
        <ele>3162.8800000000001</ele>
        <time>2014-07-05T11:18:22Z</time>
      </trkpt>
      <trkpt lat="45.884987991303205" lon="7.864975025877357">
        <ele>3164.8000000000002</ele>
        <time>2014-07-05T11:18:35Z</time>
      </trkpt>
      <trkpt lat="45.885014059022069" lon="7.86500888876617">
        <ele>3165.7600000000002</ele>
        <time>2014-07-05T11:18:47Z</time>
      </trkpt>
      <trkpt lat="45.885027889162302" lon="7.865042081102729">
        <ele>3167.6799999999998</ele>
        <time>2014-07-05T11:19:00Z</time>
      </trkpt>
      <trkpt lat="45.885033085942268" lon="7.865076949819922">
        <ele>3170.5700000000002</ele>
        <time>2014-07-05T11:19:08Z</time>
      </trkpt>
      <trkpt lat="45.885034007951617" lon="7.865083068609238">
        <ele>3170.0799999999999</ele>
        <time>2014-07-05T11:19:09Z</time>
      </trkpt>
      <trkpt lat="45.885035432875156" lon="7.865092540159822">
        <ele>3171.5300000000002</ele>
        <time>2014-07-05T11:19:23Z</time>
      </trkpt>
      <trkpt lat="45.885064098984003" lon="7.865061024203897">
        <ele>3173.4499999999998</ele>
        <time>2014-07-05T11:19:38Z</time>
      </trkpt>
      <trkpt lat="45.885075749829412" lon="7.86513595841825">
        <ele>3174.4099999999999</ele>
        <time>2014-07-05T11:19:45Z</time>
      </trkpt>
      <trkpt lat="45.88507960550487" lon="7.865221872925758">
        <ele>3176.3299999999999</ele>
        <time>2014-07-05T11:20:01Z</time>
      </trkpt>
      <trkpt lat="45.885104667395353" lon="7.86524835973978">
        <ele>3178.2600000000002</ele>
        <time>2014-07-05T11:20:13Z</time>
      </trkpt>
      <trkpt lat="45.885124951601028" lon="7.865215083584189">
        <ele>3179.2199999999998</ele>
        <time>2014-07-05T11:20:27Z</time>
      </trkpt>
      <trkpt lat="45.885159987956285" lon="7.865172503516078">
        <ele>3179.6999999999998</ele>
        <time>2014-07-05T11:20:39Z</time>
      </trkpt>
      <trkpt lat="45.885193264111876" lon="7.865137131884694">
        <ele>3182.0999999999999</ele>
        <time>2014-07-05T11:20:51Z</time>
      </trkpt>
      <trkpt lat="45.885213883593678" lon="7.865124642848969">
        <ele>3184.02</ele>
        <time>2014-07-05T11:21:02Z</time>
      </trkpt>
      <trkpt lat="45.885229725390673" lon="7.865106705576181">
        <ele>3184.98</ele>
        <time>2014-07-05T11:21:22Z</time>
      </trkpt>
      <trkpt lat="45.885255709290504" lon="7.865069825202227">
        <ele>3185.4699999999998</ele>
        <time>2014-07-05T11:21:38Z</time>
      </trkpt>
      <trkpt lat="45.885273814201355" lon="7.86507829092443">
        <ele>3186.9099999999999</ele>
        <time>2014-07-05T11:21:45Z</time>
      </trkpt>
      <trkpt lat="45.885295439511538" lon="7.865060856565833">
        <ele>3189.79</ele>
        <time>2014-07-05T11:22:01Z</time>
      </trkpt>
      <trkpt lat="45.885308347642422" lon="7.865093713626266">
        <ele>3191.23</ele>
        <time>2014-07-05T11:22:15Z</time>
      </trkpt>
      <trkpt lat="45.885303234681487" lon="7.865145094692707">
        <ele>3191.23</ele>
        <time>2014-07-05T11:22:27Z</time>
      </trkpt>
      <trkpt lat="45.88530876673758" lon="7.865172922611237">
        <ele>3191.23</ele>
        <time>2014-07-05T11:22:40Z</time>
      </trkpt>
      <trkpt lat="45.885339109227061" lon="7.865199660882354">
        <ele>3193.1599999999999</ele>
        <time>2014-07-05T11:22:51Z</time>
      </trkpt>
      <trkpt lat="45.885312119498849" lon="7.865153225138784">
        <ele>3194.5999999999999</ele>
        <time>2014-07-05T11:23:04Z</time>
      </trkpt>
      <trkpt lat="45.88535176590085" lon="7.865074435248971">
        <ele>3194.1199999999999</ele>
        <time>2014-07-05T11:23:20Z</time>
      </trkpt>
      <trkpt lat="45.885403398424387" lon="7.865118775516748">
        <ele>3196.04</ele>
        <time>2014-07-05T11:23:31Z</time>
      </trkpt>
      <trkpt lat="45.8854406978935" lon="7.865096144378185">
        <ele>3197</ele>
        <time>2014-07-05T11:23:43Z</time>
      </trkpt>
      <trkpt lat="45.885484032332897" lon="7.865111734718084">
        <ele>3198.9200000000001</ele>
        <time>2014-07-05T11:23:56Z</time>
      </trkpt>
      <trkpt lat="45.88550565764308" lon="7.86519605666399">
        <ele>3200.8499999999999</ele>
        <time>2014-07-05T11:24:10Z</time>
      </trkpt>
      <trkpt lat="45.885547399520874" lon="7.865220699459314">
        <ele>3202.29</ele>
        <time>2014-07-05T11:24:23Z</time>
      </trkpt>
      <trkpt lat="45.885667009279132" lon="7.865208210423589">
        <ele>3204.21</ele>
        <time>2014-07-05T11:24:39Z</time>
      </trkpt>
      <trkpt lat="45.885774800553918" lon="7.86514182575047">
        <ele>3204.6900000000001</ele>
        <time>2014-07-05T11:24:54Z</time>
      </trkpt>
      <trkpt lat="45.885853506624699" lon="7.865156158804894">
        <ele>3204.6900000000001</ele>
        <time>2014-07-05T11:25:08Z</time>
      </trkpt>
      <trkpt lat="45.885935900732875" lon="7.865226315334439">
        <ele>3203.73</ele>
        <time>2014-07-05T11:25:24Z</time>
      </trkpt>
      <trkpt lat="45.886022569611669" lon="7.865267721936107">
        <ele>3202.29</ele>
        <time>2014-07-05T11:25:37Z</time>
      </trkpt>
      <trkpt lat="45.886047882959247" lon="7.865253472700715">
        <ele>3201.8099999999999</ele>
        <time>2014-07-05T11:25:40Z</time>
      </trkpt>
      <trkpt lat="45.88612575083971" lon="7.865318013355136">
        <ele>3199.8899999999999</ele>
        <time>2014-07-05T11:25:51Z</time>
      </trkpt>
      <trkpt lat="45.886153746396303" lon="7.865321701392531">
        <ele>3198.9200000000001</ele>
        <time>2014-07-05T11:26:00Z</time>
      </trkpt>
      <trkpt lat="45.88623714633286" lon="7.865351289510727">
        <ele>3197.96</ele>
        <time>2014-07-05T11:26:08Z</time>
      </trkpt>
      <trkpt lat="45.88629238307476" lon="7.86534558981657">
        <ele>3196.52</ele>
        <time>2014-07-05T11:26:12Z</time>
      </trkpt>
      <trkpt lat="45.886328760534525" lon="7.865346511825919">
        <ele>3195.0799999999999</ele>
        <time>2014-07-05T11:26:15Z</time>
      </trkpt>
      <trkpt lat="45.886434623971581" lon="7.865461679175496">
        <ele>3196.04</ele>
        <time>2014-07-05T11:26:33Z</time>
      </trkpt>
      <trkpt lat="45.886430097743869" lon="7.86546578630805">
        <ele>3195.5599999999999</ele>
        <time>2014-07-05T11:26:49Z</time>
      </trkpt>
      <trkpt lat="45.886433450505137" lon="7.865462265908718">
        <ele>3194.5999999999999</ele>
        <time>2014-07-05T11:26:51Z</time>
      </trkpt>
      <trkpt lat="45.886438228189945" lon="7.865471486002207">
        <ele>3196.04</ele>
        <time>2014-07-05T11:27:13Z</time>
      </trkpt>
      <trkpt lat="45.886422386392951" lon="7.865472659468651">
        <ele>3195.5599999999999</ele>
        <time>2014-07-05T11:27:33Z</time>
      </trkpt>
      <trkpt lat="45.886426828801632" lon="7.865471569821239">
        <ele>3195.5599999999999</ele>
        <time>2014-07-05T11:27:49Z</time>
      </trkpt>
      <trkpt lat="45.886427415534854" lon="7.865469306707382">
        <ele>3195.5599999999999</ele>
        <time>2014-07-05T11:28:05Z</time>
      </trkpt>
      <trkpt lat="45.886508971452713" lon="7.865485902875662">
        <ele>3196.52</ele>
        <time>2014-07-05T11:28:20Z</time>
      </trkpt>
      <trkpt lat="45.886527244001627" lon="7.865495039150119">
        <ele>3197.48</ele>
        <time>2014-07-05T11:28:23Z</time>
      </trkpt>
      <trkpt lat="45.886584240943193" lon="7.86551758646965">
        <ele>3197.96</ele>
        <time>2014-07-05T11:28:28Z</time>
      </trkpt>
      <trkpt lat="45.886682728305459" lon="7.865660162642598">
        <ele>3199.4000000000001</ele>
        <time>2014-07-05T11:28:44Z</time>
      </trkpt>
      <trkpt lat="45.886705778539181" lon="7.86567541770637">
        <ele>3199.4000000000001</ele>
        <time>2014-07-05T11:28:47Z</time>
      </trkpt>
      <trkpt lat="45.8868273999542" lon="7.865751776844263">
        <ele>3199.8899999999999</ele>
        <time>2014-07-05T11:29:04Z</time>
      </trkpt>
      <trkpt lat="45.886897556483746" lon="7.865792596712709">
        <ele>3201.3299999999999</ele>
        <time>2014-07-05T11:29:19Z</time>
      </trkpt>
      <trkpt lat="45.886980872601271" lon="7.865826794877648">
        <ele>3203.73</ele>
        <time>2014-07-05T11:29:34Z</time>
      </trkpt>
      <trkpt lat="45.887059913948178" lon="7.865851605311036">
        <ele>3206.1300000000001</ele>
        <time>2014-07-05T11:29:50Z</time>
      </trkpt>
      <trkpt lat="45.887080114334822" lon="7.865811623632908">
        <ele>3207.5799999999999</ele>
        <time>2014-07-05T11:30:01Z</time>
      </trkpt>
      <trkpt lat="45.887134596705437" lon="7.865794692188501">
        <ele>3209.5</ele>
        <time>2014-07-05T11:30:14Z</time>
      </trkpt>
      <trkpt lat="45.887190671637654" lon="7.865826794877648">
        <ele>3209.98</ele>
        <time>2014-07-05T11:30:25Z</time>
      </trkpt>
      <trkpt lat="45.887232413515449" lon="7.865894185379148">
        <ele>3211.9000000000001</ele>
        <time>2014-07-05T11:30:39Z</time>
      </trkpt>
      <trkpt lat="45.887309359386563" lon="7.865920756012201">
        <ele>3214.3099999999999</ele>
        <time>2014-07-05T11:30:54Z</time>
      </trkpt>
      <trkpt lat="45.887346491217613" lon="7.865916648879647">
        <ele>3214.79</ele>
        <time>2014-07-05T11:31:01Z</time>
      </trkpt>
      <trkpt lat="45.887417066842318" lon="7.865937016904354">
        <ele>3216.23</ele>
        <time>2014-07-05T11:31:13Z</time>
      </trkpt>
      <trkpt lat="45.887514296919107" lon="7.865981692448258">
        <ele>3218.1500000000001</ele>
        <time>2014-07-05T11:31:30Z</time>
      </trkpt>
      <trkpt lat="45.88757942430675" lon="7.865989655256271">
        <ele>3219.1100000000001</ele>
        <time>2014-07-05T11:31:43Z</time>
      </trkpt>
      <trkpt lat="45.887644635513425" lon="7.86600667051971">
        <ele>3221.0300000000002</ele>
        <time>2014-07-05T11:31:59Z</time>
      </trkpt>
      <trkpt lat="45.887698447331786" lon="7.866014717146754">
        <ele>3222.48</ele>
        <time>2014-07-05T11:32:15Z</time>
      </trkpt>
      <trkpt lat="45.887757036834955" lon="7.865954367443919">
        <ele>3223.9200000000001</ele>
        <time>2014-07-05T11:32:28Z</time>
      </trkpt>
      <trkpt lat="45.887820404022932" lon="7.865943890064955">
        <ele>3225.8400000000001</ele>
        <time>2014-07-05T11:32:43Z</time>
      </trkpt>
      <trkpt lat="45.887881172820926" lon="7.865935927256942">
        <ele>3227.7600000000002</ele>
        <time>2014-07-05T11:32:56Z</time>
      </trkpt>
      <trkpt lat="45.887963734567165" lon="7.865915643051267">
        <ele>3229.6900000000001</ele>
        <time>2014-07-05T11:33:10Z</time>
      </trkpt>
      <trkpt lat="45.888006566092372" lon="7.865851437672973">
        <ele>3230.6500000000001</ele>
        <time>2014-07-05T11:33:21Z</time>
      </trkpt>
      <trkpt lat="45.888032801449299" lon="7.865817910060287">
        <ele>3230.6500000000001</ele>
        <time>2014-07-05T11:33:25Z</time>
      </trkpt>
      <trkpt lat="45.888161631301045" lon="7.865784969180822">
        <ele>3232.5700000000002</ele>
        <time>2014-07-05T11:33:40Z</time>
      </trkpt>
      <trkpt lat="45.888252994045615" lon="7.865792009979487">
        <ele>3234.0100000000002</ele>
        <time>2014-07-05T11:33:56Z</time>
      </trkpt>
      <trkpt lat="45.888309823349118" lon="7.865767199546099">
        <ele>3235.4499999999998</ele>
        <time>2014-07-05T11:34:08Z</time>
      </trkpt>
      <trkpt lat="45.888341590762138" lon="7.865774156525731">
        <ele>3237.3800000000001</ele>
        <time>2014-07-05T11:34:19Z</time>
      </trkpt>
      <trkpt lat="45.888380063697696" lon="7.865796787664294">
        <ele>3238.8200000000002</ele>
        <time>2014-07-05T11:34:33Z</time>
      </trkpt>
      <trkpt lat="45.888388445600867" lon="7.865822687745094">
        <ele>3240.7399999999998</ele>
        <time>2014-07-05T11:34:45Z</time>
      </trkpt>
      <trkpt lat="45.88841057382524" lon="7.865848504006863">
        <ele>3242.1799999999998</ele>
        <time>2014-07-05T11:34:55Z</time>
      </trkpt>
      <trkpt lat="45.888418201357126" lon="7.86581170745194">
        <ele>3243.6300000000001</ele>
        <time>2014-07-05T11:35:08Z</time>
      </trkpt>
      <trkpt lat="45.888437312096357" lon="7.865800727158785">
        <ele>3245.0700000000002</ele>
        <time>2014-07-05T11:35:22Z</time>
      </trkpt>
      <trkpt lat="45.888464134186506" lon="7.865807265043259">
        <ele>3246.9899999999998</ele>
        <time>2014-07-05T11:35:32Z</time>
      </trkpt>
      <trkpt lat="45.888479892164469" lon="7.865776838734746">
        <ele>3247.4699999999998</ele>
        <time>2014-07-05T11:35:44Z</time>
      </trkpt>
      <trkpt lat="45.888488441705704" lon="7.865799553692341">
        <ele>3247.9499999999998</ele>
        <time>2014-07-05T11:36:05Z</time>
      </trkpt>
      <trkpt lat="45.88851124048233" lon="7.865813383832574">
        <ele>3249.8699999999999</ele>
        <time>2014-07-05T11:36:16Z</time>
      </trkpt>
      <trkpt lat="45.888536972925067" lon="7.865838445723057">
        <ele>3251.8000000000002</ele>
        <time>2014-07-05T11:36:30Z</time>
      </trkpt>
      <trkpt lat="45.888579301536083" lon="7.865869542583823">
        <ele>3254.6799999999998</ele>
        <time>2014-07-05T11:36:43Z</time>
      </trkpt>
      <trkpt lat="45.88862313888967" lon="7.865859568119049">
        <ele>3255.6399999999999</ele>
        <time>2014-07-05T11:36:54Z</time>
      </trkpt>
      <trkpt lat="45.888687092810869" lon="7.865838780999184">
        <ele>3258.0500000000002</ele>
        <time>2014-07-05T11:37:09Z</time>
      </trkpt>
      <trkpt lat="45.888701090589166" lon="7.865832075476646">
        <ele>3258.5300000000002</ele>
        <time>2014-07-05T11:37:27Z</time>
      </trkpt>
      <trkpt lat="45.888719446957111" lon="7.865820173174143">
        <ele>3258.0500000000002</ele>
        <time>2014-07-05T11:37:43Z</time>
      </trkpt>
      <trkpt lat="45.888708047568798" lon="7.865841714665294">
        <ele>3259.0100000000002</ele>
        <time>2014-07-05T11:38:15Z</time>
      </trkpt>
      <trkpt lat="45.888704024255276" lon="7.86583811044693">
        <ele>3258.5300000000002</ele>
        <time>2014-07-05T11:38:37Z</time>
      </trkpt>
      <trkpt lat="45.888721793889999" lon="7.865842133760452">
        <ele>3259.0100000000002</ele>
        <time>2014-07-05T11:39:02Z</time>
      </trkpt>
      <trkpt lat="45.888740234076977" lon="7.865839283913374">
        <ele>3259.4899999999998</ele>
        <time>2014-07-05T11:39:29Z</time>
      </trkpt>
      <trkpt lat="45.888764960691333" lon="7.865804918110371">
        <ele>3259.0100000000002</ele>
        <time>2014-07-05T11:39:42Z</time>
      </trkpt>
      <trkpt lat="45.888811396434903" lon="7.865756386891007">
        <ele>3258.5300000000002</ele>
        <time>2014-07-05T11:40:00Z</time>
      </trkpt>
      <trkpt lat="45.888820365071297" lon="7.865717159584165">
        <ele>3258.0500000000002</ele>
        <time>2014-07-05T11:40:05Z</time>
      </trkpt>
      <trkpt lat="45.888807456940413" lon="7.865692432969809">
        <ele>3258.0500000000002</ele>
        <time>2014-07-05T11:40:07Z</time>
      </trkpt>
      <trkpt lat="45.888799577951431" lon="7.865674076601863">
        <ele>3257.0799999999999</ele>
        <time>2014-07-05T11:40:23Z</time>
      </trkpt>
      <trkpt lat="45.88876236230135" lon="7.865696037188172">
        <ele>3257.5599999999999</ele>
        <time>2014-07-05T11:40:41Z</time>
      </trkpt>
      <trkpt lat="45.888756159693003" lon="7.865693438798189">
        <ele>3257.5599999999999</ele>
        <time>2014-07-05T11:40:44Z</time>
      </trkpt>
      <trkpt lat="45.888751214370131" lon="7.865689247846603">
        <ele>3256.5999999999999</ele>
        <time>2014-07-05T11:40:54Z</time>
      </trkpt>
      <trkpt lat="45.888767223805189" lon="7.865696456283331">
        <ele>3256.1199999999999</ele>
        <time>2014-07-05T11:41:15Z</time>
      </trkpt>
      <trkpt lat="45.888770157471299" lon="7.865714225918055">
        <ele>3256.5999999999999</ele>
        <time>2014-07-05T11:41:38Z</time>
      </trkpt>
      <trkpt lat="45.888771247118711" lon="7.865717494860292">
        <ele>3256.5999999999999</ele>
        <time>2014-07-05T11:42:08Z</time>
      </trkpt>
      <trkpt lat="45.888781808316708" lon="7.865712717175484">
        <ele>3256.5999999999999</ele>
        <time>2014-07-05T11:42:42Z</time>
      </trkpt>
      <trkpt lat="45.888770073652267" lon="7.865733755752444">
        <ele>3256.1199999999999</ele>
        <time>2014-07-05T11:43:16Z</time>
      </trkpt>
      <trkpt lat="45.888753980398178" lon="7.865688242018223">
        <ele>3256.5999999999999</ele>
        <time>2014-07-05T11:43:26Z</time>
      </trkpt>
      <trkpt lat="45.888753058388829" lon="7.865687403827906">
        <ele>3256.5999999999999</ele>
        <time>2014-07-05T11:43:47Z</time>
      </trkpt>
      <trkpt lat="45.888753142207861" lon="7.865677261725068">
        <ele>3256.5999999999999</ele>
        <time>2014-07-05T11:44:28Z</time>
      </trkpt>
      <trkpt lat="45.888755656778812" lon="7.865685140714049">
        <ele>3256.5999999999999</ele>
        <time>2014-07-05T11:45:01Z</time>
      </trkpt>
      <trkpt lat="45.888762949034572" lon="7.865670053288341">
        <ele>3256.1199999999999</ele>
        <time>2014-07-05T11:45:37Z</time>
      </trkpt>
      <trkpt lat="45.888775018975139" lon="7.865685559809208">
        <ele>3256.1199999999999</ele>
        <time>2014-07-05T11:46:03Z</time>
      </trkpt>
      <trkpt lat="45.888770660385489" lon="7.865676507353783">
        <ele>3256.5999999999999</ele>
        <time>2014-07-05T11:46:33Z</time>
      </trkpt>
      <trkpt lat="45.888774348422885" lon="7.86566854454577">
        <ele>3256.5999999999999</ele>
        <time>2014-07-05T11:47:03Z</time>
      </trkpt>
      <trkpt lat="45.888773677870631" lon="7.865653121843934">
        <ele>3256.5999999999999</ele>
        <time>2014-07-05T11:47:39Z</time>
      </trkpt>
      <trkpt lat="45.88876286521554" lon="7.86568564362824">
        <ele>3256.5999999999999</ele>
        <time>2014-07-05T11:48:09Z</time>
      </trkpt>
      <trkpt lat="45.888772336766124" lon="7.865663347765803">
        <ele>3257.0799999999999</ele>
        <time>2014-07-05T11:48:42Z</time>
      </trkpt>
      <trkpt lat="45.888759344816208" lon="7.865677010267973">
        <ele>3257.0799999999999</ele>
        <time>2014-07-05T11:49:20Z</time>
      </trkpt>
      <trkpt lat="45.888762278482318" lon="7.865673573687673">
        <ele>3256.5999999999999</ele>
        <time>2014-07-05T11:49:57Z</time>
      </trkpt>
      <trkpt lat="45.888762278482318" lon="7.865693522617221">
        <ele>3257.0799999999999</ele>
        <time>2014-07-05T11:50:36Z</time>
      </trkpt>
      <trkpt lat="45.88875356130302" lon="7.865732247009873">
        <ele>3257.0799999999999</ele>
        <time>2014-07-05T11:51:00Z</time>
      </trkpt>
      <trkpt lat="45.888755992054939" lon="7.86573207937181">
        <ele>3257.0799999999999</ele>
        <time>2014-07-05T11:51:29Z</time>
      </trkpt>
      <trkpt lat="45.888776779174805" lon="7.865664688870311">
        <ele>3257.5599999999999</ele>
        <time>2014-07-05T11:51:50Z</time>
      </trkpt>
      <trkpt lat="45.888760853558779" lon="7.865690840408206">
        <ele>3257.5599999999999</ele>
        <time>2014-07-05T11:52:13Z</time>
      </trkpt>
      <trkpt lat="45.888774767518044" lon="7.865690505132079">
        <ele>3257.5599999999999</ele>
        <time>2014-07-05T11:52:41Z</time>
      </trkpt>
      <trkpt lat="45.888769486919045" lon="7.865702155977488">
        <ele>3258.0500000000002</ele>
        <time>2014-07-05T11:53:05Z</time>
      </trkpt>
      <trkpt lat="45.888774180784822" lon="7.865667454898357">
        <ele>3257.5599999999999</ele>
        <time>2014-07-05T11:53:39Z</time>
      </trkpt>
      <trkpt lat="45.888773258775473" lon="7.865664102137089">
        <ele>3258.0500000000002</ele>
        <time>2014-07-05T11:54:07Z</time>
      </trkpt>
      <trkpt lat="45.888757165521383" lon="7.865676591172814">
        <ele>3258.0500000000002</ele>
        <time>2014-07-05T11:54:33Z</time>
      </trkpt>
      <trkpt lat="45.888758674263954" lon="7.865711040794849">
        <ele>3258.5300000000002</ele>
        <time>2014-07-05T11:54:59Z</time>
      </trkpt>
      <trkpt lat="45.888758422806859" lon="7.865716991946101">
        <ele>3258.0500000000002</ele>
        <time>2014-07-05T11:55:24Z</time>
      </trkpt>
      <trkpt lat="45.888766804710031" lon="7.865695031359792">
        <ele>3258.5300000000002</ele>
        <time>2014-07-05T11:55:51Z</time>
      </trkpt>
      <trkpt lat="45.888756662607193" lon="7.865687152370811">
        <ele>3258.5300000000002</ele>
        <time>2014-07-05T11:56:24Z</time>
      </trkpt>
      <trkpt lat="45.888752555474639" lon="7.865703580901027">
        <ele>3258.5300000000002</ele>
        <time>2014-07-05T11:56:54Z</time>
      </trkpt>
      <trkpt lat="45.888765966519713" lon="7.865709029138088">
        <ele>3258.5300000000002</ele>
        <time>2014-07-05T11:57:27Z</time>
      </trkpt>
      <trkpt lat="45.888760769739747" lon="7.865709364414215">
        <ele>3258.5300000000002</ele>
        <time>2014-07-05T11:58:07Z</time>
      </trkpt>
      <trkpt lat="45.888764373958111" lon="7.865695031359792">
        <ele>3258.5300000000002</ele>
        <time>2014-07-05T11:58:39Z</time>
      </trkpt>
      <trkpt lat="45.888774432241917" lon="7.865680027753115">
        <ele>3259.0100000000002</ele>
        <time>2014-07-05T11:59:06Z</time>
      </trkpt>
      <trkpt lat="45.888772252947092" lon="7.865686481818557">
        <ele>3259.0100000000002</ele>
        <time>2014-07-05T11:59:34Z</time>
      </trkpt>
      <trkpt lat="45.888788346201181" lon="7.865690672770143">
        <ele>3259.9699999999998</ele>
        <time>2014-07-05T11:59:43Z</time>
      </trkpt>
      <trkpt lat="45.888785580173135" lon="7.865697965025902">
        <ele>3259.9699999999998</ele>
        <time>2014-07-05T11:59:57Z</time>
      </trkpt>
      <trkpt lat="45.888771079480648" lon="7.865719674155116">
        <ele>3259.9699999999998</ele>
        <time>2014-07-05T12:00:12Z</time>
      </trkpt>
      <trkpt lat="45.888749537989497" lon="7.865711795166135">
        <ele>3259.9699999999998</ele>
        <time>2014-07-05T12:00:19Z</time>
      </trkpt>
      <trkpt lat="45.888761943206191" lon="7.865713220089674">
        <ele>3259.0100000000002</ele>
        <time>2014-07-05T12:00:29Z</time>
      </trkpt>
      <trkpt lat="45.888731852173805" lon="7.865712717175484">
        <ele>3259.4899999999998</ele>
        <time>2014-07-05T12:00:56Z</time>
      </trkpt>
      <trkpt lat="45.888734953477979" lon="7.865688493475318">
        <ele>3259.4899999999998</ele>
        <time>2014-07-05T12:01:22Z</time>
      </trkpt>
      <trkpt lat="45.888723470270634" lon="7.865698719397187">
        <ele>3259.4899999999998</ele>
        <time>2014-07-05T12:01:43Z</time>
      </trkpt>
      <trkpt lat="45.888734785839915" lon="7.865694612264633">
        <ele>3260.4499999999998</ele>
        <time>2014-07-05T12:01:52Z</time>
      </trkpt>
      <trkpt lat="45.888777701184154" lon="7.86567784845829">
        <ele>3260.9299999999998</ele>
        <time>2014-07-05T12:02:05Z</time>
      </trkpt>
      <trkpt lat="45.888816174119711" lon="7.865679189562798">
        <ele>3261.4099999999999</ele>
        <time>2014-07-05T12:02:18Z</time>
      </trkpt>
      <trkpt lat="45.888858251273632" lon="7.865657899528742">
        <ele>3260.4499999999998</ele>
        <time>2014-07-05T12:02:31Z</time>
      </trkpt>
      <trkpt lat="45.888864872977138" lon="7.865642057731748">
        <ele>3260.9299999999998</ele>
        <time>2014-07-05T12:02:48Z</time>
      </trkpt>
      <trkpt lat="45.888864705339074" lon="7.865601070225239">
        <ele>3260.9299999999998</ele>
        <time>2014-07-05T12:03:03Z</time>
      </trkpt>
      <trkpt lat="45.888856071978807" lon="7.865553880110383">
        <ele>3260.4499999999998</ele>
        <time>2014-07-05T12:03:17Z</time>
      </trkpt>
      <trkpt lat="45.888902423903346" lon="7.865540217608213">
        <ele>3259.9699999999998</ele>
        <time>2014-07-05T12:03:33Z</time>
      </trkpt>
      <trkpt lat="45.888927821069956" lon="7.865482717752457">
        <ele>3259.0100000000002</ele>
        <time>2014-07-05T12:03:39Z</time>
      </trkpt>
      <trkpt lat="45.888990014791489" lon="7.86537148989737">
        <ele>3257.0799999999999</ele>
        <time>2014-07-05T12:03:53Z</time>
      </trkpt>
      <trkpt lat="45.888993535190821" lon="7.865365454927087">
        <ele>3256.5999999999999</ele>
        <time>2014-07-05T12:03:54Z</time>
      </trkpt>
      <trkpt lat="45.889063104987144" lon="7.865293202921748">
        <ele>3255.1599999999999</ele>
        <time>2014-07-05T12:04:09Z</time>
      </trkpt>
      <trkpt lat="45.889125298708677" lon="7.865243665874004">
        <ele>3255.6399999999999</ele>
        <time>2014-07-05T12:04:22Z</time>
      </trkpt>
      <trkpt lat="45.889205513522029" lon="7.865142328664661">
        <ele>3255.6399999999999</ele>
        <time>2014-07-05T12:04:37Z</time>
      </trkpt>
      <trkpt lat="45.88924951851368" lon="7.865101508796215">
        <ele>3256.1199999999999</ele>
        <time>2014-07-05T12:04:48Z</time>
      </trkpt>
      <trkpt lat="45.889292936772108" lon="7.865032609552145">
        <ele>3256.1199999999999</ele>
        <time>2014-07-05T12:05:00Z</time>
      </trkpt>
      <trkpt lat="45.889347586780787" lon="7.864973181858659">
        <ele>3257.5599999999999</ele>
        <time>2014-07-05T12:05:15Z</time>
      </trkpt>
      <trkpt lat="45.889399135485291" lon="7.864882741123438">
        <ele>3258.5300000000002</ele>
        <time>2014-07-05T12:05:32Z</time>
      </trkpt>
      <trkpt lat="45.889444816857576" lon="7.864821050316095">
        <ele>3259.4899999999998</ele>
        <time>2014-07-05T12:05:48Z</time>
      </trkpt>
      <trkpt lat="45.889484127983451" lon="7.864744858816266">
        <ele>3259.9699999999998</ele>
        <time>2014-07-05T12:06:02Z</time>
      </trkpt>
      <trkpt lat="45.889525702223182" lon="7.86468593403697">
        <ele>3260.9299999999998</ele>
        <time>2014-07-05T12:06:16Z</time>
      </trkpt>
      <trkpt lat="45.889569874852896" lon="7.864637318998575">
        <ele>3261.8899999999999</ele>
        <time>2014-07-05T12:06:30Z</time>
      </trkpt>
      <trkpt lat="45.889610359445214" lon="7.864584261551499">
        <ele>3262.8499999999999</ele>
        <time>2014-07-05T12:06:44Z</time>
      </trkpt>
      <trkpt lat="45.889656124636531" lon="7.864508656784892">
        <ele>3263.3299999999999</ele>
        <time>2014-07-05T12:06:59Z</time>
      </trkpt>
      <trkpt lat="45.889717731624842" lon="7.864395584911108">
        <ele>3263.3299999999999</ele>
        <time>2014-07-05T12:07:14Z</time>
      </trkpt>
      <trkpt lat="45.889797694981098" lon="7.864293325692415">
        <ele>3262.8499999999999</ele>
        <time>2014-07-05T12:07:29Z</time>
      </trkpt>
      <trkpt lat="45.889847902581096" lon="7.864193161949515">
        <ele>3263.3299999999999</ele>
        <time>2014-07-05T12:07:45Z</time>
      </trkpt>
      <trkpt lat="45.889903893694282" lon="7.864094423130155">
        <ele>3263.8099999999999</ele>
        <time>2014-07-05T12:08:00Z</time>
      </trkpt>
      <trkpt lat="45.889949826523662" lon="7.864010687917471">
        <ele>3264.29</ele>
        <time>2014-07-05T12:08:16Z</time>
      </trkpt>
      <trkpt lat="45.889980001375079" lon="7.863934496417642">
        <ele>3264.29</ele>
        <time>2014-07-05T12:08:31Z</time>
      </trkpt>
      <trkpt lat="45.890023838728666" lon="7.863885881379247">
        <ele>3265.7399999999998</ele>
        <time>2014-07-05T12:08:48Z</time>
      </trkpt>
      <trkpt lat="45.890066167339683" lon="7.863798374310136">
        <ele>3265.7399999999998</ele>
        <time>2014-07-05T12:09:02Z</time>
      </trkpt>
      <trkpt lat="45.89010271243751" lon="7.863722015172243">
        <ele>3266.6999999999998</ele>
        <time>2014-07-05T12:09:16Z</time>
      </trkpt>
      <trkpt lat="45.890134982764721" lon="7.863658731803298">
        <ele>3268.6199999999999</ele>
        <time>2014-07-05T12:09:32Z</time>
      </trkpt>
      <trkpt lat="45.890155099332333" lon="7.863609278574586">
        <ele>3269.0999999999999</ele>
        <time>2014-07-05T12:09:47Z</time>
      </trkpt>
      <trkpt lat="45.890168510377407" lon="7.863557143136859">
        <ele>3269.5799999999999</ele>
        <time>2014-07-05T12:09:59Z</time>
      </trkpt>
      <trkpt lat="45.890200361609459" lon="7.863504756242037">
        <ele>3271.02</ele>
        <time>2014-07-05T12:10:14Z</time>
      </trkpt>
      <trkpt lat="45.890217376872897" lon="7.863440131768584">
        <ele>3271.98</ele>
        <time>2014-07-05T12:10:27Z</time>
      </trkpt>
      <trkpt lat="45.890234224498272" lon="7.863382380455732">
        <ele>3272.46</ele>
        <time>2014-07-05T12:10:40Z</time>
      </trkpt>
      <trkpt lat="45.890245037153363" lon="7.863304847851396">
        <ele>3273.4299999999998</ele>
        <time>2014-07-05T12:10:54Z</time>
      </trkpt>
      <trkpt lat="45.890255011618137" lon="7.863238966092467">
        <ele>3273.9099999999999</ele>
        <time>2014-07-05T12:11:08Z</time>
      </trkpt>
      <trkpt lat="45.890263812616467" lon="7.863184064626694">
        <ele>3273.9099999999999</ele>
        <time>2014-07-05T12:11:22Z</time>
      </trkpt>
      <trkpt lat="45.890292730182409" lon="7.86311499774456">
        <ele>3273.4299999999998</ele>
        <time>2014-07-05T12:11:35Z</time>
      </trkpt>
      <trkpt lat="45.890326509252191" lon="7.863069986924529">
        <ele>3272.9499999999998</ele>
        <time>2014-07-05T12:11:40Z</time>
      </trkpt>
      <trkpt lat="45.890392977744341" lon="7.862921040505171">
        <ele>3272.9499999999998</ele>
        <time>2014-07-05T12:11:56Z</time>
      </trkpt>
      <trkpt lat="45.890435138717294" lon="7.862845016643405">
        <ele>3272.9499999999998</ele>
        <time>2014-07-05T12:12:08Z</time>
      </trkpt>
      <trkpt lat="45.890488950535655" lon="7.862751642242074">
        <ele>3273.4299999999998</ele>
        <time>2014-07-05T12:12:22Z</time>
      </trkpt>
      <trkpt lat="45.890527758747339" lon="7.862690789625049">
        <ele>3273.9099999999999</ele>
        <time>2014-07-05T12:12:34Z</time>
      </trkpt>
      <trkpt lat="45.890566483139992" lon="7.862629937008023">
        <ele>3273.9099999999999</ele>
        <time>2014-07-05T12:12:49Z</time>
      </trkpt>
      <trkpt lat="45.89061283506453" lon="7.862525414675474">
        <ele>3274.3899999999999</ele>
        <time>2014-07-05T12:13:06Z</time>
      </trkpt>
      <trkpt lat="45.890651727095246" lon="7.862463388592005">
        <ele>3274.8699999999999</ele>
        <time>2014-07-05T12:13:23Z</time>
      </trkpt>
      <trkpt lat="45.890679219737649" lon="7.862393315881491">
        <ele>3275.8299999999999</ele>
        <time>2014-07-05T12:13:37Z</time>
      </trkpt>
      <trkpt lat="45.89070905931294" lon="7.862322153523564">
        <ele>3276.79</ele>
        <time>2014-07-05T12:13:52Z</time>
      </trkpt>
      <trkpt lat="45.89074476622045" lon="7.862280746921897">
        <ele>3278.23</ele>
        <time>2014-07-05T12:14:05Z</time>
      </trkpt>
      <trkpt lat="45.890791369602084" lon="7.862177649512887">
        <ele>3279.6700000000001</ele>
        <time>2014-07-05T12:14:24Z</time>
      </trkpt>
      <trkpt lat="45.89082146063447" lon="7.86209324374795">
        <ele>3280.6399999999999</ele>
        <time>2014-07-05T12:14:37Z</time>
      </trkpt>
      <trkpt lat="45.890813916921616" lon="7.862090058624744">
        <ele>3280.6399999999999</ele>
        <time>2014-07-05T12:14:54Z</time>
      </trkpt>
      <trkpt lat="45.890861190855503" lon="7.861973801627755">
        <ele>3281.5999999999999</ele>
        <time>2014-07-05T12:15:11Z</time>
      </trkpt>
      <trkpt lat="45.890903770923615" lon="7.861877409741283">
        <ele>3282.5599999999999</ele>
        <time>2014-07-05T12:15:25Z</time>
      </trkpt>
      <trkpt lat="45.890952553600073" lon="7.861775234341621">
        <ele>3284.48</ele>
        <time>2014-07-05T12:15:41Z</time>
      </trkpt>
      <trkpt lat="45.891009634360671" lon="7.861678171902895">
        <ele>3284</ele>
        <time>2014-07-05T12:15:55Z</time>
      </trkpt>
      <trkpt lat="45.891031343489885" lon="7.861641542986035">
        <ele>3284.96</ele>
        <time>2014-07-05T12:16:10Z</time>
      </trkpt>
      <trkpt lat="45.891065960749984" lon="7.861556382849813">
        <ele>3284.96</ele>
        <time>2014-07-05T12:16:22Z</time>
      </trkpt>
      <trkpt lat="45.891125220805407" lon="7.861443981528282">
        <ele>3285.9200000000001</ele>
        <time>2014-07-05T12:16:39Z</time>
      </trkpt>
      <trkpt lat="45.891153384000063" lon="7.861381787806749">
        <ele>3286.4000000000001</ele>
        <time>2014-07-05T12:16:50Z</time>
      </trkpt>
      <trkpt lat="45.891194706782699" lon="7.861274164170027">
        <ele>3287.3699999999999</ele>
        <time>2014-07-05T12:17:04Z</time>
      </trkpt>
      <trkpt lat="45.891218343749642" lon="7.86119906231761">
        <ele>3287.8499999999999</ele>
        <time>2014-07-05T12:17:15Z</time>
      </trkpt>
      <trkpt lat="45.891257403418422" lon="7.861080206930637">
        <ele>3288.8099999999999</ele>
        <time>2014-07-05T12:17:30Z</time>
      </trkpt>
      <trkpt lat="45.891291098669171" lon="7.861000327393413">
        <ele>3289.77</ele>
        <time>2014-07-05T12:17:41Z</time>
      </trkpt>
      <trkpt lat="45.891313059255481" lon="7.86085263825953">
        <ele>3288.8099999999999</ele>
        <time>2014-07-05T12:17:58Z</time>
      </trkpt>
      <trkpt lat="45.891328314319253" lon="7.860737638548017">
        <ele>3288.8099999999999</ele>
        <time>2014-07-05T12:18:13Z</time>
      </trkpt>
      <trkpt lat="45.891353627666831" lon="7.860606210306287">
        <ele>3288.8099999999999</ele>
        <time>2014-07-05T12:18:28Z</time>
      </trkpt>
      <trkpt lat="45.891371229663491" lon="7.860468830913305">
        <ele>3288.8099999999999</ele>
        <time>2014-07-05T12:18:43Z</time>
      </trkpt>
      <trkpt lat="45.891383970156312" lon="7.860351735725999">
        <ele>3290.25</ele>
        <time>2014-07-05T12:18:58Z</time>
      </trkpt>
      <trkpt lat="45.891394279897213" lon="7.860239082947373">
        <ele>3290.73</ele>
        <time>2014-07-05T12:19:09Z</time>
      </trkpt>
      <trkpt lat="45.891441637650132" lon="7.860188707709312">
        <ele>3292.6500000000001</ele>
        <time>2014-07-05T12:19:22Z</time>
      </trkpt>
      <trkpt lat="45.89143761433661" lon="7.86024184897542">
        <ele>3292.6500000000001</ele>
        <time>2014-07-05T12:19:31Z</time>
      </trkpt>
      <trkpt lat="45.891424873843789" lon="7.860235730186105">
        <ele>3291.6900000000001</ele>
        <time>2014-07-05T12:19:39Z</time>
      </trkpt>
      <trkpt lat="45.891440128907561" lon="7.860254170373082">
        <ele>3292.1700000000001</ele>
        <time>2014-07-05T12:20:12Z</time>
      </trkpt>
      <trkpt lat="45.891446750611067" lon="7.860249979421496">
        <ele>3291.6900000000001</ele>
        <time>2014-07-05T12:20:19Z</time>
      </trkpt>
      <trkpt lat="45.891447504982352" lon="7.860251488164067">
        <ele>3292.6500000000001</ele>
        <time>2014-07-05T12:20:29Z</time>
      </trkpt>
      <trkpt lat="45.891439290717244" lon="7.860264563933015">
        <ele>3292.6500000000001</ele>
        <time>2014-07-05T12:20:44Z</time>
      </trkpt>
      <trkpt lat="45.891463262960315" lon="7.860129112377763">
        <ele>3291.6900000000001</ele>
        <time>2014-07-05T12:20:56Z</time>
      </trkpt>
      <trkpt lat="45.89155001565814" lon="7.859994079917669">
        <ele>3291.21</ele>
        <time>2014-07-05T12:21:12Z</time>
      </trkpt>
      <trkpt lat="45.89160961098969" lon="7.859893413260579">
        <ele>3291.21</ele>
        <time>2014-07-05T12:21:25Z</time>
      </trkpt>
      <trkpt lat="45.891636768355966" lon="7.859816886484623">
        <ele>3291.6900000000001</ele>
        <time>2014-07-05T12:21:42Z</time>
      </trkpt>
      <trkpt lat="45.89164481498301" lon="7.859825687482953">
        <ele>3291.21</ele>
        <time>2014-07-05T12:22:02Z</time>
      </trkpt>
      <trkpt lat="45.891654873266816" lon="7.859842032194138">
        <ele>3291.6900000000001</ele>
        <time>2014-07-05T12:22:20Z</time>
      </trkpt>
      <trkpt lat="45.891658142209053" lon="7.859811773523688">
        <ele>3292.1700000000001</ele>
        <time>2014-07-05T12:22:33Z</time>
      </trkpt>
      <trkpt lat="45.891689406707883" lon="7.859690152108669">
        <ele>3292.6500000000001</ele>
        <time>2014-07-05T12:22:48Z</time>
      </trkpt>
      <trkpt lat="45.891681527718902" lon="7.859604405239224">
        <ele>3293.1300000000001</ele>
        <time>2014-07-05T12:23:02Z</time>
      </trkpt>
      <trkpt lat="45.891681611537933" lon="7.859595268964768">
        <ele>3293.6100000000001</ele>
        <time>2014-07-05T12:23:31Z</time>
      </trkpt>
      <trkpt lat="45.891673984006047" lon="7.859600214287639">
        <ele>3293.6100000000001</ele>
        <time>2014-07-05T12:23:55Z</time>
      </trkpt>
      <trkpt lat="45.89167364872992" lon="7.859610188752413">
        <ele>3293.6100000000001</ele>
        <time>2014-07-05T12:24:16Z</time>
      </trkpt>
      <trkpt lat="45.891684545204043" lon="7.859604153782129">
        <ele>3293.6100000000001</ele>
        <time>2014-07-05T12:24:40Z</time>
      </trkpt>
      <trkpt lat="45.89168194681406" lon="7.859577499330044">
        <ele>3293.6100000000001</ele>
        <time>2014-07-05T12:25:01Z</time>
      </trkpt>
      <trkpt lat="45.891684126108885" lon="7.859485549852252">
        <ele>3294.0900000000001</ele>
        <time>2014-07-05T12:25:17Z</time>
      </trkpt>
      <trkpt lat="45.891694854944944" lon="7.85938530229032">
        <ele>3294.0900000000001</ele>
        <time>2014-07-05T12:25:36Z</time>
      </trkpt>
      <trkpt lat="45.891711283475161" lon="7.859238283708692">
        <ele>3294.5799999999999</ele>
        <time>2014-07-05T12:25:51Z</time>
      </trkpt>
      <trkpt lat="45.891714720055461" lon="7.859108196571469">
        <ele>3295.0599999999999</ele>
        <time>2014-07-05T12:26:05Z</time>
      </trkpt>
      <trkpt lat="45.891702733933926" lon="7.858963357284665">
        <ele>3294.0900000000001</ele>
        <time>2014-07-05T12:26:20Z</time>
      </trkpt>
      <trkpt lat="45.891692508012056" lon="7.858838886022568">
        <ele>3293.6100000000001</ele>
        <time>2014-07-05T12:26:34Z</time>
      </trkpt>
      <trkpt lat="45.891678761690855" lon="7.858704356476665">
        <ele>3292.1700000000001</ele>
        <time>2014-07-05T12:26:48Z</time>
      </trkpt>
      <trkpt lat="45.891641294583678" lon="7.858585333451629">
        <ele>3289.77</ele>
        <time>2014-07-05T12:27:02Z</time>
      </trkpt>
      <trkpt lat="45.891641965135932" lon="7.858557756990194">
        <ele>3289.29</ele>
        <time>2014-07-05T12:27:04Z</time>
      </trkpt>
      <trkpt lat="45.891613215208054" lon="7.858379054814577">
        <ele>3286.4000000000001</ele>
        <time>2014-07-05T12:27:19Z</time>
      </trkpt>
      <trkpt lat="45.891580609604716" lon="7.858191384002566">
        <ele>3284.96</ele>
        <time>2014-07-05T12:27:35Z</time>
      </trkpt>
      <trkpt lat="45.891579436138272" lon="7.858157940208912">
        <ele>3284.48</ele>
        <time>2014-07-05T12:27:42Z</time>
      </trkpt>
      <trkpt lat="45.891560493037105" lon="7.85807085223496">
        <ele>3283.52</ele>
        <time>2014-07-05T12:27:50Z</time>
      </trkpt>
      <trkpt lat="45.891548590734601" lon="7.857924504205585">
        <ele>3283.04</ele>
        <time>2014-07-05T12:28:04Z</time>
      </trkpt>
      <trkpt lat="45.891507351770997" lon="7.857793159782887">
        <ele>3282.0799999999999</ele>
        <time>2014-07-05T12:28:19Z</time>
      </trkpt>
      <trkpt lat="45.891494946554303" lon="7.8577527590096">
        <ele>3281.5999999999999</ele>
        <time>2014-07-05T12:28:33Z</time>
      </trkpt>
      <trkpt lat="45.891476590186357" lon="7.85774395801127">
        <ele>3281.5999999999999</ele>
        <time>2014-07-05T12:28:49Z</time>
      </trkpt>
      <trkpt lat="45.891427053138614" lon="7.857618816196919">
        <ele>3281.5999999999999</ele>
        <time>2014-07-05T12:29:03Z</time>
      </trkpt>
      <trkpt lat="45.891369469463825" lon="7.857461404055357">
        <ele>3280.1599999999999</ele>
        <time>2014-07-05T12:29:16Z</time>
      </trkpt>
      <trkpt lat="45.891361590474844" lon="7.857328047975898">
        <ele>3280.1599999999999</ele>
        <time>2014-07-05T12:29:31Z</time>
      </trkpt>
      <trkpt lat="45.891407104209065" lon="7.857290245592594">
        <ele>3279.6700000000001</ele>
        <time>2014-07-05T12:29:47Z</time>
      </trkpt>
      <trkpt lat="45.891498550772667" lon="7.857313128188252">
        <ele>3279.6700000000001</ele>
        <time>2014-07-05T12:29:59Z</time>
      </trkpt>
      <trkpt lat="45.891508776694536" lon="7.857321174815297">
        <ele>3279.6700000000001</ele>
        <time>2014-07-05T12:30:00Z</time>
      </trkpt>
      <trkpt lat="45.891625452786684" lon="7.857356127351522">
        <ele>3279.1900000000001</ele>
        <time>2014-07-05T12:30:15Z</time>
      </trkpt>
      <trkpt lat="45.891716061159968" lon="7.857395773753524">
        <ele>3281.1199999999999</ele>
        <time>2014-07-05T12:30:31Z</time>
      </trkpt>
      <trkpt lat="45.891783535480499" lon="7.857422176748514">
        <ele>3282.5599999999999</ele>
        <time>2014-07-05T12:30:44Z</time>
      </trkpt>
      <trkpt lat="45.891878586262465" lon="7.857444724068046">
        <ele>3284.96</ele>
        <time>2014-07-05T12:31:02Z</time>
      </trkpt>
      <trkpt lat="45.891949748620391" lon="7.857450675219297">
        <ele>3286.4000000000001</ele>
        <time>2014-07-05T12:31:16Z</time>
      </trkpt>
      <trkpt lat="45.89200540445745" lon="7.857479173690081">
        <ele>3288.3299999999999</ele>
        <time>2014-07-05T12:31:30Z</time>
      </trkpt>
      <trkpt lat="45.892023174092174" lon="7.857481017708778">
        <ele>3289.77</ele>
        <time>2014-07-05T12:31:45Z</time>
      </trkpt>
      <trkpt lat="45.892028706148267" lon="7.85747230052948">
        <ele>3289.77</ele>
        <time>2014-07-05T12:32:00Z</time>
      </trkpt>
      <trkpt lat="45.892032310366631" lon="7.857467103749514">
        <ele>3288.8099999999999</ele>
        <time>2014-07-05T12:32:24Z</time>
      </trkpt>
      <trkpt lat="45.892040273174644" lon="7.857482526451349">
        <ele>3289.29</ele>
        <time>2014-07-05T12:32:40Z</time>
      </trkpt>
      <trkpt lat="45.892118560150266" lon="7.857480430975556">
        <ele>3290.73</ele>
        <time>2014-07-05T12:32:55Z</time>
      </trkpt>
      <trkpt lat="45.892141945660114" lon="7.857507755979896">
        <ele>3291.6900000000001</ele>
        <time>2014-07-05T12:33:09Z</time>
      </trkpt>
      <trkpt lat="45.892142113298178" lon="7.857512198388577">
        <ele>3291.6900000000001</ele>
        <time>2014-07-05T12:33:36Z</time>
      </trkpt>
      <trkpt lat="45.892208833247423" lon="7.857514545321465">
        <ele>3292.6500000000001</ele>
        <time>2014-07-05T12:33:52Z</time>
      </trkpt>
      <trkpt lat="45.892313439399004" lon="7.857500966638327">
        <ele>3294.5799999999999</ele>
        <time>2014-07-05T12:34:07Z</time>
      </trkpt>
      <trkpt lat="45.892412597313523" lon="7.857451597228646">
        <ele>3296.02</ele>
        <time>2014-07-05T12:34:22Z</time>
      </trkpt>
      <trkpt lat="45.892489543184638" lon="7.857432905584574">
        <ele>3297.9400000000001</ele>
        <time>2014-07-05T12:34:38Z</time>
      </trkpt>
      <trkpt lat="45.892549809068441" lon="7.857420081272721">
        <ele>3299.3800000000001</ele>
        <time>2014-07-05T12:34:51Z</time>
      </trkpt>
      <trkpt lat="45.892628515139222" lon="7.857411112636328">
        <ele>3300.8200000000002</ele>
        <time>2014-07-05T12:35:05Z</time>
      </trkpt>
      <trkpt lat="45.892680147662759" lon="7.857361240312457">
        <ele>3302.75</ele>
        <time>2014-07-05T12:35:20Z</time>
      </trkpt>
      <trkpt lat="45.892737060785294" lon="7.857328550890088">
        <ele>3304.1900000000001</ele>
        <time>2014-07-05T12:35:33Z</time>
      </trkpt>
      <trkpt lat="45.892779640853405" lon="7.857329053804278">
        <ele>3305.6300000000001</ele>
        <time>2014-07-05T12:35:44Z</time>
      </trkpt>
      <trkpt lat="45.89284778572619" lon="7.857293514534831">
        <ele>3307.5500000000002</ele>
        <time>2014-07-05T12:35:57Z</time>
      </trkpt>
      <trkpt lat="45.892910398542881" lon="7.857276163995266">
        <ele>3309.48</ele>
        <time>2014-07-05T12:36:12Z</time>
      </trkpt>
      <trkpt lat="45.892967730760574" lon="7.857262836769223">
        <ele>3310.9200000000001</ele>
        <time>2014-07-05T12:36:27Z</time>
      </trkpt>
      <trkpt lat="45.893033444881439" lon="7.857287479564548">
        <ele>3312.8400000000001</ele>
        <time>2014-07-05T12:36:41Z</time>
      </trkpt>
      <trkpt lat="45.89307845570147" lon="7.857330478727818">
        <ele>3314.2800000000002</ele>
        <time>2014-07-05T12:36:54Z</time>
      </trkpt>
      <trkpt lat="45.893120616674423" lon="7.857321174815297">
        <ele>3316.21</ele>
        <time>2014-07-05T12:37:08Z</time>
      </trkpt>
      <trkpt lat="45.893185073509812" lon="7.85731740295887">
        <ele>3317.6500000000001</ele>
        <time>2014-07-05T12:37:22Z</time>
      </trkpt>
      <trkpt lat="45.893248356878757" lon="7.857301225885749">
        <ele>3319.0900000000001</ele>
        <time>2014-07-05T12:37:33Z</time>
      </trkpt>
      <trkpt lat="45.893290853127837" lon="7.85728513263166">
        <ele>3320.5300000000002</ele>
        <time>2014-07-05T12:37:46Z</time>
      </trkpt>
      <trkpt lat="45.893365452066064" lon="7.857276163995266">
        <ele>3321.9699999999998</ele>
        <time>2014-07-05T12:38:01Z</time>
      </trkpt>
      <trkpt lat="45.89344197884202" lon="7.857278594747186">
        <ele>3323.4200000000001</ele>
        <time>2014-07-05T12:38:17Z</time>
      </trkpt>
      <trkpt lat="45.893526216968894" lon="7.857275577262044">
        <ele>3324.8600000000001</ele>
        <time>2014-07-05T12:38:31Z</time>
      </trkpt>
      <trkpt lat="45.893597966060042" lon="7.857276583090425">
        <ele>3325.8200000000002</ele>
        <time>2014-07-05T12:38:44Z</time>
      </trkpt>
      <trkpt lat="45.893675666302443" lon="7.857273817062378">
        <ele>3327.2600000000002</ele>
        <time>2014-07-05T12:38:59Z</time>
      </trkpt>
      <trkpt lat="45.89374884031713" lon="7.857261998578906">
        <ele>3328.2199999999998</ele>
        <time>2014-07-05T12:39:14Z</time>
      </trkpt>
      <trkpt lat="45.893826959654689" lon="7.857217909768224">
        <ele>3328.6999999999998</ele>
        <time>2014-07-05T12:39:29Z</time>
      </trkpt>
      <trkpt lat="45.89392720721662" lon="7.857165522873402">
        <ele>3329.6599999999999</ele>
        <time>2014-07-05T12:39:45Z</time>
      </trkpt>
      <trkpt lat="45.894009433686733" lon="7.857140377163887">
        <ele>3329.6599999999999</ele>
        <time>2014-07-05T12:39:58Z</time>
      </trkpt>
      <trkpt lat="45.894108591601253" lon="7.857072902843356">
        <ele>3330.1399999999999</ele>
        <time>2014-07-05T12:40:14Z</time>
      </trkpt>
      <trkpt lat="45.894183777272701" lon="7.856976008042693">
        <ele>3331.1100000000001</ele>
        <time>2014-07-05T12:40:27Z</time>
      </trkpt>
      <trkpt lat="45.894261142238975" lon="7.856987155973911">
        <ele>3331.5900000000001</ele>
        <time>2014-07-05T12:40:39Z</time>
      </trkpt>
      <trkpt lat="45.894368933513761" lon="7.856966955587268">
        <ele>3332.5500000000002</ele>
        <time>2014-07-05T12:40:55Z</time>
      </trkpt>
      <trkpt lat="45.894509581848979" lon="7.856968548148871">
        <ele>3333.0300000000002</ele>
        <time>2014-07-05T12:41:13Z</time>
      </trkpt>
      <trkpt lat="45.894632712006569" lon="7.856939798220992">
        <ele>3333.5100000000002</ele>
        <time>2014-07-05T12:41:28Z</time>
      </trkpt>
      <trkpt lat="45.894732121378183" lon="7.856914065778256">
        <ele>3333.9899999999998</ele>
        <time>2014-07-05T12:41:45Z</time>
      </trkpt>
      <trkpt lat="45.894835134968162" lon="7.856853129342198">
        <ele>3334.9499999999998</ele>
        <time>2014-07-05T12:42:01Z</time>
      </trkpt>
      <trkpt lat="45.894928425550461" lon="7.856764700263739">
        <ele>3336.3899999999999</ele>
        <time>2014-07-05T12:42:17Z</time>
      </trkpt>
      <trkpt lat="45.895017189905047" lon="7.856707703322172">
        <ele>3337.8299999999999</ele>
        <time>2014-07-05T12:42:35Z</time>
      </trkpt>
      <trkpt lat="45.895084664225578" lon="7.856687922030687">
        <ele>3339.2800000000002</ele>
        <time>2014-07-05T12:42:50Z</time>
      </trkpt>
      <trkpt lat="45.89513411745429" lon="7.856621285900474">
        <ele>3340.7199999999998</ele>
        <time>2014-07-05T12:43:06Z</time>
      </trkpt>
      <trkpt lat="45.895177284255624" lon="7.856539897620678">
        <ele>3342.1599999999999</ele>
        <time>2014-07-05T12:43:23Z</time>
      </trkpt>
      <trkpt lat="45.895218858495355" lon="7.85645498894155">
        <ele>3343.5999999999999</ele>
        <time>2014-07-05T12:43:39Z</time>
      </trkpt>
      <trkpt lat="45.895251631736755" lon="7.856358261778951">
        <ele>3345.04</ele>
        <time>2014-07-05T12:43:54Z</time>
      </trkpt>
      <trkpt lat="45.895277447998524" lon="7.856251308694482">
        <ele>3346.0100000000002</ele>
        <time>2014-07-05T12:44:09Z</time>
      </trkpt>
      <trkpt lat="45.895301084965467" lon="7.856146786361933">
        <ele>3347.4499999999998</ele>
        <time>2014-07-05T12:44:24Z</time>
      </trkpt>
      <trkpt lat="45.895314328372478" lon="7.856083502992988">
        <ele>3347.9299999999998</ele>
        <time>2014-07-05T12:44:40Z</time>
      </trkpt>
      <trkpt lat="45.895304940640926" lon="7.856067745015025">
        <ele>3347.9299999999998</ele>
        <time>2014-07-05T12:45:02Z</time>
      </trkpt>
      <trkpt lat="45.895306197926402" lon="7.85606455989182">
        <ele>3347.4499999999998</ele>
        <time>2014-07-05T12:45:10Z</time>
      </trkpt>
      <trkpt lat="45.895294882357121" lon="7.856052070856094">
        <ele>3347.4499999999998</ele>
        <time>2014-07-05T12:45:51Z</time>
      </trkpt>
      <trkpt lat="45.895299157127738" lon="7.856073947623372">
        <ele>3347.9299999999998</ele>
        <time>2014-07-05T12:46:30Z</time>
      </trkpt>
      <trkpt lat="45.895305359736085" lon="7.856041844934225">
        <ele>3347.9299999999998</ele>
        <time>2014-07-05T12:47:09Z</time>
      </trkpt>
      <trkpt lat="45.895317681133747" lon="7.856025164946914">
        <ele>3348.8899999999999</ele>
        <time>2014-07-05T12:47:31Z</time>
      </trkpt>
      <trkpt lat="45.895309550687671" lon="7.856022482737899">
        <ele>3349.3699999999999</ele>
        <time>2014-07-05T12:47:47Z</time>
      </trkpt>
      <trkpt lat="45.895325224846601" lon="7.856034133583307">
        <ele>3348.8899999999999</ele>
        <time>2014-07-05T12:48:08Z</time>
      </trkpt>
      <trkpt lat="45.895316926762462" lon="7.856013597920537">
        <ele>3349.8499999999999</ele>
        <time>2014-07-05T12:48:24Z</time>
      </trkpt>
      <trkpt lat="45.895318351686001" lon="7.856052741408348">
        <ele>3348.8899999999999</ele>
        <time>2014-07-05T12:48:40Z</time>
      </trkpt>
      <trkpt lat="45.895313574001193" lon="7.856056597083807">
        <ele>3349.3699999999999</ele>
        <time>2014-07-05T12:49:00Z</time>
      </trkpt>
      <trkpt lat="45.895300330594182" lon="7.856034720316529">
        <ele>3349.3699999999999</ele>
        <time>2014-07-05T12:49:24Z</time>
      </trkpt>
      <trkpt lat="45.895320447161794" lon="7.855979399755597">
        <ele>3350.3299999999999</ele>
        <time>2014-07-05T12:49:42Z</time>
      </trkpt>
      <trkpt lat="45.895349700003862" lon="7.855859957635403">
        <ele>3351.77</ele>
        <time>2014-07-05T12:49:55Z</time>
      </trkpt>
      <trkpt lat="45.895373588427901" lon="7.855732133612037">
        <ele>3353.2199999999998</ele>
        <time>2014-07-05T12:50:11Z</time>
      </trkpt>
      <trkpt lat="45.89541700668633" lon="7.855584612116218">
        <ele>3354.1799999999998</ele>
        <time>2014-07-05T12:50:27Z</time>
      </trkpt>
      <trkpt lat="45.895449612289667" lon="7.855463996529579">
        <ele>3355.1399999999999</ele>
        <time>2014-07-05T12:50:43Z</time>
      </trkpt>
      <trkpt lat="45.895476937294006" lon="7.855371041223407">
        <ele>3356.5799999999999</ele>
        <time>2014-07-05T12:50:58Z</time>
      </trkpt>
      <trkpt lat="45.895500406622887" lon="7.855252018198371">
        <ele>3358.5</ele>
        <time>2014-07-05T12:51:15Z</time>
      </trkpt>
      <trkpt lat="45.895526222884655" lon="7.855113632977009">
        <ele>3359.46</ele>
        <time>2014-07-05T12:51:30Z</time>
      </trkpt>
      <trkpt lat="45.89555430226028" lon="7.854931661859155">
        <ele>3359.46</ele>
        <time>2014-07-05T12:51:48Z</time>
      </trkpt>
      <trkpt lat="45.89558900333941" lon="7.854777434840798">
        <ele>3359.9499999999998</ele>
        <time>2014-07-05T12:52:03Z</time>
      </trkpt>
      <trkpt lat="45.895618507638574" lon="7.85463435575366">
        <ele>3360.9099999999999</ele>
        <time>2014-07-05T12:52:19Z</time>
      </trkpt>
      <trkpt lat="45.895649939775467" lon="7.854498568922281">
        <ele>3361.8699999999999</ele>
        <time>2014-07-05T12:52:34Z</time>
      </trkpt>
      <trkpt lat="45.895665027201176" lon="7.854355573654175">
        <ele>3362.8299999999999</ele>
        <time>2014-07-05T12:52:50Z</time>
      </trkpt>
      <trkpt lat="45.895685981959105" lon="7.85419556312263">
        <ele>3363.79</ele>
        <time>2014-07-05T12:53:07Z</time>
      </trkpt>
      <trkpt lat="45.895669888705015" lon="7.854031696915627">
        <ele>3363.79</ele>
        <time>2014-07-05T12:53:23Z</time>
      </trkpt>
      <trkpt lat="45.895666116848588" lon="7.853872776031494">
        <ele>3364.27</ele>
        <time>2014-07-05T12:53:39Z</time>
      </trkpt>
      <trkpt lat="45.895658573135734" lon="7.853726344183087">
        <ele>3364.75</ele>
        <time>2014-07-05T12:53:54Z</time>
      </trkpt>
      <trkpt lat="45.895661674439907" lon="7.853592652827501">
        <ele>3365.71</ele>
        <time>2014-07-05T12:54:07Z</time>
      </trkpt>
      <trkpt lat="45.895684640854597" lon="7.853422332555056">
        <ele>3366.6700000000001</ele>
        <time>2014-07-05T12:54:24Z</time>
      </trkpt>
      <trkpt lat="45.895675756037235" lon="7.853267854079604">
        <ele>3368.1199999999999</ele>
        <time>2014-07-05T12:54:39Z</time>
      </trkpt>
      <trkpt lat="45.89564080350101" lon="7.85314254462719">
        <ele>3368.1199999999999</ele>
        <time>2014-07-05T12:54:54Z</time>
      </trkpt>
      <trkpt lat="45.895628901198506" lon="7.853018324822187">
        <ele>3368.5999999999999</ele>
        <time>2014-07-05T12:55:07Z</time>
      </trkpt>
      <trkpt lat="45.895608952268958" lon="7.852847669273615">
        <ele>3369.0799999999999</ele>
        <time>2014-07-05T12:55:23Z</time>
      </trkpt>
      <trkpt lat="45.895566875115037" lon="7.852734094485641">
        <ele>3370.04</ele>
        <time>2014-07-05T12:55:38Z</time>
      </trkpt>
      <trkpt lat="45.895526641979814" lon="7.852603336796165">
        <ele>3371</ele>
        <time>2014-07-05T12:55:53Z</time>
      </trkpt>
      <trkpt lat="45.895496718585491" lon="7.852478111162782">
        <ele>3371.96</ele>
        <time>2014-07-05T12:56:10Z</time>
      </trkpt>
      <trkpt lat="45.895483726635575" lon="7.852412229403853">
        <ele>3372.4400000000001</ele>
        <time>2014-07-05T12:56:24Z</time>
      </trkpt>
      <trkpt lat="45.895480960607529" lon="7.852391609922051">
        <ele>3372.9200000000001</ele>
        <time>2014-07-05T12:56:49Z</time>
      </trkpt>
      <trkpt lat="45.895502753555775" lon="7.852447098121047">
        <ele>3372.9200000000001</ele>
        <time>2014-07-05T12:57:18Z</time>
      </trkpt>
      <trkpt lat="45.895512225106359" lon="7.852247105911374">
        <ele>3372.9200000000001</ele>
        <time>2014-07-05T12:57:38Z</time>
      </trkpt>
      <trkpt lat="45.895444080233574" lon="7.852183487266302">
        <ele>3374.3600000000001</ele>
        <time>2014-07-05T12:57:52Z</time>
      </trkpt>
      <trkpt lat="45.895380210131407" lon="7.852215757593513">
        <ele>3374.8499999999999</ele>
        <time>2014-07-05T12:57:59Z</time>
      </trkpt>
      <trkpt lat="45.895378114655614" lon="7.852185666561127">
        <ele>3374.8499999999999</ele>
        <time>2014-07-05T12:58:01Z</time>
      </trkpt>
      <trkpt lat="45.895358165726066" lon="7.852167310193181">
        <ele>3375.8099999999999</ele>
        <time>2014-07-05T12:58:03Z</time>
      </trkpt>
      <trkpt lat="45.895328996703029" lon="7.852125316858292">
        <ele>3374.8499999999999</ele>
        <time>2014-07-05T12:58:08Z</time>
      </trkpt>
      <trkpt lat="45.895246267318726" lon="7.852096231654286">
        <ele>3372.9200000000001</ele>
        <time>2014-07-05T12:58:18Z</time>
      </trkpt>
      <trkpt lat="45.895170327275991" lon="7.852064296603203">
        <ele>3372.4400000000001</ele>
        <time>2014-07-05T12:58:30Z</time>
      </trkpt>
      <trkpt lat="45.895160855725408" lon="7.852009143680334">
        <ele>3371.48</ele>
        <time>2014-07-05T12:58:35Z</time>
      </trkpt>
      <trkpt lat="45.89516437612474" lon="7.851981651037931">
        <ele>3371.96</ele>
        <time>2014-07-05T12:58:37Z</time>
      </trkpt>
      <trkpt lat="45.895142499357462" lon="7.851869752630591">
        <ele>3373.8800000000001</ele>
        <time>2014-07-05T12:58:52Z</time>
      </trkpt>
      <trkpt lat="45.895122634246945" lon="7.851799763739109">
        <ele>3374.8499999999999</ele>
        <time>2014-07-05T12:59:05Z</time>
      </trkpt>
      <trkpt lat="45.895126322284341" lon="7.851722063496709">
        <ele>3376.29</ele>
        <time>2014-07-05T12:59:17Z</time>
      </trkpt>
      <trkpt lat="45.895120622590184" lon="7.851664228364825">
        <ele>3378.21</ele>
        <time>2014-07-05T12:59:30Z</time>
      </trkpt>
      <trkpt lat="45.895096315070987" lon="7.851649643853307">
        <ele>3378.6900000000001</ele>
        <time>2014-07-05T12:59:44Z</time>
      </trkpt>
      <trkpt lat="45.89507058262825" lon="7.85156674683094">
        <ele>3379.6500000000001</ele>
        <time>2014-07-05T12:59:56Z</time>
      </trkpt>
      <trkpt lat="45.895004449412227" lon="7.851459207013249">
        <ele>3380.6100000000001</ele>
        <time>2014-07-05T13:00:13Z</time>
      </trkpt>
      <trkpt lat="45.894950553774834" lon="7.851533051580191">
        <ele>3381.0900000000001</ele>
        <time>2014-07-05T13:00:33Z</time>
      </trkpt>
      <trkpt lat="45.894908979535103" lon="7.851404221728444">
        <ele>3381.5700000000002</ele>
        <time>2014-07-05T13:00:45Z</time>
      </trkpt>
      <trkpt lat="45.894889449700713" lon="7.851327946409583">
        <ele>3384.46</ele>
        <time>2014-07-05T13:01:00Z</time>
      </trkpt>
      <trkpt lat="45.89488735422492" lon="7.851264663040638">
        <ele>3386.3800000000001</ele>
        <time>2014-07-05T13:01:12Z</time>
      </trkpt>
      <trkpt lat="45.894875032827258" lon="7.851228872314096">
        <ele>3388.7800000000002</ele>
        <time>2014-07-05T13:01:24Z</time>
      </trkpt>
      <trkpt lat="45.89483798481524" lon="7.851195260882378">
        <ele>3390.23</ele>
        <time>2014-07-05T13:01:37Z</time>
      </trkpt>
      <trkpt lat="45.894827088341117" lon="7.851181263104081">
        <ele>3390.23</ele>
        <time>2014-07-05T13:01:40Z</time>
      </trkpt>
      <trkpt lat="45.894737988710403" lon="7.85111571662128">
        <ele>3391.1900000000001</ele>
        <time>2014-07-05T13:01:54Z</time>
      </trkpt>
      <trkpt lat="45.894710579887033" lon="7.851057797670364">
        <ele>3392.1500000000001</ele>
        <time>2014-07-05T13:02:06Z</time>
      </trkpt>
      <trkpt lat="45.894619468599558" lon="7.851070705801249">
        <ele>3392.1500000000001</ele>
        <time>2014-07-05T13:02:28Z</time>
      </trkpt>
      <trkpt lat="45.894590131938457" lon="7.850975319743156">
        <ele>3393.5900000000001</ele>
        <time>2014-07-05T13:02:41Z</time>
      </trkpt>
      <trkpt lat="45.894636735320091" lon="7.85086115822196">
        <ele>3395.0300000000002</ele>
        <time>2014-07-05T13:02:54Z</time>
      </trkpt>
      <trkpt lat="45.894650900736451" lon="7.850729478523135">
        <ele>3394.5500000000002</ele>
        <time>2014-07-05T13:03:06Z</time>
      </trkpt>
      <trkpt lat="45.894606979563832" lon="7.850550441071391">
        <ele>3391.1900000000001</ele>
        <time>2014-07-05T13:03:21Z</time>
      </trkpt>
      <trkpt lat="45.894538918510079" lon="7.850370230153203">
        <ele>3389.75</ele>
        <time>2014-07-05T13:03:36Z</time>
      </trkpt>
      <trkpt lat="45.894466834142804" lon="7.850197982043028">
        <ele>3388.7800000000002</ele>
        <time>2014-07-05T13:03:53Z</time>
      </trkpt>
      <trkpt lat="45.894427858293056" lon="7.850149367004633">
        <ele>3387.8200000000002</ele>
        <time>2014-07-05T13:04:13Z</time>
      </trkpt>
      <trkpt lat="45.894362730905414" lon="7.850060183554888">
        <ele>3388.3000000000002</ele>
        <time>2014-07-05T13:04:24Z</time>
      </trkpt>
      <trkpt lat="45.894311349838972" lon="7.8499801363796">
        <ele>3389.75</ele>
        <time>2014-07-05T13:04:36Z</time>
      </trkpt>
      <trkpt lat="45.894273715093732" lon="7.849905118346214">
        <ele>3392.1500000000001</ele>
        <time>2014-07-05T13:04:47Z</time>
      </trkpt>
      <trkpt lat="45.894209509715438" lon="7.849884750321508">
        <ele>3394.0700000000002</ele>
        <time>2014-07-05T13:04:59Z</time>
      </trkpt>
      <trkpt lat="45.894177490845323" lon="7.84984820522368">
        <ele>3394.0700000000002</ele>
        <time>2014-07-05T13:05:12Z</time>
      </trkpt>
      <trkpt lat="45.894154440611601" lon="7.849787855520845">
        <ele>3393.1100000000001</ele>
        <time>2014-07-05T13:05:27Z</time>
      </trkpt>
      <trkpt lat="45.894153770059347" lon="7.849686769768596">
        <ele>3394.0700000000002</ele>
        <time>2014-07-05T13:05:41Z</time>
      </trkpt>
      <trkpt lat="45.894141783937812" lon="7.849515778943896">
        <ele>3394.0700000000002</ele>
        <time>2014-07-05T13:05:56Z</time>
      </trkpt>
      <trkpt lat="45.894130552187562" lon="7.849502367898822">
        <ele>3393.5900000000001</ele>
        <time>2014-07-05T13:06:13Z</time>
      </trkpt>
      <trkpt lat="45.894125020131469" lon="7.849442437291145">
        <ele>3393.1100000000001</ele>
        <time>2014-07-05T13:06:17Z</time>
      </trkpt>
      <trkpt lat="45.894094258546829" lon="7.849203804507852">
        <ele>3392.6300000000001</ele>
        <time>2014-07-05T13:06:36Z</time>
      </trkpt>
      <trkpt lat="45.894093252718449" lon="7.849191399291158">
        <ele>3392.6300000000001</ele>
        <time>2014-07-05T13:06:37Z</time>
      </trkpt>
      <trkpt lat="45.894064921885729" lon="7.849021414294839">
        <ele>3392.6300000000001</ele>
        <time>2014-07-05T13:06:53Z</time>
      </trkpt>
      <trkpt lat="45.89405176229775" lon="7.849029628559947">
        <ele>3393.5900000000001</ele>
        <time>2014-07-05T13:07:11Z</time>
      </trkpt>
      <trkpt lat="45.89405813254416" lon="7.848917646333575">
        <ele>3394.0700000000002</ele>
        <time>2014-07-05T13:07:27Z</time>
      </trkpt>
      <trkpt lat="45.89407280087471" lon="7.848844472318888">
        <ele>3395.9899999999998</ele>
        <time>2014-07-05T13:07:38Z</time>
      </trkpt>
      <trkpt lat="45.894076321274042" lon="7.848797868937254">
        <ele>3396.96</ele>
        <time>2014-07-05T13:07:51Z</time>
      </trkpt>
      <trkpt lat="45.894072968512774" lon="7.84878009930253">
        <ele>3396.96</ele>
        <time>2014-07-05T13:07:55Z</time>
      </trkpt>
      <trkpt lat="45.894083948805928" lon="7.848676163703203">
        <ele>3396.96</ele>
        <time>2014-07-05T13:08:09Z</time>
      </trkpt>
      <trkpt lat="45.894114794209599" lon="7.84861883148551">
        <ele>3398.8800000000001</ele>
        <time>2014-07-05T13:08:21Z</time>
      </trkpt>
      <trkpt lat="45.894153853878379" lon="7.848588405176997">
        <ele>3401.2800000000002</ele>
        <time>2014-07-05T13:08:34Z</time>
      </trkpt>
      <trkpt lat="45.894185537472367" lon="7.848557224497199">
        <ele>3402.2399999999998</ele>
        <time>2014-07-05T13:08:51Z</time>
      </trkpt>
      <trkpt lat="45.894217304885387" lon="7.848575413227081">
        <ele>3402.7199999999998</ele>
        <time>2014-07-05T13:09:04Z</time>
      </trkpt>
      <trkpt lat="45.894266003742814" lon="7.848546411842108">
        <ele>3405.1300000000001</ele>
        <time>2014-07-05T13:09:17Z</time>
      </trkpt>
      <trkpt lat="45.894310595467687" lon="7.84852453507483">
        <ele>3406.0900000000001</ele>
        <time>2014-07-05T13:09:29Z</time>
      </trkpt>
      <trkpt lat="45.894355773925781" lon="7.848522439599037">
        <ele>3408.0100000000002</ele>
        <time>2014-07-05T13:09:40Z</time>
      </trkpt>
      <trkpt lat="45.894385697320104" lon="7.848486481234431">
        <ele>3409.9299999999998</ele>
        <time>2014-07-05T13:09:54Z</time>
      </trkpt>
      <trkpt lat="45.894424337893724" lon="7.848487822338939">
        <ele>3410.8899999999999</ele>
        <time>2014-07-05T13:10:05Z</time>
      </trkpt>
      <trkpt lat="45.894442610442638" lon="7.848491426557303">
        <ele>3412.3400000000001</ele>
        <time>2014-07-05T13:10:17Z</time>
      </trkpt>
      <trkpt lat="45.894471444189548" lon="7.84848690032959">
        <ele>3413.7800000000002</ele>
        <time>2014-07-05T13:10:27Z</time>
      </trkpt>
      <trkpt lat="45.894489968195558" lon="7.848470555618405">
        <ele>3414.7399999999998</ele>
        <time>2014-07-05T13:10:36Z</time>
      </trkpt>
      <trkpt lat="45.894515533000231" lon="7.848478686064482">
        <ele>3415.6999999999998</ele>
        <time>2014-07-05T13:10:48Z</time>
      </trkpt>
      <trkpt lat="45.894530033692718" lon="7.848493019118905">
        <ele>3416.1799999999998</ele>
        <time>2014-07-05T13:11:00Z</time>
      </trkpt>
      <trkpt lat="45.894546713680029" lon="7.848469968885183">
        <ele>3417.6199999999999</ele>
        <time>2014-07-05T13:11:11Z</time>
      </trkpt>
      <trkpt lat="45.89457806199789" lon="7.848455552011728">
        <ele>3419.0700000000002</ele>
        <time>2014-07-05T13:11:23Z</time>
      </trkpt>
      <trkpt lat="45.894612176343799" lon="7.848474495112896">
        <ele>3420.9899999999998</ele>
        <time>2014-07-05T13:11:38Z</time>
      </trkpt>
      <trkpt lat="45.894634556025267" lon="7.848460664972663">
        <ele>3422.4299999999998</ele>
        <time>2014-07-05T13:11:51Z</time>
      </trkpt>
      <trkpt lat="45.89464302174747" lon="7.848461419343948">
        <ele>3422.9099999999999</ele>
        <time>2014-07-05T13:12:05Z</time>
      </trkpt>
      <trkpt lat="45.894675627350807" lon="7.848463011905551">
        <ele>3424.8299999999999</ele>
        <time>2014-07-05T13:12:16Z</time>
      </trkpt>
      <trkpt lat="45.894690882414579" lon="7.848434010520577">
        <ele>3426.2800000000002</ele>
        <time>2014-07-05T13:12:30Z</time>
      </trkpt>
      <trkpt lat="45.894717620685697" lon="7.848412217572331">
        <ele>3428.1999999999998</ele>
        <time>2014-07-05T13:12:42Z</time>
      </trkpt>
      <trkpt lat="45.894727595150471" lon="7.848434932529926">
        <ele>3428.6799999999998</ele>
        <time>2014-07-05T13:13:00Z</time>
      </trkpt>
      <trkpt lat="45.894751064479351" lon="7.848443565890193">
        <ele>3430.1199999999999</ele>
        <time>2014-07-05T13:13:16Z</time>
      </trkpt>
      <trkpt lat="45.89476372115314" lon="7.848479356616736">
        <ele>3431.0799999999999</ele>
        <time>2014-07-05T13:13:25Z</time>
      </trkpt>
      <trkpt lat="45.894772773608565" lon="7.848508441820741">
        <ele>3432.52</ele>
        <time>2014-07-05T13:13:38Z</time>
      </trkpt>
      <trkpt lat="45.894835973158479" lon="7.848505256697536">
        <ele>3434.4499999999998</ele>
        <time>2014-07-05T13:13:50Z</time>
      </trkpt>
      <trkpt lat="45.894870674237609" lon="7.848450103774667">
        <ele>3435.4099999999999</ele>
        <time>2014-07-05T13:14:01Z</time>
      </trkpt>
      <trkpt lat="45.894925156608224" lon="7.848425041884184">
        <ele>3437.3299999999999</ele>
        <time>2014-07-05T13:14:14Z</time>
      </trkpt>
      <trkpt lat="45.894967149943113" lon="7.848400818184018">
        <ele>3438.77</ele>
        <time>2014-07-05T13:14:31Z</time>
      </trkpt>
      <trkpt lat="45.894984835758805" lon="7.848388161510229">
        <ele>3440.21</ele>
        <time>2014-07-05T13:14:42Z</time>
      </trkpt>
      <trkpt lat="45.894990283995867" lon="7.848390927538276">
        <ele>3440.6999999999998</ele>
        <time>2014-07-05T13:15:06Z</time>
      </trkpt>
      <trkpt lat="45.895014088600874" lon="7.848407523706555">
        <ele>3443.0999999999999</ele>
        <time>2014-07-05T13:15:21Z</time>
      </trkpt>
      <trkpt lat="45.89504954405129" lon="7.848384222015739">
        <ele>3444.54</ele>
        <time>2014-07-05T13:15:31Z</time>
      </trkpt>
      <trkpt lat="45.895083071663976" lon="7.848348431289196">
        <ele>3445.5</ele>
        <time>2014-07-05T13:15:44Z</time>
      </trkpt>
      <trkpt lat="45.895152306184173" lon="7.848323285579681">
        <ele>3446.9400000000001</ele>
        <time>2014-07-05T13:15:59Z</time>
      </trkpt>
      <trkpt lat="45.895225061103702" lon="7.848320854827762">
        <ele>3447.9099999999999</ele>
        <time>2014-07-05T13:16:12Z</time>
      </trkpt>
      <trkpt lat="45.895247105509043" lon="7.848370308056474">
        <ele>3449.8299999999999</ele>
        <time>2014-07-05T13:16:29Z</time>
      </trkpt>
      <trkpt lat="45.895295888185501" lon="7.848339630290866">
        <ele>3450.79</ele>
        <time>2014-07-05T13:16:45Z</time>
      </trkpt>
      <trkpt lat="45.895336540415883" lon="7.848324123769999">
        <ele>3451.75</ele>
        <time>2014-07-05T13:17:10Z</time>
      </trkpt>
      <trkpt lat="45.895346263423562" lon="7.848255056887865">
        <ele>3453.1900000000001</ele>
        <time>2014-07-05T13:17:24Z</time>
      </trkpt>
      <trkpt lat="45.895300079137087" lon="7.84813997335732">
        <ele>3453.6700000000001</ele>
        <time>2014-07-05T13:17:38Z</time>
      </trkpt>
      <trkpt lat="45.895250542089343" lon="7.848091358318925">
        <ele>3454.1500000000001</ele>
        <time>2014-07-05T13:17:52Z</time>
      </trkpt>
      <trkpt lat="45.895239729434252" lon="7.847990524023771">
        <ele>3454.1500000000001</ele>
        <time>2014-07-05T13:18:00Z</time>
      </trkpt>
      <trkpt lat="45.895248111337423" lon="7.847934365272522">
        <ele>3454.1500000000001</ele>
        <time>2014-07-05T13:18:04Z</time>
      </trkpt>
      <trkpt lat="45.895281052216887" lon="7.84786781296134">
        <ele>3453.6700000000001</ele>
        <time>2014-07-05T13:18:18Z</time>
      </trkpt>
      <trkpt lat="45.89528851211071" lon="7.847886923700571">
        <ele>3453.6700000000001</ele>
        <time>2014-07-05T13:18:37Z</time>
      </trkpt>
      <trkpt lat="45.895272418856621" lon="7.847894048318267">
        <ele>3453.1900000000001</ele>
        <time>2014-07-05T13:19:12Z</time>
      </trkpt>
      <trkpt lat="45.89524207636714" lon="7.847918858751655">
        <ele>3453.1900000000001</ele>
        <time>2014-07-05T13:19:44Z</time>
      </trkpt>
      <trkpt lat="45.895227324217558" lon="7.847917098551989">
        <ele>3453.6700000000001</ele>
        <time>2014-07-05T13:20:20Z</time>
      </trkpt>
      <trkpt lat="45.89521961286664" lon="7.847931515425444">
        <ele>3453.6700000000001</ele>
        <time>2014-07-05T13:20:53Z</time>
      </trkpt>
      <trkpt lat="45.895229252055287" lon="7.847920199856162">
        <ele>3453.6700000000001</ele>
        <time>2014-07-05T13:21:24Z</time>
      </trkpt>
    </trkseg>
  </trk>

  <trk>
    <name>rif-mantova-pir-vincent-funivia2014-07-06</name>
    <extensions>
      <gpxx:TrackExtension>
        <gpxx:DisplayColor>Yellow</gpxx:DisplayColor>
      </gpxx:TrackExtension>
    </extensions>
    <trkseg>
      <trkpt lat="45.895222797989845" lon="7.848071241751313">
        <ele>3455.1199999999999</ele>
        <time>2014-07-06T03:57:43Z</time>
      </trkpt>
      <trkpt lat="45.895237885415554" lon="7.848071241751313">
        <ele>3454.1500000000001</ele>
        <time>2014-07-06T03:58:05Z</time>
      </trkpt>
      <trkpt lat="45.895261187106371" lon="7.84807694144547">
        <ele>3454.1500000000001</ele>
        <time>2014-07-06T03:58:19Z</time>
      </trkpt>
      <trkpt lat="45.895221624523401" lon="7.848082222044468">
        <ele>3454.6399999999999</ele>
        <time>2014-07-06T03:58:37Z</time>
      </trkpt>
      <trkpt lat="45.895231431350112" lon="7.848093453794718">
        <ele>3454.6399999999999</ele>
        <time>2014-07-06T03:58:59Z</time>
      </trkpt>
      <trkpt lat="45.895233945921063" lon="7.848056489601731">
        <ele>3454.6399999999999</ele>
        <time>2014-07-06T03:59:23Z</time>
      </trkpt>
      <trkpt lat="45.895223971456289" lon="7.848059423267841">
        <ele>3454.6399999999999</ele>
        <time>2014-07-06T03:59:41Z</time>
      </trkpt>
      <trkpt lat="45.895227072760463" lon="7.848079120740295">
        <ele>3454.6399999999999</ele>
        <time>2014-07-06T03:59:52Z</time>
      </trkpt>
      <trkpt lat="45.895222714170814" lon="7.848078701645136">
        <ele>3454.6399999999999</ele>
        <time>2014-07-06T04:00:22Z</time>
      </trkpt>
      <trkpt lat="45.8952078782022" lon="7.848073421046138">
        <ele>3454.6399999999999</ele>
        <time>2014-07-06T04:00:50Z</time>
      </trkpt>
      <trkpt lat="45.895235957577825" lon="7.848063865676522">
        <ele>3454.6399999999999</ele>
        <time>2014-07-06T04:01:03Z</time>
      </trkpt>
      <trkpt lat="45.895250961184502" lon="7.848044000566006">
        <ele>3455.1199999999999</ele>
        <time>2014-07-06T04:01:18Z</time>
      </trkpt>
      <trkpt lat="45.895251799374819" lon="7.848111055791378">
        <ele>3455.5999999999999</ele>
        <time>2014-07-06T04:01:31Z</time>
      </trkpt>
      <trkpt lat="45.895233443006873" lon="7.848122455179691">
        <ele>3455.1199999999999</ele>
        <time>2014-07-06T04:01:56Z</time>
      </trkpt>
      <trkpt lat="45.89522497728467" lon="7.848105439916253">
        <ele>3455.1199999999999</ele>
        <time>2014-07-06T04:02:20Z</time>
      </trkpt>
      <trkpt lat="45.895235706120729" lon="7.848088927567005">
        <ele>3455.1199999999999</ele>
        <time>2014-07-06T04:02:35Z</time>
      </trkpt>
      <trkpt lat="45.89524014852941" lon="7.848073756322265">
        <ele>3455.1199999999999</ele>
        <time>2014-07-06T04:02:54Z</time>
      </trkpt>
      <trkpt lat="45.895249033346772" lon="7.848068224266172">
        <ele>3455.1199999999999</ele>
        <time>2014-07-06T04:03:14Z</time>
      </trkpt>
      <trkpt lat="45.895226150751114" lon="7.848058585077524">
        <ele>3455.1199999999999</ele>
        <time>2014-07-06T04:03:31Z</time>
      </trkpt>
      <trkpt lat="45.895231598988175" lon="7.848063865676522">
        <ele>3455.5999999999999</ele>
        <time>2014-07-06T04:03:54Z</time>
      </trkpt>
      <trkpt lat="45.895238891243935" lon="7.848070403560996">
        <ele>3455.1199999999999</ele>
        <time>2014-07-06T04:04:10Z</time>
      </trkpt>
      <trkpt lat="45.895238472148776" lon="7.848079791292548">
        <ele>3455.5999999999999</ele>
        <time>2014-07-06T04:04:37Z</time>
      </trkpt>
      <trkpt lat="45.895304689183831" lon="7.848094208166003">
        <ele>3455.5999999999999</ele>
        <time>2014-07-06T04:04:55Z</time>
      </trkpt>
      <trkpt lat="45.895328493788838" lon="7.848120192065835">
        <ele>3456.0799999999999</ele>
        <time>2014-07-06T04:04:57Z</time>
      </trkpt>
      <trkpt lat="45.895386496558785" lon="7.84814584068954">
        <ele>3455.1199999999999</ele>
        <time>2014-07-06T04:05:03Z</time>
      </trkpt>
      <trkpt lat="45.895473919808865" lon="7.848287578672171">
        <ele>3453.6700000000001</ele>
        <time>2014-07-06T04:05:16Z</time>
      </trkpt>
      <trkpt lat="45.895513566210866" lon="7.848354550078511">
        <ele>3455.5999999999999</ele>
        <time>2014-07-06T04:05:30Z</time>
      </trkpt>
      <trkpt lat="45.895529827103019" lon="7.848373409360647">
        <ele>3454.1500000000001</ele>
        <time>2014-07-06T04:05:33Z</time>
      </trkpt>
      <trkpt lat="45.895541897043586" lon="7.84839553758502">
        <ele>3455.5999999999999</ele>
        <time>2014-07-06T04:05:36Z</time>
      </trkpt>
      <trkpt lat="45.895605767145753" lon="7.848494527861476">
        <ele>3458</ele>
        <time>2014-07-06T04:05:50Z</time>
      </trkpt>
      <trkpt lat="45.895648766309023" lon="7.848578011617065">
        <ele>3460.4000000000001</ele>
        <time>2014-07-06T04:06:08Z</time>
      </trkpt>
      <trkpt lat="45.895712552592158" lon="7.84868286922574">
        <ele>3461.8400000000001</ele>
        <time>2014-07-06T04:06:25Z</time>
      </trkpt>
      <trkpt lat="45.895773153752089" lon="7.848796276375651">
        <ele>3463.29</ele>
        <time>2014-07-06T04:06:44Z</time>
      </trkpt>
      <trkpt lat="45.89584113098681" lon="7.848901636898518">
        <ele>3465.21</ele>
        <time>2014-07-06T04:07:02Z</time>
      </trkpt>
      <trkpt lat="45.895857727155089" lon="7.848938684910536">
        <ele>3466.6500000000001</ele>
        <time>2014-07-06T04:07:17Z</time>
      </trkpt>
      <trkpt lat="45.895917573943734" lon="7.849029125645757">
        <ele>3469.0500000000002</ele>
        <time>2014-07-06T04:07:34Z</time>
      </trkpt>
      <trkpt lat="45.895980857312679" lon="7.849113196134567">
        <ele>3471.46</ele>
        <time>2014-07-06T04:07:53Z</time>
      </trkpt>
      <trkpt lat="45.896035926416516" lon="7.849188884720206">
        <ele>3473.3800000000001</ele>
        <time>2014-07-06T04:08:12Z</time>
      </trkpt>
      <trkpt lat="45.896091917529702" lon="7.849262142553926">
        <ele>3476.2600000000002</ele>
        <time>2014-07-06T04:08:33Z</time>
      </trkpt>
      <trkpt lat="45.896172048524022" lon="7.849353589117527">
        <ele>3476.75</ele>
        <time>2014-07-06T04:08:50Z</time>
      </trkpt>
      <trkpt lat="45.89624622836709" lon="7.849463978782296">
        <ele>3478.1900000000001</ele>
        <time>2014-07-06T04:09:09Z</time>
      </trkpt>
      <trkpt lat="45.896298950538039" lon="7.849576296284795">
        <ele>3479.6300000000001</ele>
        <time>2014-07-06T04:09:28Z</time>
      </trkpt>
      <trkpt lat="45.896380422636867" lon="7.849690709263086">
        <ele>3480.5900000000001</ele>
        <time>2014-07-06T04:09:45Z</time>
      </trkpt>
      <trkpt lat="45.896436413750052" lon="7.849787939339876">
        <ele>3481.0700000000002</ele>
        <time>2014-07-06T04:09:58Z</time>
      </trkpt>
      <trkpt lat="45.896473042666912" lon="7.8499093092978">
        <ele>3482.9899999999998</ele>
        <time>2014-07-06T04:10:15Z</time>
      </trkpt>
      <trkpt lat="45.896542696282268" lon="7.850048448890448">
        <ele>3483.96</ele>
        <time>2014-07-06T04:10:36Z</time>
      </trkpt>
      <trkpt lat="45.896606734022498" lon="7.850194964557886">
        <ele>3484.9200000000001</ele>
        <time>2014-07-06T04:10:53Z</time>
      </trkpt>
      <trkpt lat="45.896644117310643" lon="7.850325470790267">
        <ele>3485.4000000000001</ele>
        <time>2014-07-06T04:11:11Z</time>
      </trkpt>
      <trkpt lat="45.896694408729672" lon="7.850450025871396">
        <ele>3486.8400000000001</ele>
        <time>2014-07-06T04:11:28Z</time>
      </trkpt>
      <trkpt lat="45.896741766482592" lon="7.850555470213294">
        <ele>3488.2800000000002</ele>
        <time>2014-07-06T04:11:45Z</time>
      </trkpt>
      <trkpt lat="45.896754758432508" lon="7.850553458556533">
        <ele>3488.2800000000002</ele>
        <time>2014-07-06T04:12:00Z</time>
      </trkpt>
      <trkpt lat="45.896763727068901" lon="7.850561421364546">
        <ele>3488.7600000000002</ele>
        <time>2014-07-06T04:12:22Z</time>
      </trkpt>
      <trkpt lat="45.896773533895612" lon="7.850575754418969">
        <ele>3488.2800000000002</ele>
        <time>2014-07-06T04:12:48Z</time>
      </trkpt>
      <trkpt lat="45.89681938290596" lon="7.850695364177227">
        <ele>3490.6799999999998</ele>
        <time>2014-07-06T04:13:02Z</time>
      </trkpt>
      <trkpt lat="45.896864142268896" lon="7.850794270634651">
        <ele>3492.6100000000001</ele>
        <time>2014-07-06T04:13:19Z</time>
      </trkpt>
      <trkpt lat="45.896907476708293" lon="7.850913293659687">
        <ele>3494.5300000000002</ele>
        <time>2014-07-06T04:13:35Z</time>
      </trkpt>
      <trkpt lat="45.896950140595436" lon="7.851003985852003">
        <ele>3496.4499999999998</ele>
        <time>2014-07-06T04:13:55Z</time>
      </trkpt>
      <trkpt lat="45.896981488913298" lon="7.851072633638978">
        <ele>3498.3800000000001</ele>
        <time>2014-07-06T04:14:09Z</time>
      </trkpt>
      <trkpt lat="45.897007221356034" lon="7.851176485419273">
        <ele>3499.8200000000002</ele>
        <time>2014-07-06T04:14:25Z</time>
      </trkpt>
      <trkpt lat="45.897025326266885" lon="7.851228201761842">
        <ele>3500.7800000000002</ele>
        <time>2014-07-06T04:14:38Z</time>
      </trkpt>
      <trkpt lat="45.897038988769054" lon="7.851272206753492">
        <ele>3502.2199999999998</ele>
        <time>2014-07-06T04:14:51Z</time>
      </trkpt>
      <trkpt lat="45.8970539085567" lon="7.851326186209917">
        <ele>3503.6599999999999</ele>
        <time>2014-07-06T04:15:07Z</time>
      </trkpt>
      <trkpt lat="45.897061619907618" lon="7.851402126252651">
        <ele>3505.5799999999999</ele>
        <time>2014-07-06T04:15:23Z</time>
      </trkpt>
      <trkpt lat="45.897076623514295" lon="7.851519556716085">
        <ele>3507.5100000000002</ele>
        <time>2014-07-06T04:15:37Z</time>
      </trkpt>
      <trkpt lat="45.897076204419136" lon="7.851589797064662">
        <ele>3509.9099999999999</ele>
        <time>2014-07-06T04:15:50Z</time>
      </trkpt>
      <trkpt lat="45.89708911255002" lon="7.851733043789864">
        <ele>3512.3099999999999</ele>
        <time>2014-07-06T04:16:06Z</time>
      </trkpt>
      <trkpt lat="45.897061619907618" lon="7.85184963606298">
        <ele>3513.7600000000002</ele>
        <time>2014-07-06T04:16:22Z</time>
      </trkpt>
      <trkpt lat="45.89707788079977" lon="7.851933538913727">
        <ele>3516.1599999999999</ele>
        <time>2014-07-06T04:16:40Z</time>
      </trkpt>
      <trkpt lat="45.897073606029153" lon="7.852018028497696">
        <ele>3518.0799999999999</ele>
        <time>2014-07-06T04:16:53Z</time>
      </trkpt>
      <trkpt lat="45.897077796980739" lon="7.852092711254954">
        <ele>3520</ele>
        <time>2014-07-06T04:17:07Z</time>
      </trkpt>
      <trkpt lat="45.897127836942673" lon="7.852141996845603">
        <ele>3520.9699999999998</ele>
        <time>2014-07-06T04:17:21Z</time>
      </trkpt>
      <trkpt lat="45.89717410504818" lon="7.852206788957119">
        <ele>3522.4099999999999</ele>
        <time>2014-07-06T04:17:34Z</time>
      </trkpt>
      <trkpt lat="45.897204950451851" lon="7.852282645180821">
        <ele>3524.3299999999999</ele>
        <time>2014-07-06T04:17:48Z</time>
      </trkpt>
      <trkpt lat="45.897236298769712" lon="7.852325225248933">
        <ele>3526.25</ele>
        <time>2014-07-06T04:18:01Z</time>
      </trkpt>
      <trkpt lat="45.89726597070694" lon="7.852359926328063">
        <ele>3527.6900000000001</ele>
        <time>2014-07-06T04:18:14Z</time>
      </trkpt>
      <trkpt lat="45.89729237370193" lon="7.852428155019879">
        <ele>3529.6199999999999</ele>
        <time>2014-07-06T04:18:29Z</time>
      </trkpt>
      <trkpt lat="45.897330427542329" lon="7.852476350963116">
        <ele>3531.0599999999999</ele>
        <time>2014-07-06T04:18:44Z</time>
      </trkpt>
      <trkpt lat="45.897379210218787" lon="7.852517757564783">
        <ele>3532.5</ele>
        <time>2014-07-06T04:19:00Z</time>
      </trkpt>
      <trkpt lat="45.897408463060856" lon="7.852569473907352">
        <ele>3534.4200000000001</ele>
        <time>2014-07-06T04:19:15Z</time>
      </trkpt>
      <trkpt lat="45.897443750873208" lon="7.852585315704346">
        <ele>3536.8299999999999</ele>
        <time>2014-07-06T04:19:30Z</time>
      </trkpt>
      <trkpt lat="45.897464957088232" lon="7.852652622386813">
        <ele>3538.27</ele>
        <time>2014-07-06T04:19:43Z</time>
      </trkpt>
      <trkpt lat="45.897488761693239" lon="7.852778434753418">
        <ele>3540.6700000000001</ele>
        <time>2014-07-06T04:20:00Z</time>
      </trkpt>
      <trkpt lat="45.897527486085892" lon="7.852828642353416">
        <ele>3542.1199999999999</ele>
        <time>2014-07-06T04:20:14Z</time>
      </trkpt>
      <trkpt lat="45.897563276812434" lon="7.85289041697979">
        <ele>3543.5599999999999</ele>
        <time>2014-07-06T04:20:30Z</time>
      </trkpt>
      <trkpt lat="45.897581549361348" lon="7.852920591831207">
        <ele>3545.96</ele>
        <time>2014-07-06T04:20:38Z</time>
      </trkpt>
      <trkpt lat="45.897611640393734" lon="7.852984461933374">
        <ele>3547.4000000000001</ele>
        <time>2014-07-06T04:20:54Z</time>
      </trkpt>
      <trkpt lat="45.897649358958006" lon="7.853020587936044">
        <ele>3548.8400000000001</ele>
        <time>2014-07-06T04:21:10Z</time>
      </trkpt>
      <trkpt lat="45.89768573641777" lon="7.853080183267593">
        <ele>3551.25</ele>
        <time>2014-07-06T04:21:25Z</time>
      </trkpt>
      <trkpt lat="45.897719766944647" lon="7.853141371160746">
        <ele>3554.1300000000001</ele>
        <time>2014-07-06T04:21:40Z</time>
      </trkpt>
      <trkpt lat="45.897726388648152" lon="7.85313374362886">
        <ele>3552.21</ele>
        <time>2014-07-06T04:21:43Z</time>
      </trkpt>
      <trkpt lat="45.897751366719604" lon="7.853175150230527">
        <ele>3555.5700000000002</ele>
        <time>2014-07-06T04:21:55Z</time>
      </trkpt>
      <trkpt lat="45.897778775542974" lon="7.853259304538369">
        <ele>3557.5</ele>
        <time>2014-07-06T04:22:13Z</time>
      </trkpt>
      <trkpt lat="45.8978171646595" lon="7.853319654241204">
        <ele>3559.9000000000001</ele>
        <time>2014-07-06T04:22:28Z</time>
      </trkpt>
      <trkpt lat="45.897838622331619" lon="7.853341195732355">
        <ele>3559.9000000000001</ele>
        <time>2014-07-06T04:22:41Z</time>
      </trkpt>
      <trkpt lat="45.897882962599397" lon="7.853394169360399">
        <ele>3562.7800000000002</ele>
        <time>2014-07-06T04:22:57Z</time>
      </trkpt>
      <trkpt lat="45.89792562648654" lon="7.853419566527009">
        <ele>3566.1500000000001</ele>
        <time>2014-07-06T04:23:09Z</time>
      </trkpt>
      <trkpt lat="45.897984635084867" lon="7.853459715843201">
        <ele>3567.1100000000001</ele>
        <time>2014-07-06T04:23:25Z</time>
      </trkpt>
      <trkpt lat="45.898021431639791" lon="7.853441359475255">
        <ele>3569.0300000000002</ele>
        <time>2014-07-06T04:23:36Z</time>
      </trkpt>
      <trkpt lat="45.898096868768334" lon="7.853504056110978">
        <ele>3571.4400000000001</ele>
        <time>2014-07-06T04:23:54Z</time>
      </trkpt>
      <trkpt lat="45.898131988942623" lon="7.853541690856218">
        <ele>3573.3600000000001</ele>
        <time>2014-07-06T04:24:09Z</time>
      </trkpt>
      <trkpt lat="45.898197619244456" lon="7.853567423298955">
        <ele>3572.8800000000001</ele>
        <time>2014-07-06T04:24:26Z</time>
      </trkpt>
      <trkpt lat="45.898256376385689" lon="7.853500200435519">
        <ele>3573.3600000000001</ele>
        <time>2014-07-06T04:24:42Z</time>
      </trkpt>
      <trkpt lat="45.898286215960979" lon="7.853487962856889">
        <ele>3576.7199999999998</ele>
        <time>2014-07-06T04:24:49Z</time>
      </trkpt>
      <trkpt lat="45.898331897333264" lon="7.853429708629847">
        <ele>3579.1300000000001</ele>
        <time>2014-07-06T04:25:07Z</time>
      </trkpt>
      <trkpt lat="45.898389732465148" lon="7.853382602334023">
        <ele>3581.0500000000002</ele>
        <time>2014-07-06T04:25:22Z</time>
      </trkpt>
      <trkpt lat="45.898442873731256" lon="7.853327533230186">
        <ele>3583.9299999999998</ele>
        <time>2014-07-06T04:25:39Z</time>
      </trkpt>
      <trkpt lat="45.898502804338932" lon="7.85325444303453">
        <ele>3586.3400000000001</ele>
        <time>2014-07-06T04:25:56Z</time>
      </trkpt>
      <trkpt lat="45.898553179576993" lon="7.853210689499974">
        <ele>3588.2600000000002</ele>
        <time>2014-07-06T04:26:12Z</time>
      </trkpt>
      <trkpt lat="45.898577151820064" lon="7.853243043646216">
        <ele>3589.2199999999998</ele>
        <time>2014-07-06T04:26:25Z</time>
      </trkpt>
      <trkpt lat="45.898622581735253" lon="7.853281432762742">
        <ele>3591.6199999999999</ele>
        <time>2014-07-06T04:26:42Z</time>
      </trkpt>
      <trkpt lat="45.898649236187339" lon="7.853309344500303">
        <ele>3592.5799999999999</ele>
        <time>2014-07-06T04:26:58Z</time>
      </trkpt>
      <trkpt lat="45.898701120167971" lon="7.853371286764741">
        <ele>3594.9899999999998</ele>
        <time>2014-07-06T04:27:15Z</time>
      </trkpt>
      <trkpt lat="45.898748813197017" lon="7.853441191837192">
        <ele>3597.3899999999999</ele>
        <time>2014-07-06T04:27:33Z</time>
      </trkpt>
      <trkpt lat="45.898793488740921" lon="7.853499026969075">
        <ele>3599.79</ele>
        <time>2014-07-06T04:27:50Z</time>
      </trkpt>
      <trkpt lat="45.898843444883823" lon="7.853548899292946">
        <ele>3601.7199999999998</ele>
        <time>2014-07-06T04:28:06Z</time>
      </trkpt>
      <trkpt lat="45.898878984153271" lon="7.853595167398453">
        <ele>3604.1199999999999</ele>
        <time>2014-07-06T04:28:24Z</time>
      </trkpt>
      <trkpt lat="45.898878984153271" lon="7.85357840359211">
        <ele>3604.1199999999999</ele>
        <time>2014-07-06T04:28:29Z</time>
      </trkpt>
      <trkpt lat="45.898910751566291" lon="7.853549150750041">
        <ele>3606.04</ele>
        <time>2014-07-06T04:28:37Z</time>
      </trkpt>
      <trkpt lat="45.898921815678477" lon="7.853526435792446">
        <ele>3606.52</ele>
        <time>2014-07-06T04:28:54Z</time>
      </trkpt>
      <trkpt lat="45.898961964994669" lon="7.853481424972415">
        <ele>3608.4499999999998</ele>
        <time>2014-07-06T04:29:15Z</time>
      </trkpt>
      <trkpt lat="45.899017872288823" lon="7.853406490758061">
        <ele>3610.8499999999999</ele>
        <time>2014-07-06T04:29:29Z</time>
      </trkpt>
      <trkpt lat="45.899091716855764" lon="7.853364162147045">
        <ele>3610.8499999999999</ele>
        <time>2014-07-06T04:29:44Z</time>
      </trkpt>
      <trkpt lat="45.899144439026713" lon="7.853374723345041">
        <ele>3613.25</ele>
        <time>2014-07-06T04:29:59Z</time>
      </trkpt>
      <trkpt lat="45.899158604443073" lon="7.853356702253223">
        <ele>3615.6599999999999</ele>
        <time>2014-07-06T04:30:03Z</time>
      </trkpt>
      <trkpt lat="45.899205878376961" lon="7.853326611220837">
        <ele>3615.6599999999999</ele>
        <time>2014-07-06T04:30:18Z</time>
      </trkpt>
      <trkpt lat="45.899267736822367" lon="7.853377908468247">
        <ele>3618.0599999999999</ele>
        <time>2014-07-06T04:30:32Z</time>
      </trkpt>
      <trkpt lat="45.899298414587975" lon="7.853380590677261">
        <ele>3619.5</ele>
        <time>2014-07-06T04:30:48Z</time>
      </trkpt>
      <trkpt lat="45.899358680471778" lon="7.853405317291617">
        <ele>3621.4200000000001</ele>
        <time>2014-07-06T04:31:01Z</time>
      </trkpt>
      <trkpt lat="45.899413079023361" lon="7.853418476879597">
        <ele>3622.8699999999999</ele>
        <time>2014-07-06T04:31:16Z</time>
      </trkpt>
      <trkpt lat="45.899445852264762" lon="7.853431217372417">
        <ele>3625.27</ele>
        <time>2014-07-06T04:31:31Z</time>
      </trkpt>
      <trkpt lat="45.899498658254743" lon="7.853457201272249">
        <ele>3626.71</ele>
        <time>2014-07-06T04:31:48Z</time>
      </trkpt>
      <trkpt lat="45.899539981037378" lon="7.8534528426826">
        <ele>3629.1100000000001</ele>
        <time>2014-07-06T04:32:03Z</time>
      </trkpt>
      <trkpt lat="45.899568982422352" lon="7.853525681421161">
        <ele>3630.0799999999999</ele>
        <time>2014-07-06T04:32:18Z</time>
      </trkpt>
      <trkpt lat="45.89957376010716" lon="7.853515706956387">
        <ele>3632</ele>
        <time>2014-07-06T04:32:23Z</time>
      </trkpt>
      <trkpt lat="45.899628913030028" lon="7.853489639237523">
        <ele>3633.9200000000001</ele>
        <time>2014-07-06T04:32:37Z</time>
      </trkpt>
      <trkpt lat="45.899651125073433" lon="7.853508666157723">
        <ele>3633.9200000000001</ele>
        <time>2014-07-06T04:32:58Z</time>
      </trkpt>
      <trkpt lat="45.899650789797306" lon="7.853502044454217">
        <ele>3633.4400000000001</ele>
        <time>2014-07-06T04:33:23Z</time>
      </trkpt>
      <trkpt lat="45.899653472006321" lon="7.853495171293616">
        <ele>3633.9200000000001</ele>
        <time>2014-07-06T04:33:49Z</time>
      </trkpt>
      <trkpt lat="45.899660680443048" lon="7.853481005877256">
        <ele>3633.9200000000001</ele>
        <time>2014-07-06T04:34:14Z</time>
      </trkpt>
      <trkpt lat="45.899649951606989" lon="7.85348067060113">
        <ele>3633.9200000000001</ele>
        <time>2014-07-06T04:34:30Z</time>
      </trkpt>
      <trkpt lat="45.899715581908822" lon="7.853480083867908">
        <ele>3635.3600000000001</ele>
        <time>2014-07-06T04:34:44Z</time>
      </trkpt>
      <trkpt lat="45.899719437584281" lon="7.853476395830512">
        <ele>3635.8400000000001</ele>
        <time>2014-07-06T04:34:45Z</time>
      </trkpt>
      <trkpt lat="45.899816919118166" lon="7.853508414700627">
        <ele>3636.8099999999999</ele>
        <time>2014-07-06T04:35:03Z</time>
      </trkpt>
      <trkpt lat="45.899873077869415" lon="7.853514365851879">
        <ele>3637.77</ele>
        <time>2014-07-06T04:35:16Z</time>
      </trkpt>
      <trkpt lat="45.899925967678428" lon="7.853521574288607">
        <ele>3639.6900000000001</ele>
        <time>2014-07-06T04:35:24Z</time>
      </trkpt>
      <trkpt lat="45.899982796981931" lon="7.853521574288607">
        <ele>3641.1300000000001</ele>
        <time>2014-07-06T04:35:40Z</time>
      </trkpt>
      <trkpt lat="45.900068040937185" lon="7.853519059717655">
        <ele>3643.5300000000002</ele>
        <time>2014-07-06T04:35:57Z</time>
      </trkpt>
      <trkpt lat="45.900129061192274" lon="7.853498356416822">
        <ele>3645.46</ele>
        <time>2014-07-06T04:36:13Z</time>
      </trkpt>
      <trkpt lat="45.900207851082087" lon="7.853533225134015">
        <ele>3646.4200000000001</ele>
        <time>2014-07-06T04:36:28Z</time>
      </trkpt>
      <trkpt lat="45.900249676778913" lon="7.85353934392333">
        <ele>3648.8200000000002</ele>
        <time>2014-07-06T04:36:40Z</time>
      </trkpt>
      <trkpt lat="45.900301560759544" lon="7.853552084416151">
        <ele>3649.3000000000002</ele>
        <time>2014-07-06T04:36:54Z</time>
      </trkpt>
      <trkpt lat="45.900363754481077" lon="7.853572284802795">
        <ele>3650.2600000000002</ele>
        <time>2014-07-06T04:37:08Z</time>
      </trkpt>
      <trkpt lat="45.900378171354532" lon="7.853572452440858">
        <ele>3652.1900000000001</ele>
        <time>2014-07-06T04:37:12Z</time>
      </trkpt>
      <trkpt lat="45.900446232408285" lon="7.853545965626836">
        <ele>3654.5900000000001</ele>
        <time>2014-07-06T04:37:30Z</time>
      </trkpt>
      <trkpt lat="45.900510856881738" lon="7.853549486026168">
        <ele>3655.5500000000002</ele>
        <time>2014-07-06T04:37:44Z</time>
      </trkpt>
      <trkpt lat="45.900579839944839" lon="7.85356960259378">
        <ele>3657.4699999999998</ele>
        <time>2014-07-06T04:38:00Z</time>
      </trkpt>
      <trkpt lat="45.900665502995253" lon="7.853588294237852">
        <ele>3659.8800000000001</ele>
        <time>2014-07-06T04:38:16Z</time>
      </trkpt>
      <trkpt lat="45.900707747787237" lon="7.853580918163061">
        <ele>3660.8400000000001</ele>
        <time>2014-07-06T04:38:27Z</time>
      </trkpt>
      <trkpt lat="45.900790560990572" lon="7.853617966175079">
        <ele>3661.3200000000002</ele>
        <time>2014-07-06T04:38:43Z</time>
      </trkpt>
      <trkpt lat="45.900873206555843" lon="7.853627437725663">
        <ele>3663.2399999999998</ele>
        <time>2014-07-06T04:39:00Z</time>
      </trkpt>
      <trkpt lat="45.900894161313772" lon="7.85362483933568">
        <ele>3664.1999999999998</ele>
        <time>2014-07-06T04:39:06Z</time>
      </trkpt>
      <trkpt lat="45.900985524058342" lon="7.853624671697617">
        <ele>3665.6399999999999</ele>
        <time>2014-07-06T04:39:24Z</time>
      </trkpt>
      <trkpt lat="45.901058446615934" lon="7.853641603142023">
        <ele>3667.5700000000002</ele>
        <time>2014-07-06T04:39:40Z</time>
      </trkpt>
      <trkpt lat="45.901142600923777" lon="7.853639088571072">
        <ele>3669.0100000000002</ele>
        <time>2014-07-06T04:39:56Z</time>
      </trkpt>
      <trkpt lat="45.901221055537462" lon="7.853664234280586">
        <ele>3670.4499999999998</ele>
        <time>2014-07-06T04:40:11Z</time>
      </trkpt>
      <trkpt lat="45.901280147954822" lon="7.853666162118316">
        <ele>3671.8899999999999</ele>
        <time>2014-07-06T04:40:27Z</time>
      </trkpt>
      <trkpt lat="45.901341252028942" lon="7.853698851540685">
        <ele>3673.8200000000002</ele>
        <time>2014-07-06T04:40:40Z</time>
      </trkpt>
      <trkpt lat="45.901354160159826" lon="7.853696504607797">
        <ele>3675.7399999999998</ele>
        <time>2014-07-06T04:40:44Z</time>
      </trkpt>
      <trkpt lat="45.901437141001225" lon="7.853663479909301">
        <ele>3676.6999999999998</ele>
        <time>2014-07-06T04:41:02Z</time>
      </trkpt>
      <trkpt lat="45.901545183733106" lon="7.853653086349368">
        <ele>3677.1799999999998</ele>
        <time>2014-07-06T04:41:18Z</time>
      </trkpt>
      <trkpt lat="45.901635624468327" lon="7.853641686961055">
        <ele>3679.0999999999999</ele>
        <time>2014-07-06T04:41:33Z</time>
      </trkpt>
      <trkpt lat="45.901724305003881" lon="7.853659708052874">
        <ele>3680.54</ele>
        <time>2014-07-06T04:41:50Z</time>
      </trkpt>
      <trkpt lat="45.901821199804544" lon="7.853643195703626">
        <ele>3681.9899999999998</ele>
        <time>2014-07-06T04:42:08Z</time>
      </trkpt>
      <trkpt lat="45.90193142183125" lon="7.853607069700956">
        <ele>3683.4299999999998</ele>
        <time>2014-07-06T04:42:27Z</time>
      </trkpt>
      <trkpt lat="45.902033094316721" lon="7.853581085801125">
        <ele>3684.8699999999999</ele>
        <time>2014-07-06T04:42:43Z</time>
      </trkpt>
      <trkpt lat="45.902130156755447" lon="7.853560466319323">
        <ele>3685.8299999999999</ele>
        <time>2014-07-06T04:43:01Z</time>
      </trkpt>
      <trkpt lat="45.902238702401519" lon="7.853542612865567">
        <ele>3687.27</ele>
        <time>2014-07-06T04:43:18Z</time>
      </trkpt>
      <trkpt lat="45.902313133701682" lon="7.853522077202797">
        <ele>3687.75</ele>
        <time>2014-07-06T04:43:29Z</time>
      </trkpt>
      <trkpt lat="45.9024244453758" lon="7.85348461009562">
        <ele>3688.7199999999998</ele>
        <time>2014-07-06T04:43:47Z</time>
      </trkpt>
      <trkpt lat="45.902490494772792" lon="7.853426188230515">
        <ele>3689.6799999999998</ele>
        <time>2014-07-06T04:44:03Z</time>
      </trkpt>
      <trkpt lat="45.902605913579464" lon="7.853396683931351">
        <ele>3690.6399999999999</ele>
        <time>2014-07-06T04:44:19Z</time>
      </trkpt>
      <trkpt lat="45.902676489204168" lon="7.853389391675592">
        <ele>3691.1199999999999</ele>
        <time>2014-07-06T04:44:33Z</time>
      </trkpt>
      <trkpt lat="45.902701718732715" lon="7.85339031368494">
        <ele>3691.1199999999999</ele>
        <time>2014-07-06T04:44:37Z</time>
      </trkpt>
      <trkpt lat="45.902737509459257" lon="7.853462817147374">
        <ele>3691.5999999999999</ele>
        <time>2014-07-06T04:44:49Z</time>
      </trkpt>
      <trkpt lat="45.902743376791477" lon="7.853469355031848">
        <ele>3692.0799999999999</ele>
        <time>2014-07-06T04:45:13Z</time>
      </trkpt>
      <trkpt lat="45.902778832241893" lon="7.853521490469575">
        <ele>3692.0799999999999</ele>
        <time>2014-07-06T04:45:35Z</time>
      </trkpt>
      <trkpt lat="45.902772881090641" lon="7.853502966463566">
        <ele>3691.5999999999999</ele>
        <time>2014-07-06T04:45:52Z</time>
      </trkpt>
      <trkpt lat="45.902774054557085" lon="7.853477401658893">
        <ele>3691.5999999999999</ele>
        <time>2014-07-06T04:46:07Z</time>
      </trkpt>
      <trkpt lat="45.902764415368438" lon="7.853452004492283">
        <ele>3692.0799999999999</ele>
        <time>2014-07-06T04:46:32Z</time>
      </trkpt>
      <trkpt lat="45.90276500210166" lon="7.853450244292617">
        <ele>3692.0799999999999</ele>
        <time>2014-07-06T04:47:00Z</time>
      </trkpt>
      <trkpt lat="45.902759470045567" lon="7.85345041193068">
        <ele>3692.0799999999999</ele>
        <time>2014-07-06T04:47:19Z</time>
      </trkpt>
      <trkpt lat="45.902755865827203" lon="7.853443706408143">
        <ele>3692.5599999999999</ele>
        <time>2014-07-06T04:47:39Z</time>
      </trkpt>
      <trkpt lat="45.902748741209507" lon="7.85344990901649">
        <ele>3692.5599999999999</ele>
        <time>2014-07-06T04:48:00Z</time>
      </trkpt>
      <trkpt lat="45.902746226638556" lon="7.853432977572084">
        <ele>3693.04</ele>
        <time>2014-07-06T04:48:21Z</time>
      </trkpt>
      <trkpt lat="45.902759470045567" lon="7.853458458557725">
        <ele>3693.04</ele>
        <time>2014-07-06T04:48:37Z</time>
      </trkpt>
      <trkpt lat="45.902759302407503" lon="7.85346114076674">
        <ele>3693.04</ele>
        <time>2014-07-06T04:48:55Z</time>
      </trkpt>
      <trkpt lat="45.902754608541727" lon="7.853462900966406">
        <ele>3693.52</ele>
        <time>2014-07-06T04:49:12Z</time>
      </trkpt>
      <trkpt lat="45.902754105627537" lon="7.853468265384436">
        <ele>3693.52</ele>
        <time>2014-07-06T04:49:32Z</time>
      </trkpt>
      <trkpt lat="45.902758631855249" lon="7.853492237627506">
        <ele>3694</ele>
        <time>2014-07-06T04:50:00Z</time>
      </trkpt>
      <trkpt lat="45.902753351256251" lon="7.853471199050546">
        <ele>3693.04</ele>
        <time>2014-07-06T04:50:23Z</time>
      </trkpt>
      <trkpt lat="45.902757290750742" lon="7.853481508791447">
        <ele>3694</ele>
        <time>2014-07-06T04:50:39Z</time>
      </trkpt>
      <trkpt lat="45.902770953252912" lon="7.853476563468576">
        <ele>3694</ele>
        <time>2014-07-06T04:51:00Z</time>
      </trkpt>
      <trkpt lat="45.902782017365098" lon="7.853479161858559">
        <ele>3694</ele>
        <time>2014-07-06T04:51:18Z</time>
      </trkpt>
      <trkpt lat="45.902765337377787" lon="7.853496093302965">
        <ele>3694.48</ele>
        <time>2014-07-06T04:51:36Z</time>
      </trkpt>
      <trkpt lat="45.902826189994812" lon="7.853448148816824">
        <ele>3694.48</ele>
        <time>2014-07-06T04:51:56Z</time>
      </trkpt>
      <trkpt lat="45.902916295453906" lon="7.853435156866908">
        <ele>3695.4400000000001</ele>
        <time>2014-07-06T04:52:11Z</time>
      </trkpt>
      <trkpt lat="45.903032552450895" lon="7.853409675881267">
        <ele>3697.3699999999999</ele>
        <time>2014-07-06T04:52:28Z</time>
      </trkpt>
      <trkpt lat="45.903111090883613" lon="7.853402802720666">
        <ele>3698.3299999999999</ele>
        <time>2014-07-06T04:52:43Z</time>
      </trkpt>
      <trkpt lat="45.903179487213492" lon="7.853391570970416">
        <ele>3699.29</ele>
        <time>2014-07-06T04:52:56Z</time>
      </trkpt>
      <trkpt lat="45.903257941827178" lon="7.853379165753722">
        <ele>3700.73</ele>
        <time>2014-07-06T04:53:11Z</time>
      </trkpt>
      <trkpt lat="45.903348885476589" lon="7.853382937610149">
        <ele>3701.6900000000001</ele>
        <time>2014-07-06T04:53:23Z</time>
      </trkpt>
      <trkpt lat="45.903433626517653" lon="7.853380003944039">
        <ele>3703.6199999999999</ele>
        <time>2014-07-06T04:53:36Z</time>
      </trkpt>
      <trkpt lat="45.903505627065897" lon="7.853396013379097">
        <ele>3704.5799999999999</ele>
        <time>2014-07-06T04:53:51Z</time>
      </trkpt>
      <trkpt lat="45.903580812737346" lon="7.853419566527009">
        <ele>3706.02</ele>
        <time>2014-07-06T04:54:05Z</time>
      </trkpt>
      <trkpt lat="45.903658932074904" lon="7.853437336161733">
        <ele>3707.46</ele>
        <time>2014-07-06T04:54:20Z</time>
      </trkpt>
      <trkpt lat="45.903704445809126" lon="7.853441862389445">
        <ele>3708.4200000000001</ele>
        <time>2014-07-06T04:54:31Z</time>
      </trkpt>
      <trkpt lat="45.903768567368388" lon="7.85344353877008">
        <ele>3709.8699999999999</ele>
        <time>2014-07-06T04:54:44Z</time>
      </trkpt>
      <trkpt lat="45.903823552653193" lon="7.85346063785255">
        <ele>3711.3099999999999</ele>
        <time>2014-07-06T04:54:57Z</time>
      </trkpt>
      <trkpt lat="45.903868563473225" lon="7.853433480486274">
        <ele>3712.27</ele>
        <time>2014-07-06T04:55:09Z</time>
      </trkpt>
      <trkpt lat="45.903939474374056" lon="7.853471366688609">
        <ele>3714.1900000000001</ele>
        <time>2014-07-06T04:55:22Z</time>
      </trkpt>
      <trkpt lat="45.903990687802434" lon="7.853472540155053">
        <ele>3716.1100000000001</ele>
        <time>2014-07-06T04:55:38Z</time>
      </trkpt>
      <trkpt lat="45.904053384438157" lon="7.853502379730344">
        <ele>3718.04</ele>
        <time>2014-07-06T04:55:53Z</time>
      </trkpt>
      <trkpt lat="45.904103424400091" lon="7.853510342538357">
        <ele>3719.48</ele>
        <time>2014-07-06T04:56:07Z</time>
      </trkpt>
      <trkpt lat="45.904149189591408" lon="7.853513611480594">
        <ele>3720.9200000000001</ele>
        <time>2014-07-06T04:56:19Z</time>
      </trkpt>
      <trkpt lat="45.904198726639152" lon="7.853515958413482">
        <ele>3722.8400000000001</ele>
        <time>2014-07-06T04:56:34Z</time>
      </trkpt>
      <trkpt lat="45.90426167473197" lon="7.853590389713645">
        <ele>3724.77</ele>
        <time>2014-07-06T04:56:50Z</time>
      </trkpt>
      <trkpt lat="45.904338452965021" lon="7.85362827591598">
        <ele>3726.21</ele>
        <time>2014-07-06T04:57:04Z</time>
      </trkpt>
      <trkpt lat="45.90437357313931" lon="7.853646464645863">
        <ele>3728.1300000000001</ele>
        <time>2014-07-06T04:57:18Z</time>
      </trkpt>
      <trkpt lat="45.904413303360343" lon="7.853659372776747">
        <ele>3730.0500000000002</ele>
        <time>2014-07-06T04:57:32Z</time>
      </trkpt>
      <trkpt lat="45.904473988339305" lon="7.853660462424159">
        <ele>3731.4899999999998</ele>
        <time>2014-07-06T04:57:46Z</time>
      </trkpt>
      <trkpt lat="45.904520926997066" lon="7.853675130754709">
        <ele>3733.4200000000001</ele>
        <time>2014-07-06T04:58:00Z</time>
      </trkpt>
      <trkpt lat="45.904572224244475" lon="7.853689882904291">
        <ele>3734.8600000000001</ele>
        <time>2014-07-06T04:58:16Z</time>
      </trkpt>
      <trkpt lat="45.904624275863171" lon="7.853698516264558">
        <ele>3736.7800000000002</ele>
        <time>2014-07-06T04:58:32Z</time>
      </trkpt>
      <trkpt lat="45.904662581160665" lon="7.853717878460884">
        <ele>3738.2199999999998</ele>
        <time>2014-07-06T04:58:47Z</time>
      </trkpt>
      <trkpt lat="45.904709016904235" lon="7.853707484900951">
        <ele>3740.1500000000001</ele>
        <time>2014-07-06T04:59:02Z</time>
      </trkpt>
      <trkpt lat="45.904750172048807" lon="7.853720728307962">
        <ele>3742.5500000000002</ele>
        <time>2014-07-06T04:59:14Z</time>
      </trkpt>
      <trkpt lat="45.90477523393929" lon="7.853724416345358">
        <ele>3743.9899999999998</ele>
        <time>2014-07-06T04:59:25Z</time>
      </trkpt>
      <trkpt lat="45.904796272516251" lon="7.853722907602787">
        <ele>3745.9099999999999</ele>
        <time>2014-07-06T04:59:36Z</time>
      </trkpt>
      <trkpt lat="45.904808007180691" lon="7.853699689731002">
        <ele>3748.3200000000002</ele>
        <time>2014-07-06T04:59:49Z</time>
      </trkpt>
      <trkpt lat="45.904827704653144" lon="7.853641519322991">
        <ele>3749.2800000000002</ele>
        <time>2014-07-06T05:00:05Z</time>
      </trkpt>
      <trkpt lat="45.904838349670172" lon="7.853613523766398">
        <ele>3749.7600000000002</ele>
        <time>2014-07-06T05:00:22Z</time>
      </trkpt>
      <trkpt lat="45.904892748221755" lon="7.853636993095279">
        <ele>3751.1999999999998</ele>
        <time>2014-07-06T05:00:35Z</time>
      </trkpt>
      <trkpt lat="45.904909847304225" lon="7.853622827678919">
        <ele>3753.5999999999999</ele>
        <time>2014-07-06T05:00:49Z</time>
      </trkpt>
      <trkpt lat="45.904924850910902" lon="7.853565830737352">
        <ele>3755.5300000000002</ele>
        <time>2014-07-06T05:01:05Z</time>
      </trkpt>
      <trkpt lat="45.904958378523588" lon="7.853547055274248">
        <ele>3756.4899999999998</ele>
        <time>2014-07-06T05:01:18Z</time>
      </trkpt>
      <trkpt lat="45.905005987733603" lon="7.853593323379755">
        <ele>3757.4499999999998</ele>
        <time>2014-07-06T05:01:32Z</time>
      </trkpt>
      <trkpt lat="45.905026188120246" lon="7.8535823430866">
        <ele>3759.8499999999999</ele>
        <time>2014-07-06T05:01:46Z</time>
      </trkpt>
      <trkpt lat="45.90503616258502" lon="7.853541942313314">
        <ele>3761.3000000000002</ele>
        <time>2014-07-06T05:02:01Z</time>
      </trkpt>
      <trkpt lat="45.905050495639443" lon="7.853495422750711">
        <ele>3762.2600000000002</ele>
        <time>2014-07-06T05:02:20Z</time>
      </trkpt>
      <trkpt lat="45.90507916174829" lon="7.853479664772749">
        <ele>3763.2199999999998</ele>
        <time>2014-07-06T05:02:39Z</time>
      </trkpt>
      <trkpt lat="45.905136661604047" lon="7.853516712784767">
        <ele>3765.1399999999999</ele>
        <time>2014-07-06T05:02:54Z</time>
      </trkpt>
      <trkpt lat="45.905156610533595" lon="7.853457033634186">
        <ele>3767.54</ele>
        <time>2014-07-06T05:03:11Z</time>
      </trkpt>
      <trkpt lat="45.90517345815897" lon="7.853420320898294">
        <ele>3768.5100000000002</ele>
        <time>2014-07-06T05:03:23Z</time>
      </trkpt>
      <trkpt lat="45.905210925266147" lon="7.853381428867579">
        <ele>3770.4299999999998</ele>
        <time>2014-07-06T05:03:43Z</time>
      </trkpt>
      <trkpt lat="45.90523162856698" lon="7.853348320350051">
        <ele>3771.8699999999999</ele>
        <time>2014-07-06T05:03:55Z</time>
      </trkpt>
      <trkpt lat="45.905257780104876" lon="7.853322336450219">
        <ele>3773.3099999999999</ele>
        <time>2014-07-06T05:04:09Z</time>
      </trkpt>
      <trkpt lat="45.905289547517896" lon="7.853281181305647">
        <ele>3774.75</ele>
        <time>2014-07-06T05:04:28Z</time>
      </trkpt>
      <trkpt lat="45.905326763167977" lon="7.853253772482276">
        <ele>3776.6799999999998</ele>
        <time>2014-07-06T05:04:41Z</time>
      </trkpt>
      <trkpt lat="45.905353417620063" lon="7.853242121636868">
        <ele>3777.6399999999999</ele>
        <time>2014-07-06T05:04:54Z</time>
      </trkpt>
      <trkpt lat="45.905389795079827" lon="7.853217143565416">
        <ele>3779.0799999999999</ele>
        <time>2014-07-06T05:05:08Z</time>
      </trkpt>
      <trkpt lat="45.905406726524234" lon="7.853190153837204">
        <ele>3780.04</ele>
        <time>2014-07-06T05:05:20Z</time>
      </trkpt>
      <trkpt lat="45.905441679060459" lon="7.853174647316337">
        <ele>3781.48</ele>
        <time>2014-07-06T05:05:30Z</time>
      </trkpt>
      <trkpt lat="45.905473781749606" lon="7.853142041712999">
        <ele>3782.9299999999998</ele>
        <time>2014-07-06T05:05:46Z</time>
      </trkpt>
      <trkpt lat="45.905511165037751" lon="7.85311521962285">
        <ele>3784.3699999999999</ele>
        <time>2014-07-06T05:06:02Z</time>
      </trkpt>
      <trkpt lat="45.905553661286831" lon="7.853070795536041">
        <ele>3786.29</ele>
        <time>2014-07-06T05:06:19Z</time>
      </trkpt>
      <trkpt lat="45.905589619651437" lon="7.853057803586125">
        <ele>3787.73</ele>
        <time>2014-07-06T05:06:34Z</time>
      </trkpt>
      <trkpt lat="45.905623063445091" lon="7.853033496066928">
        <ele>3789.6500000000001</ele>
        <time>2014-07-06T05:06:47Z</time>
      </trkpt>
      <trkpt lat="45.905668660998344" lon="7.853009356185794">
        <ele>3791.0999999999999</ele>
        <time>2014-07-06T05:07:00Z</time>
      </trkpt>
      <trkpt lat="45.905695231631398" lon="7.85300181247294">
        <ele>3792.54</ele>
        <time>2014-07-06T05:07:15Z</time>
      </trkpt>
      <trkpt lat="45.905734123662114" lon="7.852964429184794">
        <ele>3794.46</ele>
        <time>2014-07-06T05:07:32Z</time>
      </trkpt>
      <trkpt lat="45.905769495293498" lon="7.852938361465931">
        <ele>3795.9000000000001</ele>
        <time>2014-07-06T05:07:49Z</time>
      </trkpt>
      <trkpt lat="45.90579841285944" lon="7.852913215756416">
        <ele>3797.8299999999999</ele>
        <time>2014-07-06T05:08:02Z</time>
      </trkpt>
      <trkpt lat="45.905822636559606" lon="7.852896703407168">
        <ele>3798.79</ele>
        <time>2014-07-06T05:08:17Z</time>
      </trkpt>
      <trkpt lat="45.905849207192659" lon="7.852874072268605">
        <ele>3800.23</ele>
        <time>2014-07-06T05:08:29Z</time>
      </trkpt>
      <trkpt lat="45.905897319316864" lon="7.852880777791143">
        <ele>3800.71</ele>
        <time>2014-07-06T05:08:45Z</time>
      </trkpt>
      <trkpt lat="45.905921459197998" lon="7.85293878056109">
        <ele>3802.6300000000001</ele>
        <time>2014-07-06T05:08:59Z</time>
      </trkpt>
      <trkpt lat="45.90593914501369" lon="7.852963423356414">
        <ele>3804.0700000000002</ele>
        <time>2014-07-06T05:09:13Z</time>
      </trkpt>
      <trkpt lat="45.905937971547246" lon="7.852980187162757">
        <ele>3804.5500000000002</ele>
        <time>2014-07-06T05:09:28Z</time>
      </trkpt>
      <trkpt lat="45.905957333743572" lon="7.852983959019184">
        <ele>3804.5500000000002</ele>
        <time>2014-07-06T05:09:45Z</time>
      </trkpt>
      <trkpt lat="45.905972504988313" lon="7.853036178275943">
        <ele>3806.48</ele>
        <time>2014-07-06T05:09:59Z</time>
      </trkpt>
      <trkpt lat="45.905985664576292" lon="7.853078506886959">
        <ele>3808.4000000000001</ele>
        <time>2014-07-06T05:10:15Z</time>
      </trkpt>
      <trkpt lat="45.905990023165941" lon="7.853076327592135">
        <ele>3810.3200000000002</ele>
        <time>2014-07-06T05:10:38Z</time>
      </trkpt>
      <trkpt lat="45.906016174703836" lon="7.853039279580116">
        <ele>3810.8000000000002</ele>
        <time>2014-07-06T05:10:54Z</time>
      </trkpt>
      <trkpt lat="45.906054396182299" lon="7.853053193539381">
        <ele>3812.25</ele>
        <time>2014-07-06T05:11:08Z</time>
      </trkpt>
      <trkpt lat="45.906098065897822" lon="7.853021509945393">
        <ele>3815.6100000000001</ele>
        <time>2014-07-06T05:11:19Z</time>
      </trkpt>
      <trkpt lat="45.906141065061092" lon="7.853087307885289">
        <ele>3815.6100000000001</ele>
        <time>2014-07-06T05:11:33Z</time>
      </trkpt>
      <trkpt lat="45.906170401722193" lon="7.853147238492966">
        <ele>3818.0100000000002</ele>
        <time>2014-07-06T05:11:49Z</time>
      </trkpt>
      <trkpt lat="45.906198900192976" lon="7.853154866024852">
        <ele>3820.9000000000001</ele>
        <time>2014-07-06T05:12:05Z</time>
      </trkpt>
      <trkpt lat="45.906230332329869" lon="7.85317967645824">
        <ele>3822.3400000000001</ele>
        <time>2014-07-06T05:12:19Z</time>
      </trkpt>
      <trkpt lat="45.906243743374944" lon="7.853167355060577">
        <ele>3823.7800000000002</ele>
        <time>2014-07-06T05:12:34Z</time>
      </trkpt>
      <trkpt lat="45.906291184946895" lon="7.853235835209489">
        <ele>3825.2199999999998</ele>
        <time>2014-07-06T05:12:50Z</time>
      </trkpt>
      <trkpt lat="45.906339380890131" lon="7.853271877393127">
        <ele>3828.1100000000001</ele>
        <time>2014-07-06T05:13:06Z</time>
      </trkpt>
      <trkpt lat="45.906360670924187" lon="7.853352930396795">
        <ele>3830.0300000000002</ele>
        <time>2014-07-06T05:13:21Z</time>
      </trkpt>
      <trkpt lat="45.906384391710162" lon="7.853305991739035">
        <ele>3831.4699999999998</ele>
        <time>2014-07-06T05:13:34Z</time>
      </trkpt>
      <trkpt lat="45.906416410580277" lon="7.853305153548718">
        <ele>3832.9099999999999</ele>
        <time>2014-07-06T05:13:49Z</time>
      </trkpt>
      <trkpt lat="45.90645270422101" lon="7.853301214054227">
        <ele>3834.3600000000001</ele>
        <time>2014-07-06T05:14:06Z</time>
      </trkpt>
      <trkpt lat="45.906445411965251" lon="7.853360138833523">
        <ele>3835.3200000000002</ele>
        <time>2014-07-06T05:14:20Z</time>
      </trkpt>
      <trkpt lat="45.906468881294131" lon="7.853434486314654">
        <ele>3837.2399999999998</ele>
        <time>2014-07-06T05:14:35Z</time>
      </trkpt>
      <trkpt lat="45.906496373936534" lon="7.853474551811814">
        <ele>3838.1999999999998</ele>
        <time>2014-07-06T05:14:48Z</time>
      </trkpt>
      <trkpt lat="45.906537864357233" lon="7.853476731106639">
        <ele>3840.1199999999999</ele>
        <time>2014-07-06T05:14:59Z</time>
      </trkpt>
      <trkpt lat="45.90654113329947" lon="7.853513862937689">
        <ele>3841.0799999999999</ele>
        <time>2014-07-06T05:15:13Z</time>
      </trkpt>
      <trkpt lat="45.906547838822007" lon="7.853488633409143">
        <ele>3842.0500000000002</ele>
        <time>2014-07-06T05:15:31Z</time>
      </trkpt>
      <trkpt lat="45.906610116362572" lon="7.853473126888275">
        <ele>3844.4499999999998</ele>
        <time>2014-07-06T05:15:48Z</time>
      </trkpt>
      <trkpt lat="45.906651942059398" lon="7.853528866544366">
        <ele>3845.8899999999999</ele>
        <time>2014-07-06T05:16:02Z</time>
      </trkpt>
      <trkpt lat="45.906654791906476" lon="7.853583935648203">
        <ele>3846.8499999999999</ele>
        <time>2014-07-06T05:16:14Z</time>
      </trkpt>
      <trkpt lat="45.906660743057728" lon="7.853532051667571">
        <ele>3848.29</ele>
        <time>2014-07-06T05:16:27Z</time>
      </trkpt>
      <trkpt lat="45.906671639531851" lon="7.853544121608138">
        <ele>3849.2600000000002</ele>
        <time>2014-07-06T05:16:43Z</time>
      </trkpt>
      <trkpt lat="45.906667532399297" lon="7.853545630350709">
        <ele>3849.2600000000002</ele>
        <time>2014-07-06T05:17:05Z</time>
      </trkpt>
      <trkpt lat="45.906722685322165" lon="7.853587372228503">
        <ele>3850.2199999999998</ele>
        <time>2014-07-06T05:17:18Z</time>
      </trkpt>
      <trkpt lat="45.906765013933182" lon="7.853617127984762">
        <ele>3852.1399999999999</ele>
        <time>2014-07-06T05:17:28Z</time>
      </trkpt>
      <trkpt lat="45.906803235411644" lon="7.853677896782756">
        <ele>3854.54</ele>
        <time>2014-07-06T05:17:42Z</time>
      </trkpt>
      <trkpt lat="45.90680792927742" lon="7.853697510436177">
        <ele>3855.02</ele>
        <time>2014-07-06T05:17:51Z</time>
      </trkpt>
      <trkpt lat="45.906822681427002" lon="7.853686111047864">
        <ele>3856.4699999999998</ele>
        <time>2014-07-06T05:18:04Z</time>
      </trkpt>
      <trkpt lat="45.906877247616649" lon="7.853716034442186">
        <ele>3858.3899999999999</ele>
        <time>2014-07-06T05:18:17Z</time>
      </trkpt>
      <trkpt lat="45.906933574005961" lon="7.853694744408131">
        <ele>3860.3099999999999</ele>
        <time>2014-07-06T05:18:30Z</time>
      </trkpt>
      <trkpt lat="45.906964587047696" lon="7.85367613658309">
        <ele>3861.75</ele>
        <time>2014-07-06T05:18:45Z</time>
      </trkpt>
      <trkpt lat="45.907018650323153" lon="7.853674376383424">
        <ele>3863.1999999999998</ele>
        <time>2014-07-06T05:19:00Z</time>
      </trkpt>
      <trkpt lat="45.907089142128825" lon="7.853672448545694">
        <ele>3865.1199999999999</ele>
        <time>2014-07-06T05:19:14Z</time>
      </trkpt>
      <trkpt lat="45.907165668904781" lon="7.853653253987432">
        <ele>3867.04</ele>
        <time>2014-07-06T05:19:29Z</time>
      </trkpt>
      <trkpt lat="45.90723255649209" lon="7.853670185431838">
        <ele>3868.96</ele>
        <time>2014-07-06T05:19:47Z</time>
      </trkpt>
      <trkpt lat="45.907302377745509" lon="7.853684350848198">
        <ele>3871.3699999999999</ele>
        <time>2014-07-06T05:20:03Z</time>
      </trkpt>
      <trkpt lat="45.907379742711782" lon="7.853661300614476">
        <ele>3872.8099999999999</ele>
        <time>2014-07-06T05:20:20Z</time>
      </trkpt>
      <trkpt lat="45.907455263659358" lon="7.853683512657881">
        <ele>3874.73</ele>
        <time>2014-07-06T05:20:34Z</time>
      </trkpt>
      <trkpt lat="45.907518127933145" lon="7.853705640882254">
        <ele>3877.6199999999999</ele>
        <time>2014-07-06T05:20:49Z</time>
      </trkpt>
      <trkpt lat="45.907587362453341" lon="7.853742437437177">
        <ele>3878.5799999999999</ele>
        <time>2014-07-06T05:21:01Z</time>
      </trkpt>
      <trkpt lat="45.90759951621294" lon="7.853772193193436">
        <ele>3880.02</ele>
        <time>2014-07-06T05:21:12Z</time>
      </trkpt>
      <trkpt lat="45.907586943358183" lon="7.853759285062552">
        <ele>3880.5</ele>
        <time>2014-07-06T05:21:25Z</time>
      </trkpt>
      <trkpt lat="45.907582836225629" lon="7.853752411901951">
        <ele>3880.5</ele>
        <time>2014-07-06T05:21:27Z</time>
      </trkpt>
      <trkpt lat="45.907591301947832" lon="7.853755010291934">
        <ele>3879.54</ele>
        <time>2014-07-06T05:21:37Z</time>
      </trkpt>
      <trkpt lat="45.907582584768534" lon="7.853728104382753">
        <ele>3879.54</ele>
        <time>2014-07-06T05:22:10Z</time>
      </trkpt>
      <trkpt lat="45.907577639445662" lon="7.853735061362386">
        <ele>3880.02</ele>
        <time>2014-07-06T05:22:45Z</time>
      </trkpt>
      <trkpt lat="45.907602952793241" lon="7.85381393507123">
        <ele>3880.02</ele>
        <time>2014-07-06T05:23:14Z</time>
      </trkpt>
      <trkpt lat="45.907572107389569" lon="7.853793567046523">
        <ele>3880.5</ele>
        <time>2014-07-06T05:23:43Z</time>
      </trkpt>
      <trkpt lat="45.907580992206931" lon="7.853738330304623">
        <ele>3880.98</ele>
        <time>2014-07-06T05:23:55Z</time>
      </trkpt>
      <trkpt lat="45.907581578940153" lon="7.853753501549363">
        <ele>3880.98</ele>
        <time>2014-07-06T05:24:06Z</time>
      </trkpt>
      <trkpt lat="45.907565234228969" lon="7.853778311982751">
        <ele>3881.46</ele>
        <time>2014-07-06T05:24:24Z</time>
      </trkpt>
      <trkpt lat="45.907555008307099" lon="7.853801948949695">
        <ele>3881.46</ele>
        <time>2014-07-06T05:24:46Z</time>
      </trkpt>
      <trkpt lat="45.907577220350504" lon="7.85377680324018">
        <ele>3881.9400000000001</ele>
        <time>2014-07-06T05:25:01Z</time>
      </trkpt>
      <trkpt lat="45.907586021348834" lon="7.853757608681917">
        <ele>3881.9400000000001</ele>
        <time>2014-07-06T05:25:19Z</time>
      </trkpt>
      <trkpt lat="45.907576298341155" lon="7.853780156001449">
        <ele>3881.9400000000001</ele>
        <time>2014-07-06T05:25:50Z</time>
      </trkpt>
      <trkpt lat="45.907589038833976" lon="7.853787029162049">
        <ele>3881.9400000000001</ele>
        <time>2014-07-06T05:26:11Z</time>
      </trkpt>
      <trkpt lat="45.907569592818618" lon="7.853801446035504">
        <ele>3881.9400000000001</ele>
        <time>2014-07-06T05:26:30Z</time>
      </trkpt>
      <trkpt lat="45.907577807083726" lon="7.853760542348027">
        <ele>3881.9400000000001</ele>
        <time>2014-07-06T05:26:44Z</time>
      </trkpt>
      <trkpt lat="45.907592391595244" lon="7.853745454922319">
        <ele>3881.9400000000001</ele>
        <time>2014-07-06T05:27:06Z</time>
      </trkpt>
      <trkpt lat="45.90759021230042" lon="7.8537343069911">
        <ele>3881.9400000000001</ele>
        <time>2014-07-06T05:27:19Z</time>
      </trkpt>
      <trkpt lat="45.907583422958851" lon="7.853757776319981">
        <ele>3881.9400000000001</ele>
        <time>2014-07-06T05:27:42Z</time>
      </trkpt>
      <trkpt lat="45.907571353018284" lon="7.853813180699945">
        <ele>3881.9400000000001</ele>
        <time>2014-07-06T05:28:07Z</time>
      </trkpt>
      <trkpt lat="45.907555678859353" lon="7.853799350559712">
        <ele>3882.4200000000001</ele>
        <time>2014-07-06T05:28:28Z</time>
      </trkpt>
      <trkpt lat="45.907588033005595" lon="7.853719303384423">
        <ele>3882.4200000000001</ele>
        <time>2014-07-06T05:28:49Z</time>
      </trkpt>
      <trkpt lat="45.907585266977549" lon="7.853744449093938">
        <ele>3882.4200000000001</ele>
        <time>2014-07-06T05:29:09Z</time>
      </trkpt>
      <trkpt lat="45.907580489292741" lon="7.85376263782382">
        <ele>3882.4200000000001</ele>
        <time>2014-07-06T05:29:28Z</time>
      </trkpt>
      <trkpt lat="45.907581159844995" lon="7.853786945343018">
        <ele>3882.4200000000001</ele>
        <time>2014-07-06T05:29:52Z</time>
      </trkpt>
      <trkpt lat="45.907596331089735" lon="7.853729780763388">
        <ele>3882.4200000000001</ele>
        <time>2014-07-06T05:30:07Z</time>
      </trkpt>
      <trkpt lat="45.907589122653008" lon="7.853744197636843">
        <ele>3882.4200000000001</ele>
        <time>2014-07-06T05:30:24Z</time>
      </trkpt>
      <trkpt lat="45.907618459314108" lon="7.853724164888263">
        <ele>3882.9000000000001</ele>
        <time>2014-07-06T05:30:37Z</time>
      </trkpt>
      <trkpt lat="45.907702445983887" lon="7.853736653923988">
        <ele>3885.3099999999999</ele>
        <time>2014-07-06T05:30:53Z</time>
      </trkpt>
      <trkpt lat="45.907789869233966" lon="7.853732462972403">
        <ele>3887.71</ele>
        <time>2014-07-06T05:31:13Z</time>
      </trkpt>
      <trkpt lat="45.907856337726116" lon="7.853756519034505">
        <ele>3890.1100000000001</ele>
        <time>2014-07-06T05:31:31Z</time>
      </trkpt>
      <trkpt lat="45.907916268333793" lon="7.853753753006458">
        <ele>3891.5500000000002</ele>
        <time>2014-07-06T05:31:46Z</time>
      </trkpt>
      <trkpt lat="45.907976701855659" lon="7.853760793805122">
        <ele>3893.48</ele>
        <time>2014-07-06T05:32:00Z</time>
      </trkpt>
      <trkpt lat="45.908026238903403" lon="7.853775629773736">
        <ele>3895.4000000000001</ele>
        <time>2014-07-06T05:32:15Z</time>
      </trkpt>
      <trkpt lat="45.908066891133785" lon="7.85376163199544">
        <ele>3897.3200000000002</ele>
        <time>2014-07-06T05:32:30Z</time>
      </trkpt>
      <trkpt lat="45.908107794821262" lon="7.853785688057542">
        <ele>3898.7600000000002</ele>
        <time>2014-07-06T05:32:44Z</time>
      </trkpt>
      <trkpt lat="45.908151548355818" lon="7.853805553168058">
        <ele>3900.6900000000001</ele>
        <time>2014-07-06T05:32:59Z</time>
      </trkpt>
      <trkpt lat="45.908206617459655" lon="7.853806307539344">
        <ele>3902.6100000000001</ele>
        <time>2014-07-06T05:33:15Z</time>
      </trkpt>
      <trkpt lat="45.908260932192206" lon="7.853818209841847">
        <ele>3904.0500000000002</ele>
        <time>2014-07-06T05:33:30Z</time>
      </trkpt>
      <trkpt lat="45.908309547230601" lon="7.853826591745019">
        <ele>3906.9400000000001</ele>
        <time>2014-07-06T05:33:42Z</time>
      </trkpt>
      <trkpt lat="45.908364616334438" lon="7.85383639857173">
        <ele>3907.4200000000001</ele>
        <time>2014-07-06T05:33:57Z</time>
      </trkpt>
      <trkpt lat="45.908411638811231" lon="7.85382466390729">
        <ele>3908.8600000000001</ele>
        <time>2014-07-06T05:34:12Z</time>
      </trkpt>
      <trkpt lat="45.908456901088357" lon="7.853871267288923">
        <ele>3910.3000000000002</ele>
        <time>2014-07-06T05:34:26Z</time>
      </trkpt>
      <trkpt lat="45.908493530005217" lon="7.853890545666218">
        <ele>3912.2199999999998</ele>
        <time>2014-07-06T05:34:39Z</time>
      </trkpt>
      <trkpt lat="45.908550694584846" lon="7.8538828343153">
        <ele>3914.1500000000001</ele>
        <time>2014-07-06T05:34:54Z</time>
      </trkpt>
      <trkpt lat="45.908595370128751" lon="7.853869507089257">
        <ele>3915.1100000000001</ele>
        <time>2014-07-06T05:35:08Z</time>
      </trkpt>
      <trkpt lat="45.908652869984508" lon="7.853876883164048">
        <ele>3917.5100000000002</ele>
        <time>2014-07-06T05:35:25Z</time>
      </trkpt>
      <trkpt lat="45.908705927431583" lon="7.853886103257537">
        <ele>3918.9499999999998</ele>
        <time>2014-07-06T05:35:42Z</time>
      </trkpt>
      <trkpt lat="45.908751273527741" lon="7.853875625878573">
        <ele>3920.8699999999999</ele>
        <time>2014-07-06T05:35:57Z</time>
      </trkpt>
      <trkpt lat="45.908793937414885" lon="7.853873865678906">
        <ele>3922.8000000000002</ele>
        <time>2014-07-06T05:36:13Z</time>
      </trkpt>
      <trkpt lat="45.908846324309707" lon="7.853894652798772">
        <ele>3924.7199999999998</ele>
        <time>2014-07-06T05:36:28Z</time>
      </trkpt>
      <trkpt lat="45.908890832215548" lon="7.853898843750358">
        <ele>3926.1599999999999</ele>
        <time>2014-07-06T05:36:41Z</time>
      </trkpt>
      <trkpt lat="45.90887532569468" lon="7.853885348886251">
        <ele>3927.1199999999999</ele>
        <time>2014-07-06T05:36:56Z</time>
      </trkpt>
      <trkpt lat="45.908887563273311" lon="7.853901190683246">
        <ele>3927.5999999999999</ele>
        <time>2014-07-06T05:37:11Z</time>
      </trkpt>
      <trkpt lat="45.908905752003193" lon="7.853911751881242">
        <ele>3928.0799999999999</ele>
        <time>2014-07-06T05:37:23Z</time>
      </trkpt>
      <trkpt lat="45.90895839035511" lon="7.853941172361374">
        <ele>3929.0500000000002</ele>
        <time>2014-07-06T05:37:36Z</time>
      </trkpt>
      <trkpt lat="45.908971885219216" lon="7.853939663618803">
        <ele>3929.5300000000002</ele>
        <time>2014-07-06T05:37:49Z</time>
      </trkpt>
      <trkpt lat="45.909026619046926" lon="7.853956259787083">
        <ele>3931.9299999999998</ele>
        <time>2014-07-06T05:38:06Z</time>
      </trkpt>
      <trkpt lat="45.909097446128726" lon="7.853967575356364">
        <ele>3933.8499999999999</ele>
        <time>2014-07-06T05:38:24Z</time>
      </trkpt>
      <trkpt lat="45.909162070602179" lon="7.853993559256196">
        <ele>3936.2600000000002</ele>
        <time>2014-07-06T05:38:42Z</time>
      </trkpt>
      <trkpt lat="45.909206578508019" lon="7.854024404659867">
        <ele>3938.1799999999998</ele>
        <time>2014-07-06T05:38:56Z</time>
      </trkpt>
      <trkpt lat="45.909240273758769" lon="7.854026164859533">
        <ele>3939.6199999999999</ele>
        <time>2014-07-06T05:39:14Z</time>
      </trkpt>
      <trkpt lat="45.909288134425879" lon="7.854063715785742">
        <ele>3941.54</ele>
        <time>2014-07-06T05:39:27Z</time>
      </trkpt>
      <trkpt lat="45.909300288185477" lon="7.854065811261535">
        <ele>3942.98</ele>
        <time>2014-07-06T05:39:42Z</time>
      </trkpt>
      <trkpt lat="45.909344963729382" lon="7.854062961414456">
        <ele>3944.4299999999998</ele>
        <time>2014-07-06T05:40:01Z</time>
      </trkpt>
      <trkpt lat="45.909395841881633" lon="7.854092717170715">
        <ele>3945.8699999999999</ele>
        <time>2014-07-06T05:40:15Z</time>
      </trkpt>
      <trkpt lat="45.909452335909009" lon="7.854122389107943">
        <ele>3948.27</ele>
        <time>2014-07-06T05:40:30Z</time>
      </trkpt>
      <trkpt lat="45.909495502710342" lon="7.854128843173385">
        <ele>3950.1900000000001</ele>
        <time>2014-07-06T05:40:45Z</time>
      </trkpt>
      <trkpt lat="45.909502962604165" lon="7.854142421856523">
        <ele>3950.1900000000001</ele>
        <time>2014-07-06T05:40:58Z</time>
      </trkpt>
      <trkpt lat="45.909564485773444" lon="7.854193383827806">
        <ele>3953.0799999999999</ele>
        <time>2014-07-06T05:41:14Z</time>
      </trkpt>
      <trkpt lat="45.909611089155078" lon="7.85418139770627">
        <ele>3955</ele>
        <time>2014-07-06T05:41:30Z</time>
      </trkpt>
      <trkpt lat="45.909670852124691" lon="7.854197071865201">
        <ele>3956.4400000000001</ele>
        <time>2014-07-06T05:41:45Z</time>
      </trkpt>
      <trkpt lat="45.909700440242887" lon="7.85418726503849">
        <ele>3958.3699999999999</ele>
        <time>2014-07-06T05:42:00Z</time>
      </trkpt>
      <trkpt lat="45.909748720005155" lon="7.854217691347003">
        <ele>3959.8099999999999</ele>
        <time>2014-07-06T05:42:17Z</time>
      </trkpt>
      <trkpt lat="45.90979783795774" lon="7.854246944189072">
        <ele>3961.73</ele>
        <time>2014-07-06T05:42:34Z</time>
      </trkpt>
      <trkpt lat="45.909864641726017" lon="7.854274101555347">
        <ele>3963.6500000000001</ele>
        <time>2014-07-06T05:42:50Z</time>
      </trkpt>
      <trkpt lat="45.909885847941041" lon="7.854299247264862">
        <ele>3966.0599999999999</ele>
        <time>2014-07-06T05:43:05Z</time>
      </trkpt>
      <trkpt lat="45.90991510078311" lon="7.854316681623459">
        <ele>3967.5</ele>
        <time>2014-07-06T05:43:24Z</time>
      </trkpt>
      <trkpt lat="45.909957094117999" lon="7.854335457086563">
        <ele>3969.4200000000001</ele>
        <time>2014-07-06T05:43:40Z</time>
      </trkpt>
      <trkpt lat="45.909966817125678" lon="7.854339983314276">
        <ele>3969.9000000000001</ele>
        <time>2014-07-06T05:43:45Z</time>
      </trkpt>
      <trkpt lat="45.910006463527679" lon="7.854333110153675">
        <ele>3971.8200000000002</ele>
        <time>2014-07-06T05:43:58Z</time>
      </trkpt>
      <trkpt lat="45.910055665299296" lon="7.854350125417113">
        <ele>3973.75</ele>
        <time>2014-07-06T05:44:12Z</time>
      </trkpt>
      <trkpt lat="45.910094054415822" lon="7.854368397966027">
        <ele>3975.1900000000001</ele>
        <time>2014-07-06T05:44:28Z</time>
      </trkpt>
      <trkpt lat="45.910105537623167" lon="7.854369739070535">
        <ele>3976.1500000000001</ele>
        <time>2014-07-06T05:44:44Z</time>
      </trkpt>
      <trkpt lat="45.910155242308974" lon="7.854402093216777">
        <ele>3978.0700000000002</ele>
        <time>2014-07-06T05:45:01Z</time>
      </trkpt>
      <trkpt lat="45.910193715244532" lon="7.854415001347661">
        <ele>3980</ele>
        <time>2014-07-06T05:45:15Z</time>
      </trkpt>
      <trkpt lat="45.910241575911641" lon="7.854468561708927">
        <ele>3981.9200000000001</ele>
        <time>2014-07-06T05:45:29Z</time>
      </trkpt>
      <trkpt lat="45.910287089645863" lon="7.854532934725285">
        <ele>3983.3600000000001</ele>
        <time>2014-07-06T05:45:42Z</time>
      </trkpt>
      <trkpt lat="45.910293711349368" lon="7.854566462337971">
        <ele>3983.8400000000001</ele>
        <time>2014-07-06T05:45:58Z</time>
      </trkpt>
      <trkpt lat="45.910325143486261" lon="7.854549866169691">
        <ele>3985.7600000000002</ele>
        <time>2014-07-06T05:46:12Z</time>
      </trkpt>
      <trkpt lat="45.910374512895942" lon="7.854611473158002">
        <ele>3988.1700000000001</ele>
        <time>2014-07-06T05:46:30Z</time>
      </trkpt>
      <trkpt lat="45.910391192883253" lon="7.854618765413761">
        <ele>3989.1300000000001</ele>
        <time>2014-07-06T05:46:36Z</time>
      </trkpt>
      <trkpt lat="45.910406531766057" lon="7.854648856446147">
        <ele>3990.5700000000002</ele>
        <time>2014-07-06T05:46:48Z</time>
      </trkpt>
      <trkpt lat="45.910427402704954" lon="7.85466754809022">
        <ele>3991.5300000000002</ele>
        <time>2014-07-06T05:47:05Z</time>
      </trkpt>
      <trkpt lat="45.910490183159709" lon="7.854726808145642">
        <ele>3993.9299999999998</ele>
        <time>2014-07-06T05:47:23Z</time>
      </trkpt>
      <trkpt lat="45.910541983321309" lon="7.854741811752319">
        <ele>3995.3800000000001</ele>
        <time>2014-07-06T05:47:39Z</time>
      </trkpt>
      <trkpt lat="45.910591939464211" lon="7.854798557236791">
        <ele>3997.3000000000002</ele>
        <time>2014-07-06T05:47:54Z</time>
      </trkpt>
      <trkpt lat="45.910599566996098" lon="7.854854380711913">
        <ele>3997.7800000000002</ele>
        <time>2014-07-06T05:48:22Z</time>
      </trkpt>
      <trkpt lat="45.910633178427815" lon="7.854823200032115">
        <ele>3998.7399999999998</ele>
        <time>2014-07-06T05:48:35Z</time>
      </trkpt>
      <trkpt lat="45.910691265016794" lon="7.854847591370344">
        <ele>4001.1399999999999</ele>
        <time>2014-07-06T05:48:50Z</time>
      </trkpt>
      <trkpt lat="45.910735270008445" lon="7.854901319369674">
        <ele>4003.0700000000002</ele>
        <time>2014-07-06T05:49:05Z</time>
      </trkpt>
      <trkpt lat="45.910804504528642" lon="7.854926465079188">
        <ele>4004.0300000000002</ele>
        <time>2014-07-06T05:49:20Z</time>
      </trkpt>
      <trkpt lat="45.910869212821126" lon="7.854923782870174">
        <ele>4005.9499999999998</ele>
        <time>2014-07-06T05:49:36Z</time>
      </trkpt>
      <trkpt lat="45.910909697413445" lon="7.854915149509907">
        <ele>4009.3200000000002</ele>
        <time>2014-07-06T05:49:51Z</time>
      </trkpt>
      <trkpt lat="45.910951523110271" lon="7.854907521978021">
        <ele>4010.2800000000002</ele>
        <time>2014-07-06T05:50:07Z</time>
      </trkpt>
      <trkpt lat="45.911032659932971" lon="7.854923447594047">
        <ele>4012.1999999999998</ele>
        <time>2014-07-06T05:50:23Z</time>
      </trkpt>
      <trkpt lat="45.91108244843781" lon="7.854957142844796">
        <ele>4013.1599999999999</ele>
        <time>2014-07-06T05:50:34Z</time>
      </trkpt>
      <trkpt lat="45.911104157567024" lon="7.854970134794712">
        <ele>4013.6399999999999</ele>
        <time>2014-07-06T05:50:50Z</time>
      </trkpt>
      <trkpt lat="45.911118658259511" lon="7.855113465338945">
        <ele>4016.04</ele>
        <time>2014-07-06T05:51:09Z</time>
      </trkpt>
      <trkpt lat="45.911145647987723" lon="7.855236427858472">
        <ele>4017.9699999999998</ele>
        <time>2014-07-06T05:51:23Z</time>
      </trkpt>
      <trkpt lat="45.911153191700578" lon="7.855272805318236">
        <ele>4018.9299999999998</ele>
        <time>2014-07-06T05:51:36Z</time>
      </trkpt>
      <trkpt lat="45.911149000748992" lon="7.855345979332924">
        <ele>4021.8099999999999</ele>
        <time>2014-07-06T05:51:52Z</time>
      </trkpt>
      <trkpt lat="45.911164842545986" lon="7.855379674583674">
        <ele>4020.8499999999999</ele>
        <time>2014-07-06T05:51:56Z</time>
      </trkpt>
      <trkpt lat="45.911186635494232" lon="7.855392247438431">
        <ele>4021.3299999999999</ele>
        <time>2014-07-06T05:52:07Z</time>
      </trkpt>
      <trkpt lat="45.91118361800909" lon="7.855347571894527">
        <ele>4021.3299999999999</ele>
        <time>2014-07-06T05:52:12Z</time>
      </trkpt>
      <trkpt lat="45.911167692393064" lon="7.855328880250454">
        <ele>4020.8499999999999</ele>
        <time>2014-07-06T05:52:18Z</time>
      </trkpt>
      <trkpt lat="45.911155706271529" lon="7.855318235233426">
        <ele>4019.4099999999999</ele>
        <time>2014-07-06T05:52:33Z</time>
      </trkpt>
      <trkpt lat="45.911092171445489" lon="7.855343548581004">
        <ele>4019.4099999999999</ele>
        <time>2014-07-06T05:53:04Z</time>
      </trkpt>
      <trkpt lat="45.911108180880547" lon="7.855351511389017">
        <ele>4019.4099999999999</ele>
        <time>2014-07-06T05:53:13Z</time>
      </trkpt>
      <trkpt lat="45.911132488399744" lon="7.855391493067145">
        <ele>4019.8899999999999</ele>
        <time>2014-07-06T05:53:28Z</time>
      </trkpt>
      <trkpt lat="45.911191664636135" lon="7.855375902727246">
        <ele>4019.8899999999999</ele>
        <time>2014-07-06T05:53:59Z</time>
      </trkpt>
      <trkpt lat="45.911171045154333" lon="7.855342626571655">
        <ele>4019.8899999999999</ele>
        <time>2014-07-06T05:54:26Z</time>
      </trkpt>
      <trkpt lat="45.911118490621448" lon="7.855332903563976">
        <ele>4019.8899999999999</ele>
        <time>2014-07-06T05:55:08Z</time>
      </trkpt>
      <trkpt lat="45.911119496449828" lon="7.855375818908215">
        <ele>4020.3699999999999</ele>
        <time>2014-07-06T05:55:42Z</time>
      </trkpt>
      <trkpt lat="45.911129722371697" lon="7.855370957404375">
        <ele>4020.3699999999999</ele>
        <time>2014-07-06T05:56:14Z</time>
      </trkpt>
      <trkpt lat="45.911132739856839" lon="7.855412112548947">
        <ele>4020.8499999999999</ele>
        <time>2014-07-06T05:56:35Z</time>
      </trkpt>
      <trkpt lat="45.911133494228125" lon="7.855416387319565">
        <ele>3997.3000000000002</ele>
        <time>2014-07-06T05:57:14Z</time>
      </trkpt>
      <trkpt lat="45.911135170608759" lon="7.855283534154296">
        <ele>3995.3800000000001</ele>
        <time>2014-07-06T05:57:22Z</time>
      </trkpt>
      <trkpt lat="45.911126537248492" lon="7.855364922434092">
        <ele>3999.2199999999998</ele>
        <time>2014-07-06T05:57:33Z</time>
      </trkpt>
      <trkpt lat="45.91112595051527" lon="7.855360731482506">
        <ele>3999.2199999999998</ele>
        <time>2014-07-06T05:57:34Z</time>
      </trkpt>
      <trkpt lat="45.911139026284218" lon="7.855354780331254">
        <ele>4002.5900000000001</ele>
        <time>2014-07-06T05:57:39Z</time>
      </trkpt>
      <trkpt lat="45.911145731806755" lon="7.855344135314226">
        <ele>4005.9499999999998</ele>
        <time>2014-07-06T05:57:44Z</time>
      </trkpt>
      <trkpt lat="45.911138942465186" lon="7.855370789766312">
        <ele>4009.3200000000002</ele>
        <time>2014-07-06T05:57:50Z</time>
      </trkpt>
      <trkpt lat="45.911140367388725" lon="7.855373304337263">
        <ele>4011.7199999999998</ele>
        <time>2014-07-06T05:57:55Z</time>
      </trkpt>
      <trkpt lat="45.911131231114268" lon="7.855379926040769">
        <ele>4013.6399999999999</ele>
        <time>2014-07-06T05:57:58Z</time>
      </trkpt>
      <trkpt lat="45.911132991313934" lon="7.855379087850452">
        <ele>4017.0100000000002</ele>
        <time>2014-07-06T05:58:08Z</time>
      </trkpt>
      <trkpt lat="45.911152185872197" lon="7.85532527603209">
        <ele>4019.8899999999999</ele>
        <time>2014-07-06T05:58:21Z</time>
      </trkpt>
      <trkpt lat="45.911153191700578" lon="7.855277666822076">
        <ele>4023.25</ele>
        <time>2014-07-06T05:58:39Z</time>
      </trkpt>
      <trkpt lat="45.911139864474535" lon="7.855324521660805">
        <ele>4023.7399999999998</ele>
        <time>2014-07-06T05:59:10Z</time>
      </trkpt>
      <trkpt lat="45.911145815625787" lon="7.8553731366992">
        <ele>4023.7399999999998</ele>
        <time>2014-07-06T05:59:47Z</time>
      </trkpt>
      <trkpt lat="45.911152018234134" lon="7.855378082022071">
        <ele>4024.6999999999998</ele>
        <time>2014-07-06T05:59:53Z</time>
      </trkpt>
      <trkpt lat="45.911142211407423" lon="7.855391995981336">
        <ele>4024.6999999999998</ele>
        <time>2014-07-06T06:00:07Z</time>
      </trkpt>
      <trkpt lat="45.911141540855169" lon="7.855370873585343">
        <ele>4024.6999999999998</ele>
        <time>2014-07-06T06:00:25Z</time>
      </trkpt>
      <trkpt lat="45.911145228892565" lon="7.85537120886147">
        <ele>4024.6999999999998</ele>
        <time>2014-07-06T06:00:43Z</time>
      </trkpt>
      <trkpt lat="45.911110443994403" lon="7.855396354570985">
        <ele>4024.6999999999998</ele>
        <time>2014-07-06T06:01:03Z</time>
      </trkpt>
      <trkpt lat="45.911089321598411" lon="7.855400629341602">
        <ele>4024.6999999999998</ele>
        <time>2014-07-06T06:01:22Z</time>
      </trkpt>
      <trkpt lat="45.911091165617108" lon="7.855398952960968">
        <ele>4025.1799999999998</ele>
        <time>2014-07-06T06:01:56Z</time>
      </trkpt>
      <trkpt lat="45.911102816462517" lon="7.8554249368608">
        <ele>4025.1799999999998</ele>
        <time>2014-07-06T06:02:13Z</time>
      </trkpt>
      <trkpt lat="45.911115054041147" lon="7.855414375662804">
        <ele>4025.1799999999998</ele>
        <time>2014-07-06T06:02:36Z</time>
      </trkpt>
      <trkpt lat="45.911129387095571" lon="7.855433905497193">
        <ele>4025.1799999999998</ele>
        <time>2014-07-06T06:02:58Z</time>
      </trkpt>
      <trkpt lat="45.911128716543317" lon="7.855417560786009">
        <ele>4025.1799999999998</ele>
        <time>2014-07-06T06:03:16Z</time>
      </trkpt>
      <trkpt lat="45.911134835332632" lon="7.855389900505543">
        <ele>4025.6599999999999</ele>
        <time>2014-07-06T06:03:31Z</time>
      </trkpt>
      <trkpt lat="45.911121424287558" lon="7.855381183326244">
        <ele>4025.6599999999999</ele>
        <time>2014-07-06T06:03:56Z</time>
      </trkpt>
      <trkpt lat="45.911115137860179" lon="7.855392415076494">
        <ele>4025.6599999999999</ele>
        <time>2014-07-06T06:04:19Z</time>
      </trkpt>
      <trkpt lat="45.911117400974035" lon="7.85540783777833">
        <ele>4025.6599999999999</ele>
        <time>2014-07-06T06:04:41Z</time>
      </trkpt>
      <trkpt lat="45.911100385710597" lon="7.855386883020401">
        <ele>4025.6599999999999</ele>
        <time>2014-07-06T06:05:00Z</time>
      </trkpt>
      <trkpt lat="45.911109019070864" lon="7.855426026508212">
        <ele>4026.1399999999999</ele>
        <time>2014-07-06T06:05:22Z</time>
      </trkpt>
      <trkpt lat="45.911119664087892" lon="7.855387050658464">
        <ele>4026.1399999999999</ele>
        <time>2014-07-06T06:05:46Z</time>
      </trkpt>
      <trkpt lat="45.911152269691229" lon="7.855361066758633">
        <ele>4026.1399999999999</ele>
        <time>2014-07-06T06:06:06Z</time>
      </trkpt>
      <trkpt lat="45.911124609410763" lon="7.85535997711122">
        <ele>4026.1399999999999</ele>
        <time>2014-07-06T06:06:22Z</time>
      </trkpt>
      <trkpt lat="45.911114634945989" lon="7.855386883020401">
        <ele>4026.1399999999999</ele>
        <time>2014-07-06T06:06:43Z</time>
      </trkpt>
      <trkpt lat="45.911137349903584" lon="7.855389313772321">
        <ele>4026.1399999999999</ele>
        <time>2014-07-06T06:07:07Z</time>
      </trkpt>
      <trkpt lat="45.91114355251193" lon="7.855396941304207">
        <ele>4025.6599999999999</ele>
        <time>2014-07-06T06:07:29Z</time>
      </trkpt>
      <trkpt lat="45.911140032112598" lon="7.855368861928582">
        <ele>4026.1399999999999</ele>
        <time>2014-07-06T06:07:47Z</time>
      </trkpt>
      <trkpt lat="45.911118909716606" lon="7.85536584444344">
        <ele>4026.1399999999999</ele>
        <time>2014-07-06T06:08:04Z</time>
      </trkpt>
      <trkpt lat="45.911125363782048" lon="7.855410184711218">
        <ele>4026.1399999999999</ele>
        <time>2014-07-06T06:08:21Z</time>
      </trkpt>
      <trkpt lat="45.911089740693569" lon="7.855401383712888">
        <ele>4026.1399999999999</ele>
        <time>2014-07-06T06:08:44Z</time>
      </trkpt>
      <trkpt lat="45.911066187545657" lon="7.855455446988344">
        <ele>4026.6199999999999</ele>
        <time>2014-07-06T06:09:10Z</time>
      </trkpt>
      <trkpt lat="45.911081610247493" lon="7.855488304048777">
        <ele>4026.6199999999999</ele>
        <time>2014-07-06T06:09:35Z</time>
      </trkpt>
      <trkpt lat="45.911075659096241" lon="7.855460224673152">
        <ele>4026.6199999999999</ele>
        <time>2014-07-06T06:10:05Z</time>
      </trkpt>
      <trkpt lat="45.911065097898245" lon="7.855476485565305">
        <ele>4027.0999999999999</ele>
        <time>2014-07-06T06:10:28Z</time>
      </trkpt>
      <trkpt lat="45.911053949967027" lon="7.855509258806706">
        <ele>4027.0999999999999</ele>
        <time>2014-07-06T06:10:51Z</time>
      </trkpt>
      <trkpt lat="45.911062080413103" lon="7.85550020635128">
        <ele>4027.5799999999999</ele>
        <time>2014-07-06T06:11:06Z</time>
      </trkpt>
      <trkpt lat="45.911098290234804" lon="7.855531303212047">
        <ele>4029.02</ele>
        <time>2014-07-06T06:11:19Z</time>
      </trkpt>
      <trkpt lat="45.911136763170362" lon="7.85560380667448">
        <ele>4030.9499999999998</ele>
        <time>2014-07-06T06:11:32Z</time>
      </trkpt>
      <trkpt lat="45.911163501441479" lon="7.855710256844759">
        <ele>4032.8699999999999</ele>
        <time>2014-07-06T06:11:46Z</time>
      </trkpt>
      <trkpt lat="45.911162747070193" lon="7.855793321505189">
        <ele>4034.3099999999999</ele>
        <time>2014-07-06T06:12:00Z</time>
      </trkpt>
      <trkpt lat="45.911149336025119" lon="7.855880744755268">
        <ele>4036.71</ele>
        <time>2014-07-06T06:12:15Z</time>
      </trkpt>
      <trkpt lat="45.911149838939309" lon="7.855938160791993">
        <ele>4038.1599999999999</ele>
        <time>2014-07-06T06:12:30Z</time>
      </trkpt>
      <trkpt lat="45.911159394308925" lon="7.856058524921536">
        <ele>4040.0799999999999</ele>
        <time>2014-07-06T06:12:46Z</time>
      </trkpt>
      <trkpt lat="45.911199627444148" lon="7.856113761663437">
        <ele>4042</ele>
        <time>2014-07-06T06:13:00Z</time>
      </trkpt>
      <trkpt lat="45.911208260804415" lon="7.856148295104504">
        <ele>4043.4400000000001</ele>
        <time>2014-07-06T06:13:14Z</time>
      </trkpt>
      <trkpt lat="45.911200549453497" lon="7.856146534904838">
        <ele>4042.96</ele>
        <time>2014-07-06T06:13:35Z</time>
      </trkpt>
      <trkpt lat="45.911229383200407" lon="7.856269581243396">
        <ele>4045.3600000000001</ele>
        <time>2014-07-06T06:13:49Z</time>
      </trkpt>
      <trkpt lat="45.911255367100239" lon="7.856365973129869">
        <ele>4047.77</ele>
        <time>2014-07-06T06:14:08Z</time>
      </trkpt>
      <trkpt lat="45.911267604678869" lon="7.856476614251733">
        <ele>4049.6900000000001</ele>
        <time>2014-07-06T06:14:23Z</time>
      </trkpt>
      <trkpt lat="45.91126861050725" lon="7.856559762731195">
        <ele>4051.1300000000001</ele>
        <time>2014-07-06T06:14:37Z</time>
      </trkpt>
      <trkpt lat="45.911258216947317" lon="7.85662698559463">
        <ele>4053.0599999999999</ele>
        <time>2014-07-06T06:14:53Z</time>
      </trkpt>
      <trkpt lat="45.911252433434129" lon="7.856741901487112">
        <ele>4054.5</ele>
        <time>2014-07-06T06:15:06Z</time>
      </trkpt>
      <trkpt lat="45.911269532516599" lon="7.856815159320831">
        <ele>4056.4200000000001</ele>
        <time>2014-07-06T06:15:21Z</time>
      </trkpt>
      <trkpt lat="45.911298282444477" lon="7.856883471831679">
        <ele>4058.3400000000001</ele>
        <time>2014-07-06T06:15:36Z</time>
      </trkpt>
      <trkpt lat="45.911282273009419" lon="7.856964273378253">
        <ele>4059.3000000000002</ele>
        <time>2014-07-06T06:15:55Z</time>
      </trkpt>
      <trkpt lat="45.911233657971025" lon="7.857064604759216">
        <ele>4061.71</ele>
        <time>2014-07-06T06:16:14Z</time>
      </trkpt>
      <trkpt lat="45.911267353221774" lon="7.857106849551201">
        <ele>4062.6700000000001</ele>
        <time>2014-07-06T06:16:29Z</time>
      </trkpt>
      <trkpt lat="45.911291493102908" lon="7.857258981093764">
        <ele>4064.5900000000001</ele>
        <time>2014-07-06T06:16:46Z</time>
      </trkpt>
      <trkpt lat="45.911316135898232" lon="7.85734573379159">
        <ele>4066.9899999999998</ele>
        <time>2014-07-06T06:17:03Z</time>
      </trkpt>
      <trkpt lat="45.911327870562673" lon="7.857468696311116">
        <ele>4068.9200000000001</ele>
        <time>2014-07-06T06:17:20Z</time>
      </trkpt>
      <trkpt lat="45.911284117028117" lon="7.85757053643465">
        <ele>4069.8800000000001</ele>
        <time>2014-07-06T06:17:36Z</time>
      </trkpt>
      <trkpt lat="45.911276154220104" lon="7.857595682144165">
        <ele>4070.8400000000001</ele>
        <time>2014-07-06T06:17:48Z</time>
      </trkpt>
      <trkpt lat="45.911239273846149" lon="7.857701294124126">
        <ele>4072.2800000000002</ele>
        <time>2014-07-06T06:18:06Z</time>
      </trkpt>
      <trkpt lat="45.911216391250491" lon="7.85781922750175">
        <ele>4074.1999999999998</ele>
        <time>2014-07-06T06:18:21Z</time>
      </trkpt>
      <trkpt lat="45.911193173378706" lon="7.857921067625284">
        <ele>4076.1300000000001</ele>
        <time>2014-07-06T06:18:37Z</time>
      </trkpt>
      <trkpt lat="45.91117188334465" lon="7.857944620773196">
        <ele>4077.0900000000001</ele>
        <time>2014-07-06T06:18:50Z</time>
      </trkpt>
      <trkpt lat="45.911186216399074" lon="7.857941435649991">
        <ele>4077.5700000000002</ele>
        <time>2014-07-06T06:19:08Z</time>
      </trkpt>
      <trkpt lat="45.911127626895905" lon="7.858026344329119">
        <ele>4079.4899999999998</ele>
        <time>2014-07-06T06:19:24Z</time>
      </trkpt>
      <trkpt lat="45.911058140918612" lon="7.858107900246978">
        <ele>4080.9299999999998</ele>
        <time>2014-07-06T06:19:37Z</time>
      </trkpt>
      <trkpt lat="45.911005921661854" lon="7.858165483921766">
        <ele>4082.8600000000001</ele>
        <time>2014-07-06T06:19:52Z</time>
      </trkpt>
      <trkpt lat="45.910952026024461" lon="7.858218876644969">
        <ele>4084.7800000000002</ele>
        <time>2014-07-06T06:20:06Z</time>
      </trkpt>
      <trkpt lat="45.910930065438151" lon="7.858281070366502">
        <ele>4086.2199999999998</ele>
        <time>2014-07-06T06:20:21Z</time>
      </trkpt>
      <trkpt lat="45.91090114787221" lon="7.858320968225598">
        <ele>4088.1399999999999</ele>
        <time>2014-07-06T06:20:37Z</time>
      </trkpt>
      <trkpt lat="45.910892346873879" lon="7.858339156955481">
        <ele>4089.5900000000001</ele>
        <time>2014-07-06T06:20:50Z</time>
      </trkpt>
      <trkpt lat="45.910867871716619" lon="7.858330858871341">
        <ele>4089.0999999999999</ele>
        <time>2014-07-06T06:21:08Z</time>
      </trkpt>
      <trkpt lat="45.910824704915285" lon="7.858414677903056">
        <ele>4091.0300000000002</ele>
        <time>2014-07-06T06:21:22Z</time>
      </trkpt>
      <trkpt lat="45.91081959195435" lon="7.858503526076675">
        <ele>4092.9499999999998</ele>
        <time>2014-07-06T06:21:35Z</time>
      </trkpt>
      <trkpt lat="45.910798469558358" lon="7.858539232984185">
        <ele>4094.8699999999999</ele>
        <time>2014-07-06T06:21:49Z</time>
      </trkpt>
      <trkpt lat="45.910751698538661" lon="7.858623387292028">
        <ele>4097.2799999999997</ele>
        <time>2014-07-06T06:22:06Z</time>
      </trkpt>
      <trkpt lat="45.910771982744336" lon="7.858676025643945">
        <ele>4097.7600000000002</ele>
        <time>2014-07-06T06:22:28Z</time>
      </trkpt>
      <trkpt lat="45.910695120692253" lon="7.858705781400204">
        <ele>4098.7200000000003</ele>
        <time>2014-07-06T06:22:42Z</time>
      </trkpt>
      <trkpt lat="45.91063879430294" lon="7.85875883884728">
        <ele>4101.1199999999999</ele>
        <time>2014-07-06T06:22:59Z</time>
      </trkpt>
      <trkpt lat="45.910593615844846" lon="7.858808459714055">
        <ele>4103.5200000000004</ele>
        <time>2014-07-06T06:23:16Z</time>
      </trkpt>
      <trkpt lat="45.910566542297602" lon="7.85886344499886">
        <ele>4106.4099999999999</ele>
        <time>2014-07-06T06:23:30Z</time>
      </trkpt>
      <trkpt lat="45.910526057705283" lon="7.858888423070312">
        <ele>4106.4099999999999</ele>
        <time>2014-07-06T06:23:43Z</time>
      </trkpt>
      <trkpt lat="45.910511389374733" lon="7.858919519931078">
        <ele>4107.3699999999999</ele>
        <time>2014-07-06T06:24:00Z</time>
      </trkpt>
      <trkpt lat="45.910459421575069" lon="7.858973583206534">
        <ele>4108.8100000000004</ele>
        <time>2014-07-06T06:24:13Z</time>
      </trkpt>
      <trkpt lat="45.910432850942016" lon="7.858970565721393">
        <ele>4109.7700000000004</ele>
        <time>2014-07-06T06:24:29Z</time>
      </trkpt>
      <trkpt lat="45.910403179004788" lon="7.859034184366465">
        <ele>4111.6999999999998</ele>
        <time>2014-07-06T06:24:45Z</time>
      </trkpt>
      <trkpt lat="45.910369902849197" lon="7.859070478007197">
        <ele>4113.6199999999999</ele>
        <time>2014-07-06T06:25:01Z</time>
      </trkpt>
      <trkpt lat="45.91034316457808" lon="7.859093695878983">
        <ele>4115.0600000000004</ele>
        <time>2014-07-06T06:25:18Z</time>
      </trkpt>
      <trkpt lat="45.910298656672239" lon="7.859118925407529">
        <ele>4116.0200000000004</ele>
        <time>2014-07-06T06:25:35Z</time>
      </trkpt>
      <trkpt lat="45.910276612266898" lon="7.859161421656609">
        <ele>4117.9399999999996</ele>
        <time>2014-07-06T06:25:48Z</time>
      </trkpt>
      <trkpt lat="45.910219363868237" lon="7.859217831864953">
        <ele>4119.8699999999999</ele>
        <time>2014-07-06T06:26:04Z</time>
      </trkpt>
      <trkpt lat="45.910205030813813" lon="7.859220933169127">
        <ele>4120.8299999999999</ele>
        <time>2014-07-06T06:26:22Z</time>
      </trkpt>
      <trkpt lat="45.910154236480594" lon="7.859292179346085">
        <ele>4123.2299999999996</ele>
        <time>2014-07-06T06:26:42Z</time>
      </trkpt>
      <trkpt lat="45.910106291994452" lon="7.859308272600174">
        <ele>4123.71</ele>
        <time>2014-07-06T06:26:57Z</time>
      </trkpt>
      <trkpt lat="45.910087348893285" lon="7.859335681423545">
        <ele>4124.6700000000001</ele>
        <time>2014-07-06T06:27:17Z</time>
      </trkpt>
      <trkpt lat="45.910042254254222" lon="7.85938479937613">
        <ele>4127.0799999999999</ele>
        <time>2014-07-06T06:27:32Z</time>
      </trkpt>
      <trkpt lat="45.909998835995793" lon="7.859441209584475">
        <ele>4128.04</ele>
        <time>2014-07-06T06:27:48Z</time>
      </trkpt>
      <trkpt lat="45.909927086904645" lon="7.859470378607512">
        <ele>4129.4799999999996</ele>
        <time>2014-07-06T06:28:05Z</time>
      </trkpt>
      <trkpt lat="45.909913759678602" lon="7.859517820179462">
        <ele>4130.9200000000001</ele>
        <time>2014-07-06T06:28:20Z</time>
      </trkpt>
      <trkpt lat="45.909875370562077" lon="7.859570793807507">
        <ele>4131.3999999999996</ele>
        <time>2014-07-06T06:28:35Z</time>
      </trkpt>
      <trkpt lat="45.909852320328355" lon="7.859596777707338">
        <ele>4133.3299999999999</ele>
        <time>2014-07-06T06:28:51Z</time>
      </trkpt>
      <trkpt lat="45.90980077162385" lon="7.859630892053247">
        <ele>4134.7700000000004</ele>
        <time>2014-07-06T06:29:07Z</time>
      </trkpt>
      <trkpt lat="45.909807644784451" lon="7.859633574262261">
        <ele>4135.7299999999996</ele>
        <time>2014-07-06T06:29:21Z</time>
      </trkpt>
      <trkpt lat="45.909742265939713" lon="7.859668526798487">
        <ele>4137.6499999999996</ele>
        <time>2014-07-06T06:29:34Z</time>
      </trkpt>
      <trkpt lat="45.909699602052569" lon="7.859701300039887">
        <ele>4138.6099999999997</ele>
        <time>2014-07-06T06:29:50Z</time>
      </trkpt>
      <trkpt lat="45.909667918458581" lon="7.85972636193037">
        <ele>4140.0500000000002</ele>
        <time>2014-07-06T06:30:05Z</time>
      </trkpt>
      <trkpt lat="45.909637156873941" lon="7.859758380800486">
        <ele>4141.5</ele>
        <time>2014-07-06T06:30:19Z</time>
      </trkpt>
      <trkpt lat="45.909593570977449" lon="7.859829375520349">
        <ele>4142.9399999999996</ele>
        <time>2014-07-06T06:30:35Z</time>
      </trkpt>
      <trkpt lat="45.909538669511676" lon="7.859850581735373">
        <ele>4144.3800000000001</ele>
        <time>2014-07-06T06:30:51Z</time>
      </trkpt>
      <trkpt lat="45.909518804401159" lon="7.859860640019178">
        <ele>4145.8199999999997</ele>
        <time>2014-07-06T06:31:04Z</time>
      </trkpt>
      <trkpt lat="45.909515703096986" lon="7.859875224530697">
        <ele>4147.75</ele>
        <time>2014-07-06T06:31:18Z</time>
      </trkpt>
      <trkpt lat="45.909487204626203" lon="7.859893161803484">
        <ele>4148.2299999999996</ele>
        <time>2014-07-06T06:31:31Z</time>
      </trkpt>
      <trkpt lat="45.90943431481719" lon="7.859921576455236">
        <ele>4149.6700000000001</ele>
        <time>2014-07-06T06:31:47Z</time>
      </trkpt>
      <trkpt lat="45.909389723092318" lon="7.859972873702645">
        <ele>4151.1099999999997</ele>
        <time>2014-07-06T06:32:02Z</time>
      </trkpt>
      <trkpt lat="45.909372540190816" lon="7.860008329153061">
        <ele>4152.5500000000002</ele>
        <time>2014-07-06T06:32:15Z</time>
      </trkpt>
      <trkpt lat="45.909337755292654" lon="7.860034815967083">
        <ele>4153.9899999999998</ele>
        <time>2014-07-06T06:32:30Z</time>
      </trkpt>
      <trkpt lat="45.909330043941736" lon="7.860039258375764">
        <ele>4154.4799999999996</ele>
        <time>2014-07-06T06:32:44Z</time>
      </trkpt>
      <trkpt lat="45.909324679523706" lon="7.86003808490932">
        <ele>4154.4799999999996</ele>
        <time>2014-07-06T06:32:57Z</time>
      </trkpt>
      <trkpt lat="45.909318560734391" lon="7.860043700784445">
        <ele>4155.4399999999996</ele>
        <time>2014-07-06T06:33:11Z</time>
      </trkpt>
      <trkpt lat="45.90929064899683" lon="7.860094243660569">
        <ele>4156.8800000000001</ele>
        <time>2014-07-06T06:33:26Z</time>
      </trkpt>
      <trkpt lat="45.90929894708097" lon="7.86007278598845">
        <ele>4158.3199999999997</ele>
        <time>2014-07-06T06:33:36Z</time>
      </trkpt>
      <trkpt lat="45.909241195768118" lon="7.860137159004808">
        <ele>4158.8000000000002</ele>
        <time>2014-07-06T06:33:50Z</time>
      </trkpt>
      <trkpt lat="45.909184869378805" lon="7.860201532021165">
        <ele>4160.7200000000003</ele>
        <time>2014-07-06T06:34:06Z</time>
      </trkpt>
      <trkpt lat="45.909151006489992" lon="7.86023061722517">
        <ele>4162.1700000000001</ele>
        <time>2014-07-06T06:34:19Z</time>
      </trkpt>
      <trkpt lat="45.909122256562114" lon="7.86023547872901">
        <ele>4163.6099999999997</ele>
        <time>2014-07-06T06:34:32Z</time>
      </trkpt>
      <trkpt lat="45.909083364531398" lon="7.860256349667907">
        <ele>4164.5699999999997</ele>
        <time>2014-07-06T06:34:50Z</time>
      </trkpt>
      <trkpt lat="45.909054949879646" lon="7.86024821922183">
        <ele>4166.4899999999998</ele>
        <time>2014-07-06T06:35:02Z</time>
      </trkpt>
      <trkpt lat="45.909032570198178" lon="7.860230449587107">
        <ele>4166.9700000000003</ele>
        <time>2014-07-06T06:35:25Z</time>
      </trkpt>
      <trkpt lat="45.90905318967998" lon="7.860275628045201">
        <ele>4167.4499999999998</ele>
        <time>2014-07-06T06:35:55Z</time>
      </trkpt>
      <trkpt lat="45.90899451635778" lon="7.860313765704632">
        <ele>4169.8599999999997</ele>
        <time>2014-07-06T06:36:07Z</time>
      </trkpt>
      <trkpt lat="45.908948667347431" lon="7.860341761261225">
        <ele>4171.7799999999997</ele>
        <time>2014-07-06T06:36:19Z</time>
      </trkpt>
      <trkpt lat="45.908907344564795" lon="7.860370008274913">
        <ele>4173.6999999999998</ele>
        <time>2014-07-06T06:36:32Z</time>
      </trkpt>
      <trkpt lat="45.908879097551107" lon="7.860404206439853">
        <ele>4174.6599999999999</ele>
        <time>2014-07-06T06:36:45Z</time>
      </trkpt>
      <trkpt lat="45.908836685121059" lon="7.860418790951371">
        <ele>4176.1000000000004</ele>
        <time>2014-07-06T06:36:58Z</time>
      </trkpt>
      <trkpt lat="45.908821346238256" lon="7.860420467332006">
        <ele>4177.0699999999997</ele>
        <time>2014-07-06T06:37:11Z</time>
      </trkpt>
      <trkpt lat="45.908790165558457" lon="7.860460449010134">
        <ele>4178.5100000000002</ele>
        <time>2014-07-06T06:37:27Z</time>
      </trkpt>
      <trkpt lat="45.908767618238926" lon="7.86048224195838">
        <ele>4179.9499999999998</ele>
        <time>2014-07-06T06:37:39Z</time>
      </trkpt>
      <trkpt lat="45.908753536641598" lon="7.860490288585424">
        <ele>4180.4300000000003</ele>
        <time>2014-07-06T06:37:55Z</time>
      </trkpt>
      <trkpt lat="45.908725373446941" lon="7.860487857833505">
        <ele>4181.3900000000003</ele>
        <time>2014-07-06T06:38:05Z</time>
      </trkpt>
      <trkpt lat="45.908700311556458" lon="7.860498419031501">
        <ele>4182.3500000000004</ele>
        <time>2014-07-06T06:38:19Z</time>
      </trkpt>
      <trkpt lat="45.908675501123071" lon="7.860501101240516">
        <ele>4184.2799999999997</ele>
        <time>2014-07-06T06:38:32Z</time>
      </trkpt>
      <trkpt lat="45.908668544143438" lon="7.860483750700951">
        <ele>4184.7600000000002</ele>
        <time>2014-07-06T06:38:45Z</time>
      </trkpt>
      <trkpt lat="45.90863686054945" lon="7.86052817478776">
        <ele>4187.1599999999999</ele>
        <time>2014-07-06T06:38:59Z</time>
      </trkpt>
      <trkpt lat="45.908617414534092" lon="7.860537730157375">
        <ele>4188.6000000000004</ele>
        <time>2014-07-06T06:39:10Z</time>
      </trkpt>
      <trkpt lat="45.908580701798201" lon="7.860528007149696">
        <ele>4189.5600000000004</ele>
        <time>2014-07-06T06:39:29Z</time>
      </trkpt>
      <trkpt lat="45.908538624644279" lon="7.860590955242515">
        <ele>4191.4899999999998</ele>
        <time>2014-07-06T06:39:42Z</time>
      </trkpt>
      <trkpt lat="45.90850006788969" lon="7.860619118437171">
        <ele>4193.4099999999999</ele>
        <time>2014-07-06T06:39:57Z</time>
      </trkpt>
      <trkpt lat="45.908515490591526" lon="7.860613837838173">
        <ele>4194.8500000000004</ele>
        <time>2014-07-06T06:40:11Z</time>
      </trkpt>
      <trkpt lat="45.908504342660308" lon="7.860612161457539">
        <ele>4196.29</ele>
        <time>2014-07-06T06:40:24Z</time>
      </trkpt>
      <trkpt lat="45.908476682379842" lon="7.860631020739675">
        <ele>4197.25</ele>
        <time>2014-07-06T06:40:35Z</time>
      </trkpt>
      <trkpt lat="45.908435778692365" lon="7.860657423734665">
        <ele>4199.6599999999999</ele>
        <time>2014-07-06T06:40:54Z</time>
      </trkpt>
      <trkpt lat="45.908429324626923" lon="7.86070260219276">
        <ele>4200.6199999999999</ele>
        <time>2014-07-06T06:41:11Z</time>
      </trkpt>
      <trkpt lat="45.908406609669328" lon="7.860683239996433">
        <ele>4201.5799999999999</ele>
        <time>2014-07-06T06:41:24Z</time>
      </trkpt>
      <trkpt lat="45.908391689881682" lon="7.860671002417803">
        <ele>4202.54</ele>
        <time>2014-07-06T06:41:40Z</time>
      </trkpt>
      <trkpt lat="45.908355480059981" lon="7.860662955790758">
        <ele>4204.9399999999996</ele>
        <time>2014-07-06T06:41:53Z</time>
      </trkpt>
      <trkpt lat="45.908351289108396" lon="7.860674103721976">
        <ele>4206.3900000000003</ele>
        <time>2014-07-06T06:42:07Z</time>
      </trkpt>
      <trkpt lat="45.908339973539114" lon="7.860679971054196">
        <ele>4207.3500000000004</ele>
        <time>2014-07-06T06:42:27Z</time>
      </trkpt>
      <trkpt lat="45.908298064023256" lon="7.860692963004112">
        <ele>4209.2700000000004</ele>
        <time>2014-07-06T06:42:39Z</time>
      </trkpt>
      <trkpt lat="45.90825229883194" lon="7.86071970127523">
        <ele>4210.2299999999996</ele>
        <time>2014-07-06T06:42:56Z</time>
      </trkpt>
      <trkpt lat="45.908220196142793" lon="7.860716851428151">
        <ele>4211.6700000000001</ele>
        <time>2014-07-06T06:43:11Z</time>
      </trkpt>
      <trkpt lat="45.908222626894712" lon="7.86072020418942">
        <ele>4214.0799999999999</ele>
        <time>2014-07-06T06:43:26Z</time>
      </trkpt>
      <trkpt lat="45.908210724592209" lon="7.860743589699268">
        <ele>4216</ele>
        <time>2014-07-06T06:43:38Z</time>
      </trkpt>
      <trkpt lat="45.908244922757149" lon="7.860750462859869">
        <ele>4216</ele>
        <time>2014-07-06T06:43:51Z</time>
      </trkpt>
      <trkpt lat="45.908248946070671" lon="7.860772339627147">
        <ele>4216.4799999999996</ele>
        <time>2014-07-06T06:44:04Z</time>
      </trkpt>
      <trkpt lat="45.908254897221923" lon="7.860777704045177">
        <ele>4217.4399999999996</ele>
        <time>2014-07-06T06:44:19Z</time>
      </trkpt>
      <trkpt lat="45.908231344074011" lon="7.86076077260077">
        <ele>4217.9200000000001</ele>
        <time>2014-07-06T06:44:42Z</time>
      </trkpt>
      <trkpt lat="45.908231092616916" lon="7.860768903046846">
        <ele>4216.96</ele>
        <time>2014-07-06T06:45:03Z</time>
      </trkpt>
      <trkpt lat="45.90819027274847" lon="7.860817853361368">
        <ele>4216.96</ele>
        <time>2014-07-06T06:45:25Z</time>
      </trkpt>
      <trkpt lat="45.908190188929439" lon="7.860825229436159">
        <ele>4216.4799999999996</ele>
        <time>2014-07-06T06:45:46Z</time>
      </trkpt>
      <trkpt lat="45.908196726813912" lon="7.860737722367048">
        <ele>4216.4799999999996</ele>
        <time>2014-07-06T06:46:00Z</time>
      </trkpt>
      <trkpt lat="45.908203348517418" lon="7.860757419839501">
        <ele>4216.4799999999996</ele>
        <time>2014-07-06T06:46:17Z</time>
      </trkpt>
      <trkpt lat="45.908231930807233" lon="7.860740153118968">
        <ele>4216.96</ele>
        <time>2014-07-06T06:46:41Z</time>
      </trkpt>
      <trkpt lat="45.908248946070671" lon="7.860748786479235">
        <ele>4217.4399999999996</ele>
        <time>2014-07-06T06:46:58Z</time>
      </trkpt>
      <trkpt lat="45.908245593309402" lon="7.860748115926981">
        <ele>4216</ele>
        <time>2014-07-06T06:47:13Z</time>
      </trkpt>
      <trkpt lat="45.908241905272007" lon="7.860748199746013">
        <ele>4218.8800000000001</ele>
        <time>2014-07-06T06:47:15Z</time>
      </trkpt>
      <trkpt lat="45.908241234719753" lon="7.8607471100986">
        <ele>4217.9200000000001</ele>
        <time>2014-07-06T06:47:16Z</time>
      </trkpt>
      <trkpt lat="45.908243162557483" lon="7.860763287171722">
        <ele>4217.9200000000001</ele>
        <time>2014-07-06T06:47:30Z</time>
      </trkpt>
      <trkpt lat="45.90827920474112" lon="7.860755324363709">
        <ele>4216.4799999999996</ele>
        <time>2014-07-06T06:47:59Z</time>
      </trkpt>
      <trkpt lat="45.908269062638283" lon="7.860758006572723">
        <ele>4216.96</ele>
        <time>2014-07-06T06:48:15Z</time>
      </trkpt>
      <trkpt lat="45.908257160335779" lon="7.860763370990753">
        <ele>4216</ele>
        <time>2014-07-06T06:48:41Z</time>
      </trkpt>
      <trkpt lat="45.908248443156481" lon="7.860847106203437">
        <ele>4217.9200000000001</ele>
        <time>2014-07-06T06:48:58Z</time>
      </trkpt>
      <trkpt lat="45.9081663005054" lon="7.861031591892242">
        <ele>4219.3599999999997</ele>
        <time>2014-07-06T06:49:14Z</time>
      </trkpt>
      <trkpt lat="45.908138388767838" lon="7.861163523048163">
        <ele>4220.3299999999999</ele>
        <time>2014-07-06T06:49:29Z</time>
      </trkpt>
      <trkpt lat="45.908092958852649" lon="7.861280534416437">
        <ele>4222.7299999999996</ele>
        <time>2014-07-06T06:49:46Z</time>
      </trkpt>
      <trkpt lat="45.908058760687709" lon="7.861318755894899">
        <ele>4222.7299999999996</ele>
        <time>2014-07-06T06:49:57Z</time>
      </trkpt>
      <trkpt lat="45.907998662441969" lon="7.861421350389719">
        <ele>4222.7299999999996</ele>
        <time>2014-07-06T06:50:11Z</time>
      </trkpt>
      <trkpt lat="45.907986089587212" lon="7.861424116417766">
        <ele>4221.7700000000004</ele>
        <time>2014-07-06T06:50:21Z</time>
      </trkpt>
      <trkpt lat="45.908010564744473" lon="7.861371897161007">
        <ele>4223.6899999999996</ele>
        <time>2014-07-06T06:50:38Z</time>
      </trkpt>
      <trkpt lat="45.908005116507411" lon="7.861360581591725">
        <ele>4222.25</ele>
        <time>2014-07-06T06:50:42Z</time>
      </trkpt>
      <trkpt lat="45.908001763746142" lon="7.861358569934964">
        <ele>4223.21</ele>
        <time>2014-07-06T06:50:59Z</time>
      </trkpt>
      <trkpt lat="45.90800117701292" lon="7.861356139183044">
        <ele>4220.8100000000004</ele>
        <time>2014-07-06T06:51:08Z</time>
      </trkpt>
      <trkpt lat="45.907981479540467" lon="7.86135982722044">
        <ele>4221.29</ele>
        <time>2014-07-06T06:51:24Z</time>
      </trkpt>
      <trkpt lat="45.907988017424941" lon="7.861408442258835">
        <ele>4223.21</ele>
        <time>2014-07-06T06:51:39Z</time>
      </trkpt>
      <trkpt lat="45.907982904464006" lon="7.861454794183374">
        <ele>4222.7299999999996</ele>
        <time>2014-07-06T06:52:04Z</time>
      </trkpt>
      <trkpt lat="45.908004362136126" lon="7.861433504149318">
        <ele>4223.6899999999996</ele>
        <time>2014-07-06T06:52:14Z</time>
      </trkpt>
      <trkpt lat="45.907993465662003" lon="7.86145705729723">
        <ele>4224.1700000000001</ele>
        <time>2014-07-06T06:52:35Z</time>
      </trkpt>
      <trkpt lat="45.907987933605909" lon="7.861426211893559">
        <ele>4224.6499999999996</ele>
        <time>2014-07-06T06:53:00Z</time>
      </trkpt>
      <trkpt lat="45.908007714897394" lon="7.861431995406747">
        <ele>4225.6099999999997</ele>
        <time>2014-07-06T06:53:35Z</time>
      </trkpt>
      <trkpt lat="45.908028334379196" lon="7.86144532263279">
        <ele>4224.6499999999996</ele>
        <time>2014-07-06T06:53:46Z</time>
      </trkpt>
      <trkpt lat="45.90803537517786" lon="7.861435348168016">
        <ele>4224.6499999999996</ele>
        <time>2014-07-06T06:54:02Z</time>
      </trkpt>
      <trkpt lat="45.907992878928781" lon="7.861465187743306">
        <ele>4224.6499999999996</ele>
        <time>2014-07-06T06:54:28Z</time>
      </trkpt>
      <trkpt lat="45.908012995496392" lon="7.861418668180704">
        <ele>4224.1700000000001</ele>
        <time>2014-07-06T06:54:49Z</time>
      </trkpt>
      <trkpt lat="45.908037722110748" lon="7.861427301540971">
        <ele>4223.6899999999996</ele>
        <time>2014-07-06T06:55:16Z</time>
      </trkpt>
      <trkpt lat="45.908043002709746" lon="7.861425541341305">
        <ele>4224.6499999999996</ele>
        <time>2014-07-06T06:55:30Z</time>
      </trkpt>
      <trkpt lat="45.908028250560164" lon="7.861423194408417">
        <ele>4224.6499999999996</ele>
        <time>2014-07-06T06:55:57Z</time>
      </trkpt>
      <trkpt lat="45.90800846926868" lon="7.861408106982708">
        <ele>4223.21</ele>
        <time>2014-07-06T06:56:27Z</time>
      </trkpt>
      <trkpt lat="45.907992795109749" lon="7.86138916388154">
        <ele>4226.5699999999997</ele>
        <time>2014-07-06T06:56:45Z</time>
      </trkpt>
      <trkpt lat="45.908002937212586" lon="7.861408945173025">
        <ele>4222.7299999999996</ele>
        <time>2014-07-06T06:57:04Z</time>
      </trkpt>
      <trkpt lat="45.908005954697728" lon="7.86140576004982">
        <ele>4222.7299999999996</ele>
        <time>2014-07-06T06:57:05Z</time>
      </trkpt>
      <trkpt lat="45.908016683533788" lon="7.861409783363342">
        <ele>4225.1300000000001</ele>
        <time>2014-07-06T06:57:07Z</time>
      </trkpt>
      <trkpt lat="45.908028082922101" lon="7.861395282670856">
        <ele>4221.7700000000004</ele>
        <time>2014-07-06T06:57:10Z</time>
      </trkpt>
      <trkpt lat="45.908036716282368" lon="7.861370723694563">
        <ele>4225.1300000000001</ele>
        <time>2014-07-06T06:57:14Z</time>
      </trkpt>
      <trkpt lat="45.908048618584871" lon="7.861341806128621">
        <ele>4225.1300000000001</ele>
        <time>2014-07-06T06:57:17Z</time>
      </trkpt>
      <trkpt lat="45.908054234459996" lon="7.861318755894899">
        <ele>4226.0900000000001</ele>
        <time>2014-07-06T06:57:19Z</time>
      </trkpt>
      <trkpt lat="45.908071920275688" lon="7.861275589093566">
        <ele>4224.6499999999996</ele>
        <time>2014-07-06T06:57:29Z</time>
      </trkpt>
      <trkpt lat="45.908115925267339" lon="7.86112136207521">
        <ele>4220.3299999999999</ele>
        <time>2014-07-06T06:57:43Z</time>
      </trkpt>
      <trkpt lat="45.908120786771178" lon="7.861104430630803">
        <ele>4220.8100000000004</ele>
        <time>2014-07-06T06:57:44Z</time>
      </trkpt>
      <trkpt lat="45.908134113997221" lon="7.861062856391072">
        <ele>4218.3999999999996</ele>
        <time>2014-07-06T06:57:47Z</time>
      </trkpt>
      <trkpt lat="45.908147441223264" lon="7.86103343591094">
        <ele>4219.8400000000001</ele>
        <time>2014-07-06T06:57:50Z</time>
      </trkpt>
      <trkpt lat="45.908178789541125" lon="7.860888764262199">
        <ele>4218.8800000000001</ele>
        <time>2014-07-06T06:58:03Z</time>
      </trkpt>
      <trkpt lat="45.908185075968504" lon="7.86080033518374">
        <ele>4216.96</ele>
        <time>2014-07-06T06:58:12Z</time>
      </trkpt>
      <trkpt lat="45.908209132030606" lon="7.860702015459538">
        <ele>4218.3999999999996</ele>
        <time>2014-07-06T06:58:25Z</time>
      </trkpt>
      <trkpt lat="45.908199995756149" lon="7.860677121207118">
        <ele>4219.3599999999997</ele>
        <time>2014-07-06T06:58:29Z</time>
      </trkpt>
      <trkpt lat="45.908205108717084" lon="7.860652059316635">
        <ele>4217.9200000000001</ele>
        <time>2014-07-06T06:58:35Z</time>
      </trkpt>
      <trkpt lat="45.908230673521757" lon="7.86062540486455">
        <ele>4215.04</ele>
        <time>2014-07-06T06:58:43Z</time>
      </trkpt>
      <trkpt lat="45.90826747007668" lon="7.860601516440511">
        <ele>4218.3999999999996</ele>
        <time>2014-07-06T06:58:55Z</time>
      </trkpt>
      <trkpt lat="45.908269649371505" lon="7.860604617744684">
        <ele>4218.3999999999996</ele>
        <time>2014-07-06T06:58:56Z</time>
      </trkpt>
      <trkpt lat="45.908293202519417" lon="7.860618531703949">
        <ele>4217.4399999999996</ele>
        <time>2014-07-06T06:59:05Z</time>
      </trkpt>
      <trkpt lat="45.908312983810902" lon="7.860611826181412">
        <ele>4215.04</ele>
        <time>2014-07-06T06:59:08Z</time>
      </trkpt>
      <trkpt lat="45.908360425382853" lon="7.860577208921313">
        <ele>4213.1199999999999</ele>
        <time>2014-07-06T06:59:20Z</time>
      </trkpt>
      <trkpt lat="45.908398730680346" lon="7.860582238063216">
        <ele>4210.71</ele>
        <time>2014-07-06T06:59:33Z</time>
      </trkpt>
      <trkpt lat="45.908434605225921" lon="7.860567905008793">
        <ele>4208.3100000000004</ele>
        <time>2014-07-06T06:59:44Z</time>
      </trkpt>
      <trkpt lat="45.908433264121413" lon="7.860552314668894">
        <ele>4207.8299999999999</ele>
        <time>2014-07-06T06:59:54Z</time>
      </trkpt>
      <trkpt lat="45.908462684601545" lon="7.860561450943351">
        <ele>4204.9399999999996</ele>
        <time>2014-07-06T07:00:06Z</time>
      </trkpt>
      <trkpt lat="45.908475173637271" lon="7.860546782612801">
        <ele>4203.5</ele>
        <time>2014-07-06T07:00:10Z</time>
      </trkpt>
      <trkpt lat="45.908504091203213" lon="7.860518954694271">
        <ele>4199.1800000000003</ele>
        <time>2014-07-06T07:00:20Z</time>
      </trkpt>
      <trkpt lat="45.908521357923746" lon="7.860527001321316">
        <ele>4198.6999999999998</ele>
        <time>2014-07-06T07:00:31Z</time>
      </trkpt>
      <trkpt lat="45.908526638522744" lon="7.860507890582085">
        <ele>4202.0600000000004</ele>
        <time>2014-07-06T07:00:36Z</time>
      </trkpt>
      <trkpt lat="45.908567709848285" lon="7.860501017421484">
        <ele>4198.6999999999998</ele>
        <time>2014-07-06T07:00:48Z</time>
      </trkpt>
      <trkpt lat="45.908579444512725" lon="7.860482409596443">
        <ele>4197.7299999999996</ele>
        <time>2014-07-06T07:00:53Z</time>
      </trkpt>
      <trkpt lat="45.908606685698032" lon="7.860485594719648">
        <ele>4197.25</ele>
        <time>2014-07-06T07:01:05Z</time>
      </trkpt>
      <trkpt lat="45.908612888306379" lon="7.860465059056878">
        <ele>4193.4099999999999</ele>
        <time>2014-07-06T07:01:13Z</time>
      </trkpt>
      <trkpt lat="45.90863392688334" lon="7.860446618869901">
        <ele>4194.3699999999999</ele>
        <time>2014-07-06T07:01:23Z</time>
      </trkpt>
      <trkpt lat="45.908635351806879" lon="7.860443433746696">
        <ele>4191</ele>
        <time>2014-07-06T07:01:26Z</time>
      </trkpt>
      <trkpt lat="45.908672483637929" lon="7.860394231975079">
        <ele>4190.04</ele>
        <time>2014-07-06T07:01:39Z</time>
      </trkpt>
      <trkpt lat="45.908668292686343" lon="7.860395656898618">
        <ele>4187.6400000000003</ele>
        <time>2014-07-06T07:01:43Z</time>
      </trkpt>
      <trkpt lat="45.908715315163136" lon="7.860409319400787">
        <ele>4187.1599999999999</ele>
        <time>2014-07-06T07:01:56Z</time>
      </trkpt>
      <trkpt lat="45.90875705704093" lon="7.860410576686263">
        <ele>4185.2399999999998</ele>
        <time>2014-07-06T07:02:07Z</time>
      </trkpt>
      <trkpt lat="45.908798463642597" lon="7.860406972467899">
        <ele>4184.7600000000002</ele>
        <time>2014-07-06T07:02:19Z</time>
      </trkpt>
      <trkpt lat="45.908828219398856" lon="7.860401188954711">
        <ele>4181.3900000000003</ele>
        <time>2014-07-06T07:02:39Z</time>
      </trkpt>
      <trkpt lat="45.908852107822895" lon="7.860380737110972">
        <ele>4180.4300000000003</ele>
        <time>2014-07-06T07:02:47Z</time>
      </trkpt>
      <trkpt lat="45.908863004297018" lon="7.860370930284262">
        <ele>4178.9899999999998</ele>
        <time>2014-07-06T07:02:50Z</time>
      </trkpt>
      <trkpt lat="45.908894939348102" lon="7.86034544929862">
        <ele>4177.0699999999997</ele>
        <time>2014-07-06T07:03:05Z</time>
      </trkpt>
      <trkpt lat="45.908915558829904" lon="7.860332457348704">
        <ele>4175.1400000000003</ele>
        <time>2014-07-06T07:03:11Z</time>
      </trkpt>
      <trkpt lat="45.908941710367799" lon="7.860297253355384">
        <ele>4173.6999999999998</ele>
        <time>2014-07-06T07:03:23Z</time>
      </trkpt>
      <trkpt lat="45.908959563821554" lon="7.860277052968741">
        <ele>4172.7399999999998</ele>
        <time>2014-07-06T07:03:27Z</time>
      </trkpt>
      <trkpt lat="45.908968448638916" lon="7.860263809561729">
        <ele>4171.3000000000002</ele>
        <time>2014-07-06T07:03:31Z</time>
      </trkpt>
      <trkpt lat="45.909022428095341" lon="7.86018711514771">
        <ele>4168.4099999999999</ele>
        <time>2014-07-06T07:03:44Z</time>
      </trkpt>
      <trkpt lat="45.909036928787827" lon="7.860179152339697">
        <ele>4166.4899999999998</ele>
        <time>2014-07-06T07:03:48Z</time>
      </trkpt>
      <trkpt lat="45.909058637917042" lon="7.860179403796792">
        <ele>4165.0500000000002</ele>
        <time>2014-07-06T07:03:54Z</time>
      </trkpt>
      <trkpt lat="45.909069869667292" lon="7.860157191753388">
        <ele>4164.0900000000001</ele>
        <time>2014-07-06T07:03:58Z</time>
      </trkpt>
      <trkpt lat="45.909088812768459" lon="7.860140930861235">
        <ele>4163.1300000000001</ele>
        <time>2014-07-06T07:04:02Z</time>
      </trkpt>
      <trkpt lat="45.909160310402513" lon="7.860101284459233">
        <ele>4160.2399999999998</ele>
        <time>2014-07-06T07:04:15Z</time>
      </trkpt>
      <trkpt lat="45.909222336485982" lon="7.860055603086948">
        <ele>4158.3199999999997</ele>
        <time>2014-07-06T07:04:26Z</time>
      </trkpt>
      <trkpt lat="45.90929894708097" lon="7.859965246170759">
        <ele>4155.4399999999996</ele>
        <time>2014-07-06T07:04:41Z</time>
      </trkpt>
      <trkpt lat="45.909318728372455" lon="7.859950242564082">
        <ele>4153.9899999999998</ele>
        <time>2014-07-06T07:04:44Z</time>
      </trkpt>
      <trkpt lat="45.909356866031885" lon="7.859921660274267">
        <ele>4153.0299999999997</ele>
        <time>2014-07-06T07:04:50Z</time>
      </trkpt>
      <trkpt lat="45.909432386979461" lon="7.859851587563753">
        <ele>4149.6700000000001</ele>
        <time>2014-07-06T07:05:03Z</time>
      </trkpt>
      <trkpt lat="45.909504219889641" lon="7.85979819484055">
        <ele>4146.7799999999997</ele>
        <time>2014-07-06T07:05:15Z</time>
      </trkpt>
      <trkpt lat="45.909585440531373" lon="7.859716974198818">
        <ele>4144.3800000000001</ele>
        <time>2014-07-06T07:05:29Z</time>
      </trkpt>
      <trkpt lat="45.909603293985128" lon="7.859700294211507">
        <ele>4142.46</ele>
        <time>2014-07-06T07:05:32Z</time>
      </trkpt>
      <trkpt lat="45.909680323675275" lon="7.859606752172113">
        <ele>4139.5699999999997</ele>
        <time>2014-07-06T07:05:45Z</time>
      </trkpt>
      <trkpt lat="45.909730698913336" lon="7.859566351398826">
        <ele>4136.21</ele>
        <time>2014-07-06T07:05:53Z</time>
      </trkpt>
      <trkpt lat="45.909738158807158" lon="7.85955872386694">
        <ele>4136.21</ele>
        <time>2014-07-06T07:05:54Z</time>
      </trkpt>
      <trkpt lat="45.90983304195106" lon="7.859485801309347">
        <ele>4134.7700000000004</ele>
        <time>2014-07-06T07:06:08Z</time>
      </trkpt>
      <trkpt lat="45.909847626462579" lon="7.859476581215859">
        <ele>4134.29</ele>
        <time>2014-07-06T07:06:10Z</time>
      </trkpt>
      <trkpt lat="45.909929014742374" lon="7.859402988106012">
        <ele>4131.3999999999996</ele>
        <time>2014-07-06T07:06:23Z</time>
      </trkpt>
      <trkpt lat="45.909996824339032" lon="7.859336519613862">
        <ele>4128.04</ele>
        <time>2014-07-06T07:06:34Z</time>
      </trkpt>
      <trkpt lat="45.910002188757062" lon="7.859327886253595">
        <ele>4128.04</ele>
        <time>2014-07-06T07:06:35Z</time>
      </trkpt>
      <trkpt lat="45.91009053401649" lon="7.859226632863283">
        <ele>4124.1899999999996</ele>
        <time>2014-07-06T07:06:50Z</time>
      </trkpt>
      <trkpt lat="45.910112913697958" lon="7.859203834086657">
        <ele>4122.2700000000004</ele>
        <time>2014-07-06T07:06:54Z</time>
      </trkpt>
      <trkpt lat="45.910150213167071" lon="7.859177095815539">
        <ele>4121.79</ele>
        <time>2014-07-06T07:07:01Z</time>
      </trkpt>
      <trkpt lat="45.910169994458556" lon="7.859159158542752">
        <ele>4120.3500000000004</ele>
        <time>2014-07-06T07:07:04Z</time>
      </trkpt>
      <trkpt lat="45.910235792398453" lon="7.8590945340693">
        <ele>4118.4300000000003</ele>
        <time>2014-07-06T07:07:15Z</time>
      </trkpt>
      <trkpt lat="45.910300416871905" lon="7.859056312590838">
        <ele>4115.0600000000004</ele>
        <time>2014-07-06T07:07:23Z</time>
      </trkpt>
      <trkpt lat="45.910336207598448" lon="7.859014319255948">
        <ele>4114.1000000000004</ele>
        <time>2014-07-06T07:07:29Z</time>
      </trkpt>
      <trkpt lat="45.9103714954108" lon="7.858972577378154">
        <ele>4112.1800000000003</ele>
        <time>2014-07-06T07:07:35Z</time>
      </trkpt>
      <trkpt lat="45.910384403541684" lon="7.858955059200525">
        <ele>4110.7299999999996</ele>
        <time>2014-07-06T07:07:37Z</time>
      </trkpt>
      <trkpt lat="45.910436538979411" lon="7.858861349523068">
        <ele>4107.8500000000004</ele>
        <time>2014-07-06T07:07:48Z</time>
      </trkpt>
      <trkpt lat="45.910467468202114" lon="7.858810806646943">
        <ele>4107.3699999999999</ele>
        <time>2014-07-06T07:07:53Z</time>
      </trkpt>
      <trkpt lat="45.910537708550692" lon="7.858737045899034">
        <ele>4104.0100000000002</ele>
        <time>2014-07-06T07:08:03Z</time>
      </trkpt>
      <trkpt lat="45.910572074353695" lon="7.858703099191189">
        <ele>4102.0799999999999</ele>
        <time>2014-07-06T07:08:09Z</time>
      </trkpt>
      <trkpt lat="45.910587580874562" lon="7.858682731166482">
        <ele>4102.5600000000004</ele>
        <time>2014-07-06T07:08:12Z</time>
      </trkpt>
      <trkpt lat="45.910641644150019" lon="7.858603773638606">
        <ele>4099.6800000000003</ele>
        <time>2014-07-06T07:08:21Z</time>
      </trkpt>
      <trkpt lat="45.910707861185074" lon="7.858526073396206">
        <ele>4096.8000000000002</ele>
        <time>2014-07-06T07:08:32Z</time>
      </trkpt>
      <trkpt lat="45.910761170089245" lon="7.85844074562192">
        <ele>4093.4299999999998</ele>
        <time>2014-07-06T07:08:42Z</time>
      </trkpt>
      <trkpt lat="45.910815401002765" lon="7.858319124206901">
        <ele>4090.5500000000002</ele>
        <time>2014-07-06T07:08:53Z</time>
      </trkpt>
      <trkpt lat="45.910870302468538" lon="7.858208566904068">
        <ele>4085.7399999999998</ele>
        <time>2014-07-06T07:09:04Z</time>
      </trkpt>
      <trkpt lat="45.910939117893577" lon="7.858101697638631">
        <ele>4084.3000000000002</ele>
        <time>2014-07-06T07:09:17Z</time>
      </trkpt>
      <trkpt lat="45.910958228632808" lon="7.858066828921437">
        <ele>4083.3400000000001</ele>
        <time>2014-07-06T07:09:29Z</time>
      </trkpt>
      <trkpt lat="45.911017321050167" lon="7.857958031818271">
        <ele>4080.4499999999998</ele>
        <time>2014-07-06T07:09:42Z</time>
      </trkpt>
      <trkpt lat="45.911066941916943" lon="7.857817215844989">
        <ele>4077.0900000000001</ele>
        <time>2014-07-06T07:09:55Z</time>
      </trkpt>
      <trkpt lat="45.911096362397075" lon="7.857702132314444">
        <ele>4075.6500000000001</ele>
        <time>2014-07-06T07:10:05Z</time>
      </trkpt>
      <trkpt lat="45.911113880574703" lon="7.857662905007601">
        <ele>4075.6500000000001</ele>
        <time>2014-07-06T07:10:08Z</time>
      </trkpt>
      <trkpt lat="45.91115478426218" lon="7.857613367959857">
        <ele>4073.7199999999998</ele>
        <time>2014-07-06T07:10:13Z</time>
      </trkpt>
      <trkpt lat="45.911212032660842" lon="7.85747179761529">
        <ele>4070.8400000000001</ele>
        <time>2014-07-06T07:10:24Z</time>
      </trkpt>
      <trkpt lat="45.911253020167351" lon="7.857386134564877">
        <ele>4068.9200000000001</ele>
        <time>2014-07-06T07:10:38Z</time>
      </trkpt>
      <trkpt lat="45.911202225834131" lon="7.857301393523812">
        <ele>4066.0300000000002</ele>
        <time>2014-07-06T07:10:49Z</time>
      </trkpt>
      <trkpt lat="45.911192921921611" lon="7.857261747121811">
        <ele>4065.0700000000002</ele>
        <time>2014-07-06T07:10:52Z</time>
      </trkpt>
      <trkpt lat="45.911180516704917" lon="7.857080698013306">
        <ele>4061.71</ele>
        <time>2014-07-06T07:11:05Z</time>
      </trkpt>
      <trkpt lat="45.911165094003081" lon="7.85698170773685">
        <ele>4060.27</ele>
        <time>2014-07-06T07:11:12Z</time>
      </trkpt>
      <trkpt lat="45.911151599138975" lon="7.856748690828681">
        <ele>4056.9000000000001</ele>
        <time>2014-07-06T07:11:29Z</time>
      </trkpt>
      <trkpt lat="45.911152688786387" lon="7.856721114367247">
        <ele>4055.9400000000001</ele>
        <time>2014-07-06T07:11:31Z</time>
      </trkpt>
      <trkpt lat="45.911149168387055" lon="7.856567641720176">
        <ele>4052.5799999999999</ele>
        <time>2014-07-06T07:11:42Z</time>
      </trkpt>
      <trkpt lat="45.91115964576602" lon="7.856383575126529">
        <ele>4049.6900000000001</ele>
        <time>2014-07-06T07:11:55Z</time>
      </trkpt>
      <trkpt lat="45.911158807575703" lon="7.856222055852413">
        <ele>4046.8099999999999</ele>
        <time>2014-07-06T07:12:08Z</time>
      </trkpt>
      <trkpt lat="45.911172553896904" lon="7.856244519352913">
        <ele>4047.77</ele>
        <time>2014-07-06T07:12:21Z</time>
      </trkpt>
      <trkpt lat="45.911193173378706" lon="7.85621702671051">
        <ele>4047.29</ele>
        <time>2014-07-06T07:12:46Z</time>
      </trkpt>
      <trkpt lat="45.911162160336971" lon="7.856182493269444">
        <ele>4046.8099999999999</ele>
        <time>2014-07-06T07:13:03Z</time>
      </trkpt>
      <trkpt lat="45.911143636330962" lon="7.856085263192654">
        <ele>4044.4000000000001</ele>
        <time>2014-07-06T07:13:16Z</time>
      </trkpt>
      <trkpt lat="45.911131147295237" lon="7.855945872142911">
        <ele>4041.52</ele>
        <time>2014-07-06T07:13:30Z</time>
      </trkpt>
      <trkpt lat="45.911113377660513" lon="7.855869345366955">
        <ele>4039.1199999999999</ele>
        <time>2014-07-06T07:13:36Z</time>
      </trkpt>
      <trkpt lat="45.911100720986724" lon="7.855710927397013">
        <ele>4036.23</ele>
        <time>2014-07-06T07:13:49Z</time>
      </trkpt>
      <trkpt lat="45.911089237779379" lon="7.855604309588671">
        <ele>4033.3499999999999</ele>
        <time>2014-07-06T07:13:57Z</time>
      </trkpt>
      <trkpt lat="45.911052776500583" lon="7.855406999588013">
        <ele>4030.9499999999998</ele>
        <time>2014-07-06T07:14:11Z</time>
      </trkpt>
      <trkpt lat="45.911030815914273" lon="7.855294514447451">
        <ele>4027.5799999999999</ele>
        <time>2014-07-06T07:14:21Z</time>
      </trkpt>
      <trkpt lat="45.910997707396746" lon="7.85512343980372">
        <ele>4024.2199999999998</ele>
        <time>2014-07-06T07:14:34Z</time>
      </trkpt>
      <trkpt lat="45.910947918891907" lon="7.855012631043792">
        <ele>4021.8099999999999</ele>
        <time>2014-07-06T07:14:46Z</time>
      </trkpt>
      <trkpt lat="45.910895196720958" lon="7.854977929964662">
        <ele>4018.4499999999998</ele>
        <time>2014-07-06T07:14:58Z</time>
      </trkpt>
      <trkpt lat="45.910819172859192" lon="7.85497541539371">
        <ele>4015.0799999999999</ele>
        <time>2014-07-06T07:15:07Z</time>
      </trkpt>
      <trkpt lat="45.910798218101263" lon="7.854979522526264">
        <ele>4014.5999999999999</ele>
        <time>2014-07-06T07:15:09Z</time>
      </trkpt>
      <trkpt lat="45.910731581971049" lon="7.854950269684196">
        <ele>4011.7199999999998</ele>
        <time>2014-07-06T07:15:17Z</time>
      </trkpt>
      <trkpt lat="45.910626389086246" lon="7.854892015457153">
        <ele>4010.2800000000002</ele>
        <time>2014-07-06T07:15:32Z</time>
      </trkpt>
      <trkpt lat="45.910539552569389" lon="7.85484884865582">
        <ele>4006.9099999999999</ele>
        <time>2014-07-06T07:15:45Z</time>
      </trkpt>
      <trkpt lat="45.910464031621814" lon="7.85479512065649">
        <ele>4003.5500000000002</ele>
        <time>2014-07-06T07:15:56Z</time>
      </trkpt>
      <trkpt lat="45.910382643342018" lon="7.854759832844138">
        <ele>4000.1799999999998</ele>
        <time>2014-07-06T07:16:08Z</time>
      </trkpt>
      <trkpt lat="45.910351714119315" lon="7.854745583608747">
        <ele>3998.7399999999998</ele>
        <time>2014-07-06T07:16:12Z</time>
      </trkpt>
      <trkpt lat="45.910278288647532" lon="7.854715241119266">
        <ele>3995.8600000000001</ele>
        <time>2014-07-06T07:16:25Z</time>
      </trkpt>
      <trkpt lat="45.910201761871576" lon="7.854679366573691">
        <ele>3992.9699999999998</ele>
        <time>2014-07-06T07:16:38Z</time>
      </trkpt>
      <trkpt lat="45.910136131569743" lon="7.854633685201407">
        <ele>3990.0900000000001</ele>
        <time>2014-07-06T07:16:50Z</time>
      </trkpt>
      <trkpt lat="45.910072596743703" lon="7.854589344933629">
        <ele>3986.7199999999998</ele>
        <time>2014-07-06T07:17:03Z</time>
      </trkpt>
      <trkpt lat="45.910042421892285" lon="7.854580460116267">
        <ele>3985.2800000000002</ele>
        <time>2014-07-06T07:17:09Z</time>
      </trkpt>
      <trkpt lat="45.909962123259902" lon="7.854536287486553">
        <ele>3981.9200000000001</ele>
        <time>2014-07-06T07:17:21Z</time>
      </trkpt>
      <trkpt lat="45.909953908994794" lon="7.854532683268189">
        <ele>3981.4400000000001</ele>
        <time>2014-07-06T07:17:23Z</time>
      </trkpt>
      <trkpt lat="45.90991610661149" lon="7.854493539780378">
        <ele>3980.48</ele>
        <time>2014-07-06T07:17:32Z</time>
      </trkpt>
      <trkpt lat="45.909855170175433" lon="7.854457916691899">
        <ele>3976.1500000000001</ele>
        <time>2014-07-06T07:17:44Z</time>
      </trkpt>
      <trkpt lat="45.909788785502315" lon="7.85443939268589">
        <ele>3972.79</ele>
        <time>2014-07-06T07:17:52Z</time>
      </trkpt>
      <trkpt lat="45.909771686419845" lon="7.854428496211767">
        <ele>3972.3000000000002</ele>
        <time>2014-07-06T07:17:54Z</time>
      </trkpt>
      <trkpt lat="45.909730698913336" lon="7.85439245402813">
        <ele>3968.9400000000001</ele>
        <time>2014-07-06T07:18:02Z</time>
      </trkpt>
      <trkpt lat="45.909723825752735" lon="7.854392705485225">
        <ele>3968.9400000000001</ele>
        <time>2014-07-06T07:18:03Z</time>
      </trkpt>
      <trkpt lat="45.909702703356743" lon="7.854376779869199">
        <ele>3968.46</ele>
        <time>2014-07-06T07:18:06Z</time>
      </trkpt>
      <trkpt lat="45.909617794677615" lon="7.854326572269201">
        <ele>3964.6100000000001</ele>
        <time>2014-07-06T07:18:19Z</time>
      </trkpt>
      <trkpt lat="45.909558702260256" lon="7.854281645268202">
        <ele>3961.73</ele>
        <time>2014-07-06T07:18:29Z</time>
      </trkpt>
      <trkpt lat="45.909488629549742" lon="7.854258427396417">
        <ele>3958.3699999999999</ele>
        <time>2014-07-06T07:18:41Z</time>
      </trkpt>
      <trkpt lat="45.909411096945405" lon="7.854249710217118">
        <ele>3955.48</ele>
        <time>2014-07-06T07:18:53Z</time>
      </trkpt>
      <trkpt lat="45.909335659816861" lon="7.854220792651177">
        <ele>3952.1199999999999</ele>
        <time>2014-07-06T07:19:04Z</time>
      </trkpt>
      <trkpt lat="45.90932828374207" lon="7.854224229231477">
        <ele>3951.6399999999999</ele>
        <time>2014-07-06T07:19:05Z</time>
      </trkpt>
      <trkpt lat="45.909252930432558" lon="7.854208219796419">
        <ele>3948.27</ele>
        <time>2014-07-06T07:19:16Z</time>
      </trkpt>
      <trkpt lat="45.909155616536736" lon="7.854213081300259">
        <ele>3945.3899999999999</ele>
        <time>2014-07-06T07:19:29Z</time>
      </trkpt>
      <trkpt lat="45.909079005941749" lon="7.854178296402097">
        <ele>3942.02</ele>
        <time>2014-07-06T07:19:41Z</time>
      </trkpt>
      <trkpt lat="45.908988146111369" lon="7.854154575616121">
        <ele>3938.6599999999999</ele>
        <time>2014-07-06T07:19:52Z</time>
      </trkpt>
      <trkpt lat="45.908901393413544" lon="7.854116186499596">
        <ele>3936.2600000000002</ele>
        <time>2014-07-06T07:20:06Z</time>
      </trkpt>
      <trkpt lat="45.908887311816216" lon="7.854113085195422">
        <ele>3935.29</ele>
        <time>2014-07-06T07:20:08Z</time>
      </trkpt>
      <trkpt lat="45.90887138620019" lon="7.854098416864872">
        <ele>3934.8099999999999</ele>
        <time>2014-07-06T07:20:10Z</time>
      </trkpt>
      <trkpt lat="45.90879712253809" lon="7.854041252285242">
        <ele>3931.4499999999998</ele>
        <time>2014-07-06T07:20:22Z</time>
      </trkpt>
      <trkpt lat="45.908697210252285" lon="7.854026751592755">
        <ele>3928.5599999999999</ele>
        <time>2014-07-06T07:20:34Z</time>
      </trkpt>
      <trkpt lat="45.908616576343775" lon="7.85402012988925">
        <ele>3925.1999999999998</ele>
        <time>2014-07-06T07:20:45Z</time>
      </trkpt>
      <trkpt lat="45.908521441742778" lon="7.854012921452522">
        <ele>3922.3200000000002</ele>
        <time>2014-07-06T07:20:58Z</time>
      </trkpt>
      <trkpt lat="45.908507192507386" lon="7.854011245071888">
        <ele>3921.8400000000001</ele>
        <time>2014-07-06T07:21:00Z</time>
      </trkpt>
      <trkpt lat="45.908408118411899" lon="7.853961624205113">
        <ele>3918.4699999999998</ele>
        <time>2014-07-06T07:21:12Z</time>
      </trkpt>
      <trkpt lat="45.908322371542454" lon="7.85395466722548">
        <ele>3915.5900000000001</ele>
        <time>2014-07-06T07:21:22Z</time>
      </trkpt>
      <trkpt lat="45.908225728198886" lon="7.853941423818469">
        <ele>3912.2199999999998</ele>
        <time>2014-07-06T07:21:35Z</time>
      </trkpt>
      <trkpt lat="45.908206952735782" lon="7.853940585628152">
        <ele>3911.2600000000002</ele>
        <time>2014-07-06T07:21:37Z</time>
      </trkpt>
      <trkpt lat="45.908120116218925" lon="7.853925246745348">
        <ele>3907.9000000000001</ele>
        <time>2014-07-06T07:21:47Z</time>
      </trkpt>
      <trkpt lat="45.908019617199898" lon="7.853896412998438">
        <ele>3905.0100000000002</ele>
        <time>2014-07-06T07:21:59Z</time>
      </trkpt>
      <trkpt lat="45.907968990504742" lon="7.853897670283914">
        <ele>3903.0900000000001</ele>
        <time>2014-07-06T07:22:05Z</time>
      </trkpt>
      <trkpt lat="45.90787704102695" lon="7.853858442977071">
        <ele>3899.2399999999998</ele>
        <time>2014-07-06T07:22:17Z</time>
      </trkpt>
      <trkpt lat="45.907853404060006" lon="7.853859700262547">
        <ele>3898.2800000000002</ele>
        <time>2014-07-06T07:22:20Z</time>
      </trkpt>
      <trkpt lat="45.907750809565187" lon="7.853810330852866">
        <ele>3894.9200000000001</ele>
        <time>2014-07-06T07:22:33Z</time>
      </trkpt>
      <trkpt lat="45.907645197585225" lon="7.853774121031165">
        <ele>3891.5500000000002</ele>
        <time>2014-07-06T07:22:46Z</time>
      </trkpt>
      <trkpt lat="45.907559869810939" lon="7.853738833218813">
        <ele>3888.6700000000001</ele>
        <time>2014-07-06T07:22:58Z</time>
      </trkpt>
      <trkpt lat="45.907465824857354" lon="7.853723410516977">
        <ele>3886.27</ele>
        <time>2014-07-06T07:23:09Z</time>
      </trkpt>
      <trkpt lat="45.907448474317789" lon="7.853727098554373">
        <ele>3885.3099999999999</ele>
        <time>2014-07-06T07:23:11Z</time>
      </trkpt>
      <trkpt lat="45.907350657507777" lon="7.853726511821151">
        <ele>3883.3800000000001</ele>
        <time>2014-07-06T07:23:22Z</time>
      </trkpt>
      <trkpt lat="45.907247141003609" lon="7.853761212900281">
        <ele>3880.98</ele>
        <time>2014-07-06T07:23:37Z</time>
      </trkpt>
      <trkpt lat="45.907130800187588" lon="7.853752411901951">
        <ele>3878.0999999999999</ele>
        <time>2014-07-06T07:23:52Z</time>
      </trkpt>
      <trkpt lat="45.907054943963885" lon="7.853730786591768">
        <ele>3874.73</ele>
        <time>2014-07-06T07:24:04Z</time>
      </trkpt>
      <trkpt lat="45.906957127153873" lon="7.853747215121985">
        <ele>3871.3699999999999</ele>
        <time>2014-07-06T07:24:17Z</time>
      </trkpt>
      <trkpt lat="45.906855957582593" lon="7.853757189586759">
        <ele>3868.96</ele>
        <time>2014-07-06T07:24:30Z</time>
      </trkpt>
      <trkpt lat="45.906804576516151" lon="7.853741934522986">
        <ele>3867.04</ele>
        <time>2014-07-06T07:24:41Z</time>
      </trkpt>
      <trkpt lat="45.9067727252841" lon="7.85372450016439">
        <ele>3865.5999999999999</ele>
        <time>2014-07-06T07:24:46Z</time>
      </trkpt>
      <trkpt lat="45.906706005334854" lon="7.85370547324419">
        <ele>3862.23</ele>
        <time>2014-07-06T07:24:57Z</time>
      </trkpt>
      <trkpt lat="45.9066466614604" lon="7.853659372776747">
        <ele>3858.8699999999999</ele>
        <time>2014-07-06T07:25:09Z</time>
      </trkpt>
      <trkpt lat="45.906580528244376" lon="7.853614445775747">
        <ele>3855.9899999999998</ele>
        <time>2014-07-06T07:25:21Z</time>
      </trkpt>
      <trkpt lat="45.90654163621366" lon="7.853602292016149">
        <ele>3854.0599999999999</ele>
        <time>2014-07-06T07:25:34Z</time>
      </trkpt>
      <trkpt lat="45.906483801081777" lon="7.853592317551374">
        <ele>3851.6599999999999</ele>
        <time>2014-07-06T07:25:49Z</time>
      </trkpt>
      <trkpt lat="45.90646586380899" lon="7.853588378056884">
        <ele>3850.6999999999998</ele>
        <time>2014-07-06T07:26:13Z</time>
      </trkpt>
      <trkpt lat="45.906408028677106" lon="7.85353540442884">
        <ele>3847.8099999999999</ele>
        <time>2014-07-06T07:26:25Z</time>
      </trkpt>
      <trkpt lat="45.906363017857075" lon="7.853491986170411">
        <ele>3844.4499999999998</ele>
        <time>2014-07-06T07:26:36Z</time>
      </trkpt>
      <trkpt lat="45.906326388940215" lon="7.853443957865238">
        <ele>3841.0799999999999</ele>
        <time>2014-07-06T07:26:49Z</time>
      </trkpt>
      <trkpt lat="45.906272158026695" lon="7.853420320898294">
        <ele>3838.1999999999998</ele>
        <time>2014-07-06T07:27:00Z</time>
      </trkpt>
      <trkpt lat="45.906217843294144" lon="7.853374555706978">
        <ele>3834.8400000000001</ele>
        <time>2014-07-06T07:27:11Z</time>
      </trkpt>
      <trkpt lat="45.90615070424974" lon="7.853352427482605">
        <ele>3831.9499999999998</ele>
        <time>2014-07-06T07:27:22Z</time>
      </trkpt>
      <trkpt lat="45.906104603782296" lon="7.853287467733026">
        <ele>3828.5900000000001</ele>
        <time>2014-07-06T07:27:34Z</time>
      </trkpt>
      <trkpt lat="45.906057329848409" lon="7.853235332295299">
        <ele>3825.6999999999998</ele>
        <time>2014-07-06T07:27:45Z</time>
      </trkpt>
      <trkpt lat="45.906008379533887" lon="7.853213539347053">
        <ele>3822.8200000000002</ele>
        <time>2014-07-06T07:27:57Z</time>
      </trkpt>
      <trkpt lat="45.905948029831052" lon="7.853193758055568">
        <ele>3819.46</ele>
        <time>2014-07-06T07:28:08Z</time>
      </trkpt>
      <trkpt lat="45.905921962112188" lon="7.853177832439542">
        <ele>3818.0100000000002</ele>
        <time>2014-07-06T07:28:19Z</time>
      </trkpt>
      <trkpt lat="45.905894218012691" lon="7.853184286504984">
        <ele>3816.0900000000001</ele>
        <time>2014-07-06T07:28:34Z</time>
      </trkpt>
      <trkpt lat="45.905867898836732" lon="7.853170624002814">
        <ele>3814.1700000000001</ele>
        <time>2014-07-06T07:28:47Z</time>
      </trkpt>
      <trkpt lat="45.905834790319204" lon="7.853101305663586">
        <ele>3810.8000000000002</ele>
        <time>2014-07-06T07:28:58Z</time>
      </trkpt>
      <trkpt lat="45.905796568840742" lon="7.853086553514004">
        <ele>3808.8800000000001</ele>
        <time>2014-07-06T07:29:07Z</time>
      </trkpt>
      <trkpt lat="45.905744433403015" lon="7.85307171754539">
        <ele>3806</ele>
        <time>2014-07-06T07:29:20Z</time>
      </trkpt>
      <trkpt lat="45.905687604099512" lon="7.853082111105323">
        <ele>3803.5900000000001</ele>
        <time>2014-07-06T07:29:32Z</time>
      </trkpt>
      <trkpt lat="45.905646365135908" lon="7.853087978437543">
        <ele>3801.1900000000001</ele>
        <time>2014-07-06T07:29:45Z</time>
      </trkpt>
      <trkpt lat="45.905606802552938" lon="7.85310004837811">
        <ele>3798.79</ele>
        <time>2014-07-06T07:30:00Z</time>
      </trkpt>
      <trkpt lat="45.905595067888498" lon="7.853097449988127">
        <ele>3797.8299999999999</ele>
        <time>2014-07-06T07:30:16Z</time>
      </trkpt>
      <trkpt lat="45.905598839744925" lon="7.85308781079948">
        <ele>3797.3499999999999</ele>
        <time>2014-07-06T07:30:33Z</time>
      </trkpt>
      <trkpt lat="45.905606299638748" lon="7.853101892396808">
        <ele>3797.8299999999999</ele>
        <time>2014-07-06T07:30:55Z</time>
      </trkpt>
      <trkpt lat="45.905582411214709" lon="7.853111950680614">
        <ele>3796.8600000000001</ele>
        <time>2014-07-06T07:31:11Z</time>
      </trkpt>
      <trkpt lat="45.905553493648767" lon="7.853117566555738">
        <ele>3796.3800000000001</ele>
        <time>2014-07-06T07:31:29Z</time>
      </trkpt>
      <trkpt lat="45.905523737892509" lon="7.853133575990796">
        <ele>3794.46</ele>
        <time>2014-07-06T07:31:38Z</time>
      </trkpt>
      <trkpt lat="45.90549549087882" lon="7.853137431666255">
        <ele>3792.0599999999999</ele>
        <time>2014-07-06T07:31:52Z</time>
      </trkpt>
      <trkpt lat="45.905495658516884" lon="7.853144807741046">
        <ele>3792.0599999999999</ele>
        <time>2014-07-06T07:31:55Z</time>
      </trkpt>
      <trkpt lat="45.905493060126901" lon="7.85316064953804">
        <ele>3792.0599999999999</ele>
        <time>2014-07-06T07:31:57Z</time>
      </trkpt>
      <trkpt lat="45.905452994629741" lon="7.853170121088624">
        <ele>3791.0999999999999</ele>
        <time>2014-07-06T07:32:12Z</time>
      </trkpt>
      <trkpt lat="45.905450731515884" lon="7.853160398080945">
        <ele>3791.0999999999999</ele>
        <time>2014-07-06T07:32:13Z</time>
      </trkpt>
      <trkpt lat="45.905406307429075" lon="7.853108765557408">
        <ele>3788.21</ele>
        <time>2014-07-06T07:32:27Z</time>
      </trkpt>
      <trkpt lat="45.905374959111214" lon="7.853083871304989">
        <ele>3786.29</ele>
        <time>2014-07-06T07:32:34Z</time>
      </trkpt>
      <trkpt lat="45.905344532802701" lon="7.853086134418845">
        <ele>3784.8499999999999</ele>
        <time>2014-07-06T07:32:38Z</time>
      </trkpt>
      <trkpt lat="45.905288709327579" lon="7.853182861581445">
        <ele>3782.4400000000001</ele>
        <time>2014-07-06T07:32:51Z</time>
      </trkpt>
      <trkpt lat="45.905274963006377" lon="7.85330624319613">
        <ele>3781.48</ele>
        <time>2014-07-06T07:33:04Z</time>
      </trkpt>
      <trkpt lat="45.905258115381002" lon="7.853338262066245">
        <ele>3780.52</ele>
        <time>2014-07-06T07:33:13Z</time>
      </trkpt>
      <trkpt lat="45.905226515606046" lon="7.853392492979765">
        <ele>3779.5599999999999</ele>
        <time>2014-07-06T07:33:24Z</time>
      </trkpt>
      <trkpt lat="45.905180582776666" lon="7.853438425809145">
        <ele>3777.1599999999999</ele>
        <time>2014-07-06T07:33:39Z</time>
      </trkpt>
      <trkpt lat="45.905180163681507" lon="7.853452423587441">
        <ele>3776.6799999999998</ele>
        <time>2014-07-06T07:33:45Z</time>
      </trkpt>
      <trkpt lat="45.905125681310892" lon="7.853536494076252">
        <ele>3773.3099999999999</ele>
        <time>2014-07-06T07:34:00Z</time>
      </trkpt>
      <trkpt lat="45.905068013817072" lon="7.85357354208827">
        <ele>3770.9099999999999</ele>
        <time>2014-07-06T07:34:10Z</time>
      </trkpt>
      <trkpt lat="45.905064325779676" lon="7.853575469926">
        <ele>3769.9499999999998</ele>
        <time>2014-07-06T07:34:21Z</time>
      </trkpt>
      <trkpt lat="45.905048567801714" lon="7.853591479361057">
        <ele>3768.5100000000002</ele>
        <time>2014-07-06T07:34:34Z</time>
      </trkpt>
      <trkpt lat="45.905040269717574" lon="7.853598017245531">
        <ele>3768.5100000000002</ele>
        <time>2014-07-06T07:34:54Z</time>
      </trkpt>
      <trkpt lat="45.905027026310563" lon="7.853639423847199">
        <ele>3766.0999999999999</ele>
        <time>2014-07-06T07:35:06Z</time>
      </trkpt>
      <trkpt lat="45.905012022703886" lon="7.853648224845529">
        <ele>3765.1399999999999</ele>
        <time>2014-07-06T07:35:09Z</time>
      </trkpt>
      <trkpt lat="45.904972208663821" lon="7.853668760508299">
        <ele>3761.7800000000002</ele>
        <time>2014-07-06T07:35:18Z</time>
      </trkpt>
      <trkpt lat="45.904917307198048" lon="7.853709580376744">
        <ele>3759.3699999999999</ele>
        <time>2014-07-06T07:35:29Z</time>
      </trkpt>
      <trkpt lat="45.904835164546967" lon="7.853724919259548">
        <ele>3756.0100000000002</ele>
        <time>2014-07-06T07:35:40Z</time>
      </trkpt>
      <trkpt lat="45.904809683561325" lon="7.853748640045524">
        <ele>3754.5700000000002</ele>
        <time>2014-07-06T07:35:46Z</time>
      </trkpt>
      <trkpt lat="45.904742544516921" lon="7.853752411901951">
        <ele>3751.1999999999998</ele>
        <time>2014-07-06T07:35:56Z</time>
      </trkpt>
      <trkpt lat="45.904680853709579" lon="7.853736067190766">
        <ele>3747.8400000000001</ele>
        <time>2014-07-06T07:36:07Z</time>
      </trkpt>
      <trkpt lat="45.904609272256494" lon="7.853727182373405">
        <ele>3744.9499999999998</ele>
        <time>2014-07-06T07:36:17Z</time>
      </trkpt>
      <trkpt lat="45.904552694410086" lon="7.853728188201785">
        <ele>3743.0300000000002</ele>
        <time>2014-07-06T07:36:26Z</time>
      </trkpt>
      <trkpt lat="45.904458900913596" lon="7.853708490729332">
        <ele>3739.6700000000001</ele>
        <time>2014-07-06T07:36:38Z</time>
      </trkpt>
      <trkpt lat="45.90437650680542" lon="7.853698097169399">
        <ele>3736.7800000000002</ele>
        <time>2014-07-06T07:36:48Z</time>
      </trkpt>
      <trkpt lat="45.904328813776374" lon="7.853686697781086">
        <ele>3734.8600000000001</ele>
        <time>2014-07-06T07:36:54Z</time>
      </trkpt>
      <trkpt lat="45.90421574190259" lon="7.853577900677919">
        <ele>3731.0100000000002</ele>
        <time>2014-07-06T07:37:08Z</time>
      </trkpt>
      <trkpt lat="45.90411071665585" lon="7.853555101901293">
        <ele>3728.1300000000001</ele>
        <time>2014-07-06T07:37:23Z</time>
      </trkpt>
      <trkpt lat="45.904091186821461" lon="7.853552000597119">
        <ele>3727.1700000000001</ele>
        <time>2014-07-06T07:37:25Z</time>
      </trkpt>
      <trkpt lat="45.904024802148342" lon="7.853545630350709">
        <ele>3725.25</ele>
        <time>2014-07-06T07:37:31Z</time>
      </trkpt>
      <trkpt lat="45.903891613706946" lon="7.853481341153383">
        <ele>3721.8800000000001</ele>
        <time>2014-07-06T07:37:45Z</time>
      </trkpt>
      <trkpt lat="45.903784912079573" lon="7.853435827419162">
        <ele>3719</ele>
        <time>2014-07-06T07:37:57Z</time>
      </trkpt>
      <trkpt lat="45.903653567656875" lon="7.853378327563405">
        <ele>3716.1100000000001</ele>
        <time>2014-07-06T07:38:11Z</time>
      </trkpt>
      <trkpt lat="45.903526498004794" lon="7.853321330621839">
        <ele>3713.23</ele>
        <time>2014-07-06T07:38:25Z</time>
      </trkpt>
      <trkpt lat="45.903427256271243" lon="7.853274140506983">
        <ele>3711.3099999999999</ele>
        <time>2014-07-06T07:38:36Z</time>
      </trkpt>
      <trkpt lat="45.903320554643869" lon="7.853230722248554">
        <ele>3709.3800000000001</ele>
        <time>2014-07-06T07:38:49Z</time>
      </trkpt>
      <trkpt lat="45.903275376185775" lon="7.853209348395467">
        <ele>3707.9400000000001</ele>
        <time>2014-07-06T07:39:04Z</time>
      </trkpt>
      <trkpt lat="45.903258109465241" lon="7.853196188807488">
        <ele>3706.5</ele>
        <time>2014-07-06T07:39:18Z</time>
      </trkpt>
      <trkpt lat="45.903256768360734" lon="7.853215634822846">
        <ele>3707.9400000000001</ele>
        <time>2014-07-06T07:39:34Z</time>
      </trkpt>
      <trkpt lat="45.903261546045542" lon="7.853244133293629">
        <ele>3707.46</ele>
        <time>2014-07-06T07:39:42Z</time>
      </trkpt>
      <trkpt lat="45.903232209384441" lon="7.853266345337033">
        <ele>3706.98</ele>
        <time>2014-07-06T07:39:48Z</time>
      </trkpt>
      <trkpt lat="45.903191305696964" lon="7.85330037586391">
        <ele>3706.5</ele>
        <time>2014-07-06T07:39:55Z</time>
      </trkpt>
      <trkpt lat="45.903121149167418" lon="7.8533526789397">
        <ele>3705.54</ele>
        <time>2014-07-06T07:40:03Z</time>
      </trkpt>
      <trkpt lat="45.90308359824121" lon="7.853369861841202">
        <ele>3705.0599999999999</ele>
        <time>2014-07-06T07:40:07Z</time>
      </trkpt>
      <trkpt lat="45.902963737025857" lon="7.853439096361399">
        <ele>3703.1399999999999</ele>
        <time>2014-07-06T07:40:22Z</time>
      </trkpt>
      <trkpt lat="45.902954768389463" lon="7.853445801883936">
        <ele>3703.1399999999999</ele>
        <time>2014-07-06T07:40:23Z</time>
      </trkpt>
      <trkpt lat="45.902881175279617" lon="7.853471618145704">
        <ele>3702.1700000000001</ele>
        <time>2014-07-06T07:40:30Z</time>
      </trkpt>
      <trkpt lat="45.902776485309005" lon="7.853493243455887">
        <ele>3701.21</ele>
        <time>2014-07-06T07:40:41Z</time>
      </trkpt>
      <trkpt lat="45.902668945491314" lon="7.853514030575752">
        <ele>3700.25</ele>
        <time>2014-07-06T07:40:52Z</time>
      </trkpt>
      <trkpt lat="45.902540618553758" lon="7.853556107729673">
        <ele>3699.77</ele>
        <time>2014-07-06T07:41:04Z</time>
      </trkpt>
      <trkpt lat="45.902391839772463" lon="7.853594999760389">
        <ele>3698.3299999999999</ele>
        <time>2014-07-06T07:41:19Z</time>
      </trkpt>
      <trkpt lat="45.902225039899349" lon="7.853616457432509">
        <ele>3696.8899999999999</ele>
        <time>2014-07-06T07:41:34Z</time>
      </trkpt>
      <trkpt lat="45.902088498696685" lon="7.853643195703626">
        <ele>3695.4400000000001</ele>
        <time>2014-07-06T07:41:50Z</time>
      </trkpt>
      <trkpt lat="45.901972325518727" lon="7.85366247408092">
        <ele>3694</ele>
        <time>2014-07-06T07:42:02Z</time>
      </trkpt>
      <trkpt lat="45.901865288615227" lon="7.853675382211804">
        <ele>3692.5599999999999</ele>
        <time>2014-07-06T07:42:15Z</time>
      </trkpt>
      <trkpt lat="45.901741404086351" lon="7.853687787428498">
        <ele>3690.6399999999999</ele>
        <time>2014-07-06T07:42:30Z</time>
      </trkpt>
      <trkpt lat="45.901642329990864" lon="7.853683428838849">
        <ele>3688.7199999999998</ele>
        <time>2014-07-06T07:42:43Z</time>
      </trkpt>
      <trkpt lat="45.901605952531099" lon="7.853701785206795">
        <ele>3688.2399999999998</ele>
        <time>2014-07-06T07:42:54Z</time>
      </trkpt>
      <trkpt lat="45.901520624756813" lon="7.853709328919649">
        <ele>3686.79</ele>
        <time>2014-07-06T07:43:07Z</time>
      </trkpt>
      <trkpt lat="45.90150335803628" lon="7.853709412738681">
        <ele>3686.79</ele>
        <time>2014-07-06T07:43:23Z</time>
      </trkpt>
      <trkpt lat="45.901492377743125" lon="7.853709580376744">
        <ele>3686.3099999999999</ele>
        <time>2014-07-06T07:43:25Z</time>
      </trkpt>
      <trkpt lat="45.901387603953481" lon="7.853707149624825">
        <ele>3684.8699999999999</ele>
        <time>2014-07-06T07:43:39Z</time>
      </trkpt>
      <trkpt lat="45.901324572041631" lon="7.853698264807463">
        <ele>3683.9099999999999</ele>
        <time>2014-07-06T07:43:48Z</time>
      </trkpt>
      <trkpt lat="45.901278723031282" lon="7.853680159896612">
        <ele>3682.4699999999998</ele>
        <time>2014-07-06T07:43:54Z</time>
      </trkpt>
      <trkpt lat="45.90118040330708" lon="7.853665491566062">
        <ele>3680.54</ele>
        <time>2014-07-06T07:44:07Z</time>
      </trkpt>
      <trkpt lat="45.901070851832628" lon="7.853649398311973">
        <ele>3678.1399999999999</ele>
        <time>2014-07-06T07:44:19Z</time>
      </trkpt>
      <trkpt lat="45.900947218760848" lon="7.853636406362057">
        <ele>3675.7399999999998</ele>
        <time>2014-07-06T07:44:33Z</time>
      </trkpt>
      <trkpt lat="45.900817718356848" lon="7.853593826293945">
        <ele>3672.3699999999999</ele>
        <time>2014-07-06T07:44:47Z</time>
      </trkpt>
      <trkpt lat="45.900751668959856" lon="7.853548647835851">
        <ele>3670.4499999999998</ele>
        <time>2014-07-06T07:45:00Z</time>
      </trkpt>
      <trkpt lat="45.900746388360858" lon="7.85354521125555">
        <ele>3670.4499999999998</ele>
        <time>2014-07-06T07:45:13Z</time>
      </trkpt>
      <trkpt lat="45.900740772485733" lon="7.853535572066903">
        <ele>3669.0100000000002</ele>
        <time>2014-07-06T07:45:16Z</time>
      </trkpt>
      <trkpt lat="45.90074647217989" lon="7.853536326438189">
        <ele>3670.4499999999998</ele>
        <time>2014-07-06T07:45:21Z</time>
      </trkpt>
      <trkpt lat="45.900743706151843" lon="7.853555688634515">
        <ele>3670.4499999999998</ele>
        <time>2014-07-06T07:45:36Z</time>
      </trkpt>
      <trkpt lat="45.900634825229645" lon="7.853541607037187">
        <ele>3669.0100000000002</ele>
        <time>2014-07-06T07:45:48Z</time>
      </trkpt>
      <trkpt lat="45.900605823844671" lon="7.853530626744032">
        <ele>3667.5700000000002</ele>
        <time>2014-07-06T07:45:52Z</time>
      </trkpt>
      <trkpt lat="45.900505241006613" lon="7.853517048060894">
        <ele>3665.1599999999999</ele>
        <time>2014-07-06T07:46:05Z</time>
      </trkpt>
      <trkpt lat="45.900389822199941" lon="7.853480586782098">
        <ele>3661.8000000000002</ele>
        <time>2014-07-06T07:46:20Z</time>
      </trkpt>
      <trkpt lat="45.900308433920145" lon="7.853466756641865">
        <ele>3659.8800000000001</ele>
        <time>2014-07-06T07:46:32Z</time>
      </trkpt>
      <trkpt lat="45.900296112522483" lon="7.853465666994453">
        <ele>3659.8800000000001</ele>
        <time>2014-07-06T07:46:34Z</time>
      </trkpt>
      <trkpt lat="45.900180274620652" lon="7.853466589003801">
        <ele>3656.9899999999998</ele>
        <time>2014-07-06T07:46:49Z</time>
      </trkpt>
      <trkpt lat="45.900087906047702" lon="7.853432390838862">
        <ele>3654.5900000000001</ele>
        <time>2014-07-06T07:47:01Z</time>
      </trkpt>
      <trkpt lat="45.89999545365572" lon="7.853393079712987">
        <ele>3651.71</ele>
        <time>2014-07-06T07:47:14Z</time>
      </trkpt>
      <trkpt lat="45.899897553026676" lon="7.853369861841202">
        <ele>3648.8200000000002</ele>
        <time>2014-07-06T07:47:25Z</time>
      </trkpt>
      <trkpt lat="45.899853464215994" lon="7.853355193510652">
        <ele>3647.8600000000001</ele>
        <time>2014-07-06T07:47:31Z</time>
      </trkpt>
      <trkpt lat="45.899807531386614" lon="7.853353600949049">
        <ele>3646.9000000000001</ele>
        <time>2014-07-06T07:47:36Z</time>
      </trkpt>
      <trkpt lat="45.899747600778937" lon="7.853366006165743">
        <ele>3644.5</ele>
        <time>2014-07-06T07:47:48Z</time>
      </trkpt>
      <trkpt lat="45.899711474776268" lon="7.853373968973756">
        <ele>3643.5300000000002</ele>
        <time>2014-07-06T07:47:53Z</time>
      </trkpt>
      <trkpt lat="45.899665877223015" lon="7.853348907083273">
        <ele>3642.0900000000001</ele>
        <time>2014-07-06T07:47:59Z</time>
      </trkpt>
      <trkpt lat="45.899606784805655" lon="7.853360893204808">
        <ele>3640.1700000000001</ele>
        <time>2014-07-06T07:48:06Z</time>
      </trkpt>
      <trkpt lat="45.899546686559916" lon="7.853399617597461">
        <ele>3638.73</ele>
        <time>2014-07-06T07:48:14Z</time>
      </trkpt>
      <trkpt lat="45.899528581649065" lon="7.853417135775089">
        <ele>3637.77</ele>
        <time>2014-07-06T07:48:16Z</time>
      </trkpt>
      <trkpt lat="45.899431351572275" lon="7.853445047512651">
        <ele>3634.8800000000001</ele>
        <time>2014-07-06T07:48:28Z</time>
      </trkpt>
      <trkpt lat="45.899329343810678" lon="7.853431720286608">
        <ele>3632</ele>
        <time>2014-07-06T07:48:41Z</time>
      </trkpt>
      <trkpt lat="45.899249296635389" lon="7.853414285928011">
        <ele>3628.6300000000001</ele>
        <time>2014-07-06T07:48:53Z</time>
      </trkpt>
      <trkpt lat="45.8991779666394" lon="7.853406742215157">
        <ele>3626.23</ele>
        <time>2014-07-06T07:49:02Z</time>
      </trkpt>
      <trkpt lat="45.899109821766615" lon="7.853378327563405">
        <ele>3623.3499999999999</ele>
        <time>2014-07-06T07:49:15Z</time>
      </trkpt>
      <trkpt lat="45.899088699370623" lon="7.85335460677743">
        <ele>3621.9000000000001</ele>
        <time>2014-07-06T07:49:25Z</time>
      </trkpt>
      <trkpt lat="45.899032708257437" lon="7.853331053629518">
        <ele>3619.98</ele>
        <time>2014-07-06T07:49:36Z</time>
      </trkpt>
      <trkpt lat="45.898965485394001" lon="7.85329551436007">
        <ele>3617.5799999999999</ele>
        <time>2014-07-06T07:49:48Z</time>
      </trkpt>
      <trkpt lat="45.898921061307192" lon="7.85328034311533">
        <ele>3615.1799999999998</ele>
        <time>2014-07-06T07:49:54Z</time>
      </trkpt>
      <trkpt lat="45.898901112377644" lon="7.853267770260572">
        <ele>3614.21</ele>
        <time>2014-07-06T07:49:58Z</time>
      </trkpt>
      <trkpt lat="45.898834224790335" lon="7.853237763047218">
        <ele>3611.3299999999999</ele>
        <time>2014-07-06T07:50:10Z</time>
      </trkpt>
      <trkpt lat="45.898787453770638" lon="7.853223513811827">
        <ele>3609.4099999999999</ele>
        <time>2014-07-06T07:50:21Z</time>
      </trkpt>
      <trkpt lat="45.898763397708535" lon="7.85321781411767">
        <ele>3608.4499999999998</ele>
        <time>2014-07-06T07:50:24Z</time>
      </trkpt>
      <trkpt lat="45.898693576455116" lon="7.853231225162745">
        <ele>3605.0799999999999</ele>
        <time>2014-07-06T07:50:36Z</time>
      </trkpt>
      <trkpt lat="45.898690307512879" lon="7.853225860744715">
        <ele>3605.0799999999999</ele>
        <time>2014-07-06T07:50:38Z</time>
      </trkpt>
      <trkpt lat="45.898677986115217" lon="7.853232985362411">
        <ele>3604.5999999999999</ele>
        <time>2014-07-06T07:50:40Z</time>
      </trkpt>
      <trkpt lat="45.898628449067473" lon="7.853217730298638">
        <ele>3602.6799999999998</ele>
        <time>2014-07-06T07:50:52Z</time>
      </trkpt>
      <trkpt lat="45.898612439632416" lon="7.853220328688622">
        <ele>3601.7199999999998</ele>
        <time>2014-07-06T07:50:55Z</time>
      </trkpt>
      <trkpt lat="45.898571284487844" lon="7.853207252919674">
        <ele>3599.79</ele>
        <time>2014-07-06T07:51:02Z</time>
      </trkpt>
      <trkpt lat="45.89849148876965" lon="7.853183029219508">
        <ele>3596.4299999999998</ele>
        <time>2014-07-06T07:51:14Z</time>
      </trkpt>
      <trkpt lat="45.898451255634427" lon="7.853175904601812">
        <ele>3594.9899999999998</ele>
        <time>2014-07-06T07:51:26Z</time>
      </trkpt>
      <trkpt lat="45.898391576483846" lon="7.853155955672264">
        <ele>3592.0999999999999</ele>
        <time>2014-07-06T07:51:36Z</time>
      </trkpt>
      <trkpt lat="45.898306332528591" lon="7.853182274848223">
        <ele>3588.2600000000002</ele>
        <time>2014-07-06T07:51:47Z</time>
      </trkpt>
      <trkpt lat="45.898269703611732" lon="7.853188812732697">
        <ele>3586.8200000000002</ele>
        <time>2014-07-06T07:51:59Z</time>
      </trkpt>
      <trkpt lat="45.898197032511234" lon="7.853162325918675">
        <ele>3583.9299999999998</ele>
        <time>2014-07-06T07:52:10Z</time>
      </trkpt>
      <trkpt lat="45.898123355582356" lon="7.853169785812497">
        <ele>3580.0900000000001</ele>
        <time>2014-07-06T07:52:21Z</time>
      </trkpt>
      <trkpt lat="45.898044900968671" lon="7.853176994249225">
        <ele>3577.6799999999998</ele>
        <time>2014-07-06T07:52:33Z</time>
      </trkpt>
      <trkpt lat="45.897993100807071" lon="7.853155201300979">
        <ele>3574.3200000000002</ele>
        <time>2014-07-06T07:52:44Z</time>
      </trkpt>
      <trkpt lat="45.897982455790043" lon="7.853156793862581">
        <ele>3574.3200000000002</ele>
        <time>2014-07-06T07:53:01Z</time>
      </trkpt>
      <trkpt lat="45.898008523508906" lon="7.853146232664585">
        <ele>3572.8800000000001</ele>
        <time>2014-07-06T07:53:15Z</time>
      </trkpt>
      <trkpt lat="45.897996202111244" lon="7.853148998692632">
        <ele>3574.3200000000002</ele>
        <time>2014-07-06T07:53:35Z</time>
      </trkpt>
      <trkpt lat="45.897952364757657" lon="7.853151680901647">
        <ele>3573.3600000000001</ele>
        <time>2014-07-06T07:53:42Z</time>
      </trkpt>
      <trkpt lat="45.897921267896891" lon="7.853143382817507">
        <ele>3572.4000000000001</ele>
        <time>2014-07-06T07:53:49Z</time>
      </trkpt>
      <trkpt lat="45.897911209613085" lon="7.8531230147928">
        <ele>3570.4699999999998</ele>
        <time>2014-07-06T07:54:05Z</time>
      </trkpt>
      <trkpt lat="45.897896038368344" lon="7.853134498000145">
        <ele>3570.4699999999998</ele>
        <time>2014-07-06T07:54:28Z</time>
      </trkpt>
      <trkpt lat="45.897913724184036" lon="7.853128630667925">
        <ele>3570.4699999999998</ele>
        <time>2014-07-06T07:54:56Z</time>
      </trkpt>
      <trkpt lat="45.897897211834788" lon="7.853118404746056">
        <ele>3570.4699999999998</ele>
        <time>2014-07-06T07:55:22Z</time>
      </trkpt>
      <trkpt lat="45.897837029770017" lon="7.853075740858913">
        <ele>3567.5900000000001</ele>
        <time>2014-07-06T07:55:38Z</time>
      </trkpt>
      <trkpt lat="45.897766370326281" lon="7.853011870756745">
        <ele>3564.23</ele>
        <time>2014-07-06T07:55:50Z</time>
      </trkpt>
      <trkpt lat="45.897715492174029" lon="7.852964932098985">
        <ele>3561.8200000000002</ele>
        <time>2014-07-06T07:55:58Z</time>
      </trkpt>
      <trkpt lat="45.897686490789056" lon="7.852939199656248">
        <ele>3560.3800000000001</ele>
        <time>2014-07-06T07:56:03Z</time>
      </trkpt>
      <trkpt lat="45.897626979276538" lon="7.852852111682296">
        <ele>3556.5300000000002</ele>
        <time>2014-07-06T07:56:14Z</time>
      </trkpt>
      <trkpt lat="45.897585237398744" lon="7.852792264893651">
        <ele>3553.6500000000001</ele>
        <time>2014-07-06T07:56:26Z</time>
      </trkpt>
      <trkpt lat="45.897553553804755" lon="7.8527448233217">
        <ele>3552.21</ele>
        <time>2014-07-06T07:56:31Z</time>
      </trkpt>
      <trkpt lat="45.897480715066195" lon="7.852678271010518">
        <ele>3548.8400000000001</ele>
        <time>2014-07-06T07:56:44Z</time>
      </trkpt>
      <trkpt lat="45.89745607227087" lon="7.852576430886984">
        <ele>3546.4400000000001</ele>
        <time>2014-07-06T07:56:57Z</time>
      </trkpt>
      <trkpt lat="45.897456239908934" lon="7.852553715929389">
        <ele>3545.96</ele>
        <time>2014-07-06T07:57:14Z</time>
      </trkpt>
      <trkpt lat="45.897452719509602" lon="7.85254642367363">
        <ele>3545.96</ele>
        <time>2014-07-06T07:57:18Z</time>
      </trkpt>
      <trkpt lat="45.897395052015781" lon="7.852464867755771">
        <ele>3542.5999999999999</ele>
        <time>2014-07-06T07:57:29Z</time>
      </trkpt>
      <trkpt lat="45.897371415048838" lon="7.852439973503351">
        <ele>3542.1199999999999</ele>
        <time>2014-07-06T07:57:33Z</time>
      </trkpt>
      <trkpt lat="45.897285919636488" lon="7.852348359301686">
        <ele>3538.27</ele>
        <time>2014-07-06T07:57:46Z</time>
      </trkpt>
      <trkpt lat="45.897215930745006" lon="7.852272167801857">
        <ele>3535.3899999999999</ele>
        <time>2014-07-06T07:57:58Z</time>
      </trkpt>
      <trkpt lat="45.897209057584405" lon="7.852267138659954">
        <ele>3535.3899999999999</ele>
        <time>2014-07-06T07:57:59Z</time>
      </trkpt>
      <trkpt lat="45.897137392312288" lon="7.852201675996184">
        <ele>3532.98</ele>
        <time>2014-07-06T07:58:09Z</time>
      </trkpt>
      <trkpt lat="45.897052567452192" lon="7.852104529738426">
        <ele>3530.0999999999999</ele>
        <time>2014-07-06T07:58:22Z</time>
      </trkpt>
      <trkpt lat="45.897022224962711" lon="7.852041414007545">
        <ele>3528.6599999999999</ele>
        <time>2014-07-06T07:58:28Z</time>
      </trkpt>
      <trkpt lat="45.89699967764318" lon="7.852008137851954">
        <ele>3527.6900000000001</ele>
        <time>2014-07-06T07:58:33Z</time>
      </trkpt>
      <trkpt lat="45.896937567740679" lon="7.851930689066649">
        <ele>3524.8099999999999</ele>
        <time>2014-07-06T07:58:45Z</time>
      </trkpt>
      <trkpt lat="45.896845031529665" lon="7.851831782609224">
        <ele>3523.3699999999999</ele>
        <time>2014-07-06T07:59:00Z</time>
      </trkpt>
      <trkpt lat="45.896759619936347" lon="7.851765733212233">
        <ele>3521.4499999999998</ele>
        <time>2014-07-06T07:59:12Z</time>
      </trkpt>
      <trkpt lat="45.896737826988101" lon="7.851739246398211">
        <ele>3521.4499999999998</ele>
        <time>2014-07-06T07:59:16Z</time>
      </trkpt>
      <trkpt lat="45.896607404574752" lon="7.851670514792204">
        <ele>3520.4899999999998</ele>
        <time>2014-07-06T07:59:31Z</time>
      </trkpt>
      <trkpt lat="45.896499278023839" lon="7.851608991622925">
        <ele>3519.04</ele>
        <time>2014-07-06T07:59:46Z</time>
      </trkpt>
      <trkpt lat="45.89644362218678" lon="7.851573536172509">
        <ele>3519.04</ele>
        <time>2014-07-06T07:59:59Z</time>
      </trkpt>
      <trkpt lat="45.89644119143486" lon="7.851576888933778">
        <ele>3517.5999999999999</ele>
        <time>2014-07-06T08:00:20Z</time>
      </trkpt>
      <trkpt lat="45.896449657157063" lon="7.851596167311072">
        <ele>3518.0799999999999</ele>
        <time>2014-07-06T08:00:37Z</time>
      </trkpt>
      <trkpt lat="45.896409759297967" lon="7.8515584487468">
        <ele>3516.6399999999999</ele>
        <time>2014-07-06T08:00:55Z</time>
      </trkpt>
      <trkpt lat="45.896379835903645" lon="7.851498266682029">
        <ele>3515.1999999999998</ele>
        <time>2014-07-06T08:01:10Z</time>
      </trkpt>
      <trkpt lat="45.896333483979106" lon="7.851473959162831">
        <ele>3514.2399999999998</ele>
        <time>2014-07-06T08:01:21Z</time>
      </trkpt>
      <trkpt lat="45.896294843405485" lon="7.851435150951147">
        <ele>3512.3099999999999</ele>
        <time>2014-07-06T08:01:31Z</time>
      </trkpt>
      <trkpt lat="45.896320072934031" lon="7.851395923644304">
        <ele>3511.8299999999999</ele>
        <time>2014-07-06T08:01:46Z</time>
      </trkpt>
      <trkpt lat="45.896342536434531" lon="7.851289892569184">
        <ele>3509.9099999999999</ele>
        <time>2014-07-06T08:01:57Z</time>
      </trkpt>
      <trkpt lat="45.896356198936701" lon="7.851243037730455">
        <ele>3507.9899999999998</ele>
        <time>2014-07-06T08:02:02Z</time>
      </trkpt>
      <trkpt lat="45.89634689502418" lon="7.8511025570333">
        <ele>3505.0999999999999</ele>
        <time>2014-07-06T08:02:16Z</time>
      </trkpt>
      <trkpt lat="45.89634345844388" lon="7.850998872891069">
        <ele>3503.1799999999998</ele>
        <time>2014-07-06T08:02:26Z</time>
      </trkpt>
      <trkpt lat="45.89633759111166" lon="7.850826038047671">
        <ele>3500.3000000000002</ele>
        <time>2014-07-06T08:02:39Z</time>
      </trkpt>
      <trkpt lat="45.896310182288289" lon="7.850652448832989">
        <ele>3498.8600000000001</ele>
        <time>2014-07-06T08:02:53Z</time>
      </trkpt>
      <trkpt lat="45.896307248622179" lon="7.850455809384584">
        <ele>3497.8899999999999</ele>
        <time>2014-07-06T08:03:08Z</time>
      </trkpt>
      <trkpt lat="45.896287215873599" lon="7.850334774702787">
        <ele>3497.4099999999999</ele>
        <time>2014-07-06T08:03:22Z</time>
      </trkpt>
      <trkpt lat="45.896270871162415" lon="7.850249782204628">
        <ele>3498.3800000000001</ele>
        <time>2014-07-06T08:03:34Z</time>
      </trkpt>
      <trkpt lat="45.896280342712998" lon="7.850157329812646">
        <ele>3499.8200000000002</ele>
        <time>2014-07-06T08:03:44Z</time>
      </trkpt>
      <trkpt lat="45.896204654127359" lon="7.850094884634018">
        <ele>3498.8600000000001</ele>
        <time>2014-07-06T08:03:57Z</time>
      </trkpt>
      <trkpt lat="45.896215802058578" lon="7.850089436396956">
        <ele>3498.3800000000001</ele>
        <time>2014-07-06T08:04:14Z</time>
      </trkpt>
      <trkpt lat="45.896239522844553" lon="7.85010083578527">
        <ele>3498.8600000000001</ele>
        <time>2014-07-06T08:04:21Z</time>
      </trkpt>
      <trkpt lat="45.896190740168095" lon="7.849987763911486">
        <ele>3498.8600000000001</ele>
        <time>2014-07-06T08:04:33Z</time>
      </trkpt>
      <trkpt lat="45.896121170371771" lon="7.849863544106484">
        <ele>3496.9299999999998</ele>
        <time>2014-07-06T08:04:46Z</time>
      </trkpt>
      <trkpt lat="45.896116141229868" lon="7.84983747638762">
        <ele>3496.4499999999998</ele>
        <time>2014-07-06T08:04:48Z</time>
      </trkpt>
      <trkpt lat="45.89611086063087" lon="7.849619127810001">
        <ele>3493.0900000000001</ele>
        <time>2014-07-06T08:05:04Z</time>
      </trkpt>
      <trkpt lat="45.896146232262254" lon="7.849518461152911">
        <ele>3490.6799999999998</ele>
        <time>2014-07-06T08:05:14Z</time>
      </trkpt>
      <trkpt lat="45.896139107644558" lon="7.849419973790646">
        <ele>3489.2399999999998</ele>
        <time>2014-07-06T08:05:21Z</time>
      </trkpt>
      <trkpt lat="45.896136090159416" lon="7.849316457286477">
        <ele>3487.3200000000002</ele>
        <time>2014-07-06T08:05:28Z</time>
      </trkpt>
      <trkpt lat="45.896019581705332" lon="7.849190644919872">
        <ele>3484.9200000000001</ele>
        <time>2014-07-06T08:05:43Z</time>
      </trkpt>
      <trkpt lat="45.895936014130712" lon="7.849067766219378">
        <ele>3481.5500000000002</ele>
        <time>2014-07-06T08:05:56Z</time>
      </trkpt>
      <trkpt lat="45.895876167342067" lon="7.848980342969298">
        <ele>3478.6700000000001</ele>
        <time>2014-07-06T08:06:06Z</time>
      </trkpt>
      <trkpt lat="45.895804669708014" lon="7.848852267488837">
        <ele>3475.3000000000002</ele>
        <time>2014-07-06T08:06:18Z</time>
      </trkpt>
      <trkpt lat="45.895754126831889" lon="7.848778506740928">
        <ele>3473.8600000000001</ele>
        <time>2014-07-06T08:06:26Z</time>
      </trkpt>
      <trkpt lat="45.895672654733062" lon="7.8486383613199">
        <ele>3471.9400000000001</ele>
        <time>2014-07-06T08:06:40Z</time>
      </trkpt>
      <trkpt lat="45.895634097978473" lon="7.848564852029085">
        <ele>3471.46</ele>
        <time>2014-07-06T08:06:51Z</time>
      </trkpt>
      <trkpt lat="45.895572993904352" lon="7.848468543961644">
        <ele>3468.0900000000001</ele>
        <time>2014-07-06T08:07:00Z</time>
      </trkpt>
      <trkpt lat="45.895544998347759" lon="7.848453456535935">
        <ele>3467.1300000000001</ele>
        <time>2014-07-06T08:07:17Z</time>
      </trkpt>
      <trkpt lat="45.895493282005191" lon="7.848351951688528">
        <ele>3464.73</ele>
        <time>2014-07-06T08:07:31Z</time>
      </trkpt>
      <trkpt lat="45.89548540301621" lon="7.848335104063153">
        <ele>3463.77</ele>
        <time>2014-07-06T08:07:46Z</time>
      </trkpt>
      <trkpt lat="45.89548347517848" lon="7.848329236730933">
        <ele>3463.29</ele>
        <time>2014-07-06T08:07:47Z</time>
      </trkpt>
      <trkpt lat="45.895414659753442" lon="7.848181882873178">
        <ele>3466.1700000000001</ele>
        <time>2014-07-06T08:08:01Z</time>
      </trkpt>
      <trkpt lat="45.895373085513711" lon="7.848161347210407">
        <ele>3465.21</ele>
        <time>2014-07-06T08:08:08Z</time>
      </trkpt>
      <trkpt lat="45.895326230674982" lon="7.848119353875518">
        <ele>3465.21</ele>
        <time>2014-07-06T08:08:14Z</time>
      </trkpt>
      <trkpt lat="45.895258504897356" lon="7.848077276721597">
        <ele>3465.21</ele>
        <time>2014-07-06T08:08:26Z</time>
      </trkpt>
      <trkpt lat="45.895250542089343" lon="7.848062440752983">
        <ele>3465.21</ele>
        <time>2014-07-06T08:08:46Z</time>
      </trkpt>
      <trkpt lat="45.895258672535419" lon="7.848074762150645">
        <ele>3465.21</ele>
        <time>2014-07-06T08:08:50Z</time>
      </trkpt>
      <trkpt lat="45.895294127985835" lon="7.848089346662164">
        <ele>3463.77</ele>
        <time>2014-07-06T08:09:03Z</time>
      </trkpt>
      <trkpt lat="45.895287841558456" lon="7.848101081326604">
        <ele>3463.77</ele>
        <time>2014-07-06T08:09:12Z</time>
      </trkpt>
      <trkpt lat="45.895273173227906" lon="7.848084401339293">
        <ele>3464.25</ele>
        <time>2014-07-06T08:09:24Z</time>
      </trkpt>
      <trkpt lat="45.89525330811739" lon="7.848081216216087">
        <ele>3463.77</ele>
        <time>2014-07-06T08:09:47Z</time>
      </trkpt>
      <trkpt lat="45.895265378057957" lon="7.848080126568675">
        <ele>3463.77</ele>
        <time>2014-07-06T08:10:12Z</time>
      </trkpt>
      <trkpt lat="45.895269233733416" lon="7.848070068284869">
        <ele>3463.77</ele>
        <time>2014-07-06T08:10:36Z</time>
      </trkpt>
      <trkpt lat="45.895245764404535" lon="7.848064703866839">
        <ele>3463.77</ele>
        <time>2014-07-06T08:10:59Z</time>
      </trkpt>
      <trkpt lat="45.895247524604201" lon="7.848061351105571">
        <ele>3463.77</ele>
        <time>2014-07-06T08:11:26Z</time>
      </trkpt>
      <trkpt lat="45.895249536260962" lon="7.84806277602911">
        <ele>3463.77</ele>
        <time>2014-07-06T08:12:00Z</time>
      </trkpt>
      <trkpt lat="45.895266551524401" lon="7.848064955323935">
        <ele>3463.77</ele>
        <time>2014-07-06T08:12:36Z</time>
      </trkpt>
      <trkpt lat="45.895277196541429" lon="7.848050454631448">
        <ele>3463.29</ele>
        <time>2014-07-06T08:13:08Z</time>
      </trkpt>
      <trkpt lat="45.895270993933082" lon="7.848066464066505">
        <ele>3463.29</ele>
        <time>2014-07-06T08:13:41Z</time>
      </trkpt>
      <trkpt lat="45.895279124379158" lon="7.848052131012082">
        <ele>3463.29</ele>
        <time>2014-07-06T08:14:16Z</time>
      </trkpt>
      <trkpt lat="45.895290020853281" lon="7.848048862069845">
        <ele>3463.29</ele>
        <time>2014-07-06T08:14:38Z</time>
      </trkpt>
      <trkpt lat="45.895271077752113" lon="7.848035618662834">
        <ele>3463.77</ele>
        <time>2014-07-06T08:15:04Z</time>
      </trkpt>
      <trkpt lat="45.895309383049607" lon="7.848037546500564">
        <ele>3463.77</ele>
        <time>2014-07-06T08:15:34Z</time>
      </trkpt>
      <trkpt lat="45.895269988104701" lon="7.848055316135287">
        <ele>3464.25</ele>
        <time>2014-07-06T08:16:13Z</time>
      </trkpt>
      <trkpt lat="45.895287338644266" lon="7.84802757203579">
        <ele>3463.77</ele>
        <time>2014-07-06T08:16:47Z</time>
      </trkpt>
      <trkpt lat="45.89531097561121" lon="7.847997900098562">
        <ele>3464.25</ele>
        <time>2014-07-06T08:17:21Z</time>
      </trkpt>
      <trkpt lat="45.895283399149776" lon="7.848074259236455">
        <ele>3463.77</ele>
        <time>2014-07-06T08:17:42Z</time>
      </trkpt>
      <trkpt lat="45.895281638950109" lon="7.848069313913584">
        <ele>3463.77</ele>
        <time>2014-07-06T08:18:09Z</time>
      </trkpt>
      <trkpt lat="45.895307622849941" lon="7.848046347498894">
        <ele>3463.77</ele>
        <time>2014-07-06T08:18:31Z</time>
      </trkpt>
      <trkpt lat="45.89532271027565" lon="7.848011814057827">
        <ele>3463.77</ele>
        <time>2014-07-06T08:19:02Z</time>
      </trkpt>
      <trkpt lat="45.895309718325734" lon="7.848067469894886">
        <ele>3463.29</ele>
        <time>2014-07-06T08:19:41Z</time>
      </trkpt>
      <trkpt lat="45.895295385271311" lon="7.848073169589043">
        <ele>3463.29</ele>
        <time>2014-07-06T08:20:03Z</time>
      </trkpt>
      <trkpt lat="45.895302845165133" lon="7.848039474338293">
        <ele>3462.8099999999999</ele>
        <time>2014-07-06T08:20:17Z</time>
      </trkpt>
      <trkpt lat="45.895296139642596" lon="7.848060932010412">
        <ele>3463.29</ele>
        <time>2014-07-06T08:20:34Z</time>
      </trkpt>
      <trkpt lat="45.895296642556787" lon="7.848084401339293">
        <ele>3462.3299999999999</ele>
        <time>2014-07-06T08:20:54Z</time>
      </trkpt>
      <trkpt lat="45.895290020853281" lon="7.848056154325604">
        <ele>3462.8099999999999</ele>
        <time>2014-07-06T08:21:10Z</time>
      </trkpt>
      <trkpt lat="45.89530854485929" lon="7.848042408004403">
        <ele>3462.8099999999999</ele>
        <time>2014-07-06T08:21:29Z</time>
      </trkpt>
      <trkpt lat="45.89531927369535" lon="7.848048359155655">
        <ele>3462.8099999999999</ele>
        <time>2014-07-06T08:21:52Z</time>
      </trkpt>
      <trkpt lat="45.895307203754783" lon="7.848036289215088">
        <ele>3462.3299999999999</ele>
        <time>2014-07-06T08:22:24Z</time>
      </trkpt>
      <trkpt lat="45.895259259268641" lon="7.848102925345302">
        <ele>3462.3299999999999</ele>
        <time>2014-07-06T08:22:54Z</time>
      </trkpt>
      <trkpt lat="45.895245932042599" lon="7.848111474886537">
        <ele>3462.3299999999999</ele>
        <time>2014-07-06T08:23:21Z</time>
      </trkpt>
      <trkpt lat="45.895277196541429" lon="7.848061770200729">
        <ele>3462.3299999999999</ele>
        <time>2014-07-06T08:23:50Z</time>
      </trkpt>
      <trkpt lat="45.895296726375818" lon="7.84804324619472">
        <ele>3461.8400000000001</ele>
        <time>2014-07-06T08:24:17Z</time>
      </trkpt>
      <trkpt lat="45.895310053601861" lon="7.848047185689211">
        <ele>3461.8400000000001</ele>
        <time>2014-07-06T08:24:52Z</time>
      </trkpt>
      <trkpt lat="45.895327152684331" lon="7.848043078556657">
        <ele>3461.8400000000001</ele>
        <time>2014-07-06T08:25:29Z</time>
      </trkpt>
      <trkpt lat="45.895306365564466" lon="7.848064536228776">
        <ele>3461.3600000000001</ele>
        <time>2014-07-06T08:25:55Z</time>
      </trkpt>
      <trkpt lat="45.895306617021561" lon="7.848027404397726">
        <ele>3461.3600000000001</ele>
        <time>2014-07-06T08:26:26Z</time>
      </trkpt>
      <trkpt lat="45.895312819629908" lon="7.848028242588043">
        <ele>3461.3600000000001</ele>
        <time>2014-07-06T08:27:05Z</time>
      </trkpt>
      <trkpt lat="45.89531340636313" lon="7.848049700260162">
        <ele>3460.8800000000001</ele>
        <time>2014-07-06T08:27:37Z</time>
      </trkpt>
      <trkpt lat="45.89531684294343" lon="7.848035702481866">
        <ele>3460.8800000000001</ele>
        <time>2014-07-06T08:28:03Z</time>
      </trkpt>
      <trkpt lat="45.895297229290009" lon="7.848055316135287">
        <ele>3460.8800000000001</ele>
        <time>2014-07-06T08:28:35Z</time>
      </trkpt>
      <trkpt lat="45.895269401371479" lon="7.848069397732616">
        <ele>3460.8800000000001</ele>
        <time>2014-07-06T08:29:02Z</time>
      </trkpt>
      <trkpt lat="45.895287673920393" lon="7.848064200952649">
        <ele>3460.4000000000001</ele>
        <time>2014-07-06T08:29:35Z</time>
      </trkpt>
      <trkpt lat="45.895279124379158" lon="7.848045425489545">
        <ele>3460.4000000000001</ele>
        <time>2014-07-06T08:30:08Z</time>
      </trkpt>
      <trkpt lat="45.895271496847272" lon="7.848061434924603">
        <ele>3460.4000000000001</ele>
        <time>2014-07-06T08:30:36Z</time>
      </trkpt>
      <trkpt lat="45.895292786881328" lon="7.84805690869689">
        <ele>3459.9200000000001</ele>
        <time>2014-07-06T08:30:58Z</time>
      </trkpt>
      <trkpt lat="45.895290775224566" lon="7.848045928403735">
        <ele>3460.4000000000001</ele>
        <time>2014-07-06T08:31:25Z</time>
      </trkpt>
      <trkpt lat="45.895299911499023" lon="7.848081635311246">
        <ele>3460.4000000000001</ele>
        <time>2014-07-06T08:31:47Z</time>
      </trkpt>
      <trkpt lat="45.895280968397856" lon="7.8480564057827">
        <ele>3460.4000000000001</ele>
        <time>2014-07-06T08:32:15Z</time>
      </trkpt>
      <trkpt lat="45.895294714719057" lon="7.848068810999394">
        <ele>3459.9200000000001</ele>
        <time>2014-07-06T08:32:57Z</time>
      </trkpt>
      <trkpt lat="45.895281722769141" lon="7.848067637532949">
        <ele>3460.4000000000001</ele>
        <time>2014-07-06T08:33:36Z</time>
      </trkpt>
      <trkpt lat="45.895265797153115" lon="7.848086496815085">
        <ele>3459.9200000000001</ele>
        <time>2014-07-06T08:34:17Z</time>
      </trkpt>
      <trkpt lat="45.895268060266972" lon="7.848088089376688">
        <ele>3459.4400000000001</ele>
        <time>2014-07-06T08:34:54Z</time>
      </trkpt>
      <trkpt lat="45.895255403593183" lon="7.848102087154985">
        <ele>3458.96</ele>
        <time>2014-07-06T08:35:35Z</time>
      </trkpt>
      <trkpt lat="45.895258085802197" lon="7.848100243136287">
        <ele>3458.96</ele>
        <time>2014-07-06T08:36:20Z</time>
      </trkpt>
      <trkpt lat="45.895270491018891" lon="7.848090436309576">
        <ele>3458.96</ele>
        <time>2014-07-06T08:37:05Z</time>
      </trkpt>
      <trkpt lat="45.895268311724067" lon="7.84807937219739">
        <ele>3458.48</ele>
        <time>2014-07-06T08:37:39Z</time>
      </trkpt>
      <trkpt lat="45.89527040719986" lon="7.84808624535799">
        <ele>3458</ele>
        <time>2014-07-06T08:38:22Z</time>
      </trkpt>
      <trkpt lat="45.89526747353375" lon="7.84809110686183">
        <ele>3458</ele>
        <time>2014-07-06T08:39:01Z</time>
      </trkpt>
      <trkpt lat="45.895268730819225" lon="7.848084652796388">
        <ele>3457.52</ele>
        <time>2014-07-06T08:39:41Z</time>
      </trkpt>
      <trkpt lat="45.895260935649276" lon="7.848070403560996">
        <ele>3458.48</ele>
        <time>2014-07-06T08:40:16Z</time>
      </trkpt>
      <trkpt lat="45.895247524604201" lon="7.848068727180362">
        <ele>3457.52</ele>
        <time>2014-07-06T08:40:42Z</time>
      </trkpt>
      <trkpt lat="45.895259343087673" lon="7.848061183467507">
        <ele>3457.04</ele>
        <time>2014-07-06T08:41:20Z</time>
      </trkpt>
      <trkpt lat="45.895248781889677" lon="7.84806914627552">
        <ele>3457.52</ele>
        <time>2014-07-06T08:41:56Z</time>
      </trkpt>
      <trkpt lat="45.895237550139427" lon="7.848065877333283">
        <ele>3457.04</ele>
        <time>2014-07-06T08:42:32Z</time>
      </trkpt>
      <trkpt lat="45.895243752747774" lon="7.848074929788709">
        <ele>3456.5599999999999</ele>
        <time>2014-07-06T08:43:05Z</time>
      </trkpt>
      <trkpt lat="45.895257079973817" lon="7.848073169589043">
        <ele>3456.5599999999999</ele>
        <time>2014-07-06T08:43:43Z</time>
      </trkpt>
      <trkpt lat="45.895268144086003" lon="7.848083144053817">
        <ele>3456.5599999999999</ele>
        <time>2014-07-06T08:44:25Z</time>
      </trkpt>
      <trkpt lat="45.89525674469769" lon="7.848064871504903">
        <ele>3456.5599999999999</ele>
        <time>2014-07-06T08:44:54Z</time>
      </trkpt>
      <trkpt lat="45.895244842395186" lon="7.848070319741964">
        <ele>3456.5599999999999</ele>
        <time>2014-07-06T08:45:28Z</time>
      </trkpt>
      <trkpt lat="45.895237382501364" lon="7.84807987511158">
        <ele>3457.04</ele>
        <time>2014-07-06T08:45:57Z</time>
      </trkpt>
      <trkpt lat="45.895222881808877" lon="7.848073337227106">
        <ele>3456.5599999999999</ele>
        <time>2014-07-06T08:46:31Z</time>
      </trkpt>
      <trkpt lat="45.895232269540429" lon="7.848085993900895">
        <ele>3456.5599999999999</ele>
        <time>2014-07-06T08:46:55Z</time>
      </trkpt>
      <trkpt lat="45.895245932042599" lon="7.848094291985035">
        <ele>3456.5599999999999</ele>
        <time>2014-07-06T08:47:21Z</time>
      </trkpt>
      <trkpt lat="45.895267389714718" lon="7.848078031092882">
        <ele>3457.04</ele>
        <time>2014-07-06T08:47:33Z</time>
      </trkpt>
      <trkpt lat="45.895238304510713" lon="7.848062021657825">
        <ele>3458.48</ele>
        <time>2014-07-06T08:47:54Z</time>
      </trkpt>
      <trkpt lat="45.895237550139427" lon="7.848063781857491">
        <ele>3455.1199999999999</ele>
        <time>2014-07-06T08:47:55Z</time>
      </trkpt>
      <trkpt lat="45.895260013639927" lon="7.848087251186371">
        <ele>3456.5599999999999</ele>
        <time>2014-07-06T08:48:22Z</time>
      </trkpt>
      <trkpt lat="45.895241992548108" lon="7.848093453794718">
        <ele>3457.04</ele>
        <time>2014-07-06T08:48:45Z</time>
      </trkpt>
      <trkpt lat="45.895268395543098" lon="7.848056238144636">
        <ele>3456.5599999999999</ele>
        <time>2014-07-06T08:49:15Z</time>
      </trkpt>
      <trkpt lat="45.895250458270311" lon="7.848075181245804">
        <ele>3456.5599999999999</ele>
        <time>2014-07-06T08:49:50Z</time>
      </trkpt>
      <trkpt lat="45.895248278975487" lon="7.848069816827774">
        <ele>3456.0799999999999</ele>
        <time>2014-07-06T08:50:31Z</time>
      </trkpt>
      <trkpt lat="45.895255571231246" lon="7.848070152103901">
        <ele>3456.5599999999999</ele>
        <time>2014-07-06T08:51:10Z</time>
      </trkpt>
      <trkpt lat="45.895246351137757" lon="7.848085993900895">
        <ele>3456.5599999999999</ele>
        <time>2014-07-06T08:51:41Z</time>
      </trkpt>
      <trkpt lat="45.895255822688341" lon="7.848070906475186">
        <ele>3456.5599999999999</ele>
        <time>2014-07-06T08:52:14Z</time>
      </trkpt>
      <trkpt lat="45.895264707505703" lon="7.848084066063166">
        <ele>3457.04</ele>
        <time>2014-07-06T08:52:45Z</time>
      </trkpt>
      <trkpt lat="45.895272335037589" lon="7.848065542057157">
        <ele>3457.04</ele>
        <time>2014-07-06T08:53:18Z</time>
      </trkpt>
      <trkpt lat="45.895266132429242" lon="7.84807794727385">
        <ele>3456.5599999999999</ele>
        <time>2014-07-06T08:53:55Z</time>
      </trkpt>
      <trkpt lat="45.895245345309377" lon="7.848074762150645">
        <ele>3457.04</ele>
        <time>2014-07-06T08:54:34Z</time>
      </trkpt>
      <trkpt lat="45.895247692242265" lon="7.848070487380028">
        <ele>3458.48</ele>
        <time>2014-07-06T08:54:59Z</time>
      </trkpt>
      <trkpt lat="45.895269401371479" lon="7.848067637532949">
        <ele>3458.48</ele>
        <time>2014-07-06T08:55:23Z</time>
      </trkpt>
      <trkpt lat="45.895283482968807" lon="7.848080964758992">
        <ele>3458.48</ele>
        <time>2014-07-06T08:55:46Z</time>
      </trkpt>
      <trkpt lat="45.895285410806537" lon="7.848089430481195">
        <ele>3458.48</ele>
        <time>2014-07-06T08:56:05Z</time>
      </trkpt>
      <trkpt lat="45.895267054438591" lon="7.848073588684201">
        <ele>3458.48</ele>
        <time>2014-07-06T08:56:26Z</time>
      </trkpt>
      <trkpt lat="45.895272167399526" lon="7.848056321963668">
        <ele>3458.48</ele>
        <time>2014-07-06T08:56:45Z</time>
      </trkpt>
      <trkpt lat="45.895277364179492" lon="7.848066296428442">
        <ele>3458.48</ele>
        <time>2014-07-06T08:57:08Z</time>
      </trkpt>
      <trkpt lat="45.895260684192181" lon="7.848065542057157">
        <ele>3458</ele>
        <time>2014-07-06T08:57:33Z</time>
      </trkpt>
      <trkpt lat="45.895260097458959" lon="7.848080042749643">
        <ele>3458.48</ele>
        <time>2014-07-06T08:57:56Z</time>
      </trkpt>
      <trkpt lat="45.895270071923733" lon="7.848101500421763">
        <ele>3458</ele>
        <time>2014-07-06T08:58:15Z</time>
      </trkpt>
      <trkpt lat="45.895338132977486" lon="7.848154390230775">
        <ele>3458</ele>
        <time>2014-07-06T08:58:28Z</time>
      </trkpt>
      <trkpt lat="45.895332768559456" lon="7.848209543153644">
        <ele>3458</ele>
        <time>2014-07-06T08:58:33Z</time>
      </trkpt>
      <trkpt lat="45.895344419404864" lon="7.8482601698488">
        <ele>3457.52</ele>
        <time>2014-07-06T08:58:37Z</time>
      </trkpt>
      <trkpt lat="45.895360764116049" lon="7.848280034959316">
        <ele>3457.04</ele>
        <time>2014-07-06T08:58:39Z</time>
      </trkpt>
      <trkpt lat="45.895363362506032" lon="7.848341474309564">
        <ele>3456.0799999999999</ele>
        <time>2014-07-06T08:58:44Z</time>
      </trkpt>
      <trkpt lat="45.895229084417224" lon="7.848340133205056">
        <ele>3453.6700000000001</ele>
        <time>2014-07-06T08:58:57Z</time>
      </trkpt>
      <trkpt lat="45.895156916230917" lon="7.848331751301885">
        <ele>3451.75</ele>
        <time>2014-07-06T08:59:05Z</time>
      </trkpt>
      <trkpt lat="45.89511844329536" lon="7.848339211195707">
        <ele>3450.3099999999999</ele>
        <time>2014-07-06T08:59:23Z</time>
      </trkpt>
      <trkpt lat="45.89510235004127" lon="7.848347006365657">
        <ele>3450.3099999999999</ele>
        <time>2014-07-06T08:59:46Z</time>
      </trkpt>
      <trkpt lat="45.89502221904695" lon="7.848375085741282">
        <ele>3448.3899999999999</ele>
        <time>2014-07-06T09:00:01Z</time>
      </trkpt>
      <trkpt lat="45.894937478005886" lon="7.848379779607058">
        <ele>3445.02</ele>
        <time>2014-07-06T09:00:10Z</time>
      </trkpt>
      <trkpt lat="45.894929263740778" lon="7.848382126539946">
        <ele>3445.02</ele>
        <time>2014-07-06T09:00:11Z</time>
      </trkpt>
      <trkpt lat="45.894868411123753" lon="7.848405260592699">
        <ele>3442.6199999999999</ele>
        <time>2014-07-06T09:00:23Z</time>
      </trkpt>
      <trkpt lat="45.894819963723421" lon="7.848429065197706">
        <ele>3440.6999999999998</ele>
        <time>2014-07-06T09:00:28Z</time>
      </trkpt>
      <trkpt lat="45.894743520766497" lon="7.848477261140943">
        <ele>3437.8099999999999</ele>
        <time>2014-07-06T09:00:38Z</time>
      </trkpt>
      <trkpt lat="45.894702868536115" lon="7.848509280011058">
        <ele>3434.9299999999998</ele>
        <time>2014-07-06T09:00:49Z</time>
      </trkpt>
      <trkpt lat="45.894648972898722" lon="7.848559906706214">
        <ele>3433.0100000000002</ele>
        <time>2014-07-06T09:01:01Z</time>
      </trkpt>
      <trkpt lat="45.894638327881694" lon="7.848593685775995">
        <ele>3433.0100000000002</ele>
        <time>2014-07-06T09:01:05Z</time>
      </trkpt>
      <trkpt lat="45.894525423645973" lon="7.848743302747607">
        <ele>3429.6399999999999</ele>
        <time>2014-07-06T09:01:22Z</time>
      </trkpt>
      <trkpt lat="45.894493153318763" lon="7.848779931664467">
        <ele>3429.1599999999999</ele>
        <time>2014-07-06T09:01:38Z</time>
      </trkpt>
      <trkpt lat="45.894499272108078" lon="7.84877909347415">
        <ele>3429.1599999999999</ele>
        <time>2014-07-06T09:02:00Z</time>
      </trkpt>
      <trkpt lat="45.894408831372857" lon="7.848883448168635">
        <ele>3426.7600000000002</ele>
        <time>2014-07-06T09:02:15Z</time>
      </trkpt>
      <trkpt lat="45.894404137507081" lon="7.848855284973979">
        <ele>3425.3099999999999</ele>
        <time>2014-07-06T09:02:23Z</time>
      </trkpt>
      <trkpt lat="45.894424840807915" lon="7.848720420151949">
        <ele>3422.4299999999998</ele>
        <time>2014-07-06T09:02:36Z</time>
      </trkpt>
      <trkpt lat="45.894434228539467" lon="7.848575999960303">
        <ele>3419.5500000000002</ele>
        <time>2014-07-06T09:02:49Z</time>
      </trkpt>
      <trkpt lat="45.894417967647314" lon="7.848482122644782">
        <ele>3416.1799999999998</ele>
        <time>2014-07-06T09:03:03Z</time>
      </trkpt>
      <trkpt lat="45.894411345943809" lon="7.848486816510558">
        <ele>3415.6999999999998</ele>
        <time>2014-07-06T09:03:04Z</time>
      </trkpt>
      <trkpt lat="45.894345883280039" lon="7.848508944734931">
        <ele>3412.3400000000001</ele>
        <time>2014-07-06T09:03:12Z</time>
      </trkpt>
      <trkpt lat="45.89427120052278" lon="7.848529312759638">
        <ele>3408.9699999999998</ele>
        <time>2014-07-06T09:03:21Z</time>
      </trkpt>
      <trkpt lat="45.894185956567526" lon="7.848554374650121">
        <ele>3406.0900000000001</ele>
        <time>2014-07-06T09:03:31Z</time>
      </trkpt>
      <trkpt lat="45.894102556630969" lon="7.84861832857132">
        <ele>3402.7199999999998</ele>
        <time>2014-07-06T09:03:42Z</time>
      </trkpt>
      <trkpt lat="45.894054025411606" lon="7.84871312789619">
        <ele>3400.3200000000002</ele>
        <time>2014-07-06T09:03:54Z</time>
      </trkpt>
      <trkpt lat="45.894049415364861" lon="7.848757049068809">
        <ele>3399.8400000000001</ele>
        <time>2014-07-06T09:03:59Z</time>
      </trkpt>
      <trkpt lat="45.894052600488067" lon="7.848862409591675">
        <ele>3398.8800000000001</ele>
        <time>2014-07-06T09:04:11Z</time>
      </trkpt>
      <trkpt lat="45.894042961299419" lon="7.848915131762624">
        <ele>3397.9200000000001</ele>
        <time>2014-07-06T09:04:22Z</time>
      </trkpt>
      <trkpt lat="45.894057964906096" lon="7.848998866975308">
        <ele>3395.9899999999998</ele>
        <time>2014-07-06T09:04:29Z</time>
      </trkpt>
      <trkpt lat="45.894057378172874" lon="7.849030550569296">
        <ele>3395.5100000000002</ele>
        <time>2014-07-06T09:04:31Z</time>
      </trkpt>
      <trkpt lat="45.894097611308098" lon="7.849197937175632">
        <ele>3395.5100000000002</ele>
        <time>2014-07-06T09:04:47Z</time>
      </trkpt>
      <trkpt lat="45.89413289912045" lon="7.849325342103839">
        <ele>3395.5100000000002</ele>
        <time>2014-07-06T09:05:03Z</time>
      </trkpt>
      <trkpt lat="45.894130719825625" lon="7.849333807826042">
        <ele>3395.5100000000002</ele>
        <time>2014-07-06T09:05:19Z</time>
      </trkpt>
      <trkpt lat="45.894134156405926" lon="7.84932198934257">
        <ele>3395.0300000000002</ele>
        <time>2014-07-06T09:05:37Z</time>
      </trkpt>
      <trkpt lat="45.894126612693071" lon="7.849332382902503">
        <ele>3395.0300000000002</ele>
        <time>2014-07-06T09:05:55Z</time>
      </trkpt>
      <trkpt lat="45.89412460103631" lon="7.849342776462436">
        <ele>3395.5100000000002</ele>
        <time>2014-07-06T09:06:15Z</time>
      </trkpt>
      <trkpt lat="45.894126109778881" lon="7.849340680986643">
        <ele>3395.5100000000002</ele>
        <time>2014-07-06T09:06:41Z</time>
      </trkpt>
      <trkpt lat="45.894157625734806" lon="7.849471354857087">
        <ele>3395.9899999999998</ele>
        <time>2014-07-06T09:06:54Z</time>
      </trkpt>
      <trkpt lat="45.894187716767192" lon="7.849673610180616">
        <ele>3396.96</ele>
        <time>2014-07-06T09:07:11Z</time>
      </trkpt>
      <trkpt lat="45.894216215237975" lon="7.849802020937204">
        <ele>3396.48</ele>
        <time>2014-07-06T09:07:25Z</time>
      </trkpt>
      <trkpt lat="45.89424236677587" lon="7.849808977916837">
        <ele>3397.4400000000001</ele>
        <time>2014-07-06T09:07:37Z</time>
      </trkpt>
      <trkpt lat="45.894264746457338" lon="7.849838230758905">
        <ele>3395.9899999999998</ele>
        <time>2014-07-06T09:07:50Z</time>
      </trkpt>
      <trkpt lat="45.894312858581543" lon="7.849907130002976">
        <ele>3394.0700000000002</ele>
        <time>2014-07-06T09:08:04Z</time>
      </trkpt>
      <trkpt lat="45.894339177757502" lon="7.849967479705811">
        <ele>3392.6300000000001</ele>
        <time>2014-07-06T09:08:08Z</time>
      </trkpt>
      <trkpt lat="45.894449818879366" lon="7.850158922374249">
        <ele>3390.71</ele>
        <time>2014-07-06T09:08:23Z</time>
      </trkpt>
      <trkpt lat="45.894537828862667" lon="7.850330332294107">
        <ele>3391.1900000000001</ele>
        <time>2014-07-06T09:08:38Z</time>
      </trkpt>
      <trkpt lat="45.894626928493381" lon="7.850506100803614">
        <ele>3392.6300000000001</ele>
        <time>2014-07-06T09:08:54Z</time>
      </trkpt>
      <trkpt lat="45.894703036174178" lon="7.850590841844678">
        <ele>3395.0300000000002</ele>
        <time>2014-07-06T09:09:12Z</time>
      </trkpt>
      <trkpt lat="45.894730780273676" lon="7.850729897618294">
        <ele>3396.48</ele>
        <time>2014-07-06T09:09:29Z</time>
      </trkpt>
      <trkpt lat="45.894716279581189" lon="7.850850261747837">
        <ele>3397.4400000000001</ele>
        <time>2014-07-06T09:09:44Z</time>
      </trkpt>
      <trkpt lat="45.894705047830939" lon="7.850914467126131">
        <ele>3396.96</ele>
        <time>2014-07-06T09:09:50Z</time>
      </trkpt>
      <trkpt lat="45.894710160791874" lon="7.851002309471369">
        <ele>3395.0300000000002</ele>
        <time>2014-07-06T09:09:59Z</time>
      </trkpt>
      <trkpt lat="45.894803870469332" lon="7.851129462942481">
        <ele>3392.6300000000001</ele>
        <time>2014-07-06T09:10:14Z</time>
      </trkpt>
      <trkpt lat="45.894843433052301" lon="7.851146226748824">
        <ele>3392.1500000000001</ele>
        <time>2014-07-06T09:10:19Z</time>
      </trkpt>
      <trkpt lat="45.894878217950463" lon="7.851168857887387">
        <ele>3391.6700000000001</ele>
        <time>2014-07-06T09:10:31Z</time>
      </trkpt>
      <trkpt lat="45.894926162436604" lon="7.851243121549487">
        <ele>3389.27</ele>
        <time>2014-07-06T09:10:46Z</time>
      </trkpt>
      <trkpt lat="45.894924402236938" lon="7.851293161511421">
        <ele>3387.3400000000001</ele>
        <time>2014-07-06T09:10:50Z</time>
      </trkpt>
      <trkpt lat="45.894981482997537" lon="7.851416794583201">
        <ele>3384.46</ele>
        <time>2014-07-06T09:11:04Z</time>
      </trkpt>
      <trkpt lat="45.895067732781172" lon="7.851644027978182">
        <ele>3382.0599999999999</ele>
        <time>2014-07-06T09:11:20Z</time>
      </trkpt>
      <trkpt lat="45.895133949816227" lon="7.851904956623912">
        <ele>3378.6900000000001</ele>
        <time>2014-07-06T09:11:38Z</time>
      </trkpt>
      <trkpt lat="45.895140068605542" lon="7.851994140073657">
        <ele>3377.25</ele>
        <time>2014-07-06T09:11:52Z</time>
      </trkpt>
      <trkpt lat="45.895142331719398" lon="7.852000845596194">
        <ele>3376.77</ele>
        <time>2014-07-06T09:12:11Z</time>
      </trkpt>
      <trkpt lat="45.895125567913055" lon="7.852010317146778">
        <ele>3375.8099999999999</ele>
        <time>2014-07-06T09:12:24Z</time>
      </trkpt>
      <trkpt lat="45.895178792998195" lon="7.85207100212574">
        <ele>3375.8099999999999</ele>
        <time>2014-07-06T09:12:39Z</time>
      </trkpt>
      <trkpt lat="45.895211063325405" lon="7.852099249139428">
        <ele>3375.8099999999999</ele>
        <time>2014-07-06T09:12:46Z</time>
      </trkpt>
      <trkpt lat="45.895257079973817" lon="7.852193880826235">
        <ele>3377.25</ele>
        <time>2014-07-06T09:12:59Z</time>
      </trkpt>
      <trkpt lat="45.89530510827899" lon="7.852239226922393">
        <ele>3378.21</ele>
        <time>2014-07-06T09:13:13Z</time>
      </trkpt>
      <trkpt lat="45.895320195704699" lon="7.852250039577484">
        <ele>3378.21</ele>
        <time>2014-07-06T09:13:15Z</time>
      </trkpt>
      <trkpt lat="45.895357076078653" lon="7.852242412045598">
        <ele>3379.1700000000001</ele>
        <time>2014-07-06T09:13:29Z</time>
      </trkpt>
      <trkpt lat="45.89537987485528" lon="7.852249955758452">
        <ele>3377.73</ele>
        <time>2014-07-06T09:13:42Z</time>
      </trkpt>
      <trkpt lat="45.895386831834912" lon="7.852282058447599">
        <ele>3377.73</ele>
        <time>2014-07-06T09:13:57Z</time>
      </trkpt>
      <trkpt lat="45.89540527202189" lon="7.852327069267631">
        <ele>3377.73</ele>
        <time>2014-07-06T09:14:00Z</time>
      </trkpt>
      <trkpt lat="45.895488252863288" lon="7.852572407573462">
        <ele>3375.3299999999999</ele>
        <time>2014-07-06T09:14:16Z</time>
      </trkpt>
      <trkpt lat="45.895585399121046" lon="7.852836856618524">
        <ele>3373.4000000000001</ele>
        <time>2014-07-06T09:14:35Z</time>
      </trkpt>
      <trkpt lat="45.895648347213864" lon="7.853118237107992">
        <ele>3372.4400000000001</ele>
        <time>2014-07-06T09:14:52Z</time>
      </trkpt>
      <trkpt lat="45.895685646682978" lon="7.853457536548376">
        <ele>3371</ele>
        <time>2014-07-06T09:15:12Z</time>
      </trkpt>
      <trkpt lat="45.895690424367785" lon="7.853724583983421">
        <ele>3368.5999999999999</ele>
        <time>2014-07-06T09:15:27Z</time>
      </trkpt>
      <trkpt lat="45.895681539550424" lon="7.854083916172385">
        <ele>3367.1500000000001</ele>
        <time>2014-07-06T09:15:47Z</time>
      </trkpt>
      <trkpt lat="45.895649688318372" lon="7.854421958327293">
        <ele>3366.6700000000001</ele>
        <time>2014-07-06T09:16:07Z</time>
      </trkpt>
      <trkpt lat="45.895602749660611" lon="7.854640306904912">
        <ele>3365.23</ele>
        <time>2014-07-06T09:16:20Z</time>
      </trkpt>
      <trkpt lat="45.895546339452267" lon="7.854915903881192">
        <ele>3363.79</ele>
        <time>2014-07-06T09:16:37Z</time>
      </trkpt>
      <trkpt lat="45.895502921193838" lon="7.85519921220839">
        <ele>3362.8299999999999</ele>
        <time>2014-07-06T09:16:54Z</time>
      </trkpt>
      <trkpt lat="45.895427567884326" lon="7.855447567999363">
        <ele>3359.9499999999998</ele>
        <time>2014-07-06T09:17:10Z</time>
      </trkpt>
      <trkpt lat="45.895364033058286" lon="7.855767421424389">
        <ele>3357.0599999999999</ele>
        <time>2014-07-06T09:17:27Z</time>
      </trkpt>
      <trkpt lat="45.895294127985835" lon="7.856074701994658">
        <ele>3353.6999999999998</ele>
        <time>2014-07-06T09:17:43Z</time>
      </trkpt>
      <trkpt lat="45.895271245390177" lon="7.856190791353583">
        <ele>3353.2199999999998</ele>
        <time>2014-07-06T09:17:51Z</time>
      </trkpt>
      <trkpt lat="45.895255403593183" lon="7.856278549879789">
        <ele>3351.29</ele>
        <time>2014-07-06T09:17:56Z</time>
      </trkpt>
      <trkpt lat="45.895198741927743" lon="7.856490109115839">
        <ele>3348.4099999999999</ele>
        <time>2014-07-06T09:18:13Z</time>
      </trkpt>
      <trkpt lat="45.895190862938762" lon="7.856509806588292">
        <ele>3348.4099999999999</ele>
        <time>2014-07-06T09:18:15Z</time>
      </trkpt>
      <trkpt lat="45.895166052505374" lon="7.856559762731195">
        <ele>3347.4499999999998</ele>
        <time>2014-07-06T09:18:19Z</time>
      </trkpt>
      <trkpt lat="45.895127160474658" lon="7.856631679460406">
        <ele>3346.4899999999998</ele>
        <time>2014-07-06T09:18:26Z</time>
      </trkpt>
      <trkpt lat="45.895109726116061" lon="7.856648610904813">
        <ele>3346.4899999999998</ele>
        <time>2014-07-06T09:18:28Z</time>
      </trkpt>
      <trkpt lat="45.895066559314728" lon="7.856708876788616">
        <ele>3345.04</ele>
        <time>2014-07-06T09:18:35Z</time>
      </trkpt>
      <trkpt lat="45.894904118031263" lon="7.856836868450046">
        <ele>3342.1599999999999</ele>
        <time>2014-07-06T09:18:52Z</time>
      </trkpt>
      <trkpt lat="45.89478719048202" lon="7.856902414932847">
        <ele>3341.1999999999998</ele>
        <time>2014-07-06T09:19:05Z</time>
      </trkpt>
      <trkpt lat="45.89465961791575" lon="7.856969051063061">
        <ele>3339.7600000000002</ele>
        <time>2014-07-06T09:19:19Z</time>
      </trkpt>
      <trkpt lat="45.89445392601192" lon="7.857015486806631">
        <ele>3338.8000000000002</ele>
        <time>2014-07-06T09:19:38Z</time>
      </trkpt>
      <trkpt lat="45.894206240773201" lon="7.857024623081088">
        <ele>3337.3499999999999</ele>
        <time>2014-07-06T09:19:58Z</time>
      </trkpt>
      <trkpt lat="45.894023515284061" lon="7.857063431292772">
        <ele>3336.3899999999999</ele>
        <time>2014-07-06T09:20:14Z</time>
      </trkpt>
      <trkpt lat="45.893834000453353" lon="7.857155967503786">
        <ele>3334.9499999999998</ele>
        <time>2014-07-06T09:20:32Z</time>
      </trkpt>
      <trkpt lat="45.893681617453694" lon="7.857257639989257">
        <ele>3334.4699999999998</ele>
        <time>2014-07-06T09:20:48Z</time>
      </trkpt>
      <trkpt lat="45.893579022958875" lon="7.857277421280742">
        <ele>3332.0700000000002</ele>
        <time>2014-07-06T09:20:58Z</time>
      </trkpt>
      <trkpt lat="45.893481876701117" lon="7.857290245592594">
        <ele>3331.1100000000001</ele>
        <time>2014-07-06T09:21:06Z</time>
      </trkpt>
      <trkpt lat="45.89330954477191" lon="7.857298543676734">
        <ele>3327.7399999999998</ele>
        <time>2014-07-06T09:21:18Z</time>
      </trkpt>
      <trkpt lat="45.893166633322835" lon="7.857355959713459">
        <ele>3324.3800000000001</ele>
        <time>2014-07-06T09:21:31Z</time>
      </trkpt>
      <trkpt lat="45.893028918653727" lon="7.857373394072056">
        <ele>3320.5300000000002</ele>
        <time>2014-07-06T09:21:43Z</time>
      </trkpt>
      <trkpt lat="45.892911655828357" lon="7.857369119301438">
        <ele>3317.1700000000001</ele>
        <time>2014-07-06T09:21:53Z</time>
      </trkpt>
      <trkpt lat="45.892799254506826" lon="7.857397282496095">
        <ele>3313.8000000000002</ele>
        <time>2014-07-06T09:22:02Z</time>
      </trkpt>
      <trkpt lat="45.89277159422636" lon="7.857397450134158">
        <ele>3312.8400000000001</ele>
        <time>2014-07-06T09:22:04Z</time>
      </trkpt>
      <trkpt lat="45.89267679490149" lon="7.857419662177563">
        <ele>3310.4400000000001</ele>
        <time>2014-07-06T09:22:12Z</time>
      </trkpt>
      <trkpt lat="45.892665395513177" lon="7.857424858957529">
        <ele>3309.96</ele>
        <time>2014-07-06T09:22:13Z</time>
      </trkpt>
      <trkpt lat="45.892580738291144" lon="7.85743860527873">
        <ele>3307.5500000000002</ele>
        <time>2014-07-06T09:22:20Z</time>
      </trkpt>
      <trkpt lat="45.892506139352918" lon="7.857425780966878">
        <ele>3305.1500000000001</ele>
        <time>2014-07-06T09:22:27Z</time>
      </trkpt>
      <trkpt lat="45.892440425232053" lon="7.857449501752853">
        <ele>3303.71</ele>
        <time>2014-07-06T09:22:32Z</time>
      </trkpt>
      <trkpt lat="45.892355097457767" lon="7.857465343549848">
        <ele>3302.27</ele>
        <time>2014-07-06T09:22:39Z</time>
      </trkpt>
      <trkpt lat="45.892182430252433" lon="7.857517143711448">
        <ele>3298.9000000000001</ele>
        <time>2014-07-06T09:22:53Z</time>
      </trkpt>
      <trkpt lat="45.892145717516541" lon="7.857509767636657">
        <ele>3297.46</ele>
        <time>2014-07-06T09:22:57Z</time>
      </trkpt>
      <trkpt lat="45.892149237915874" lon="7.857506163418293">
        <ele>3297.9400000000001</ele>
        <time>2014-07-06T09:22:58Z</time>
      </trkpt>
      <trkpt lat="45.892097940668464" lon="7.857493339106441">
        <ele>3296.98</ele>
        <time>2014-07-06T09:23:03Z</time>
      </trkpt>
      <trkpt lat="45.891935750842094" lon="7.857459727674723">
        <ele>3294.0900000000001</ele>
        <time>2014-07-06T09:23:17Z</time>
      </trkpt>
      <trkpt lat="45.891922423616052" lon="7.857441203668714">
        <ele>3293.1300000000001</ele>
        <time>2014-07-06T09:23:19Z</time>
      </trkpt>
      <trkpt lat="45.891789989545941" lon="7.857447238638997">
        <ele>3289.77</ele>
        <time>2014-07-06T09:23:29Z</time>
      </trkpt>
      <trkpt lat="45.891626542434096" lon="7.857407592236996">
        <ele>3286.4000000000001</ele>
        <time>2014-07-06T09:23:42Z</time>
      </trkpt>
      <trkpt lat="45.891465609893203" lon="7.857336262241006">
        <ele>3285.9200000000001</ele>
        <time>2014-07-06T09:23:57Z</time>
      </trkpt>
      <trkpt lat="45.89129495434463" lon="7.857284462079406">
        <ele>3286.8899999999999</ele>
        <time>2014-07-06T09:24:14Z</time>
      </trkpt>
      <trkpt lat="45.891188671812415" lon="7.857202822342515">
        <ele>3288.3299999999999</ele>
        <time>2014-07-06T09:24:30Z</time>
      </trkpt>
      <trkpt lat="45.891075348481536" lon="7.857136689126492">
        <ele>3288.8099999999999</ele>
        <time>2014-07-06T09:24:44Z</time>
      </trkpt>
      <trkpt lat="45.891060763970017" lon="7.857104670256376">
        <ele>3287.8499999999999</ele>
        <time>2014-07-06T09:24:47Z</time>
      </trkpt>
      <trkpt lat="45.890912907198071" lon="7.8569998126477">
        <ele>3288.3299999999999</ele>
        <time>2014-07-06T09:25:07Z</time>
      </trkpt>
      <trkpt lat="45.890806708484888" lon="7.857004925608635">
        <ele>3289.77</ele>
        <time>2014-07-06T09:25:22Z</time>
      </trkpt>
      <trkpt lat="45.890751304104924" lon="7.857012217864394">
        <ele>3289.77</ele>
        <time>2014-07-06T09:25:29Z</time>
      </trkpt>
      <trkpt lat="45.890738731250167" lon="7.857055803760886">
        <ele>3288.8099999999999</ele>
        <time>2014-07-06T09:25:41Z</time>
      </trkpt>
      <trkpt lat="45.8907491248101" lon="7.857031999155879">
        <ele>3288.8099999999999</ele>
        <time>2014-07-06T09:25:58Z</time>
      </trkpt>
      <trkpt lat="45.890738731250167" lon="7.857039459049702">
        <ele>3288.3299999999999</ele>
        <time>2014-07-06T09:26:31Z</time>
      </trkpt>
      <trkpt lat="45.890749879181385" lon="7.857051445171237">
        <ele>3288.3299999999999</ele>
        <time>2014-07-06T09:27:12Z</time>
      </trkpt>
      <trkpt lat="45.890756836161017" lon="7.857054965570569">
        <ele>3291.6900000000001</ele>
        <time>2014-07-06T09:27:25Z</time>
      </trkpt>
      <trkpt lat="45.890750549733639" lon="7.85704767331481">
        <ele>3288.3299999999999</ele>
        <time>2014-07-06T09:27:26Z</time>
      </trkpt>
      <trkpt lat="45.890720542520285" lon="7.857051361352205">
        <ele>3287.8499999999999</ele>
        <time>2014-07-06T09:27:55Z</time>
      </trkpt>
      <trkpt lat="45.890718530863523" lon="7.857049265876412">
        <ele>3287.8499999999999</ele>
        <time>2014-07-06T09:28:32Z</time>
      </trkpt>
      <trkpt lat="45.890724565833807" lon="7.85705354064703">
        <ele>3288.8099999999999</ele>
        <time>2014-07-06T09:28:55Z</time>
      </trkpt>
      <trkpt lat="45.890729343518615" lon="7.857055636122823">
        <ele>3289.77</ele>
        <time>2014-07-06T09:29:07Z</time>
      </trkpt>
      <trkpt lat="45.890683410689235" lon="7.857005931437016">
        <ele>3289.29</ele>
        <time>2014-07-06T09:29:19Z</time>
      </trkpt>
      <trkpt lat="45.890551311895251" lon="7.857042225077748">
        <ele>3289.77</ele>
        <time>2014-07-06T09:29:38Z</time>
      </trkpt>
      <trkpt lat="45.890469923615456" lon="7.856962596997619">
        <ele>3289.77</ele>
        <time>2014-07-06T09:30:02Z</time>
      </trkpt>
      <trkpt lat="45.890418961644173" lon="7.856939379125834">
        <ele>3289.77</ele>
        <time>2014-07-06T09:30:33Z</time>
      </trkpt>
      <trkpt lat="45.890433797612786" lon="7.85693284124136">
        <ele>3288.8099999999999</ele>
        <time>2014-07-06T09:31:01Z</time>
      </trkpt>
      <trkpt lat="45.890391552820802" lon="7.856981456279755">
        <ele>3288.3299999999999</ele>
        <time>2014-07-06T09:31:24Z</time>
      </trkpt>
      <trkpt lat="45.890396917238832" lon="7.85696754232049">
        <ele>3288.3299999999999</ele>
        <time>2014-07-06T09:31:56Z</time>
      </trkpt>
      <trkpt lat="45.890359366312623" lon="7.856986066326499">
        <ele>3287.8499999999999</ele>
        <time>2014-07-06T09:32:25Z</time>
      </trkpt>
      <trkpt lat="45.890439413487911" lon="7.857011631131172">
        <ele>3287.3699999999999</ele>
        <time>2014-07-06T09:32:58Z</time>
      </trkpt>
      <trkpt lat="45.890527842566371" lon="7.856998555362225">
        <ele>3287.3699999999999</ele>
        <time>2014-07-06T09:33:28Z</time>
      </trkpt>
      <trkpt lat="45.890500182285905" lon="7.856989754363895">
        <ele>3286.8899999999999</ele>
        <time>2014-07-06T09:34:00Z</time>
      </trkpt>
      <trkpt lat="45.890483753755689" lon="7.857031915336847">
        <ele>3285.9200000000001</ele>
        <time>2014-07-06T09:34:39Z</time>
      </trkpt>
      <trkpt lat="45.890475790947676" lon="7.857013139873743">
        <ele>3285.4400000000001</ele>
        <time>2014-07-06T09:35:15Z</time>
      </trkpt>
      <trkpt lat="45.890462379902601" lon="7.857044823467732">
        <ele>3284.96</ele>
        <time>2014-07-06T09:35:50Z</time>
      </trkpt>
      <trkpt lat="45.890445532277226" lon="7.857041973620653">
        <ele>3284.48</ele>
        <time>2014-07-06T09:36:24Z</time>
      </trkpt>
      <trkpt lat="45.890420470386744" lon="7.857024036347866">
        <ele>3284</ele>
        <time>2014-07-06T09:36:58Z</time>
      </trkpt>
      <trkpt lat="45.89043153449893" lon="7.85705303773284">
        <ele>3283.52</ele>
        <time>2014-07-06T09:37:34Z</time>
      </trkpt>
      <trkpt lat="45.890470510348678" lon="7.857017247006297">
        <ele>3283.04</ele>
        <time>2014-07-06T09:38:11Z</time>
      </trkpt>
      <trkpt lat="45.890467660501599" lon="7.857029987499118">
        <ele>3282.5599999999999</ele>
        <time>2014-07-06T09:38:45Z</time>
      </trkpt>
      <trkpt lat="45.890461793169379" lon="7.856997465714812">
        <ele>3282.0799999999999</ele>
        <time>2014-07-06T09:39:15Z</time>
      </trkpt>
      <trkpt lat="45.890394235029817" lon="7.857010457664728">
        <ele>3281.5999999999999</ele>
        <time>2014-07-06T09:39:42Z</time>
      </trkpt>
      <trkpt lat="45.890405802056193" lon="7.856989838182926">
        <ele>3281.1199999999999</ele>
        <time>2014-07-06T09:40:15Z</time>
      </trkpt>
      <trkpt lat="45.890422901138663" lon="7.857040464878082">
        <ele>3281.1199999999999</ele>
        <time>2014-07-06T09:40:48Z</time>
      </trkpt>
      <trkpt lat="45.89044569991529" lon="7.857045829296112">
        <ele>3280.6399999999999</ele>
        <time>2014-07-06T09:41:21Z</time>
      </trkpt>
      <trkpt lat="45.890466403216124" lon="7.857065107673407">
        <ele>3280.6399999999999</ele>
        <time>2014-07-06T09:42:03Z</time>
      </trkpt>
      <trkpt lat="45.89047403074801" lon="7.857067957520485">
        <ele>3280.6399999999999</ele>
        <time>2014-07-06T09:42:43Z</time>
      </trkpt>
      <trkpt lat="45.890481825917959" lon="7.857063012197614">
        <ele>3280.6399999999999</ele>
        <time>2014-07-06T09:43:10Z</time>
      </trkpt>
      <trkpt lat="45.89046087116003" lon="7.85700567997992">
        <ele>3281.1199999999999</ele>
        <time>2014-07-06T09:43:34Z</time>
      </trkpt>
      <trkpt lat="45.890458440408111" lon="7.856973493471742">
        <ele>3280.1599999999999</ele>
        <time>2014-07-06T09:44:00Z</time>
      </trkpt>
      <trkpt lat="45.890497416257858" lon="7.857041470706463">
        <ele>3279.1900000000001</ele>
        <time>2014-07-06T09:44:10Z</time>
      </trkpt>
    </trkseg>
  </trk>

</gpx>